<?xml version='1.0' encoding='UTF-8'?><gpx version="1.1" creator="JPX - https://github.com/jenetics/jpx" xmlns="http://www.topografix.com/GPX/1/1"><trk><trkseg><trkpt lat="41.81805409908487" lon="16.148239113534043"><ele>219.2</ele><time>2026-04-19T07:59:38.003Z</time></trkpt><trkpt lat="41.817978779318615" lon="16.148194998470085"><ele>218.4</ele><time>2026-04-19T07:59:40.003Z</time></trkpt><trkpt lat="41.81788934372513" lon="16.148119661706982"><ele>217.60000000000002</ele><time>2026-04-19T07:59:42.003Z</time></trkpt><trkpt lat="41.81779457482283" lon="16.14804722993761"><ele>216.8</ele><time>2026-04-19T07:59:44.003Z</time></trkpt><trkpt lat="41.81769462038302" lon="16.147974771886233"><ele>216.0</ele><time>2026-04-19T07:59:45.003Z</time></trkpt><trkpt lat="41.81761122485776" lon="16.1478945644923"><ele>216.0</ele><time>2026-04-19T07:59:46.003Z</time></trkpt><trkpt lat="41.81753709632746" lon="16.147834923604364"><ele>216.0</ele><time>2026-04-19T07:59:47.003Z</time></trkpt><trkpt lat="41.817459200818995" lon="16.147766235961935"><ele>216.0</ele><time>2026-04-19T07:59:48.003Z</time></trkpt><trkpt lat="41.81738189600714" lon="16.14770924431542"><ele>216.0</ele><time>2026-04-19T07:59:49.003Z</time></trkpt><trkpt lat="41.817303790259885" lon="16.147658302569734"><ele>216.0</ele><time>2026-04-19T07:59:50.003Z</time></trkpt><trkpt lat="41.8172288396578" lon="16.147609626179523"><ele>216.0</ele><time>2026-04-19T07:59:51.003Z</time></trkpt><trkpt lat="41.81715117194723" lon="16.147562748185532"><ele>216.0</ele><time>2026-04-19T07:59:52.003Z</time></trkpt><trkpt lat="41.817066933314415" lon="16.14750152313202"><ele>216.0</ele><time>2026-04-19T07:59:53.003Z</time></trkpt><trkpt lat="41.816998466997866" lon="16.147453831744514"><ele>216.0</ele><time>2026-04-19T07:59:54.003Z</time></trkpt><trkpt lat="41.8169253600766" lon="16.147403757102303"><ele>216.0</ele><time>2026-04-19T07:59:55.003Z</time></trkpt><trkpt lat="41.81685478186348" lon="16.147348772524396"><ele>216.0</ele><time>2026-04-19T07:59:56.003Z</time></trkpt><trkpt lat="41.81678473745828" lon="16.147289226147528"><ele>216.0</ele><time>2026-04-19T07:59:57.003Z</time></trkpt><trkpt lat="41.81671521974367" lon="16.147225117337104"><ele>213.66666666666666</ele><time>2026-04-19T07:59:58.003Z</time></trkpt><trkpt lat="41.81664750009335" lon="16.14717094864035"><ele>211.33333333333331</ele><time>2026-04-19T07:59:59.003Z</time></trkpt><trkpt lat="41.81657600968791" lon="16.14710975251078"><ele>209.0</ele><time>2026-04-19T08:00:00.003Z</time></trkpt><trkpt lat="41.81651615958025" lon="16.147044305315056"><ele>206.66666666666666</ele><time>2026-04-19T08:00:01.003Z</time></trkpt><trkpt lat="41.81645543809342" lon="16.14699330715227"><ele>204.33333333333331</ele><time>2026-04-19T08:00:02.003Z</time></trkpt><trkpt lat="41.81638517663451" lon="16.146959407693075"><ele>202.0</ele><time>2026-04-19T08:00:03.004Z</time></trkpt><trkpt lat="41.81632227778813" lon="16.146942892784903"><ele>201.99999999999997</ele><time>2026-04-19T08:00:04.004Z</time></trkpt><trkpt lat="41.81625581511518" lon="16.146952537153815"><ele>202.0</ele><time>2026-04-19T08:00:05.004Z</time></trkpt><trkpt lat="41.81613793057791" lon="16.147030679927795"><ele>202.0</ele><time>2026-04-19T08:00:07.004Z</time></trkpt><trkpt lat="41.81606625691826" lon="16.147096658355856"><ele>202.0</ele><time>2026-04-19T08:00:08.004Z</time></trkpt><trkpt lat="41.81599840375053" lon="16.147154061415662"><ele>201.99999999999997</ele><time>2026-04-19T08:00:09.004Z</time></trkpt><trkpt lat="41.81592363670813" lon="16.14720363122631"><ele>202.0</ele><time>2026-04-19T08:00:10.004Z</time></trkpt><trkpt lat="41.815847150347835" lon="16.14722928932464"><ele>201.83333333333331</ele><time>2026-04-19T08:00:11.004Z</time></trkpt><trkpt lat="41.81576664363185" lon="16.14725750421909"><ele>201.66666666666666</ele><time>2026-04-19T08:00:12.004Z</time></trkpt><trkpt lat="41.815691942054436" lon="16.147255757218797"><ele>201.5</ele><time>2026-04-19T08:00:13.004Z</time></trkpt><trkpt lat="41.81560161768013" lon="16.14723950021848"><ele>201.33333333333331</ele><time>2026-04-19T08:00:14.004Z</time></trkpt><trkpt lat="41.81551866931127" lon="16.147198380385557"><ele>201.16666666666666</ele><time>2026-04-19T08:00:15.004Z</time></trkpt><trkpt lat="41.815434805109575" lon="16.147150315965007"><ele>201.0</ele><time>2026-04-19T08:00:16.004Z</time></trkpt><trkpt lat="41.81535462322814" lon="16.147100394220143"><ele>201.0</ele><time>2026-04-19T08:00:17.004Z</time></trkpt><trkpt lat="41.815272991532" lon="16.147057018364247"><ele>201.0</ele><time>2026-04-19T08:00:18.004Z</time></trkpt><trkpt lat="41.8151986220362" lon="16.147000493679936"><ele>201.0</ele><time>2026-04-19T08:00:19.004Z</time></trkpt><trkpt lat="41.81513759789525" lon="16.146959495316356"><ele>201.0</ele><time>2026-04-19T08:00:20.004Z</time></trkpt><trkpt lat="41.81508182929746" lon="16.146916626450736"><ele>201.0</ele><time>2026-04-19T08:00:21.004Z</time></trkpt><trkpt lat="41.81502772467093" lon="16.146860786108075"><ele>201.0</ele><time>2026-04-19T08:00:22.004Z</time></trkpt><trkpt lat="41.81496987455495" lon="16.146796281369653"><ele>201.0</ele><time>2026-04-19T08:00:23.004Z</time></trkpt><trkpt lat="41.81493512362905" lon="16.146713678812613"><ele>202.8</ele><time>2026-04-19T08:00:24.004Z</time></trkpt><trkpt lat="41.81490531478129" lon="16.14656661037754"><ele>204.60000000000002</ele><time>2026-04-19T08:00:26.004Z</time></trkpt><trkpt lat="41.81489288556499" lon="16.14647823492858"><ele>206.4</ele><time>2026-04-19T08:00:27.004Z</time></trkpt><trkpt lat="41.81487295557093" lon="16.14633594617594"><ele>208.2</ele><time>2026-04-19T08:00:29.004Z</time></trkpt><trkpt lat="41.81483528683425" lon="16.146193398863822"><ele>210.0</ele><time>2026-04-19T08:00:31.004Z</time></trkpt><trkpt lat="41.81480502123094" lon="16.146057399257643"><ele>211.33333333333334</ele><time>2026-04-19T08:00:33.004Z</time></trkpt><trkpt lat="41.81477498089909" lon="16.14591674452187"><ele>212.66666666666669</ele><time>2026-04-19T08:00:35.004Z</time></trkpt><trkpt lat="41.81476468874819" lon="16.14577732423322"><ele>214.0</ele><time>2026-04-19T08:00:37.004Z</time></trkpt><trkpt lat="41.81475278490353" lon="16.14569376105365"><ele>215.33333333333334</ele><time>2026-04-19T08:00:38.004Z</time></trkpt><trkpt lat="41.814740723376126" lon="16.14560619501172"><ele>216.66666666666669</ele><time>2026-04-19T08:00:39.004Z</time></trkpt><trkpt lat="41.81472193453013" lon="16.145513555998225"><ele>218.0</ele><time>2026-04-19T08:00:40.004Z</time></trkpt><trkpt lat="41.8146952817635" lon="16.14542498861119"><ele>221.16666666666669</ele><time>2026-04-19T08:00:41.004Z</time></trkpt><trkpt lat="41.81464873294292" lon="16.145265489439456"><ele>224.33333333333334</ele><time>2026-04-19T08:00:43.004Z</time></trkpt><trkpt lat="41.814619721017195" lon="16.14516804123948"><ele>227.5</ele><time>2026-04-19T08:00:44.005Z</time></trkpt><trkpt lat="41.81457843136632" lon="16.145084186468008"><ele>230.66666666666669</ele><time>2026-04-19T08:00:45.002Z</time></trkpt><trkpt lat="41.81453879888263" lon="16.144995020134868"><ele>233.83333333333334</ele><time>2026-04-19T08:00:46.002Z</time></trkpt><trkpt lat="41.814501061844275" lon="16.144910150063225"><ele>237.0</ele><time>2026-04-19T08:00:47.002Z</time></trkpt><trkpt lat="41.81446603203611" lon="16.14481681529073"><ele>239.33333333333334</ele><time>2026-04-19T08:00:48.002Z</time></trkpt><trkpt lat="41.81443441485893" lon="16.144729585074135"><ele>241.66666666666669</ele><time>2026-04-19T08:00:49.002Z</time></trkpt><trkpt lat="41.81442239035499" lon="16.14463588573444"><ele>244.0</ele><time>2026-04-19T08:00:50.002Z</time></trkpt><trkpt lat="41.81441397082508" lon="16.144532880292623"><ele>246.33333333333334</ele><time>2026-04-19T08:00:51.001Z</time></trkpt><trkpt lat="41.81442984985897" lon="16.14440519175202"><ele>248.66666666666669</ele><time>2026-04-19T08:00:53.002Z</time></trkpt><trkpt lat="41.814472861216785" lon="16.14426181392923"><ele>251.0</ele><time>2026-04-19T08:00:55.002Z</time></trkpt><trkpt lat="41.81451956390917" lon="16.144160606741682"><ele>251.00000000000003</ele><time>2026-04-19T08:00:56.002Z</time></trkpt><trkpt lat="41.8145331786307" lon="16.144061791127214"><ele>251.0</ele><time>2026-04-19T08:00:57.001Z</time></trkpt><trkpt lat="41.8145517490231" lon="16.14395922422517"><ele>251.0</ele><time>2026-04-19T08:00:58.002Z</time></trkpt><trkpt lat="41.814576555726056" lon="16.143842813424783"><ele>251.0</ele><time>2026-04-19T08:00:59.002Z</time></trkpt><trkpt lat="41.814600952021635" lon="16.14373381131126"><ele>251.00000000000003</ele><time>2026-04-19T08:01:00.002Z</time></trkpt><trkpt lat="41.81462046921457" lon="16.14363000925357"><ele>251.0</ele><time>2026-04-19T08:01:01.002Z</time></trkpt><trkpt lat="41.8146495718621" lon="16.143528187611082"><ele>251.20000000000002</ele><time>2026-04-19T08:01:02.002Z</time></trkpt><trkpt lat="41.81466641362815" lon="16.14342393448211"><ele>251.40000000000003</ele><time>2026-04-19T08:01:03.002Z</time></trkpt><trkpt lat="41.81469474268882" lon="16.14330704382788"><ele>251.6</ele><time>2026-04-19T08:01:04.002Z</time></trkpt><trkpt lat="41.81473779459557" lon="16.143196798808656"><ele>251.8</ele><time>2026-04-19T08:01:05.002Z</time></trkpt><trkpt lat="41.8147889937054" lon="16.143087943469652"><ele>252.0</ele><time>2026-04-19T08:01:06.002Z</time></trkpt><trkpt lat="41.81485382976219" lon="16.142999130478877"><ele>251.33333333333334</ele><time>2026-04-19T08:01:07.002Z</time></trkpt><trkpt lat="41.814921121957525" lon="16.142934349405195"><ele>250.66666666666669</ele><time>2026-04-19T08:01:08.002Z</time></trkpt><trkpt lat="41.81499366386041" lon="16.14285115744396"><ele>250.0</ele><time>2026-04-19T08:01:09.002Z</time></trkpt><trkpt lat="41.815058660883444" lon="16.142762011175964"><ele>249.33333333333334</ele><time>2026-04-19T08:01:10.002Z</time></trkpt><trkpt lat="41.81511059740854" lon="16.142680318516188"><ele>248.66666666666669</ele><time>2026-04-19T08:01:11.002Z</time></trkpt><trkpt lat="41.815153315073346" lon="16.142595516054595"><ele>248.0</ele><time>2026-04-19T08:01:12.002Z</time></trkpt><trkpt lat="41.81519644738414" lon="16.142504570526174"><ele>253.50000000000003</ele><time>2026-04-19T08:01:13.002Z</time></trkpt><trkpt lat="41.81525458223427" lon="16.14241677342881"><ele>259.0</ele><time>2026-04-19T08:01:14.002Z</time></trkpt><trkpt lat="41.8153088300444" lon="16.14233348238572"><ele>264.5</ele><time>2026-04-19T08:01:15.002Z</time></trkpt><trkpt lat="41.81536752764462" lon="16.142253881419364"><ele>270.0</ele><time>2026-04-19T08:01:16.002Z</time></trkpt><trkpt lat="41.81541787649942" lon="16.142180233316484"><ele>275.5</ele><time>2026-04-19T08:01:17.002Z</time></trkpt><trkpt lat="41.8154654404417" lon="16.142100006856328"><ele>281.0</ele><time>2026-04-19T08:01:18.002Z</time></trkpt><trkpt lat="41.81550637099564" lon="16.142009197362434"><ele>281.0</ele><time>2026-04-19T08:01:19.002Z</time></trkpt><trkpt lat="41.81553627141251" lon="16.141906949332906"><ele>281.0</ele><time>2026-04-19T08:01:20.002Z</time></trkpt><trkpt lat="41.81557145561514" lon="16.14179894650485"><ele>281.0</ele><time>2026-04-19T08:01:21.002Z</time></trkpt><trkpt lat="41.81558872384052" lon="16.141674423713056"><ele>281.0</ele><time>2026-04-19T08:01:22.003Z</time></trkpt><trkpt lat="41.81560376101579" lon="16.141540856997704"><ele>281.0</ele><time>2026-04-19T08:01:23.003Z</time></trkpt><trkpt lat="41.815620187098325" lon="16.141411382559287"><ele>282.2</ele><time>2026-04-19T08:01:24.003Z</time></trkpt><trkpt lat="41.815618579400265" lon="16.141289475581054"><ele>283.40000000000003</ele><time>2026-04-19T08:01:25.003Z</time></trkpt><trkpt lat="41.81562170351309" lon="16.141169809363078"><ele>284.6</ele><time>2026-04-19T08:01:26.003Z</time></trkpt><trkpt lat="41.81562509841675" lon="16.141051423507218"><ele>285.8</ele><time>2026-04-19T08:01:27.003Z</time></trkpt><trkpt lat="41.81563354000705" lon="16.140930156680437"><ele>287.0</ele><time>2026-04-19T08:01:28.003Z</time></trkpt><trkpt lat="41.81564563110807" lon="16.140809023111316"><ele>288.4</ele><time>2026-04-19T08:01:29.003Z</time></trkpt><trkpt lat="41.81564800159897" lon="16.14068535032941"><ele>289.79999999999995</ele><time>2026-04-19T08:01:30.003Z</time></trkpt><trkpt lat="41.81564483613246" lon="16.140560766337167"><ele>291.2</ele><time>2026-04-19T08:01:31.003Z</time></trkpt><trkpt lat="41.81564491730508" lon="16.140441681969623"><ele>292.59999999999997</ele><time>2026-04-19T08:01:32.003Z</time></trkpt><trkpt lat="41.81564977490277" lon="16.140319898620024"><ele>294.0</ele><time>2026-04-19T08:01:33.003Z</time></trkpt><trkpt lat="41.81565173864145" lon="16.140206124405534"><ele>294.0</ele><time>2026-04-19T08:01:34.003Z</time></trkpt><trkpt lat="41.815663201180605" lon="16.14008159946119"><ele>294.0</ele><time>2026-04-19T08:01:35.003Z</time></trkpt><trkpt lat="41.815668076995635" lon="16.139953801355716"><ele>294.0</ele><time>2026-04-19T08:01:36.003Z</time></trkpt><trkpt lat="41.81566451834096" lon="16.139841858776837"><ele>294.0</ele><time>2026-04-19T08:01:37.003Z</time></trkpt><trkpt lat="41.81565070744421" lon="16.139735021726903"><ele>294.0</ele><time>2026-04-19T08:01:38.003Z</time></trkpt><trkpt lat="41.81562644585487" lon="16.139647387844626"><ele>294.0</ele><time>2026-04-19T08:01:39.003Z</time></trkpt><trkpt lat="41.81555670615742" lon="16.139528318564743"><ele>295.8</ele><time>2026-04-19T08:01:41.003Z</time></trkpt><trkpt lat="41.81547574872527" lon="16.13943273244935"><ele>297.59999999999997</ele><time>2026-04-19T08:01:43.003Z</time></trkpt><trkpt lat="41.815420443058095" lon="16.139369378464668"><ele>299.4</ele><time>2026-04-19T08:01:44.003Z</time></trkpt><trkpt lat="41.815344554491894" lon="16.139299025721243"><ele>301.2</ele><time>2026-04-19T08:01:45.003Z</time></trkpt><trkpt lat="41.815264073871695" lon="16.139239018628864"><ele>303.0</ele><time>2026-04-19T08:01:46.003Z</time></trkpt><trkpt lat="41.81519242136738" lon="16.139175881592372"><ele>301.8333333333333</ele><time>2026-04-19T08:01:47.003Z</time></trkpt><trkpt lat="41.81511006198061" lon="16.139093497993805"><ele>300.6666666666667</ele><time>2026-04-19T08:01:48.003Z</time></trkpt><trkpt lat="41.81504234806077" lon="16.139016599288475"><ele>299.5</ele><time>2026-04-19T08:01:49.003Z</time></trkpt><trkpt lat="41.8149813321972" lon="16.138944676587382"><ele>298.33333333333337</ele><time>2026-04-19T08:01:50.003Z</time></trkpt><trkpt lat="41.814916646854286" lon="16.138872408179754"><ele>297.1666666666667</ele><time>2026-04-19T08:01:51.003Z</time></trkpt><trkpt lat="41.814849681957135" lon="16.13880624209428"><ele>296.0</ele><time>2026-04-19T08:01:52.003Z</time></trkpt><trkpt lat="41.8147751644164" lon="16.13874041061959"><ele>301.0</ele><time>2026-04-19T08:01:53.003Z</time></trkpt><trkpt lat="41.81469721273358" lon="16.138660662879545"><ele>306.0</ele><time>2026-04-19T08:01:54.003Z</time></trkpt><trkpt lat="41.81461426307688" lon="16.138558370732547"><ele>311.0</ele><time>2026-04-19T08:01:55.003Z</time></trkpt><trkpt lat="41.81456390408984" lon="16.1384564213841"><ele>316.0</ele><time>2026-04-19T08:01:56.003Z</time></trkpt><trkpt lat="41.814532322317056" lon="16.138366985566527"><ele>321.0</ele><time>2026-04-19T08:01:57.003Z</time></trkpt><trkpt lat="41.81451520292251" lon="16.138268598146965"><ele>322.1666666666667</ele><time>2026-04-19T08:01:58.003Z</time></trkpt><trkpt lat="41.814445745470266" lon="16.13811866980874"><ele>323.3333333333333</ele><time>2026-04-19T08:02:00.003Z</time></trkpt><trkpt lat="41.81439117514436" lon="16.13804952314077"><ele>324.5</ele><time>2026-04-19T08:02:01.003Z</time></trkpt><trkpt lat="41.81434318478846" lon="16.137973084012298"><ele>325.66666666666663</ele><time>2026-04-19T08:02:02.003Z</time></trkpt><trkpt lat="41.81429849522455" lon="16.137890764512758"><ele>326.8333333333333</ele><time>2026-04-19T08:02:03.004Z</time></trkpt><trkpt lat="41.81425668146385" lon="16.137825064230555"><ele>328.0</ele><time>2026-04-19T08:02:04.004Z</time></trkpt><trkpt lat="41.81419984011789" lon="16.137748556729047"><ele>328.0</ele><time>2026-04-19T08:02:05.004Z</time></trkpt><trkpt lat="41.81414452881706" lon="16.137659108451288"><ele>328.0</ele><time>2026-04-19T08:02:06.004Z</time></trkpt><trkpt lat="41.814092162498845" lon="16.137572846991013"><ele>328.0</ele><time>2026-04-19T08:02:07.004Z</time></trkpt><trkpt lat="41.814029017419564" lon="16.137476684429558"><ele>328.0</ele><time>2026-04-19T08:02:08.004Z</time></trkpt><trkpt lat="41.813971383776085" lon="16.137381671645887"><ele>328.0</ele><time>2026-04-19T08:02:09.004Z</time></trkpt><trkpt lat="41.81391464007879" lon="16.137310023073887"><ele>328.0</ele><time>2026-04-19T08:02:10.004Z</time></trkpt><trkpt lat="41.81385519754087" lon="16.13724249614861"><ele>331.16666666666663</ele><time>2026-04-19T08:02:11.004Z</time></trkpt><trkpt lat="41.81379834624953" lon="16.13718825545239"><ele>334.3333333333333</ele><time>2026-04-19T08:02:12.004Z</time></trkpt><trkpt lat="41.813699676760834" lon="16.13713325227261"><ele>337.5</ele><time>2026-04-19T08:02:14.004Z</time></trkpt><trkpt lat="41.8135803894926" lon="16.137090358632538"><ele>340.6666666666667</ele><time>2026-04-19T08:02:16.004Z</time></trkpt><trkpt lat="41.81351257805251" lon="16.137086549820594"><ele>343.83333333333337</ele><time>2026-04-19T08:02:17.004Z</time></trkpt><trkpt lat="41.81344203189303" lon="16.137068889132195"><ele>347.0</ele><time>2026-04-19T08:02:18.004Z</time></trkpt><trkpt lat="41.813359690448294" lon="16.137076953938582"><ele>347.0</ele><time>2026-04-19T08:02:19.004Z</time></trkpt><trkpt lat="41.81329512731592" lon="16.137077924059483"><ele>347.0</ele><time>2026-04-19T08:02:20.004Z</time></trkpt><trkpt lat="41.81321389973923" lon="16.13707508560418"><ele>347.0</ele><time>2026-04-19T08:02:21.004Z</time></trkpt><trkpt lat="41.81315183278384" lon="16.137049156337657"><ele>347.0</ele><time>2026-04-19T08:02:22.004Z</time></trkpt><trkpt lat="41.81303759722864" lon="16.136954526142464"><ele>347.0</ele><time>2026-04-19T08:02:24.004Z</time></trkpt><trkpt lat="41.81298124706242" lon="16.136901126474825"><ele>347.0</ele><time>2026-04-19T08:02:25.004Z</time></trkpt><trkpt lat="41.812931064372584" lon="16.136832846278885"><ele>347.0</ele><time>2026-04-19T08:02:26.004Z</time></trkpt><trkpt lat="41.81287666495637" lon="16.13677660895659"><ele>347.0</ele><time>2026-04-19T08:02:27.004Z</time></trkpt><trkpt lat="41.812831007883176" lon="16.136713966240222"><ele>347.0</ele><time>2026-04-19T08:02:28.004Z</time></trkpt><trkpt lat="41.81275731622102" lon="16.1365676891857"><ele>347.0</ele><time>2026-04-19T08:02:30.004Z</time></trkpt><trkpt lat="41.812741262900715" lon="16.136466115118168"><ele>347.0</ele><time>2026-04-19T08:02:31.004Z</time></trkpt><trkpt lat="41.81273215461872" lon="16.136375482616277"><ele>347.0</ele><time>2026-04-19T08:02:32.004Z</time></trkpt><trkpt lat="41.812731285304864" lon="16.13628518018867"><ele>350.5</ele><time>2026-04-19T08:02:33.004Z</time></trkpt><trkpt lat="41.81273418170194" lon="16.136178981866994"><ele>354.0</ele><time>2026-04-19T08:02:35.004Z</time></trkpt><trkpt lat="41.81271964083786" lon="16.136075954156638"><ele>357.5</ele><time>2026-04-19T08:02:37.004Z</time></trkpt><trkpt lat="41.81272169939446" lon="16.135958410554547"><ele>361.0</ele><time>2026-04-19T08:02:39.004Z</time></trkpt><trkpt lat="41.81273552051769" lon="16.135848799503037"><ele>364.5</ele><time>2026-04-19T08:02:41.004Z</time></trkpt><trkpt lat="41.812740471351795" lon="16.13570192616151"><ele>368.0</ele><time>2026-04-19T08:02:43.004Z</time></trkpt><trkpt lat="41.812756135153506" lon="16.1355505681525"><ele>369.4</ele><time>2026-04-19T08:02:45.005Z</time></trkpt><trkpt lat="41.81275026560005" lon="16.13546485575272"><ele>370.79999999999995</ele><time>2026-04-19T08:02:46.005Z</time></trkpt><trkpt lat="41.8127405302935" lon="16.135309106486755"><ele>372.2</ele><time>2026-04-19T08:02:48.005Z</time></trkpt><trkpt lat="41.81271807648442" lon="16.13515778225504"><ele>373.6</ele><time>2026-04-19T08:02:50.005Z</time></trkpt><trkpt lat="41.81269218172268" lon="16.134983292517198"><ele>375.0</ele><time>2026-04-19T08:02:52.002Z</time></trkpt><trkpt lat="41.81267261258903" lon="16.134869304641345"><ele>374.4</ele><time>2026-04-19T08:02:53.002Z</time></trkpt><trkpt lat="41.81264513351959" lon="16.13474893302173"><ele>373.8</ele><time>2026-04-19T08:02:54.002Z</time></trkpt><trkpt lat="41.812593178638515" lon="16.134650552313936"><ele>373.20000000000005</ele><time>2026-04-19T08:02:55.002Z</time></trkpt><trkpt lat="41.81253433135911" lon="16.1345684633578"><ele>372.6</ele><time>2026-04-19T08:02:56.002Z</time></trkpt><trkpt lat="41.8124657068774" lon="16.13448730729935"><ele>372.0</ele><time>2026-04-19T08:02:57.002Z</time></trkpt><trkpt lat="41.812395404419064" lon="16.134411182422987"><ele>372.0</ele><time>2026-04-19T08:02:58.002Z</time></trkpt><trkpt lat="41.81233070663524" lon="16.134345954745307"><ele>372.0</ele><time>2026-04-19T08:02:59.002Z</time></trkpt><trkpt lat="41.812267539422805" lon="16.13428185379658"><ele>372.0</ele><time>2026-04-19T08:03:00.002Z</time></trkpt><trkpt lat="41.81221027765517" lon="16.134230842102486"><ele>372.0</ele><time>2026-04-19T08:03:01.002Z</time></trkpt><trkpt lat="41.81215161511999" lon="16.134190724268798"><ele>372.0</ele><time>2026-04-19T08:03:02.002Z</time></trkpt><trkpt lat="41.81209425849929" lon="16.13413842482271"><ele>372.0</ele><time>2026-04-19T08:03:03.002Z</time></trkpt><trkpt lat="41.812003200739596" lon="16.134006171952148"><ele>374.40000000000003</ele><time>2026-04-19T08:03:05.002Z</time></trkpt><trkpt lat="41.8119507971324" lon="16.133917117374924"><ele>376.8</ele><time>2026-04-19T08:03:06.002Z</time></trkpt><trkpt lat="41.811868203795214" lon="16.133838167919876"><ele>379.2</ele><time>2026-04-19T08:03:07.002Z</time></trkpt><trkpt lat="41.811784790656255" lon="16.133782248005677"><ele>381.6</ele><time>2026-04-19T08:03:08.002Z</time></trkpt><trkpt lat="41.81169971582127" lon="16.133747303951427"><ele>384.0</ele><time>2026-04-19T08:03:09.002Z</time></trkpt><trkpt lat="41.811596869693965" lon="16.133733958185374"><ele>384.0</ele><time>2026-04-19T08:03:10.002Z</time></trkpt><trkpt lat="41.81149263866609" lon="16.133698009010725"><ele>384.0</ele><time>2026-04-19T08:03:11.002Z</time></trkpt><trkpt lat="41.81140238186947" lon="16.13363936449362"><ele>384.0</ele><time>2026-04-19T08:03:12.002Z</time></trkpt><trkpt lat="41.81132809806349" lon="16.133555706177898"><ele>384.0</ele><time>2026-04-19T08:03:13.002Z</time></trkpt><trkpt lat="41.811260675648775" lon="16.133460973820526"><ele>384.0</ele><time>2026-04-19T08:03:14.002Z</time></trkpt><trkpt lat="41.81120572275801" lon="16.13338602264535"><ele>384.0</ele><time>2026-04-19T08:03:15.002Z</time></trkpt><trkpt lat="41.81115363881002" lon="16.133323417124057"><ele>384.0</ele><time>2026-04-19T08:03:16.002Z</time></trkpt><trkpt lat="41.81109084757866" lon="16.13324510443499"><ele>384.0</ele><time>2026-04-19T08:03:17.002Z</time></trkpt><trkpt lat="41.811034078177705" lon="16.13317910295911"><ele>384.0</ele><time>2026-04-19T08:03:18.002Z</time></trkpt><trkpt lat="41.810966218633915" lon="16.133110943463624"><ele>384.0</ele><time>2026-04-19T08:03:19.002Z</time></trkpt><trkpt lat="41.81091643774531" lon="16.133044730375193"><ele>384.0</ele><time>2026-04-19T08:03:20.002Z</time></trkpt><trkpt lat="41.810870027974396" lon="16.1329766813771"><ele>385.5</ele><time>2026-04-19T08:03:21.002Z</time></trkpt><trkpt lat="41.81082164480288" lon="16.13290455439293"><ele>387.0</ele><time>2026-04-19T08:03:22.002Z</time></trkpt><trkpt lat="41.81076771470932" lon="16.132837209983517"><ele>388.5</ele><time>2026-04-19T08:03:23.002Z</time></trkpt><trkpt lat="41.810699444257615" lon="16.132763232118887"><ele>390.0</ele><time>2026-04-19T08:03:24.002Z</time></trkpt><trkpt lat="41.81062472654394" lon="16.132679287322308"><ele>391.5</ele><time>2026-04-19T08:03:25.002Z</time></trkpt><trkpt lat="41.810571875913844" lon="16.132597728638345"><ele>393.0</ele><time>2026-04-19T08:03:26.002Z</time></trkpt><trkpt lat="41.81050881804282" lon="16.132530904574402"><ele>393.0</ele><time>2026-04-19T08:03:27.002Z</time></trkpt><trkpt lat="41.810445308169086" lon="16.132459997309528"><ele>393.0</ele><time>2026-04-19T08:03:28.002Z</time></trkpt><trkpt lat="41.81038288901347" lon="16.13237687295772"><ele>393.0</ele><time>2026-04-19T08:03:29.002Z</time></trkpt><trkpt lat="41.81032837327297" lon="16.132301635395628"><ele>393.0</ele><time>2026-04-19T08:03:30.002Z</time></trkpt><trkpt lat="41.81027434174375" lon="16.13222812004304"><ele>393.0</ele><time>2026-04-19T08:03:31.002Z</time></trkpt><trkpt lat="41.81020630691275" lon="16.132167025377726"><ele>393.0</ele><time>2026-04-19T08:03:32.002Z</time></trkpt><trkpt lat="41.81015296121493" lon="16.132121400502843"><ele>393.0</ele><time>2026-04-19T08:03:33.002Z</time></trkpt><trkpt lat="41.8100620549539" lon="16.132053192977402"><ele>393.0</ele><time>2026-04-19T08:03:35.002Z</time></trkpt><trkpt lat="41.80998314643568" lon="16.132002147620955"><ele>393.0</ele><time>2026-04-19T08:03:37.002Z</time></trkpt><trkpt lat="41.809909211763376" lon="16.131879151829178"><ele>393.0</ele><time>2026-04-19T08:03:39.003Z</time></trkpt><trkpt lat="41.809855957150454" lon="16.131790824323062"><ele>393.0</ele><time>2026-04-19T08:03:40.003Z</time></trkpt><trkpt lat="41.80981480867443" lon="16.131710048388385"><ele>393.0</ele><time>2026-04-19T08:03:41.003Z</time></trkpt><trkpt lat="41.809774130745225" lon="16.131628994982393"><ele>393.0</ele><time>2026-04-19T08:03:42.003Z</time></trkpt><trkpt lat="41.80973252248176" lon="16.131543716700307"><ele>393.0</ele><time>2026-04-19T08:03:44.003Z</time></trkpt><trkpt lat="41.809687583012035" lon="16.131468909088802"><ele>393.0</ele><time>2026-04-19T08:03:46.003Z</time></trkpt><trkpt lat="41.809641339165736" lon="16.13133788270056"><ele>393.0</ele><time>2026-04-19T08:03:48.003Z</time></trkpt><trkpt lat="41.80960599023001" lon="16.13126710274907"><ele>393.0</ele><time>2026-04-19T08:03:49.003Z</time></trkpt><trkpt lat="41.80956559349192" lon="16.131183226405934"><ele>395.5</ele><time>2026-04-19T08:03:50.003Z</time></trkpt><trkpt lat="41.809524492213086" lon="16.131091149984933"><ele>398.0</ele><time>2026-04-19T08:03:51.003Z</time></trkpt><trkpt lat="41.80948427346569" lon="16.131011172597557"><ele>400.5</ele><time>2026-04-19T08:03:52.003Z</time></trkpt><trkpt lat="41.80945814516754" lon="16.130912292837564"><ele>403.0</ele><time>2026-04-19T08:03:53.003Z</time></trkpt><trkpt lat="41.809449150254714" lon="16.130817976558244"><ele>405.5</ele><time>2026-04-19T08:03:54.003Z</time></trkpt><trkpt lat="41.809450486554084" lon="16.130711912826996"><ele>408.0</ele><time>2026-04-19T08:03:55.003Z</time></trkpt><trkpt lat="41.8094627991917" lon="16.130601092050654"><ele>408.0</ele><time>2026-04-19T08:03:56.003Z</time></trkpt><trkpt lat="41.80947451279197" lon="16.130497989098625"><ele>408.0</ele><time>2026-04-19T08:03:57.003Z</time></trkpt><trkpt lat="41.809492419890724" lon="16.130405815639083"><ele>408.0</ele><time>2026-04-19T08:03:58.003Z</time></trkpt><trkpt lat="41.80952708903655" lon="16.13032320146539"><ele>408.0</ele><time>2026-04-19T08:03:59.003Z</time></trkpt><trkpt lat="41.80956727046714" lon="16.13021634029814"><ele>408.0</ele><time>2026-04-19T08:04:00.003Z</time></trkpt><trkpt lat="41.80961256665458" lon="16.130126068378292"><ele>408.0</ele><time>2026-04-19T08:04:01.003Z</time></trkpt><trkpt lat="41.8096702555322" lon="16.130040136968628"><ele>408.0</ele><time>2026-04-19T08:04:02.003Z</time></trkpt><trkpt lat="41.80974915175099" lon="16.12995514936802"><ele>408.0</ele><time>2026-04-19T08:04:03.003Z</time></trkpt><trkpt lat="41.809830394354705" lon="16.129871960015954"><ele>408.0</ele><time>2026-04-19T08:04:04.003Z</time></trkpt><trkpt lat="41.80989942507053" lon="16.129779981875366"><ele>408.0</ele><time>2026-04-19T08:04:05.003Z</time></trkpt><trkpt lat="41.80996824175686" lon="16.129683806030055"><ele>408.0</ele><time>2026-04-19T08:04:06.003Z</time></trkpt><trkpt lat="41.81002356791114" lon="16.129610059060226"><ele>406.5</ele><time>2026-04-19T08:04:07.003Z</time></trkpt><trkpt lat="41.81007249116015" lon="16.12955347743912"><ele>405.0</ele><time>2026-04-19T08:04:08.003Z</time></trkpt><trkpt lat="41.810138523999605" lon="16.129486513975756"><ele>403.5</ele><time>2026-04-19T08:04:09.003Z</time></trkpt><trkpt lat="41.81019411360692" lon="16.129413605888324"><ele>402.0</ele><time>2026-04-19T08:04:10.003Z</time></trkpt><trkpt lat="41.8102426955232" lon="16.129340068831766"><ele>400.5</ele><time>2026-04-19T08:04:11.003Z</time></trkpt><trkpt lat="41.81029434733264" lon="16.129237214685077"><ele>399.0</ele><time>2026-04-19T08:04:12.003Z</time></trkpt><trkpt lat="41.81033877639147" lon="16.129130601815607"><ele>400.4</ele><time>2026-04-19T08:04:13.003Z</time></trkpt><trkpt lat="41.81039045133816" lon="16.129020480616152"><ele>401.79999999999995</ele><time>2026-04-19T08:04:14.003Z</time></trkpt><trkpt lat="41.810448092447814" lon="16.128916386554685"><ele>403.20000000000005</ele><time>2026-04-19T08:04:15.003Z</time></trkpt><trkpt lat="41.81051296005461" lon="16.128810767734212"><ele>404.6</ele><time>2026-04-19T08:04:16.003Z</time></trkpt><trkpt lat="41.81058783927254" lon="16.128732192350366"><ele>406.0</ele><time>2026-04-19T08:04:17.003Z</time></trkpt><trkpt lat="41.81066334699451" lon="16.12866982202354"><ele>406.00000000000006</ele><time>2026-04-19T08:04:18.003Z</time></trkpt><trkpt lat="41.81074022428322" lon="16.128627711890896"><ele>406.0</ele><time>2026-04-19T08:04:19.003Z</time></trkpt><trkpt lat="41.810830276104085" lon="16.12860429893708"><ele>406.0</ele><time>2026-04-19T08:04:20.003Z</time></trkpt><trkpt lat="41.81092140816229" lon="16.128610861267873"><ele>406.0</ele><time>2026-04-19T08:04:21.004Z</time></trkpt><trkpt lat="41.81101065369384" lon="16.12862030417942"><ele>406.00000000000006</ele><time>2026-04-19T08:04:22.004Z</time></trkpt><trkpt lat="41.811092658643496" lon="16.128638727647424"><ele>406.0</ele><time>2026-04-19T08:04:23.004Z</time></trkpt><trkpt lat="41.81117902083086" lon="16.128661327986816"><ele>409.8</ele><time>2026-04-19T08:04:24.004Z</time></trkpt><trkpt lat="41.811263513820975" lon="16.12866931104217"><ele>413.6</ele><time>2026-04-19T08:04:25.004Z</time></trkpt><trkpt lat="41.811374035776694" lon="16.128600623495355"><ele>417.4</ele><time>2026-04-19T08:04:27.004Z</time></trkpt><trkpt lat="41.81142019735015" lon="16.128516975182936"><ele>421.2</ele><time>2026-04-19T08:04:28.004Z</time></trkpt><trkpt lat="41.81146358924844" lon="16.128421518586748"><ele>425.0</ele><time>2026-04-19T08:04:29.004Z</time></trkpt><trkpt lat="41.81149077991079" lon="16.128314371428047"><ele>425.49999999999994</ele><time>2026-04-19T08:04:30.004Z</time></trkpt><trkpt lat="41.811534682194214" lon="16.12820166072044"><ele>426.0</ele><time>2026-04-19T08:04:31.004Z</time></trkpt><trkpt lat="41.811576339319615" lon="16.12809802640983"><ele>426.5</ele><time>2026-04-19T08:04:32.004Z</time></trkpt><trkpt lat="41.811603460615814" lon="16.127994791017077"><ele>427.0</ele><time>2026-04-19T08:04:33.004Z</time></trkpt><trkpt lat="41.81161367833788" lon="16.12789160174415"><ele>427.49999999999994</ele><time>2026-04-19T08:04:34.004Z</time></trkpt><trkpt lat="41.81159018303723" lon="16.12780914688828"><ele>428.0</ele><time>2026-04-19T08:04:35.004Z</time></trkpt><trkpt lat="41.81154295214622" lon="16.1277180543629"><ele>428.0</ele><time>2026-04-19T08:04:36.004Z</time></trkpt><trkpt lat="41.81148400808947" lon="16.127621635701512"><ele>427.99999999999994</ele><time>2026-04-19T08:04:37.004Z</time></trkpt><trkpt lat="41.81141251214735" lon="16.127520666144"><ele>427.99999999999994</ele><time>2026-04-19T08:04:38.004Z</time></trkpt><trkpt lat="41.81135109144105" lon="16.127416695611714"><ele>428.0</ele><time>2026-04-19T08:04:39.004Z</time></trkpt><trkpt lat="41.811299200618855" lon="16.127300734919352"><ele>428.0</ele><time>2026-04-19T08:04:40.004Z</time></trkpt><trkpt lat="41.81124171446673" lon="16.12718912082379"><ele>430.0</ele><time>2026-04-19T08:04:41.004Z</time></trkpt><trkpt lat="41.811184210554146" lon="16.127078738174013"><ele>431.99999999999994</ele><time>2026-04-19T08:04:42.004Z</time></trkpt><trkpt lat="41.81113546731446" lon="16.126973769959925"><ele>433.99999999999994</ele><time>2026-04-19T08:04:43.004Z</time></trkpt><trkpt lat="41.811089668389315" lon="16.12685873087668"><ele>436.0</ele><time>2026-04-19T08:04:44.004Z</time></trkpt><trkpt lat="41.81103155547732" lon="16.126730184810153"><ele>438.0</ele><time>2026-04-19T08:04:45.004Z</time></trkpt><trkpt lat="41.81100497226516" lon="16.126610526268"><ele>438.59999999999997</ele><time>2026-04-19T08:04:46.004Z</time></trkpt><trkpt lat="41.81099194477872" lon="16.12648899230457"><ele>439.19999999999993</ele><time>2026-04-19T08:04:47.004Z</time></trkpt><trkpt lat="41.81100893013525" lon="16.126365885238446"><ele>439.8</ele><time>2026-04-19T08:04:48.004Z</time></trkpt><trkpt lat="41.811038898800376" lon="16.12625320261993"><ele>440.4</ele><time>2026-04-19T08:04:49.004Z</time></trkpt><trkpt lat="41.81108026824121" lon="16.126133793947616"><ele>441.0</ele><time>2026-04-19T08:04:50.004Z</time></trkpt><trkpt lat="41.81113324166234" lon="16.126016661327487"><ele>441.0</ele><time>2026-04-19T08:04:51.004Z</time></trkpt><trkpt lat="41.81118920649466" lon="16.125894489606278"><ele>441.0</ele><time>2026-04-19T08:04:52.004Z</time></trkpt><trkpt lat="41.81125576673355" lon="16.125784538969448"><ele>441.0</ele><time>2026-04-19T08:04:53.004Z</time></trkpt><trkpt lat="41.811327216142374" lon="16.12567300874939"><ele>441.0</ele><time>2026-04-19T08:04:54.004Z</time></trkpt><trkpt lat="41.81139164047837" lon="16.125548937215125"><ele>441.0</ele><time>2026-04-19T08:04:55.004Z</time></trkpt><trkpt lat="41.81144876360083" lon="16.12542055285378"><ele>440.20000000000005</ele><time>2026-04-19T08:04:56.004Z</time></trkpt><trkpt lat="41.81148742522088" lon="16.125281310483317"><ele>439.40000000000003</ele><time>2026-04-19T08:04:57.002Z</time></trkpt><trkpt lat="41.81151325311903" lon="16.125157884720963"><ele>438.6</ele><time>2026-04-19T08:04:58.003Z</time></trkpt><trkpt lat="41.81150835553063" lon="16.125040468314047"><ele>437.8</ele><time>2026-04-19T08:04:59.003Z</time></trkpt><trkpt lat="41.8115024787093" lon="16.12493149810795"><ele>437.0</ele><time>2026-04-19T08:05:00.002Z</time></trkpt><trkpt lat="41.81149531643399" lon="16.124815690279014"><ele>436.49999999999994</ele><time>2026-04-19T08:05:01.002Z</time></trkpt><trkpt lat="41.81149359650838" lon="16.124702715476168"><ele>436.0</ele><time>2026-04-19T08:05:02.002Z</time></trkpt><trkpt lat="41.81150033058159" lon="16.12459542150029"><ele>435.5</ele><time>2026-04-19T08:05:03.003Z</time></trkpt><trkpt lat="41.81151438999905" lon="16.124477945153593"><ele>435.0</ele><time>2026-04-19T08:05:04.002Z</time></trkpt><trkpt lat="41.81155096133758" lon="16.124362424064866"><ele>434.49999999999994</ele><time>2026-04-19T08:05:05.002Z</time></trkpt><trkpt lat="41.8116128095823" lon="16.124273456355834"><ele>434.0</ele><time>2026-04-19T08:05:06.003Z</time></trkpt><trkpt lat="41.81168613616842" lon="16.124209190079988"><ele>434.0</ele><time>2026-04-19T08:05:07.003Z</time></trkpt><trkpt lat="41.811777232563536" lon="16.124173652261913"><ele>434.0</ele><time>2026-04-19T08:05:08.003Z</time></trkpt><trkpt lat="41.81188052886679" lon="16.1241530816095"><ele>434.0</ele><time>2026-04-19T08:05:09.002Z</time></trkpt><trkpt lat="41.81199387034365" lon="16.12414229782624"><ele>434.0</ele><time>2026-04-19T08:05:10.003Z</time></trkpt><trkpt lat="41.81211353205025" lon="16.124122148345677"><ele>434.0</ele><time>2026-04-19T08:05:11.003Z</time></trkpt><trkpt lat="41.81223073571018" lon="16.12408201938538"><ele>434.4</ele><time>2026-04-19T08:05:12.003Z</time></trkpt><trkpt lat="41.81233765728109" lon="16.124033854567003"><ele>434.79999999999995</ele><time>2026-04-19T08:05:13.003Z</time></trkpt><trkpt lat="41.81243599212359" lon="16.123972967475652"><ele>435.20000000000005</ele><time>2026-04-19T08:05:14.003Z</time></trkpt><trkpt lat="41.812517844888596" lon="16.123889179853744"><ele>435.6</ele><time>2026-04-19T08:05:15.003Z</time></trkpt><trkpt lat="41.81259383261675" lon="16.12378734858698"><ele>436.0</ele><time>2026-04-19T08:05:16.003Z</time></trkpt><trkpt lat="41.81265997604213" lon="16.123668966121006"><ele>438.20000000000005</ele><time>2026-04-19T08:05:17.003Z</time></trkpt><trkpt lat="41.8127116112295" lon="16.123551325118765"><ele>440.40000000000003</ele><time>2026-04-19T08:05:18.003Z</time></trkpt><trkpt lat="41.812760483599085" lon="16.12342381000152"><ele>442.6</ele><time>2026-04-19T08:05:19.003Z</time></trkpt><trkpt lat="41.812816137509834" lon="16.123311316201747"><ele>444.8</ele><time>2026-04-19T08:05:20.003Z</time></trkpt><trkpt lat="41.81287656621604" lon="16.123205714737445"><ele>447.0</ele><time>2026-04-19T08:05:21.003Z</time></trkpt><trkpt lat="41.81294960395885" lon="16.12311611519483"><ele>447.0</ele><time>2026-04-19T08:05:22.003Z</time></trkpt><trkpt lat="41.81302099200491" lon="16.123020683954355"><ele>447.00000000000006</ele><time>2026-04-19T08:05:23.003Z</time></trkpt><trkpt lat="41.813099930320895" lon="16.122927578450902"><ele>447.00000000000006</ele><time>2026-04-19T08:05:24.003Z</time></trkpt><trkpt lat="41.81316620363542" lon="16.122847416788748"><ele>447.0</ele><time>2026-04-19T08:05:25.003Z</time></trkpt><trkpt lat="41.81322975598255" lon="16.122777998520803"><ele>447.0</ele><time>2026-04-19T08:05:26.003Z</time></trkpt><trkpt lat="41.81328671110299" lon="16.122698377466058"><ele>447.0</ele><time>2026-04-19T08:05:27.003Z</time></trkpt><trkpt lat="41.81335341785356" lon="16.1226132722199"><ele>447.00000000000006</ele><time>2026-04-19T08:05:28.003Z</time></trkpt><trkpt lat="41.813420347988796" lon="16.122521711961966"><ele>447.00000000000006</ele><time>2026-04-19T08:05:29.003Z</time></trkpt><trkpt lat="41.813488472376" lon="16.122426784786796"><ele>447.0</ele><time>2026-04-19T08:05:30.003Z</time></trkpt><trkpt lat="41.8135604016001" lon="16.122336821438964"><ele>447.0</ele><time>2026-04-19T08:05:31.003Z</time></trkpt><trkpt lat="41.813633481867726" lon="16.122242681026147"><ele>448.40000000000003</ele><time>2026-04-19T08:05:32.003Z</time></trkpt><trkpt lat="41.81370942123606" lon="16.122163779072093"><ele>449.80000000000007</ele><time>2026-04-19T08:05:33.003Z</time></trkpt><trkpt lat="41.813790715913306" lon="16.122085750133987"><ele>451.2</ele><time>2026-04-19T08:05:34.003Z</time></trkpt><trkpt lat="41.813869487501286" lon="16.121992091510744"><ele>452.6</ele><time>2026-04-19T08:05:35.004Z</time></trkpt><trkpt lat="41.813942890732875" lon="16.12189879370558"><ele>454.0</ele><time>2026-04-19T08:05:36.004Z</time></trkpt><trkpt lat="41.81401179644025" lon="16.121799349440614"><ele>454.00000000000006</ele><time>2026-04-19T08:05:37.004Z</time></trkpt><trkpt lat="41.81407028037313" lon="16.121706052705488"><ele>454.0</ele><time>2026-04-19T08:05:38.004Z</time></trkpt><trkpt lat="41.81410881698782" lon="16.12159249408162"><ele>454.0</ele><time>2026-04-19T08:05:39.004Z</time></trkpt><trkpt lat="41.8141195192848" lon="16.12147688731814"><ele>454.0</ele><time>2026-04-19T08:05:40.004Z</time></trkpt><trkpt lat="41.81412773005129" lon="16.12137653367621"><ele>454.00000000000006</ele><time>2026-04-19T08:05:41.004Z</time></trkpt><trkpt lat="41.814134860224854" lon="16.121243171106016"><ele>454.0</ele><time>2026-04-19T08:05:43.004Z</time></trkpt><trkpt lat="41.81413473826054" lon="16.121146007865352"><ele>454.79999999999995</ele><time>2026-04-19T08:05:59.004Z</time></trkpt><trkpt lat="41.814093415915394" lon="16.121052110620262"><ele>455.59999999999997</ele><time>2026-04-19T08:06:03.004Z</time></trkpt><trkpt lat="41.814048229752096" lon="16.12094501186004"><ele>456.4</ele><time>2026-04-19T08:06:06.004Z</time></trkpt><trkpt lat="41.81403874192065" lon="16.120828113096714"><ele>457.2</ele><time>2026-04-19T08:06:08.004Z</time></trkpt><trkpt lat="41.81407187427643" lon="16.120706621900162"><ele>458.0</ele><time>2026-04-19T08:06:10.004Z</time></trkpt><trkpt lat="41.81408700429034" lon="16.120584224395362"><ele>459.59999999999997</ele><time>2026-04-19T08:06:12.004Z</time></trkpt><trkpt lat="41.81404510987939" lon="16.120464224660303"><ele>461.19999999999993</ele><time>2026-04-19T08:06:14.004Z</time></trkpt><trkpt lat="41.81405341741538" lon="16.12034430116418"><ele>462.8</ele><time>2026-04-19T08:06:16.004Z</time></trkpt><trkpt lat="41.81408791410542" lon="16.120243005461347"><ele>464.4</ele><time>2026-04-19T08:06:18.005Z</time></trkpt><trkpt lat="41.814130258245534" lon="16.120122234957943"><ele>466.0</ele><time>2026-04-19T08:06:20.005Z</time></trkpt><trkpt lat="41.814173414205364" lon="16.11999998860338"><ele>466.0</ele><time>2026-04-19T08:06:22.005Z</time></trkpt><trkpt lat="41.814235964666786" lon="16.119896850393594"><ele>464.0</ele><time>2026-04-19T08:06:24.005Z</time></trkpt><trkpt lat="41.81428603192181" lon="16.119844871479597"><ele>464.0</ele><time>2026-04-19T08:06:26.005Z</time></trkpt><trkpt lat="41.81438510180303" lon="16.119829711096294"><ele>467.0</ele><time>2026-04-19T08:06:29.005Z</time></trkpt></trkseg><trkseg><trkpt lat="41.81414966450302" lon="16.121068024066194"><ele>457.99999999999994</ele><time>2026-04-19T08:21:47.004Z</time></trkpt><trkpt lat="41.81424330410094" lon="16.121115843426022"><ele>458.0</ele><time>2026-04-19T08:21:49.004Z</time></trkpt><trkpt lat="41.81437109932265" lon="16.121148484292018"><ele>458.0</ele><time>2026-04-19T08:21:51.004Z</time></trkpt><trkpt lat="41.81444272635606" lon="16.121148930961624"><ele>458.0</ele><time>2026-04-19T08:21:52.004Z</time></trkpt><trkpt lat="41.81451248375709" lon="16.12113933561131"><ele>457.99999999999994</ele><time>2026-04-19T08:21:53.004Z</time></trkpt><trkpt lat="41.81457778793173" lon="16.121124414119127"><ele>458.0</ele><time>2026-04-19T08:21:54.004Z</time></trkpt><trkpt lat="41.814637775253466" lon="16.121098188812105"><ele>457.79999999999995</ele><time>2026-04-19T08:21:55.004Z</time></trkpt><trkpt lat="41.814699263226686" lon="16.121036566509208"><ele>457.59999999999997</ele><time>2026-04-19T08:21:56.004Z</time></trkpt><trkpt lat="41.8147691046905" lon="16.120967346377224"><ele>457.40000000000003</ele><time>2026-04-19T08:21:57.004Z</time></trkpt><trkpt lat="41.81481473174981" lon="16.12085490109149"><ele>457.20000000000005</ele><time>2026-04-19T08:21:58.004Z</time></trkpt><trkpt lat="41.81489541897209" lon="16.12071835676449"><ele>457.0</ele><time>2026-04-19T08:21:59.004Z</time></trkpt><trkpt lat="41.81495920361763" lon="16.120599396006824"><ele>457.0</ele><time>2026-04-19T08:22:00.004Z</time></trkpt><trkpt lat="41.8150260021346" lon="16.120473927702573"><ele>457.0</ele><time>2026-04-19T08:22:01.004Z</time></trkpt><trkpt lat="41.81509355513559" lon="16.120345466258698"><ele>457.0</ele><time>2026-04-19T08:22:02.004Z</time></trkpt><trkpt lat="41.815147653278515" lon="16.120197072378375"><ele>457.0</ele><time>2026-04-19T08:22:03.004Z</time></trkpt><trkpt lat="41.81520288568913" lon="16.120073334015665"><ele>454.20000000000005</ele><time>2026-04-19T08:22:04.004Z</time></trkpt><trkpt lat="41.815268873202925" lon="16.119953049365403"><ele>451.40000000000003</ele><time>2026-04-19T08:22:05.004Z</time></trkpt><trkpt lat="41.815345372208746" lon="16.119862213155805"><ele>448.59999999999997</ele><time>2026-04-19T08:22:06.004Z</time></trkpt><trkpt lat="41.81540956999896" lon="16.11975240483656"><ele>445.79999999999995</ele><time>2026-04-19T08:22:07.004Z</time></trkpt><trkpt lat="41.815474952390765" lon="16.11964157713556"><ele>443.0</ele><time>2026-04-19T08:22:08.004Z</time></trkpt><trkpt lat="41.81554443845201" lon="16.119523793445147"><ele>443.0</ele><time>2026-04-19T08:22:09.004Z</time></trkpt><trkpt lat="41.815615675908575" lon="16.11940201582676"><ele>443.0</ele><time>2026-04-19T08:22:10.004Z</time></trkpt><trkpt lat="41.815685967826525" lon="16.119263634866783"><ele>443.0</ele><time>2026-04-19T08:22:11.004Z</time></trkpt><trkpt lat="41.81573865023611" lon="16.119123800966648"><ele>443.0</ele><time>2026-04-19T08:22:12.004Z</time></trkpt><trkpt lat="41.81577105024583" lon="16.118979246643775"><ele>443.59999999999997</ele><time>2026-04-19T08:22:13.004Z</time></trkpt><trkpt lat="41.815789980280854" lon="16.118824514845436"><ele>444.19999999999993</ele><time>2026-04-19T08:22:14.004Z</time></trkpt><trkpt lat="41.815798519598104" lon="16.118677383923345"><ele>444.8</ele><time>2026-04-19T08:22:15.004Z</time></trkpt><trkpt lat="41.815789070964996" lon="16.118550140113143"><ele>445.4</ele><time>2026-04-19T08:22:16.004Z</time></trkpt><trkpt lat="41.81581237415698" lon="16.1184380598223"><ele>446.0</ele><time>2026-04-19T08:22:17.004Z</time></trkpt><trkpt lat="41.815824921016564" lon="16.118331626701035"><ele>446.3333333333333</ele><time>2026-04-19T08:22:18.004Z</time></trkpt><trkpt lat="41.815841974816514" lon="16.118207064483407"><ele>446.66666666666663</ele><time>2026-04-19T08:22:19.004Z</time></trkpt><trkpt lat="41.81586520546534" lon="16.118103046357703"><ele>447.0</ele><time>2026-04-19T08:22:20.004Z</time></trkpt><trkpt lat="41.81587813677261" lon="16.117973463819446"><ele>447.33333333333337</ele><time>2026-04-19T08:22:21.004Z</time></trkpt><trkpt lat="41.81588495552385" lon="16.117873263186286"><ele>447.6666666666667</ele><time>2026-04-19T08:22:22.004Z</time></trkpt><trkpt lat="41.81588791515134" lon="16.11777230633694"><ele>448.0</ele><time>2026-04-19T08:22:23.004Z</time></trkpt><trkpt lat="41.81590673913671" lon="16.11760881139196"><ele>448.0</ele><time>2026-04-19T08:22:25.004Z</time></trkpt><trkpt lat="41.815924765251886" lon="16.117455910933135"><ele>447.99999999999994</ele><time>2026-04-19T08:22:27.004Z</time></trkpt><trkpt lat="41.81595095601103" lon="16.11729859159268"><ele>447.99999999999994</ele><time>2026-04-19T08:22:29.005Z</time></trkpt><trkpt lat="41.815951485113956" lon="16.11721266592967"><ele>448.0</ele><time>2026-04-19T08:22:30.005Z</time></trkpt><trkpt lat="41.815969810254586" lon="16.117113123794358"><ele>448.0</ele><time>2026-04-19T08:22:31.005Z</time></trkpt><trkpt lat="41.81601713804514" lon="16.117017512418663"><ele>446.1666666666667</ele><time>2026-04-19T08:22:32.005Z</time></trkpt><trkpt lat="41.81606416742957" lon="16.116939783983664"><ele>444.33333333333337</ele><time>2026-04-19T08:22:33.005Z</time></trkpt><trkpt lat="41.81612010948709" lon="16.116892202741504"><ele>442.5</ele><time>2026-04-19T08:22:34.005Z</time></trkpt><trkpt lat="41.81618862302752" lon="16.116871695497192"><ele>440.66666666666663</ele><time>2026-04-19T08:22:35.005Z</time></trkpt><trkpt lat="41.81626905428742" lon="16.116847812273775"><ele>438.8333333333333</ele><time>2026-04-19T08:22:36.005Z</time></trkpt><trkpt lat="41.81638471226071" lon="16.11681869637961"><ele>437.0</ele><time>2026-04-19T08:22:37.005Z</time></trkpt><trkpt lat="41.81646879862996" lon="16.116814835941636"><ele>437.0</ele><time>2026-04-19T08:22:38.005Z</time></trkpt><trkpt lat="41.81657092732239" lon="16.11678951176756"><ele>437.00000000000006</ele><time>2026-04-19T08:22:39.005Z</time></trkpt><trkpt lat="41.816662036965624" lon="16.116745160020233"><ele>437.00000000000006</ele><time>2026-04-19T08:22:40.005Z</time></trkpt><trkpt lat="41.816732551507975" lon="16.116718138845847"><ele>437.0</ele><time>2026-04-19T08:22:41.005Z</time></trkpt><trkpt lat="41.816845878753185" lon="16.116667975945646"><ele>437.0</ele><time>2026-04-19T08:22:43.005Z</time></trkpt><trkpt lat="41.81690112608857" lon="16.116612339172164"><ele>436.0</ele><time>2026-04-19T08:22:44.005Z</time></trkpt><trkpt lat="41.81696590563706" lon="16.11652593008138"><ele>435.00000000000006</ele><time>2026-04-19T08:22:45.005Z</time></trkpt><trkpt lat="41.81701684383833" lon="16.11644295883019"><ele>434.00000000000006</ele><time>2026-04-19T08:22:46.005Z</time></trkpt><trkpt lat="41.81705758688191" lon="16.116363196941656"><ele>433.0</ele><time>2026-04-19T08:22:47.005Z</time></trkpt><trkpt lat="41.81711268418638" lon="16.116202266487743"><ele>432.0</ele><time>2026-04-19T08:22:49.005Z</time></trkpt><trkpt lat="41.817143091232595" lon="16.116097068793106"><ele>432.0</ele><time>2026-04-19T08:22:51.005Z</time></trkpt><trkpt lat="41.81717008278548" lon="16.11601330537566"><ele>432.0</ele><time>2026-04-19T08:22:53.005Z</time></trkpt><trkpt lat="41.817219328808406" lon="16.115903386886448"><ele>432.0</ele><time>2026-04-19T08:23:15.006Z</time></trkpt><trkpt lat="41.81726941281498" lon="16.115820538707123"><ele>432.0</ele><time>2026-04-19T08:23:20.003Z</time></trkpt><trkpt lat="41.81731304845692" lon="16.11575886652475"><ele>432.0</ele><time>2026-04-19T08:23:24.004Z</time></trkpt><trkpt lat="41.81725911703406" lon="16.11567606142783"><ele>432.0</ele><time>2026-04-19T08:23:27.003Z</time></trkpt><trkpt lat="41.81727130324533" lon="16.115573085626128"><ele>434.8</ele><time>2026-04-19T08:23:36.003Z</time></trkpt><trkpt lat="41.81731027454298" lon="16.115476848944354"><ele>437.6</ele><time>2026-04-19T08:23:38.003Z</time></trkpt><trkpt lat="41.81735792037158" lon="16.11534064288128"><ele>440.40000000000003</ele><time>2026-04-19T08:23:40.003Z</time></trkpt><trkpt lat="41.81740027419334" lon="16.11526727384568"><ele>443.20000000000005</ele><time>2026-04-19T08:23:41.003Z</time></trkpt><trkpt lat="41.81745835606563" lon="16.11513708361032"><ele>446.0</ele><time>2026-04-19T08:23:43.003Z</time></trkpt><trkpt lat="41.81752178750016" lon="16.1150274247737"><ele>446.0</ele><time>2026-04-19T08:23:45.003Z</time></trkpt><trkpt lat="41.817601509258225" lon="16.11495946911504"><ele>446.0</ele><time>2026-04-19T08:23:47.003Z</time></trkpt><trkpt lat="41.817695120928825" lon="16.114934582742947"><ele>446.0</ele><time>2026-04-19T08:23:49.003Z</time></trkpt><trkpt lat="41.817785803993075" lon="16.11500939228757"><ele>446.0</ele><time>2026-04-19T08:23:51.003Z</time></trkpt><trkpt lat="41.817846527084754" lon="16.11509835219819"><ele>446.0</ele><time>2026-04-19T08:23:53.003Z</time></trkpt><trkpt lat="41.81789766058715" lon="16.115239207786146"><ele>446.99999999999994</ele><time>2026-04-19T08:23:55.003Z</time></trkpt><trkpt lat="41.81794318144721" lon="16.115317389764733"><ele>448.0</ele><time>2026-04-19T08:23:56.003Z</time></trkpt><trkpt lat="41.81799095733892" lon="16.115392319810915"><ele>449.0</ele><time>2026-04-19T08:23:57.003Z</time></trkpt><trkpt lat="41.818043731648714" lon="16.115556024243396"><ele>450.0</ele><time>2026-04-19T08:23:59.003Z</time></trkpt><trkpt lat="41.81807166210773" lon="16.115645253355847"><ele>450.99999999999994</ele><time>2026-04-19T08:24:00.003Z</time></trkpt><trkpt lat="41.818098977145404" lon="16.115725342508973"><ele>452.0</ele><time>2026-04-19T08:24:01.003Z</time></trkpt><trkpt lat="41.81814060041917" lon="16.115815311899343"><ele>452.0</ele><time>2026-04-19T08:24:02.003Z</time></trkpt><trkpt lat="41.81818042701462" lon="16.115899057294442"><ele>452.00000000000006</ele><time>2026-04-19T08:24:03.003Z</time></trkpt><trkpt lat="41.81821394474153" lon="16.11599554494835"><ele>452.00000000000006</ele><time>2026-04-19T08:24:04.004Z</time></trkpt><trkpt lat="41.81825722266016" lon="16.11609989342535"><ele>452.0</ele><time>2026-04-19T08:24:05.004Z</time></trkpt><trkpt lat="41.81830342364292" lon="16.116203236689223"><ele>452.0</ele><time>2026-04-19T08:24:06.004Z</time></trkpt><trkpt lat="41.81836359844675" lon="16.11633926539175"><ele>452.0</ele><time>2026-04-19T08:24:08.004Z</time></trkpt><trkpt lat="41.818394188288984" lon="16.116418066722133"><ele>452.00000000000006</ele><time>2026-04-19T08:24:09.004Z</time></trkpt><trkpt lat="41.818426537183086" lon="16.11651304133774"><ele>452.00000000000006</ele><time>2026-04-19T08:24:10.004Z</time></trkpt><trkpt lat="41.8184565533311" lon="16.11660050157494"><ele>452.0</ele><time>2026-04-19T08:24:11.004Z</time></trkpt><trkpt lat="41.818518720964946" lon="16.11674515961847"><ele>452.0</ele><time>2026-04-19T08:24:13.004Z</time></trkpt><trkpt lat="41.81854493106398" lon="16.11689859626507"><ele>452.8</ele><time>2026-04-19T08:24:15.004Z</time></trkpt><trkpt lat="41.818533377466586" lon="16.11702299278073"><ele>453.6</ele><time>2026-04-19T08:24:17.004Z</time></trkpt><trkpt lat="41.81853696840285" lon="16.117199755180255"><ele>454.40000000000003</ele><time>2026-04-19T08:24:19.004Z</time></trkpt><trkpt lat="41.81854147151909" lon="16.117298521467188"><ele>455.20000000000005</ele><time>2026-04-19T08:24:20.004Z</time></trkpt><trkpt lat="41.81855536587003" lon="16.117389350699806"><ele>456.0</ele><time>2026-04-19T08:24:21.004Z</time></trkpt><trkpt lat="41.81858555268198" lon="16.11749852632883"><ele>456.0</ele><time>2026-04-19T08:24:22.004Z</time></trkpt><trkpt lat="41.81860300337141" lon="16.117582415034022"><ele>456.0</ele><time>2026-04-19T08:24:23.004Z</time></trkpt><trkpt lat="41.81864283283011" lon="16.117753924037444"><ele>456.0</ele><time>2026-04-19T08:24:25.004Z</time></trkpt><trkpt lat="41.818674981838136" lon="16.1178268691049"><ele>456.0</ele><time>2026-04-19T08:24:26.004Z</time></trkpt><trkpt lat="41.81871209413881" lon="16.117903121216855"><ele>456.0</ele><time>2026-04-19T08:24:27.004Z</time></trkpt><trkpt lat="41.818820066031385" lon="16.118010211184632"><ele>456.0</ele><time>2026-04-19T08:24:29.004Z</time></trkpt><trkpt lat="41.81888789513443" lon="16.118049206078137"><ele>456.0</ele><time>2026-04-19T08:24:30.004Z</time></trkpt><trkpt lat="41.81895775420136" lon="16.11810340908576"><ele>456.0</ele><time>2026-04-19T08:24:31.004Z</time></trkpt><trkpt lat="41.819024535722605" lon="16.11813371632062"><ele>456.0</ele><time>2026-04-19T08:24:32.004Z</time></trkpt><trkpt lat="41.81912785861985" lon="16.11817071407774"><ele>456.0</ele><time>2026-04-19T08:24:34.004Z</time></trkpt><trkpt lat="41.81924618583569" lon="16.118194231840754"><ele>454.8</ele><time>2026-04-19T08:24:36.004Z</time></trkpt><trkpt lat="41.819343897688604" lon="16.11822740063932"><ele>453.6</ele><time>2026-04-19T08:24:38.004Z</time></trkpt><trkpt lat="41.819402359198975" lon="16.118261051282555"><ele>452.4</ele><time>2026-04-19T08:24:39.004Z</time></trkpt><trkpt lat="41.81952502246469" lon="16.118293815261826"><ele>451.2</ele><time>2026-04-19T08:24:41.004Z</time></trkpt><trkpt lat="41.819616249926504" lon="16.11831425096748"><ele>450.0</ele><time>2026-04-19T08:24:43.004Z</time></trkpt><trkpt lat="41.81971440478532" lon="16.118258294023423"><ele>450.0</ele><time>2026-04-19T08:24:45.004Z</time></trkpt><trkpt lat="41.81976772140116" lon="16.11818415261188"><ele>450.0</ele><time>2026-04-19T08:24:47.005Z</time></trkpt><trkpt lat="41.81984552210025" lon="16.118101264664354"><ele>450.0</ele><time>2026-04-19T08:24:50.005Z</time></trkpt><trkpt lat="41.81992302210415" lon="16.118000657366675"><ele>450.0</ele><time>2026-04-19T08:24:52.005Z</time></trkpt><trkpt lat="41.82000277214926" lon="16.117873559774058"><ele>450.0</ele><time>2026-04-19T08:24:54.005Z</time></trkpt><trkpt lat="41.820075648711075" lon="16.117789245643877"><ele>446.8</ele><time>2026-04-19T08:24:56.005Z</time></trkpt><trkpt lat="41.82016149312561" lon="16.117684469017025"><ele>443.6</ele><time>2026-04-19T08:24:58.005Z</time></trkpt><trkpt lat="41.8202197461318" lon="16.117589517374796"><ele>440.4</ele><time>2026-04-19T08:25:00.005Z</time></trkpt><trkpt lat="41.8202983480509" lon="16.117489897695442"><ele>437.2</ele><time>2026-04-19T08:25:02.005Z</time></trkpt><trkpt lat="41.82034688366678" lon="16.11737288395473"><ele>434.0</ele><time>2026-04-19T08:25:04.005Z</time></trkpt><trkpt lat="41.820379925784835" lon="16.11729480656584"><ele>434.0</ele><time>2026-04-19T08:25:05.005Z</time></trkpt><trkpt lat="41.82042679230609" lon="16.117156433937136"><ele>434.0</ele><time>2026-04-19T08:25:07.005Z</time></trkpt><trkpt lat="41.82046343059542" lon="16.11701616053581"><ele>434.0</ele><time>2026-04-19T08:25:09.005Z</time></trkpt><trkpt lat="41.82049959864474" lon="16.116861712524607"><ele>434.0</ele><time>2026-04-19T08:25:11.005Z</time></trkpt><trkpt lat="41.82052138129942" lon="16.116716422649397"><ele>434.99999999999994</ele><time>2026-04-19T08:25:13.005Z</time></trkpt><trkpt lat="41.82055578472551" lon="16.116564301126818"><ele>436.0</ele><time>2026-04-19T08:25:15.005Z</time></trkpt><trkpt lat="41.820567839918546" lon="16.1164809243508"><ele>437.0</ele><time>2026-04-19T08:25:16.005Z</time></trkpt><trkpt lat="41.82059941572368" lon="16.116327951776274"><ele>438.0</ele><time>2026-04-19T08:25:18.005Z</time></trkpt><trkpt lat="41.82061431957116" lon="16.116245364179033"><ele>438.99999999999994</ele><time>2026-04-19T08:25:19.005Z</time></trkpt><trkpt lat="41.82061708037681" lon="16.11615135027296"><ele>440.0</ele><time>2026-04-19T08:25:20.005Z</time></trkpt><trkpt lat="41.820617768246215" lon="16.11605559608294"><ele>439.99999999999994</ele><time>2026-04-19T08:25:21.005Z</time></trkpt><trkpt lat="41.82062010469977" lon="16.11596089982706"><ele>440.0</ele><time>2026-04-19T08:25:22.005Z</time></trkpt><trkpt lat="41.820620435068165" lon="16.11585997993928"><ele>440.0</ele><time>2026-04-19T08:25:23.005Z</time></trkpt><trkpt lat="41.82061673853689" lon="16.115771987630477"><ele>440.0</ele><time>2026-04-19T08:25:24.003Z</time></trkpt><trkpt lat="41.820611872272764" lon="16.115668845162205"><ele>439.99999999999994</ele><time>2026-04-19T08:25:25.003Z</time></trkpt><trkpt lat="41.82058379520836" lon="16.115571499778934"><ele>440.0</ele><time>2026-04-19T08:25:26.003Z</time></trkpt><trkpt lat="41.82054638329664" lon="16.11545020524538"><ele>438.8333333333333</ele><time>2026-04-19T08:25:28.003Z</time></trkpt><trkpt lat="41.82047772048038" lon="16.115370506149876"><ele>437.66666666666663</ele><time>2026-04-19T08:25:32.003Z</time></trkpt><trkpt lat="41.82042986052304" lon="16.115265683188422"><ele>436.5</ele><time>2026-04-19T08:25:35.003Z</time></trkpt><trkpt lat="41.820412202099526" lon="16.11516644624828"><ele>435.33333333333337</ele><time>2026-04-19T08:25:38.003Z</time></trkpt><trkpt lat="41.82044561456719" lon="16.11508694814221"><ele>434.1666666666667</ele><time>2026-04-19T08:25:41.003Z</time></trkpt><trkpt lat="41.82051686799528" lon="16.115019273037124"><ele>433.0</ele><time>2026-04-19T08:25:45.003Z</time></trkpt><trkpt lat="41.82058966258218" lon="16.115007663697988"><ele>433.00000000000006</ele><time>2026-04-19T08:25:48.003Z</time></trkpt><trkpt lat="41.82068077122074" lon="16.11499876780871"><ele>433.0</ele><time>2026-04-19T08:25:51.003Z</time></trkpt><trkpt lat="41.820766143060744" lon="16.11501538269258"><ele>433.0</ele><time>2026-04-19T08:25:54.003Z</time></trkpt><trkpt lat="41.82085177281966" lon="16.11502633146983"><ele>433.0</ele><time>2026-04-19T08:25:56.003Z</time></trkpt><trkpt lat="41.8209463641031" lon="16.115014827524192"><ele>433.00000000000006</ele><time>2026-04-19T08:25:59.003Z</time></trkpt><trkpt lat="41.82100858432875" lon="16.115000101891017"><ele>433.0</ele><time>2026-04-19T08:26:01.004Z</time></trkpt><trkpt lat="41.82107771497971" lon="16.11498037426241"><ele>430.6666666666667</ele><time>2026-04-19T08:26:04.004Z</time></trkpt><trkpt lat="41.821147609031996" lon="16.114919985310806"><ele>428.33333333333337</ele><time>2026-04-19T08:26:07.004Z</time></trkpt><trkpt lat="41.82120396820706" lon="16.114869590707652"><ele>426.0</ele><time>2026-04-19T08:26:09.004Z</time></trkpt><trkpt lat="41.82125740617883" lon="16.114810405873662"><ele>423.66666666666663</ele><time>2026-04-19T08:26:11.004Z</time></trkpt><trkpt lat="41.82131504634801" lon="16.11473406655132"><ele>421.3333333333333</ele><time>2026-04-19T08:26:13.004Z</time></trkpt><trkpt lat="41.821387493168324" lon="16.114650907613605"><ele>419.0</ele><time>2026-04-19T08:26:16.004Z</time></trkpt><trkpt lat="41.82144532192848" lon="16.114591915062487"><ele>416.0</ele><time>2026-04-19T08:26:18.004Z</time></trkpt><trkpt lat="41.82152600863215" lon="16.114537285392696"><ele>413.0</ele><time>2026-04-19T08:26:21.004Z</time></trkpt><trkpt lat="41.82161202433301" lon="16.11448526847655"><ele>410.0</ele><time>2026-04-19T08:26:23.004Z</time></trkpt><trkpt lat="41.8217082805389" lon="16.114448782105683"><ele>407.0</ele><time>2026-04-19T08:26:25.004Z</time></trkpt><trkpt lat="41.821800094474206" lon="16.11444556615325"><ele>404.0</ele><time>2026-04-19T08:26:27.004Z</time></trkpt><trkpt lat="41.82190603559587" lon="16.114460743928475"><ele>400.79999999999995</ele><time>2026-04-19T08:26:29.004Z</time></trkpt><trkpt lat="41.82197122125699" lon="16.114457399606632"><ele>397.59999999999997</ele><time>2026-04-19T08:26:30.004Z</time></trkpt><trkpt lat="41.82208023684649" lon="16.114471431652102"><ele>394.4</ele><time>2026-04-19T08:26:32.004Z</time></trkpt><trkpt lat="41.822202697334504" lon="16.114517363212336"><ele>391.2</ele><time>2026-04-19T08:26:34.004Z</time></trkpt><trkpt lat="41.822266268445084" lon="16.114550360444476"><ele>388.0</ele><time>2026-04-19T08:26:35.004Z</time></trkpt><trkpt lat="41.822355159840356" lon="16.11459777583724"><ele>388.0</ele><time>2026-04-19T08:26:36.004Z</time></trkpt><trkpt lat="41.822432850519625" lon="16.114654268474556"><ele>388.0</ele><time>2026-04-19T08:26:37.004Z</time></trkpt><trkpt lat="41.822501964605124" lon="16.114706168064213"><ele>388.0</ele><time>2026-04-19T08:26:38.004Z</time></trkpt><trkpt lat="41.822560625256074" lon="16.114768426070185"><ele>388.0</ele><time>2026-04-19T08:26:39.004Z</time></trkpt><trkpt lat="41.82262607088391" lon="16.11482076324971"><ele>388.0</ele><time>2026-04-19T08:26:40.004Z</time></trkpt><trkpt lat="41.822666708637406" lon="16.114886748287685"><ele>388.0</ele><time>2026-04-19T08:26:41.004Z</time></trkpt><trkpt lat="41.82269166519503" lon="16.11496599182059"><ele>388.0</ele><time>2026-04-19T08:26:42.005Z</time></trkpt><trkpt lat="41.82267232948117" lon="16.11514144300482"><ele>390.4</ele><time>2026-04-19T08:26:44.005Z</time></trkpt><trkpt lat="41.822645444636365" lon="16.11526193141382"><ele>392.79999999999995</ele><time>2026-04-19T08:26:45.005Z</time></trkpt><trkpt lat="41.82262629560911" lon="16.115384686335805"><ele>395.2</ele><time>2026-04-19T08:26:46.005Z</time></trkpt><trkpt lat="41.82259889609657" lon="16.11551196876418"><ele>397.6</ele><time>2026-04-19T08:26:47.005Z</time></trkpt><trkpt lat="41.82256144490873" lon="16.115650065055487"><ele>400.0</ele><time>2026-04-19T08:26:48.005Z</time></trkpt><trkpt lat="41.822541488730934" lon="16.115787554400157"><ele>400.0</ele><time>2026-04-19T08:26:49.005Z</time></trkpt><trkpt lat="41.822531437677895" lon="16.1159280042182"><ele>400.0</ele><time>2026-04-19T08:26:50.005Z</time></trkpt><trkpt lat="41.82253643877301" lon="16.11608359202829"><ele>400.0</ele><time>2026-04-19T08:26:51.005Z</time></trkpt><trkpt lat="41.82254600642284" lon="16.116247662112038"><ele>400.0</ele><time>2026-04-19T08:26:52.005Z</time></trkpt><trkpt lat="41.822540161137674" lon="16.11639742197525"><ele>400.00000000000006</ele><time>2026-04-19T08:26:53.005Z</time></trkpt><trkpt lat="41.822531669370925" lon="16.116525442763376"><ele>400.0</ele><time>2026-04-19T08:26:54.005Z</time></trkpt><trkpt lat="41.82250577187987" lon="16.11664776899316"><ele>400.0</ele><time>2026-04-19T08:26:55.005Z</time></trkpt><trkpt lat="41.82246845277056" lon="16.116752675901683"><ele>400.0</ele><time>2026-04-19T08:26:56.005Z</time></trkpt><trkpt lat="41.822409158800546" lon="16.11682997858854"><ele>400.00000000000006</ele><time>2026-04-19T08:26:57.005Z</time></trkpt><trkpt lat="41.822350584001775" lon="16.116876279430976"><ele>400.0</ele><time>2026-04-19T08:26:58.005Z</time></trkpt><trkpt lat="41.82228268935361" lon="16.116893040717965"><ele>400.83333333333337</ele><time>2026-04-19T08:26:59.005Z</time></trkpt><trkpt lat="41.82220591467362" lon="16.11689113500075"><ele>401.6666666666667</ele><time>2026-04-19T08:27:00.005Z</time></trkpt><trkpt lat="41.82211512289605" lon="16.11687192037169"><ele>402.5</ele><time>2026-04-19T08:27:01.005Z</time></trkpt><trkpt lat="41.822028571184944" lon="16.116843607178268"><ele>403.33333333333337</ele><time>2026-04-19T08:27:02.005Z</time></trkpt><trkpt lat="41.82192954240394" lon="16.116830362027226"><ele>404.1666666666667</ele><time>2026-04-19T08:27:03.005Z</time></trkpt><trkpt lat="41.82184479053825" lon="16.11682951939747"><ele>405.0</ele><time>2026-04-19T08:27:04.005Z</time></trkpt><trkpt lat="41.82175777904086" lon="16.116837995547268"><ele>405.0</ele><time>2026-04-19T08:27:05.005Z</time></trkpt><trkpt lat="41.821684078641134" lon="16.11686164835333"><ele>405.0</ele><time>2026-04-19T08:27:06.005Z</time></trkpt><trkpt lat="41.82161398132265" lon="16.116919321665303"><ele>405.0</ele><time>2026-04-19T08:27:07.005Z</time></trkpt><trkpt lat="41.82155906467516" lon="16.116966321051564"><ele>405.0</ele><time>2026-04-19T08:27:08.005Z</time></trkpt><trkpt lat="41.82148613649358" lon="16.117122201775608"><ele>405.0</ele><time>2026-04-19T08:27:10.005Z</time></trkpt><trkpt lat="41.82145228123991" lon="16.11728841318271"><ele>405.0</ele><time>2026-04-19T08:27:12.005Z</time></trkpt><trkpt lat="41.821448184141964" lon="16.117396235391354"><ele>405.0</ele><time>2026-04-19T08:27:13.005Z</time></trkpt><trkpt lat="41.82145956119144" lon="16.117509051106484"><ele>405.0</ele><time>2026-04-19T08:27:14.005Z</time></trkpt><trkpt lat="41.82148102605784" lon="16.117644486015877"><ele>405.0</ele><time>2026-04-19T08:27:15.005Z</time></trkpt><trkpt lat="41.821514173451924" lon="16.11776159942396"><ele>405.0</ele><time>2026-04-19T08:27:16.005Z</time></trkpt><trkpt lat="41.82154467932721" lon="16.117909205339586"><ele>403.1666666666667</ele><time>2026-04-19T08:27:17.005Z</time></trkpt><trkpt lat="41.82158400181767" lon="16.11801658629467"><ele>401.33333333333337</ele><time>2026-04-19T08:27:18.005Z</time></trkpt><trkpt lat="41.82161994807558" lon="16.11811496870939"><ele>399.5</ele><time>2026-04-19T08:27:19.005Z</time></trkpt><trkpt lat="41.821648190047284" lon="16.118215950075644"><ele>397.6666666666667</ele><time>2026-04-19T08:27:20.005Z</time></trkpt><trkpt lat="41.82168269628637" lon="16.11830764739645"><ele>395.83333333333337</ele><time>2026-04-19T08:27:21.005Z</time></trkpt><trkpt lat="41.821724872791144" lon="16.118392403785375"><ele>394.0</ele><time>2026-04-19T08:27:22.005Z</time></trkpt><trkpt lat="41.82182547088414" lon="16.118491654270166"><ele>390.00000000000006</ele><time>2026-04-19T08:27:24.006Z</time></trkpt><trkpt lat="41.821889305701355" lon="16.11854858943968"><ele>386.0</ele><time>2026-04-19T08:27:25.006Z</time></trkpt><trkpt lat="41.821951467063144" lon="16.11858078570862"><ele>382.0</ele><time>2026-04-19T08:27:26.006Z</time></trkpt><trkpt lat="41.82201433065092" lon="16.118610357319607"><ele>378.0</ele><time>2026-04-19T08:27:27.006Z</time></trkpt><trkpt lat="41.82207736460369" lon="16.118649086055278"><ele>374.0</ele><time>2026-04-19T08:27:28.006Z</time></trkpt><trkpt lat="41.82218829036827" lon="16.11872061642472"><ele>370.0</ele><time>2026-04-19T08:27:30.003Z</time></trkpt><trkpt lat="41.82224648385251" lon="16.11875710984802"><ele>370.0</ele><time>2026-04-19T08:27:31.003Z</time></trkpt><trkpt lat="41.82230314654603" lon="16.118803708259346"><ele>370.0</ele><time>2026-04-19T08:27:32.003Z</time></trkpt><trkpt lat="41.822413000048385" lon="16.118843798557347"><ele>370.0</ele><time>2026-04-19T08:27:34.003Z</time></trkpt><trkpt lat="41.82252324382894" lon="16.11890037495609"><ele>370.0</ele><time>2026-04-19T08:27:36.004Z</time></trkpt><trkpt lat="41.822580699222264" lon="16.118935374437747"><ele>370.0</ele><time>2026-04-19T08:27:37.004Z</time></trkpt><trkpt lat="41.822685241763914" lon="16.118991927034056"><ele>370.6</ele><time>2026-04-19T08:27:39.003Z</time></trkpt><trkpt lat="41.82280097643187" lon="16.119052845672986"><ele>371.2</ele><time>2026-04-19T08:27:41.004Z</time></trkpt><trkpt lat="41.82286079478216" lon="16.11907972908854"><ele>371.79999999999995</ele><time>2026-04-19T08:27:42.003Z</time></trkpt><trkpt lat="41.82297032867288" lon="16.119139540870506"><ele>372.4</ele><time>2026-04-19T08:27:44.004Z</time></trkpt><trkpt lat="41.823038022812426" lon="16.11917991068898"><ele>373.0</ele><time>2026-04-19T08:27:45.004Z</time></trkpt><trkpt lat="41.82311299355068" lon="16.119208244612608"><ele>373.0</ele><time>2026-04-19T08:27:46.004Z</time></trkpt><trkpt lat="41.823173998797756" lon="16.119229520663943"><ele>373.0</ele><time>2026-04-19T08:27:47.004Z</time></trkpt><trkpt lat="41.82329949907033" lon="16.119258855239558"><ele>373.0</ele><time>2026-04-19T08:27:49.004Z</time></trkpt><trkpt lat="41.82337556901277" lon="16.11926068766714"><ele>373.0</ele><time>2026-04-19T08:27:50.004Z</time></trkpt><trkpt lat="41.8234474914831" lon="16.11928118338096"><ele>373.0</ele><time>2026-04-19T08:27:51.004Z</time></trkpt><trkpt lat="41.82352341570342" lon="16.119285987737744"><ele>373.0</ele><time>2026-04-19T08:27:52.004Z</time></trkpt><trkpt lat="41.8236008396048" lon="16.11929016272543"><ele>369.79999999999995</ele><time>2026-04-19T08:27:53.004Z</time></trkpt><trkpt lat="41.82371442694453" lon="16.119301491785745"><ele>366.6</ele><time>2026-04-19T08:27:55.004Z</time></trkpt><trkpt lat="41.8237871821686" lon="16.119311868768516"><ele>363.4</ele><time>2026-04-19T08:27:56.004Z</time></trkpt><trkpt lat="41.823877255271306" lon="16.119318604765752"><ele>360.20000000000005</ele><time>2026-04-19T08:27:57.004Z</time></trkpt><trkpt lat="41.823941777003796" lon="16.11934426869584"><ele>357.0</ele><time>2026-04-19T08:27:58.004Z</time></trkpt><trkpt lat="41.824065226242716" lon="16.119444196663295"><ele>357.0</ele><time>2026-04-19T08:28:00.004Z</time></trkpt><trkpt lat="41.82417374645699" lon="16.11955252946997"><ele>357.0</ele><time>2026-04-19T08:28:02.004Z</time></trkpt><trkpt lat="41.82423377859841" lon="16.11961861847593"><ele>357.0</ele><time>2026-04-19T08:28:03.004Z</time></trkpt><trkpt lat="41.82432338271617" lon="16.119712340364472"><ele>357.0</ele><time>2026-04-19T08:28:05.004Z</time></trkpt><trkpt lat="41.824430258736434" lon="16.119784821220602"><ele>357.0</ele><time>2026-04-19T08:28:07.004Z</time></trkpt><trkpt lat="41.82453261265579" lon="16.119850328755213"><ele>355.8</ele><time>2026-04-19T08:28:09.004Z</time></trkpt><trkpt lat="41.824595898901116" lon="16.119883029185157"><ele>354.6</ele><time>2026-04-19T08:28:10.004Z</time></trkpt><trkpt lat="41.82472463009108" lon="16.119941835036506"><ele>353.40000000000003</ele><time>2026-04-19T08:28:12.004Z</time></trkpt><trkpt lat="41.82483657404237" lon="16.11998387868155"><ele>352.20000000000005</ele><time>2026-04-19T08:28:14.004Z</time></trkpt><trkpt lat="41.824945961348085" lon="16.120038490187856"><ele>351.0</ele><time>2026-04-19T08:28:16.004Z</time></trkpt><trkpt lat="41.82502325536189" lon="16.120064061033833"><ele>351.0</ele><time>2026-04-19T08:28:17.004Z</time></trkpt><trkpt lat="41.825096202971594" lon="16.120087138743155"><ele>351.0</ele><time>2026-04-19T08:28:18.004Z</time></trkpt><trkpt lat="41.82516717864691" lon="16.120112293391102"><ele>351.0</ele><time>2026-04-19T08:28:19.004Z</time></trkpt><trkpt lat="41.825248087819105" lon="16.120143322973238"><ele>351.0</ele><time>2026-04-19T08:28:20.004Z</time></trkpt><trkpt lat="41.825318079600564" lon="16.12015611132516"><ele>351.0</ele><time>2026-04-19T08:28:21.004Z</time></trkpt><trkpt lat="41.82542977239946" lon="16.120194681789766"><ele>351.0</ele><time>2026-04-19T08:28:23.005Z</time></trkpt><trkpt lat="41.82553147874832" lon="16.12022686124276"><ele>348.5</ele><time>2026-04-19T08:28:25.005Z</time></trkpt><trkpt lat="41.825620802171365" lon="16.120250728444095"><ele>346.0</ele><time>2026-04-19T08:28:27.005Z</time></trkpt><trkpt lat="41.82570014848658" lon="16.120251974175257"><ele>343.5</ele><time>2026-04-19T08:28:30.005Z</time></trkpt><trkpt lat="41.825778041477804" lon="16.120272260839226"><ele>341.0</ele><time>2026-04-19T08:28:32.005Z</time></trkpt><trkpt lat="41.82586495839511" lon="16.12026791197644"><ele>338.5</ele><time>2026-04-19T08:28:35.005Z</time></trkpt><trkpt lat="41.82596298169319" lon="16.120269136841063"><ele>336.0</ele><time>2026-04-19T08:28:37.005Z</time></trkpt><trkpt lat="41.82603170360185" lon="16.120287983056677"><ele>332.6</ele><time>2026-04-19T08:28:39.005Z</time></trkpt><trkpt lat="41.82612989910501" lon="16.120301972320924"><ele>329.20000000000005</ele><time>2026-04-19T08:28:41.005Z</time></trkpt><trkpt lat="41.82624998244344" lon="16.120333972109435"><ele>325.79999999999995</ele><time>2026-04-19T08:28:43.005Z</time></trkpt><trkpt lat="41.82635467023861" lon="16.120366832895613"><ele>322.4</ele><time>2026-04-19T08:28:45.005Z</time></trkpt><trkpt lat="41.82647199156877" lon="16.12039490838018"><ele>319.0</ele><time>2026-04-19T08:28:47.005Z</time></trkpt><trkpt lat="41.826591141467155" lon="16.120429920266535"><ele>319.0</ele><time>2026-04-19T08:28:49.005Z</time></trkpt><trkpt lat="41.8266515477173" lon="16.12046666637811"><ele>319.0</ele><time>2026-04-19T08:28:50.005Z</time></trkpt><trkpt lat="41.82673556510138" lon="16.120513468669127"><ele>319.0</ele><time>2026-04-19T08:28:51.005Z</time></trkpt><trkpt lat="41.82683712741045" lon="16.120536404760426"><ele>319.0</ele><time>2026-04-19T08:28:52.005Z</time></trkpt><trkpt lat="41.82691991198513" lon="16.120555358277155"><ele>319.0</ele><time>2026-04-19T08:28:53.005Z</time></trkpt><trkpt lat="41.826998039660054" lon="16.12058512963411"><ele>319.0</ele><time>2026-04-19T08:28:54.005Z</time></trkpt><trkpt lat="41.827058472635706" lon="16.120613765776653"><ele>317.59999999999997</ele><time>2026-04-19T08:28:55.005Z</time></trkpt><trkpt lat="41.82716842629583" lon="16.120657054013442"><ele>316.2</ele><time>2026-04-19T08:28:57.005Z</time></trkpt><trkpt lat="41.827223915919895" lon="16.120704486189677"><ele>314.79999999999995</ele><time>2026-04-19T08:28:58.005Z</time></trkpt><trkpt lat="41.82733520187403" lon="16.120794338919556"><ele>313.4</ele><time>2026-04-19T08:29:00.005Z</time></trkpt><trkpt lat="41.82739108518849" lon="16.12086410619994"><ele>312.0</ele><time>2026-04-19T08:29:02.005Z</time></trkpt><trkpt lat="41.82744493660182" lon="16.12094688476568"><ele>312.0</ele><time>2026-04-19T08:29:05.006Z</time></trkpt><trkpt lat="41.82748992444207" lon="16.121024543637496"><ele>312.0</ele><time>2026-04-19T08:29:18.006Z</time></trkpt><trkpt lat="41.827493755019624" lon="16.12112875270091"><ele>312.0</ele><time>2026-04-19T08:29:21.006Z</time></trkpt><trkpt lat="41.827490267479185" lon="16.121214408102436"><ele>312.0</ele><time>2026-04-19T08:29:23.006Z</time></trkpt><trkpt lat="41.82749381420074" lon="16.121309931253172"><ele>312.0</ele><time>2026-04-19T08:29:26.006Z</time></trkpt><trkpt lat="41.82749232573856" lon="16.12142039645936"><ele>312.0</ele><time>2026-04-19T08:29:29.006Z</time></trkpt><trkpt lat="41.827500768079055" lon="16.121544589510606"><ele>311.6</ele><time>2026-04-19T08:29:32.006Z</time></trkpt><trkpt lat="41.82750686573365" lon="16.121663288487017"><ele>311.2</ele><time>2026-04-19T08:29:34.006Z</time></trkpt><trkpt lat="41.82751226779407" lon="16.121797691018227"><ele>310.8</ele><time>2026-04-19T08:29:36.004Z</time></trkpt><trkpt lat="41.827533547266626" lon="16.121898657626826"><ele>310.4</ele><time>2026-04-19T08:29:38.004Z</time></trkpt><trkpt lat="41.827548111521565" lon="16.122012198279254"><ele>310.0</ele><time>2026-04-19T08:29:40.004Z</time></trkpt><trkpt lat="41.82754415920379" lon="16.12216441747487"><ele>310.0</ele><time>2026-04-19T08:29:42.004Z</time></trkpt><trkpt lat="41.82755680803951" lon="16.122273165413535"><ele>310.0</ele><time>2026-04-19T08:29:44.003Z</time></trkpt><trkpt lat="41.82756780338161" lon="16.122423994510427"><ele>310.0</ele><time>2026-04-19T08:29:46.004Z</time></trkpt><trkpt lat="41.827564132631146" lon="16.122518146446467"><ele>310.0</ele><time>2026-04-19T08:29:47.004Z</time></trkpt><trkpt lat="41.82756068226052" lon="16.122634520115216"><ele>310.0</ele><time>2026-04-19T08:29:48.004Z</time></trkpt><trkpt lat="41.82754801809033" lon="16.122750906384194"><ele>310.0</ele><time>2026-04-19T08:29:49.003Z</time></trkpt><trkpt lat="41.82752703797199" lon="16.12283651421186"><ele>308.8333333333333</ele><time>2026-04-19T08:29:50.003Z</time></trkpt><trkpt lat="41.82750275970024" lon="16.12293428759249"><ele>307.66666666666663</ele><time>2026-04-19T08:29:51.003Z</time></trkpt><trkpt lat="41.82750761299046" lon="16.12306212968344"><ele>306.5</ele><time>2026-04-19T08:29:53.003Z</time></trkpt><trkpt lat="41.82750447874388" lon="16.123149312911913"><ele>305.3333333333333</ele><time>2026-04-19T08:29:55.003Z</time></trkpt><trkpt lat="41.82750186630059" lon="16.123235778709642"><ele>304.1666666666667</ele><time>2026-04-19T08:30:01.003Z</time></trkpt><trkpt lat="41.82743757022391" lon="16.123222491549004"><ele>303.0</ele><time>2026-04-19T08:31:10.977Z</time></trkpt><trkpt lat="41.82736029263061" lon="16.123314041257046"><ele>301.6</ele><time>2026-04-19T08:31:13.976Z</time></trkpt><trkpt lat="41.82736381828211" lon="16.12345610621247"><ele>300.20000000000005</ele><time>2026-04-19T08:31:15.976Z</time></trkpt><trkpt lat="41.82737335816692" lon="16.1236126544856"><ele>298.8</ele><time>2026-04-19T08:31:17.976Z</time></trkpt><trkpt lat="41.827388425248834" lon="16.123770045557034"><ele>297.40000000000003</ele><time>2026-04-19T08:31:19.976Z</time></trkpt><trkpt lat="41.82739460588457" lon="16.123911821865583"><ele>296.0</ele><time>2026-04-19T08:31:21.976Z</time></trkpt><trkpt lat="41.82739317781254" lon="16.124026628310027"><ele>295.83333333333337</ele><time>2026-04-19T08:31:23.976Z</time></trkpt><trkpt lat="41.827371897552084" lon="16.12413523073903"><ele>295.6666666666667</ele><time>2026-04-19T08:31:26.975Z</time></trkpt><trkpt lat="41.82734044615716" lon="16.124218244626785"><ele>295.5</ele><time>2026-04-19T08:31:29.975Z</time></trkpt><trkpt lat="41.827315416492524" lon="16.124308054072664"><ele>295.3333333333333</ele><time>2026-04-19T08:31:32.975Z</time></trkpt><trkpt lat="41.827240874051" lon="16.124366092850934"><ele>295.16666666666663</ele><time>2026-04-19T08:31:36.975Z</time></trkpt><trkpt lat="41.82718275921564" lon="16.124424598855303"><ele>295.0</ele><time>2026-04-19T08:31:39.975Z</time></trkpt><trkpt lat="41.82712344445093" lon="16.12450000503128"><ele>295.0</ele><time>2026-04-19T08:31:42.974Z</time></trkpt><trkpt lat="41.827086790876514" lon="16.12462127404741"><ele>295.0</ele><time>2026-04-19T08:31:45.975Z</time></trkpt><trkpt lat="41.8270658192343" lon="16.124732629344862"><ele>295.0</ele><time>2026-04-19T08:31:47.975Z</time></trkpt><trkpt lat="41.82701820384785" lon="16.124871666721372"><ele>295.0</ele><time>2026-04-19T08:31:49.974Z</time></trkpt><trkpt lat="41.82698372416204" lon="16.12494583295489"><ele>295.0</ele><time>2026-04-19T08:31:50.974Z</time></trkpt><trkpt lat="41.826948915437576" lon="16.12501796944826"><ele>295.0</ele><time>2026-04-19T08:31:51.974Z</time></trkpt><trkpt lat="41.82691796436052" lon="16.12509589719817"><ele>296.0</ele><time>2026-04-19T08:31:52.974Z</time></trkpt><trkpt lat="41.826871871171235" lon="16.12516609409169"><ele>297.0</ele><time>2026-04-19T08:31:53.974Z</time></trkpt><trkpt lat="41.82681620372845" lon="16.12522955020105"><ele>298.0</ele><time>2026-04-19T08:31:54.974Z</time></trkpt><trkpt lat="41.82677549108341" lon="16.12530893454728"><ele>299.0</ele><time>2026-04-19T08:31:55.974Z</time></trkpt><trkpt lat="41.826737307061556" lon="16.12541095185543"><ele>300.0</ele><time>2026-04-19T08:31:56.974Z</time></trkpt><trkpt lat="41.82670372280183" lon="16.12550340382153"><ele>301.0</ele><time>2026-04-19T08:31:57.974Z</time></trkpt><trkpt lat="41.82666573079204" lon="16.12559350923973"><ele>297.40000000000003</ele><time>2026-04-19T08:31:58.974Z</time></trkpt><trkpt lat="41.82664025034677" lon="16.12567395772299"><ele>293.8</ele><time>2026-04-19T08:31:59.974Z</time></trkpt><trkpt lat="41.82660007604926" lon="16.12574936065305"><ele>290.20000000000005</ele><time>2026-04-19T08:32:00.974Z</time></trkpt><trkpt lat="41.826548735397004" lon="16.125891333844983"><ele>286.6</ele><time>2026-04-19T08:32:02.974Z</time></trkpt><trkpt lat="41.82651739532856" lon="16.12602233100656"><ele>283.0</ele><time>2026-04-19T08:32:04.974Z</time></trkpt><trkpt lat="41.82649078272068" lon="16.126156958500047"><ele>282.8</ele><time>2026-04-19T08:32:06.974Z</time></trkpt><trkpt lat="41.826484615819716" lon="16.12630671360026"><ele>282.6</ele><time>2026-04-19T08:32:08.974Z</time></trkpt><trkpt lat="41.82645418759604" lon="16.12645840037784"><ele>282.4</ele><time>2026-04-19T08:32:10.974Z</time></trkpt><trkpt lat="41.826411364575776" lon="16.126575100501185"><ele>282.2</ele><time>2026-04-19T08:32:12.974Z</time></trkpt><trkpt lat="41.82638809115192" lon="16.126694451384097"><ele>282.0</ele><time>2026-04-19T08:32:14.974Z</time></trkpt><trkpt lat="41.826352877219314" lon="16.126832652515482"><ele>281.1666666666667</ele><time>2026-04-19T08:32:16.974Z</time></trkpt><trkpt lat="41.826331664010155" lon="16.126913494502976"><ele>280.3333333333333</ele><time>2026-04-19T08:32:17.974Z</time></trkpt><trkpt lat="41.82630053946979" lon="16.127061865270342"><ele>279.5</ele><time>2026-04-19T08:32:19.974Z</time></trkpt><trkpt lat="41.82627218669124" lon="16.127151529170536"><ele>278.66666666666663</ele><time>2026-04-19T08:32:20.974Z</time></trkpt><trkpt lat="41.82621177735487" lon="16.127254628286842"><ele>277.8333333333333</ele><time>2026-04-19T08:32:22.974Z</time></trkpt><trkpt lat="41.826124729377675" lon="16.127297572990056"><ele>277.0</ele><time>2026-04-19T08:32:24.974Z</time></trkpt><trkpt lat="41.82600931321367" lon="16.127332734102307"><ele>276.0</ele><time>2026-04-19T08:32:26.974Z</time></trkpt><trkpt lat="41.82594852180922" lon="16.127354692860667"><ele>275.0</ele><time>2026-04-19T08:32:27.975Z</time></trkpt><trkpt lat="41.825858906984216" lon="16.127400548220564"><ele>274.0</ele><time>2026-04-19T08:32:29.975Z</time></trkpt><trkpt lat="41.82577109841484" lon="16.12743265279113"><ele>273.0</ele><time>2026-04-19T08:32:31.975Z</time></trkpt><trkpt lat="41.82569211203969" lon="16.127465823720094"><ele>272.0</ele><time>2026-04-19T08:32:33.975Z</time></trkpt><trkpt lat="41.82561525291784" lon="16.12750494172334"><ele>271.0</ele><time>2026-04-19T08:32:35.975Z</time></trkpt><trkpt lat="41.82552733888941" lon="16.127557750894702"><ele>269.6</ele><time>2026-04-19T08:33:34.975Z</time></trkpt><trkpt lat="41.82555041218284" lon="16.127689329172153"><ele>268.20000000000005</ele><time>2026-04-19T08:33:40.976Z</time></trkpt><trkpt lat="41.82560493139968" lon="16.127805203494454"><ele>266.79999999999995</ele><time>2026-04-19T08:33:42.976Z</time></trkpt><trkpt lat="41.82570865926703" lon="16.127876259472476"><ele>265.4</ele><time>2026-04-19T08:33:44.976Z</time></trkpt><trkpt lat="41.82578785850946" lon="16.127942102632755"><ele>264.0</ele><time>2026-04-19T08:33:46.976Z</time></trkpt><trkpt lat="41.82585714390739" lon="16.128055834731896"><ele>264.0</ele><time>2026-04-19T08:33:48.974Z</time></trkpt><trkpt lat="41.825915840004384" lon="16.128201006049768"><ele>264.0</ele><time>2026-04-19T08:33:50.974Z</time></trkpt><trkpt lat="41.82592702269616" lon="16.12828945190046"><ele>264.0</ele><time>2026-04-19T08:33:51.974Z</time></trkpt><trkpt lat="41.82593015759163" lon="16.128380786181125"><ele>264.0</ele><time>2026-04-19T08:33:52.974Z</time></trkpt><trkpt lat="41.82593357513327" lon="16.128475618122533"><ele>264.0</ele><time>2026-04-19T08:33:53.975Z</time></trkpt><trkpt lat="41.82594713204534" lon="16.128577755895048"><ele>264.0</ele><time>2026-04-19T08:33:54.974Z</time></trkpt><trkpt lat="41.82595320376463" lon="16.128700655824783"><ele>262.8333333333333</ele><time>2026-04-19T08:33:55.974Z</time></trkpt><trkpt lat="41.8259641977944" lon="16.128834773666696"><ele>261.6666666666667</ele><time>2026-04-19T08:33:56.974Z</time></trkpt><trkpt lat="41.82598456968122" lon="16.128950890297713"><ele>260.5</ele><time>2026-04-19T08:33:57.975Z</time></trkpt><trkpt lat="41.825995971613665" lon="16.129049254884453"><ele>259.33333333333337</ele><time>2026-04-19T08:33:58.975Z</time></trkpt><trkpt lat="41.82599893312967" lon="16.12914357319183"><ele>258.1666666666667</ele><time>2026-04-19T08:33:59.974Z</time></trkpt><trkpt lat="41.825990004073994" lon="16.129234813711037"><ele>257.0</ele><time>2026-04-19T08:34:00.974Z</time></trkpt><trkpt lat="41.82599081372827" lon="16.129353502653125"><ele>261.0</ele><time>2026-04-19T08:34:01.974Z</time></trkpt><trkpt lat="41.82597485064135" lon="16.129445568932855"><ele>265.0</ele><time>2026-04-19T08:34:02.974Z</time></trkpt><trkpt lat="41.825906605747534" lon="16.129561181472567"><ele>269.0</ele><time>2026-04-19T08:34:04.974Z</time></trkpt><trkpt lat="41.82578692477645" lon="16.129594527727647"><ele>273.0</ele><time>2026-04-19T08:34:06.974Z</time></trkpt><trkpt lat="41.82570774833271" lon="16.129587183553607"><ele>277.0</ele><time>2026-04-19T08:34:07.974Z</time></trkpt><trkpt lat="41.825622115735285" lon="16.129576926125388"><ele>277.0</ele><time>2026-04-19T08:34:08.973Z</time></trkpt><trkpt lat="41.8255233717386" lon="16.129563243603595"><ele>277.0</ele><time>2026-04-19T08:34:09.973Z</time></trkpt><trkpt lat="41.82545858582534" lon="16.129542254209305"><ele>277.0</ele><time>2026-04-19T08:34:10.973Z</time></trkpt><trkpt lat="41.82537297283249" lon="16.12951153786108"><ele>277.0</ele><time>2026-04-19T08:34:11.974Z</time></trkpt><trkpt lat="41.82530046838346" lon="16.129462511630795"><ele>277.0</ele><time>2026-04-19T08:34:12.974Z</time></trkpt><trkpt lat="41.82522134236934" lon="16.129432639496105"><ele>277.0</ele><time>2026-04-19T08:34:13.974Z</time></trkpt><trkpt lat="41.82514231824524" lon="16.129412963115964"><ele>278.66666666666663</ele><time>2026-04-19T08:34:14.974Z</time></trkpt><trkpt lat="41.82507321464253" lon="16.12937589313469"><ele>280.3333333333333</ele><time>2026-04-19T08:34:15.974Z</time></trkpt><trkpt lat="41.82499918609063" lon="16.12934513224778"><ele>282.0</ele><time>2026-04-19T08:34:16.974Z</time></trkpt><trkpt lat="41.824913505341854" lon="16.129308483254064"><ele>283.6666666666667</ele><time>2026-04-19T08:34:17.974Z</time></trkpt><trkpt lat="41.82484281546218" lon="16.129276799515726"><ele>285.33333333333337</ele><time>2026-04-19T08:34:18.974Z</time></trkpt><trkpt lat="41.82477228456369" lon="16.129266474344277"><ele>287.0</ele><time>2026-04-19T08:34:19.974Z</time></trkpt><trkpt lat="41.8246899233816" lon="16.129244831908903"><ele>287.0</ele><time>2026-04-19T08:34:20.974Z</time></trkpt><trkpt lat="41.824611352331644" lon="16.129209540536095"><ele>287.0</ele><time>2026-04-19T08:34:21.974Z</time></trkpt><trkpt lat="41.82454458220986" lon="16.12919923139979"><ele>287.0</ele><time>2026-04-19T08:34:22.974Z</time></trkpt><trkpt lat="41.82446769608233" lon="16.129193186283917"><ele>287.0</ele><time>2026-04-19T08:34:23.974Z</time></trkpt><trkpt lat="41.82439661711899" lon="16.12917504942922"><ele>287.0</ele><time>2026-04-19T08:34:24.974Z</time></trkpt><trkpt lat="41.82433261353603" lon="16.129144512238994"><ele>287.0</ele><time>2026-04-19T08:34:25.974Z</time></trkpt><trkpt lat="41.824198518311974" lon="16.129104329825903"><ele>287.6</ele><time>2026-04-19T08:34:27.974Z</time></trkpt><trkpt lat="41.824127837666815" lon="16.129099612110387"><ele>288.2</ele><time>2026-04-19T08:34:28.974Z</time></trkpt><trkpt lat="41.824050553583604" lon="16.129082335047126"><ele>288.8</ele><time>2026-04-19T08:34:29.974Z</time></trkpt><trkpt lat="41.823982055905255" lon="16.129047214269253"><ele>289.4</ele><time>2026-04-19T08:34:30.974Z</time></trkpt><trkpt lat="41.82385751294986" lon="16.128936894719377"><ele>290.0</ele><time>2026-04-19T08:34:32.974Z</time></trkpt><trkpt lat="41.8237854771792" lon="16.128885522774507"><ele>291.0</ele><time>2026-04-19T08:34:33.974Z</time></trkpt><trkpt lat="41.823737334941406" lon="16.128811813461127"><ele>292.0</ele><time>2026-04-19T08:34:34.974Z</time></trkpt><trkpt lat="41.823690799063144" lon="16.12873615658139"><ele>293.0</ele><time>2026-04-19T08:34:35.974Z</time></trkpt><trkpt lat="41.823634495771365" lon="16.128656905695173"><ele>294.0</ele><time>2026-04-19T08:34:36.974Z</time></trkpt><trkpt lat="41.8235820920737" lon="16.12858205318513"><ele>295.0</ele><time>2026-04-19T08:34:37.974Z</time></trkpt><trkpt lat="41.82352598283617" lon="16.12850193794433"><ele>296.0</ele><time>2026-04-19T08:34:38.974Z</time></trkpt><trkpt lat="41.823466953746" lon="16.12844757256392"><ele>297.0</ele><time>2026-04-19T08:34:39.974Z</time></trkpt><trkpt lat="41.82340879931493" lon="16.128368169449992"><ele>298.0</ele><time>2026-04-19T08:34:40.974Z</time></trkpt><trkpt lat="41.823364169597504" lon="16.128293069314196"><ele>299.0</ele><time>2026-04-19T08:34:41.974Z</time></trkpt><trkpt lat="41.8233273834117" lon="16.128219527044106"><ele>300.0</ele><time>2026-04-19T08:34:42.974Z</time></trkpt><trkpt lat="41.82323343977175" lon="16.128099172130966"><ele>301.0</ele><time>2026-04-19T08:34:44.974Z</time></trkpt><trkpt lat="41.823166823697704" lon="16.12805652260966"><ele>302.0</ele><time>2026-04-19T08:34:45.974Z</time></trkpt><trkpt lat="41.823110997828834" lon="16.127997607156992"><ele>302.0</ele><time>2026-04-19T08:34:46.974Z</time></trkpt><trkpt lat="41.823027317958335" lon="16.1278908470477"><ele>302.0</ele><time>2026-04-19T08:34:48.974Z</time></trkpt><trkpt lat="41.82294587882658" lon="16.12779671932175"><ele>302.0</ele><time>2026-04-19T08:34:50.974Z</time></trkpt><trkpt lat="41.82285526506856" lon="16.12769012650606"><ele>302.0</ele><time>2026-04-19T08:34:52.974Z</time></trkpt><trkpt lat="41.822753264466954" lon="16.127596485668995"><ele>302.0</ele><time>2026-04-19T08:34:54.974Z</time></trkpt><trkpt lat="41.82266559363225" lon="16.12751529200476"><ele>302.0</ele><time>2026-04-19T08:34:56.974Z</time></trkpt><trkpt lat="41.82258021135986" lon="16.12744577398581"><ele>302.0</ele><time>2026-04-19T08:34:58.974Z</time></trkpt><trkpt lat="41.82249658025383" lon="16.127351930392678"><ele>302.0</ele><time>2026-04-19T08:35:00.974Z</time></trkpt><trkpt lat="41.82242314237933" lon="16.12727864519458"><ele>302.0</ele><time>2026-04-19T08:35:02.974Z</time></trkpt><trkpt lat="41.82236746035991" lon="16.127234686394893"><ele>304.2</ele><time>2026-04-19T08:35:03.974Z</time></trkpt><trkpt lat="41.82228188411814" lon="16.127168791138885"><ele>306.4</ele><time>2026-04-19T08:35:05.974Z</time></trkpt><trkpt lat="41.822189161367746" lon="16.127089490861614"><ele>308.6</ele><time>2026-04-19T08:35:07.974Z</time></trkpt><trkpt lat="41.82209361699492" lon="16.127012174024976"><ele>310.8</ele><time>2026-04-19T08:35:09.974Z</time></trkpt><trkpt lat="41.82197726984844" lon="16.126938618604996"><ele>313.0</ele><time>2026-04-19T08:35:11.974Z</time></trkpt><trkpt lat="41.8219161541693" lon="16.126900435583345"><ele>313.0</ele><time>2026-04-19T08:35:12.974Z</time></trkpt><trkpt lat="41.82184797537089" lon="16.126864094248656"><ele>313.0</ele><time>2026-04-19T08:35:13.974Z</time></trkpt><trkpt lat="41.82177180193395" lon="16.12683797701202"><ele>313.0</ele><time>2026-04-19T08:35:14.974Z</time></trkpt><trkpt lat="41.82171094612746" lon="16.126797077536395"><ele>313.0</ele><time>2026-04-19T08:35:15.974Z</time></trkpt><trkpt lat="41.82165220734628" lon="16.126765709135448"><ele>313.0</ele><time>2026-04-19T08:35:16.974Z</time></trkpt><trkpt lat="41.82158760724006" lon="16.126761726461417"><ele>313.0</ele><time>2026-04-19T08:35:17.974Z</time></trkpt><trkpt lat="41.82151834083147" lon="16.12673456778878"><ele>313.0</ele><time>2026-04-19T08:35:18.974Z</time></trkpt><trkpt lat="41.82144474866907" lon="16.12671196105228"><ele>316.5</ele><time>2026-04-19T08:35:19.975Z</time></trkpt><trkpt lat="41.82138094064313" lon="16.126695934271865"><ele>320.0</ele><time>2026-04-19T08:35:20.975Z</time></trkpt><trkpt lat="41.82126247869806" lon="16.126662785841383"><ele>323.5</ele><time>2026-04-19T08:35:22.975Z</time></trkpt><trkpt lat="41.82119191384615" lon="16.126644861293883"><ele>327.0</ele><time>2026-04-19T08:35:23.975Z</time></trkpt><trkpt lat="41.82112258604189" lon="16.1266326645529"><ele>330.5</ele><time>2026-04-19T08:35:24.975Z</time></trkpt><trkpt lat="41.82102274337852" lon="16.126597157314556"><ele>334.0</ele><time>2026-04-19T08:35:26.975Z</time></trkpt><trkpt lat="41.820897858492515" lon="16.12656073734348"><ele>334.2</ele><time>2026-04-19T08:35:28.975Z</time></trkpt><trkpt lat="41.82080001666044" lon="16.126543628169145"><ele>334.4</ele><time>2026-04-19T08:35:30.975Z</time></trkpt><trkpt lat="41.820717480643054" lon="16.126518510435407"><ele>334.6</ele><time>2026-04-19T08:35:32.975Z</time></trkpt><trkpt lat="41.82061422242531" lon="16.126514158433242"><ele>334.8</ele><time>2026-04-19T08:35:34.975Z</time></trkpt><trkpt lat="41.82048906378344" lon="16.12649553154215"><ele>335.0</ele><time>2026-04-19T08:35:36.975Z</time></trkpt><trkpt lat="41.8203787133285" lon="16.12651671042974"><ele>335.0</ele><time>2026-04-19T08:35:38.975Z</time></trkpt><trkpt lat="41.82025966426376" lon="16.126500351900123"><ele>335.0</ele><time>2026-04-19T08:35:40.975Z</time></trkpt><trkpt lat="41.820189322192526" lon="16.12651183563684"><ele>335.0</ele><time>2026-04-19T08:35:41.975Z</time></trkpt><trkpt lat="41.82011892779852" lon="16.126515054381308"><ele>335.0</ele><time>2026-04-19T08:35:42.975Z</time></trkpt><trkpt lat="41.8200515529565" lon="16.126525009322876"><ele>335.0</ele><time>2026-04-19T08:35:43.975Z</time></trkpt><trkpt lat="41.81998612442818" lon="16.12654625829476"><ele>335.0</ele><time>2026-04-19T08:35:44.975Z</time></trkpt><trkpt lat="41.819903240489964" lon="16.12659363176126"><ele>340.0</ele><time>2026-04-19T08:35:45.975Z</time></trkpt><trkpt lat="41.81982116446135" lon="16.1266015483784"><ele>345.0</ele><time>2026-04-19T08:35:46.975Z</time></trkpt><trkpt lat="41.81972890523673" lon="16.126594179661556"><ele>350.0</ele><time>2026-04-19T08:35:48.975Z</time></trkpt><trkpt lat="41.81964860866947" lon="16.126621071366372"><ele>355.0</ele><time>2026-04-19T08:35:50.975Z</time></trkpt><trkpt lat="41.81957690945084" lon="16.126582985956034"><ele>360.0</ele><time>2026-04-19T08:35:52.975Z</time></trkpt><trkpt lat="41.81948967100633" lon="16.126599563997843"><ele>365.0</ele><time>2026-04-19T08:35:54.974Z</time></trkpt><trkpt lat="41.81942000451441" lon="16.1265777094433"><ele>365.8</ele><time>2026-04-19T08:35:56.973Z</time></trkpt><trkpt lat="41.819349227971536" lon="16.126547329736336"><ele>366.6</ele><time>2026-04-19T08:36:27.974Z</time></trkpt><trkpt lat="41.819266002386634" lon="16.126471194279834"><ele>367.4</ele><time>2026-04-19T08:36:30.974Z</time></trkpt><trkpt lat="41.819166570179775" lon="16.12640782728469"><ele>368.2</ele><time>2026-04-19T08:36:32.974Z</time></trkpt><trkpt lat="41.8190671223908" lon="16.12631262454883"><ele>369.0</ele><time>2026-04-19T08:36:34.974Z</time></trkpt><trkpt lat="41.81900562318958" lon="16.126249868803004"><ele>369.0</ele><time>2026-04-19T08:36:35.974Z</time></trkpt><trkpt lat="41.818925701303925" lon="16.12618552249835"><ele>369.0</ele><time>2026-04-19T08:36:36.974Z</time></trkpt><trkpt lat="41.818794307483124" lon="16.126117506554383"><ele>369.0</ele><time>2026-04-19T08:36:38.974Z</time></trkpt><trkpt lat="41.818699217105085" lon="16.126087804572887"><ele>369.0</ele><time>2026-04-19T08:36:39.974Z</time></trkpt><trkpt lat="41.818612947043945" lon="16.12606374465248"><ele>369.0</ele><time>2026-04-19T08:36:40.974Z</time></trkpt><trkpt lat="41.818545141030505" lon="16.126051521145325"><ele>372.3333333333333</ele><time>2026-04-19T08:36:41.974Z</time></trkpt><trkpt lat="41.81847804131193" lon="16.126035675889355"><ele>375.66666666666663</ele><time>2026-04-19T08:36:42.974Z</time></trkpt><trkpt lat="41.818398401102655" lon="16.126037890034514"><ele>379.0</ele><time>2026-04-19T08:36:43.974Z</time></trkpt><trkpt lat="41.81827170621856" lon="16.1260233553021"><ele>382.3333333333333</ele><time>2026-04-19T08:36:45.974Z</time></trkpt><trkpt lat="41.81820794348997" lon="16.126009468486448"><ele>385.66666666666663</ele><time>2026-04-19T08:36:46.974Z</time></trkpt><trkpt lat="41.81814516244248" lon="16.125996369274066"><ele>389.0</ele><time>2026-04-19T08:36:47.974Z</time></trkpt><trkpt lat="41.81806610694952" lon="16.1259955447373"><ele>388.99999999999994</ele><time>2026-04-19T08:36:48.974Z</time></trkpt><trkpt lat="41.81798163034187" lon="16.125991512812444"><ele>389.0</ele><time>2026-04-19T08:36:49.974Z</time></trkpt><trkpt lat="41.81785222878483" lon="16.125971335266332"><ele>389.0</ele><time>2026-04-19T08:36:51.975Z</time></trkpt><trkpt lat="41.817787337871344" lon="16.125953405803795"><ele>389.0</ele><time>2026-04-19T08:36:52.975Z</time></trkpt><trkpt lat="41.817713860381204" lon="16.125919225567507"><ele>388.99999999999994</ele><time>2026-04-19T08:36:53.975Z</time></trkpt><trkpt lat="41.81764960852053" lon="16.125875409583806"><ele>389.0</ele><time>2026-04-19T08:36:54.975Z</time></trkpt><trkpt lat="41.81756238080345" lon="16.1257659438136"><ele>390.5</ele><time>2026-04-19T08:36:56.975Z</time></trkpt><trkpt lat="41.817535526658695" lon="16.125608049780507"><ele>392.0</ele><time>2026-04-19T08:36:58.975Z</time></trkpt><trkpt lat="41.8175943495026" lon="16.12542693327256"><ele>393.5</ele><time>2026-04-19T08:37:00.975Z</time></trkpt><trkpt lat="41.817655186757" lon="16.125349271920822"><ele>395.0</ele><time>2026-04-19T08:37:01.975Z</time></trkpt><trkpt lat="41.81773961993794" lon="16.125265454306195"><ele>395.0</ele><time>2026-04-19T08:37:02.975Z</time></trkpt><trkpt lat="41.817849966106" lon="16.125199312619827"><ele>395.0</ele><time>2026-04-19T08:37:03.975Z</time></trkpt><trkpt lat="41.817968970185994" lon="16.125138710124055"><ele>395.0</ele><time>2026-04-19T08:37:04.975Z</time></trkpt><trkpt lat="41.81808131288891" lon="16.125065348082245"><ele>395.0</ele><time>2026-04-19T08:37:05.975Z</time></trkpt><trkpt lat="41.81817728027353" lon="16.124991110967986"><ele>395.0</ele><time>2026-04-19T08:37:06.975Z</time></trkpt><trkpt lat="41.818276660739116" lon="16.124902461714626"><ele>395.0</ele><time>2026-04-19T08:37:07.975Z</time></trkpt><trkpt lat="41.81835146276077" lon="16.124813237395287"><ele>395.0</ele><time>2026-04-19T08:37:08.975Z</time></trkpt><trkpt lat="41.8184160146361" lon="16.124736313090533"><ele>395.0</ele><time>2026-04-19T08:37:09.975Z</time></trkpt><trkpt lat="41.81847519794802" lon="16.124657426179077"><ele>395.0</ele><time>2026-04-19T08:37:10.975Z</time></trkpt><trkpt lat="41.81852229567588" lon="16.124578072637423"><ele>395.8333333333333</ele><time>2026-04-19T08:37:11.975Z</time></trkpt><trkpt lat="41.81854765323265" lon="16.124462820538053"><ele>396.66666666666663</ele><time>2026-04-19T08:37:12.975Z</time></trkpt><trkpt lat="41.81855291824805" lon="16.124350209386485"><ele>397.5</ele><time>2026-04-19T08:37:13.975Z</time></trkpt><trkpt lat="41.81854153905212" lon="16.124259040741958"><ele>398.33333333333337</ele><time>2026-04-19T08:37:14.975Z</time></trkpt><trkpt lat="41.818517041676046" lon="16.124164985348134"><ele>399.1666666666667</ele><time>2026-04-19T08:37:15.975Z</time></trkpt><trkpt lat="41.8184761357637" lon="16.124032680728213"><ele>400.0</ele><time>2026-04-19T08:37:16.975Z</time></trkpt><trkpt lat="41.818430039109806" lon="16.123916119174392"><ele>400.00000000000006</ele><time>2026-04-19T08:37:17.975Z</time></trkpt><trkpt lat="41.81838121428863" lon="16.12381286390971"><ele>400.0</ele><time>2026-04-19T08:37:18.975Z</time></trkpt><trkpt lat="41.818340960032046" lon="16.123730360650924"><ele>400.0</ele><time>2026-04-19T08:37:19.975Z</time></trkpt><trkpt lat="41.81831289933893" lon="16.123631891758926"><ele>400.0</ele><time>2026-04-19T08:37:20.975Z</time></trkpt><trkpt lat="41.81828074925791" lon="16.12355243268721"><ele>400.00000000000006</ele><time>2026-04-19T08:37:21.975Z</time></trkpt><trkpt lat="41.81823834473023" lon="16.12347618464967"><ele>400.0</ele><time>2026-04-19T08:37:22.975Z</time></trkpt><trkpt lat="41.8182038491257" lon="16.123395265145277"><ele>400.00000000000006</ele><time>2026-04-19T08:37:23.975Z</time></trkpt><trkpt lat="41.81817032961522" lon="16.123315291415373"><ele>400.0</ele><time>2026-04-19T08:37:24.975Z</time></trkpt><trkpt lat="41.818127179542024" lon="16.12323193809213"><ele>400.0</ele><time>2026-04-19T08:37:25.975Z</time></trkpt><trkpt lat="41.81809017379581" lon="16.123142805188124"><ele>400.0</ele><time>2026-04-19T08:37:26.975Z</time></trkpt><trkpt lat="41.81805799770292" lon="16.123067110152856"><ele>400.0</ele><time>2026-04-19T08:37:27.975Z</time></trkpt><trkpt lat="41.81802189584229" lon="16.12298310745027"><ele>400.00000000000006</ele><time>2026-04-19T08:37:28.975Z</time></trkpt><trkpt lat="41.81797766876639" lon="16.1228841680576"><ele>400.0</ele><time>2026-04-19T08:37:29.975Z</time></trkpt><trkpt lat="41.817930828617676" lon="16.122786144410895"><ele>397.83333333333337</ele><time>2026-04-19T08:37:30.975Z</time></trkpt><trkpt lat="41.8178972769949" lon="16.122701539115663"><ele>395.6666666666667</ele><time>2026-04-19T08:37:31.975Z</time></trkpt><trkpt lat="41.81785371083512" lon="16.12261390076424"><ele>393.5</ele><time>2026-04-19T08:37:32.975Z</time></trkpt><trkpt lat="41.81781455474629" lon="16.122528861331418"><ele>391.33333333333337</ele><time>2026-04-19T08:37:33.975Z</time></trkpt><trkpt lat="41.81776922084924" lon="16.122435774574353"><ele>389.1666666666667</ele><time>2026-04-19T08:37:34.975Z</time></trkpt><trkpt lat="41.81773302352215" lon="16.122347072237307"><ele>387.0</ele><time>2026-04-19T08:37:35.975Z</time></trkpt><trkpt lat="41.81769037050497" lon="16.122268052596723"><ele>390.5</ele><time>2026-04-19T08:37:36.975Z</time></trkpt><trkpt lat="41.81765100371487" lon="16.122190790504444"><ele>394.0</ele><time>2026-04-19T08:37:37.975Z</time></trkpt><trkpt lat="41.81761237175502" lon="16.12210099191419"><ele>397.5</ele><time>2026-04-19T08:37:38.975Z</time></trkpt><trkpt lat="41.81756740305571" lon="16.122002211682787"><ele>401.0</ele><time>2026-04-19T08:37:39.975Z</time></trkpt><trkpt lat="41.817506323093525" lon="16.12188434943849"><ele>404.5</ele><time>2026-04-19T08:37:40.975Z</time></trkpt><trkpt lat="41.817459705856464" lon="16.121806441657796"><ele>408.0</ele><time>2026-04-19T08:37:41.975Z</time></trkpt><trkpt lat="41.817395411701014" lon="16.121723595288735"><ele>408.0</ele><time>2026-04-19T08:37:42.975Z</time></trkpt><trkpt lat="41.81732261290662" lon="16.12165020213855"><ele>408.0</ele><time>2026-04-19T08:37:43.975Z</time></trkpt><trkpt lat="41.81725315649884" lon="16.121594761036462"><ele>408.0</ele><time>2026-04-19T08:37:44.975Z</time></trkpt><trkpt lat="41.81717093000647" lon="16.121548588304346"><ele>408.0</ele><time>2026-04-19T08:37:45.975Z</time></trkpt><trkpt lat="41.817091975805546" lon="16.12152083681739"><ele>408.0</ele><time>2026-04-19T08:37:46.975Z</time></trkpt><trkpt lat="41.81701043711725" lon="16.121503103891072"><ele>408.0</ele><time>2026-04-19T08:37:47.975Z</time></trkpt><trkpt lat="41.8169284120091" lon="16.121502784903615"><ele>409.79999999999995</ele><time>2026-04-19T08:37:48.975Z</time></trkpt><trkpt lat="41.81683408909171" lon="16.121509695516266"><ele>411.6</ele><time>2026-04-19T08:37:49.975Z</time></trkpt><trkpt lat="41.81674610431829" lon="16.121533420555874"><ele>413.4</ele><time>2026-04-19T08:37:50.975Z</time></trkpt><trkpt lat="41.816664142957755" lon="16.12155551360042"><ele>415.20000000000005</ele><time>2026-04-19T08:37:51.975Z</time></trkpt><trkpt lat="41.816564131853525" lon="16.1215929564903"><ele>417.0</ele><time>2026-04-19T08:37:52.975Z</time></trkpt><trkpt lat="41.816449281291135" lon="16.121631114593953"><ele>417.0</ele><time>2026-04-19T08:37:53.975Z</time></trkpt><trkpt lat="41.816341091785134" lon="16.12167532862011"><ele>417.0</ele><time>2026-04-19T08:37:54.975Z</time></trkpt><trkpt lat="41.81624002780156" lon="16.121731066136217"><ele>417.0</ele><time>2026-04-19T08:37:55.975Z</time></trkpt><trkpt lat="41.81614031393442" lon="16.121791374556928"><ele>417.0</ele><time>2026-04-19T08:37:56.975Z</time></trkpt><trkpt lat="41.816048119908444" lon="16.12185471348526"><ele>417.0</ele><time>2026-04-19T08:37:57.975Z</time></trkpt><trkpt lat="41.81596252757021" lon="16.121890366781535"><ele>417.1666666666667</ele><time>2026-04-19T08:37:58.975Z</time></trkpt><trkpt lat="41.81589430037431" lon="16.121944731082305"><ele>417.33333333333337</ele><time>2026-04-19T08:37:59.975Z</time></trkpt><trkpt lat="41.81582676767825" lon="16.121997075329787"><ele>417.5</ele><time>2026-04-19T08:38:00.974Z</time></trkpt><trkpt lat="41.8157457700589" lon="16.122036358131215"><ele>417.6666666666667</ele><time>2026-04-19T08:38:01.974Z</time></trkpt><trkpt lat="41.815659962689544" lon="16.122100283972184"><ele>417.83333333333337</ele><time>2026-04-19T08:38:02.975Z</time></trkpt><trkpt lat="41.81559981324767" lon="16.122155317007557"><ele>418.0</ele><time>2026-04-19T08:38:03.975Z</time></trkpt><trkpt lat="41.81552975172844" lon="16.12217239303208"><ele>418.00000000000006</ele><time>2026-04-19T08:38:04.975Z</time></trkpt><trkpt lat="41.81542935883449" lon="16.12211239166806"><ele>418.0</ele><time>2026-04-19T08:38:06.975Z</time></trkpt><trkpt lat="41.81538889658621" lon="16.12204072689318"><ele>418.0</ele><time>2026-04-19T08:38:07.975Z</time></trkpt><trkpt lat="41.815380019537784" lon="16.121950482949657"><ele>418.0</ele><time>2026-04-19T08:38:08.974Z</time></trkpt><trkpt lat="41.815401177059606" lon="16.12185808304583"><ele>418.00000000000006</ele><time>2026-04-19T08:38:09.975Z</time></trkpt><trkpt lat="41.815424937378346" lon="16.121737054394167"><ele>418.0</ele><time>2026-04-19T08:38:10.975Z</time></trkpt><trkpt lat="41.81545138111577" lon="16.121596786203522"><ele>417.4</ele><time>2026-04-19T08:38:11.975Z</time></trkpt><trkpt lat="41.815460997318276" lon="16.121429696454644"><ele>416.79999999999995</ele><time>2026-04-19T08:38:12.974Z</time></trkpt><trkpt lat="41.81548961442561" lon="16.121340200627298"><ele>416.2</ele><time>2026-04-19T08:38:13.974Z</time></trkpt><trkpt lat="41.81552516941322" lon="16.121181956698816"><ele>415.6</ele><time>2026-04-19T08:38:15.974Z</time></trkpt><trkpt lat="41.8155578066862" lon="16.121078771297647"><ele>415.0</ele><time>2026-04-19T08:38:16.975Z</time></trkpt><trkpt lat="41.81559794562095" lon="16.12098069137745"><ele>415.0</ele><time>2026-04-19T08:38:17.975Z</time></trkpt><trkpt lat="41.81564479759429" lon="16.120872353178633"><ele>415.0</ele><time>2026-04-19T08:38:18.975Z</time></trkpt><trkpt lat="41.815677764842" lon="16.1207509994182"><ele>415.0</ele><time>2026-04-19T08:38:19.975Z</time></trkpt><trkpt lat="41.81570358568864" lon="16.120642692728115"><ele>415.0</ele><time>2026-04-19T08:38:20.975Z</time></trkpt><trkpt lat="41.81575276381315" lon="16.120555932582235"><ele>415.0</ele><time>2026-04-19T08:38:21.975Z</time></trkpt><trkpt lat="41.81581329774756" lon="16.120451856043267"><ele>417.8</ele><time>2026-04-19T08:38:22.975Z</time></trkpt><trkpt lat="41.815871200426045" lon="16.120337467614558"><ele>420.6</ele><time>2026-04-19T08:38:23.975Z</time></trkpt><trkpt lat="41.815945821292054" lon="16.120220374749607"><ele>423.4</ele><time>2026-04-19T08:38:24.975Z</time></trkpt><trkpt lat="41.81601577642681" lon="16.120118077752164"><ele>426.2</ele><time>2026-04-19T08:38:25.975Z</time></trkpt><trkpt lat="41.81609502034779" lon="16.120021699742985"><ele>429.0</ele><time>2026-04-19T08:38:26.975Z</time></trkpt><trkpt lat="41.81614476804378" lon="16.11993647194871"><ele>425.5</ele><time>2026-04-19T08:38:27.975Z</time></trkpt><trkpt lat="41.8162124496905" lon="16.119863925616134"><ele>422.0</ele><time>2026-04-19T08:38:28.975Z</time></trkpt><trkpt lat="41.816283860341734" lon="16.11978802675142"><ele>418.5</ele><time>2026-04-19T08:38:29.975Z</time></trkpt><trkpt lat="41.81634944469775" lon="16.119726665220714"><ele>415.0</ele><time>2026-04-19T08:38:30.975Z</time></trkpt><trkpt lat="41.81640967343909" lon="16.1196655691443"><ele>411.5</ele><time>2026-04-19T08:38:31.975Z</time></trkpt><trkpt lat="41.816440005636814" lon="16.119590586089107"><ele>408.0</ele><time>2026-04-19T08:38:32.975Z</time></trkpt><trkpt lat="41.81651044476345" lon="16.119444617253116"><ele>408.0</ele><time>2026-04-19T08:38:34.975Z</time></trkpt><trkpt lat="41.81653532499949" lon="16.119347970623263"><ele>408.0</ele><time>2026-04-19T08:38:35.975Z</time></trkpt><trkpt lat="41.816559609213044" lon="16.119259487742294"><ele>408.0</ele><time>2026-04-19T08:38:36.975Z</time></trkpt><trkpt lat="41.81658011396502" lon="16.11917353324434"><ele>408.0</ele><time>2026-04-19T08:38:37.975Z</time></trkpt><trkpt lat="41.81660769322676" lon="16.11901219091656"><ele>408.0</ele><time>2026-04-19T08:38:39.975Z</time></trkpt><trkpt lat="41.81661367175203" lon="16.118914045822507"><ele>408.0</ele><time>2026-04-19T08:38:40.975Z</time></trkpt><trkpt lat="41.816599735324935" lon="16.118804004861474"><ele>408.3333333333333</ele><time>2026-04-19T08:38:41.975Z</time></trkpt><trkpt lat="41.81658842210145" lon="16.118694665222687"><ele>408.66666666666663</ele><time>2026-04-19T08:38:42.975Z</time></trkpt><trkpt lat="41.816609535535434" lon="16.11860435860269"><ele>409.0</ele><time>2026-04-19T08:38:43.975Z</time></trkpt><trkpt lat="41.81663742201649" lon="16.118501729999725"><ele>409.3333333333333</ele><time>2026-04-19T08:38:44.975Z</time></trkpt><trkpt lat="41.81665490454062" lon="16.118380715609547"><ele>409.66666666666663</ele><time>2026-04-19T08:38:45.975Z</time></trkpt><trkpt lat="41.81667655428003" lon="16.11828113402716"><ele>410.0</ele><time>2026-04-19T08:38:46.975Z</time></trkpt><trkpt lat="41.816693578829806" lon="16.118196528013595"><ele>409.49999999999994</ele><time>2026-04-19T08:38:47.975Z</time></trkpt><trkpt lat="41.81671089383684" lon="16.118100929987587"><ele>409.0</ele><time>2026-04-19T08:38:48.975Z</time></trkpt><trkpt lat="41.81669980569828" lon="16.118011985924067"><ele>408.5</ele><time>2026-04-19T08:38:49.975Z</time></trkpt><trkpt lat="41.81669368302362" lon="16.117908396032835"><ele>408.0</ele><time>2026-04-19T08:38:50.975Z</time></trkpt><trkpt lat="41.816747914441116" lon="16.117742519105565"><ele>407.49999999999994</ele><time>2026-04-19T08:38:52.975Z</time></trkpt><trkpt lat="41.816797306895594" lon="16.11766932773968"><ele>407.0</ele><time>2026-04-19T08:38:53.975Z</time></trkpt><trkpt lat="41.816856043320286" lon="16.117601890082657"><ele>406.99999999999994</ele><time>2026-04-19T08:38:54.975Z</time></trkpt><trkpt lat="41.81693095835551" lon="16.117545401386963"><ele>407.0</ele><time>2026-04-19T08:38:55.975Z</time></trkpt><trkpt lat="41.81702099068707" lon="16.117483836492326"><ele>407.0</ele><time>2026-04-19T08:38:56.975Z</time></trkpt><trkpt lat="41.81708633610995" lon="16.117434895201182"><ele>407.0</ele><time>2026-04-19T08:38:57.975Z</time></trkpt><trkpt lat="41.81715706331673" lon="16.117386866429168"><ele>406.99999999999994</ele><time>2026-04-19T08:38:58.975Z</time></trkpt><trkpt lat="41.817261358529414" lon="16.117352149264285"><ele>407.0</ele><time>2026-04-19T08:39:00.975Z</time></trkpt><trkpt lat="41.817323571339905" lon="16.117371359722085"><ele>407.0</ele><time>2026-04-19T08:39:01.975Z</time></trkpt><trkpt lat="41.81737800870919" lon="16.117426112606342"><ele>407.0</ele><time>2026-04-19T08:39:02.975Z</time></trkpt><trkpt lat="41.81745506252017" lon="16.117573165931006"><ele>407.0</ele><time>2026-04-19T08:39:04.975Z</time></trkpt><trkpt lat="41.81746698987969" lon="16.117705394932045"><ele>407.0</ele><time>2026-04-19T08:39:05.975Z</time></trkpt><trkpt lat="41.81747688941483" lon="16.117855618834767"><ele>407.0</ele><time>2026-04-19T08:39:06.975Z</time></trkpt><trkpt lat="41.81749752615739" lon="16.1180215567622"><ele>406.99999999999994</ele><time>2026-04-19T08:39:07.975Z</time></trkpt><trkpt lat="41.8175128268268" lon="16.118148690887246"><ele>407.0</ele><time>2026-04-19T08:39:08.975Z</time></trkpt><trkpt lat="41.81753818965205" lon="16.11825760994186"><ele>407.0</ele><time>2026-04-19T08:39:09.975Z</time></trkpt><trkpt lat="41.81756414475614" lon="16.118364927996364"><ele>407.0</ele><time>2026-04-19T08:39:10.975Z</time></trkpt><trkpt lat="41.81758421245936" lon="16.118457706438818"><ele>406.99999999999994</ele><time>2026-04-19T08:39:11.975Z</time></trkpt><trkpt lat="41.81760366176607" lon="16.11857372999974"><ele>407.0</ele><time>2026-04-19T08:39:12.975Z</time></trkpt><trkpt lat="41.81762693586006" lon="16.118690177741595"><ele>406.8333333333333</ele><time>2026-04-19T08:39:13.975Z</time></trkpt><trkpt lat="41.81766849508293" lon="16.11879593136126"><ele>406.66666666666663</ele><time>2026-04-19T08:39:14.975Z</time></trkpt><trkpt lat="41.817711220366796" lon="16.11891186745138"><ele>406.5</ele><time>2026-04-19T08:39:15.975Z</time></trkpt><trkpt lat="41.817758727498365" lon="16.11899076963536"><ele>406.33333333333337</ele><time>2026-04-19T08:39:16.975Z</time></trkpt><trkpt lat="41.817811703734485" lon="16.11907809217323"><ele>406.1666666666667</ele><time>2026-04-19T08:39:17.975Z</time></trkpt><trkpt lat="41.817873222477886" lon="16.11913427864753"><ele>406.0</ele><time>2026-04-19T08:39:18.975Z</time></trkpt><trkpt lat="41.8179273872841" lon="16.119200399224805"><ele>406.00000000000006</ele><time>2026-04-19T08:39:19.975Z</time></trkpt><trkpt lat="41.817978952655174" lon="16.119286622631616"><ele>406.0</ele><time>2026-04-19T08:39:20.976Z</time></trkpt><trkpt lat="41.818040582475255" lon="16.11933890284368"><ele>406.0</ele><time>2026-04-19T08:39:21.976Z</time></trkpt><trkpt lat="41.818111483869856" lon="16.119374830244592"><ele>406.0</ele><time>2026-04-19T08:39:22.976Z</time></trkpt><trkpt lat="41.81817932824011" lon="16.119428351787548"><ele>406.00000000000006</ele><time>2026-04-19T08:39:23.976Z</time></trkpt><trkpt lat="41.818241942910845" lon="16.11947310620782"><ele>406.0</ele><time>2026-04-19T08:39:24.976Z</time></trkpt><trkpt lat="41.8183128034946" lon="16.119515173525425"><ele>406.0</ele><time>2026-04-19T08:39:25.976Z</time></trkpt><trkpt lat="41.81837732850983" lon="16.119574814024308"><ele>406.0</ele><time>2026-04-19T08:39:26.976Z</time></trkpt><trkpt lat="41.81845011636083" lon="16.11961495417436"><ele>406.0</ele><time>2026-04-19T08:39:27.976Z</time></trkpt><trkpt lat="41.81854696871692" lon="16.119704858371996"><ele>406.0</ele><time>2026-04-19T08:39:29.976Z</time></trkpt><trkpt lat="41.81860235193711" lon="16.119750837734134"><ele>406.0</ele><time>2026-04-19T08:39:30.976Z</time></trkpt><trkpt lat="41.818713590955625" lon="16.11981232414434"><ele>404.20000000000005</ele><time>2026-04-19T08:39:32.976Z</time></trkpt><trkpt lat="41.81876038138606" lon="16.119916889906687"><ele>402.40000000000003</ele><time>2026-04-19T08:39:33.976Z</time></trkpt><trkpt lat="41.81880557307183" lon="16.12001565581957"><ele>400.6</ele><time>2026-04-19T08:39:34.976Z</time></trkpt><trkpt lat="41.81883653199076" lon="16.120137493077806"><ele>398.8</ele><time>2026-04-19T08:39:35.976Z</time></trkpt><trkpt lat="41.81888247722386" lon="16.120270720454787"><ele>397.0</ele><time>2026-04-19T08:39:36.976Z</time></trkpt><trkpt lat="41.81891832659704" lon="16.12042345154907"><ele>397.0</ele><time>2026-04-19T08:39:37.976Z</time></trkpt><trkpt lat="41.818976283314804" lon="16.120550486972817"><ele>397.0</ele><time>2026-04-19T08:39:38.976Z</time></trkpt><trkpt lat="41.81901676166795" lon="16.12065810543323"><ele>397.0</ele><time>2026-04-19T08:39:39.976Z</time></trkpt><trkpt lat="41.81906211251922" lon="16.120735308169742"><ele>397.0</ele><time>2026-04-19T08:39:40.976Z</time></trkpt><trkpt lat="41.81914310035801" lon="16.120826517310768"><ele>397.0</ele><time>2026-04-19T08:39:41.976Z</time></trkpt><trkpt lat="41.81920967814448" lon="16.120897071596975"><ele>396.0</ele><time>2026-04-19T08:39:42.976Z</time></trkpt><trkpt lat="41.81928116776656" lon="16.120957818331963"><ele>395.0</ele><time>2026-04-19T08:39:43.976Z</time></trkpt><trkpt lat="41.819363891914" lon="16.121039589114908"><ele>394.0</ele><time>2026-04-19T08:39:44.976Z</time></trkpt><trkpt lat="41.81944694873869" lon="16.12114288375315"><ele>393.0</ele><time>2026-04-19T08:39:45.976Z</time></trkpt><trkpt lat="41.81952358102829" lon="16.121255865743336"><ele>392.0</ele><time>2026-04-19T08:39:46.976Z</time></trkpt><trkpt lat="41.819593647280605" lon="16.121351716509842"><ele>392.0</ele><time>2026-04-19T08:39:47.976Z</time></trkpt><trkpt lat="41.819683322549245" lon="16.121436901238"><ele>392.0</ele><time>2026-04-19T08:39:48.976Z</time></trkpt><trkpt lat="41.81977198976557" lon="16.12153311303023"><ele>392.0</ele><time>2026-04-19T08:39:49.976Z</time></trkpt><trkpt lat="41.819872727442295" lon="16.121633836080953"><ele>392.0</ele><time>2026-04-19T08:39:50.976Z</time></trkpt><trkpt lat="41.81995186067244" lon="16.12171121866879"><ele>392.0</ele><time>2026-04-19T08:39:51.976Z</time></trkpt><trkpt lat="41.820036010710524" lon="16.121773640968332"><ele>388.20000000000005</ele><time>2026-04-19T08:39:52.976Z</time></trkpt><trkpt lat="41.82012997072459" lon="16.121827869694528"><ele>384.4</ele><time>2026-04-19T08:39:53.976Z</time></trkpt><trkpt lat="41.82021246583379" lon="16.12187454190706"><ele>380.6</ele><time>2026-04-19T08:39:54.976Z</time></trkpt><trkpt lat="41.820293453577825" lon="16.121866360842876"><ele>376.79999999999995</ele><time>2026-04-19T08:39:55.976Z</time></trkpt><trkpt lat="41.82036318148077" lon="16.121875018262156"><ele>373.0</ele><time>2026-04-19T08:39:56.976Z</time></trkpt><trkpt lat="41.82047855988899" lon="16.121828428172094"><ele>372.0</ele><time>2026-04-19T08:39:58.976Z</time></trkpt><trkpt lat="41.820540788024154" lon="16.121704567088482"><ele>371.0</ele><time>2026-04-19T08:40:00.976Z</time></trkpt><trkpt lat="41.82055846684708" lon="16.121571981943603"><ele>370.0</ele><time>2026-04-19T08:40:02.976Z</time></trkpt><trkpt lat="41.820540589210886" lon="16.12144371395764"><ele>369.0</ele><time>2026-04-19T08:40:04.976Z</time></trkpt><trkpt lat="41.82053185470619" lon="16.12131052546711"><ele>368.0</ele><time>2026-04-19T08:40:06.975Z</time></trkpt><trkpt lat="41.820519501132125" lon="16.12119435183506"><ele>368.0</ele><time>2026-04-19T08:40:08.975Z</time></trkpt><trkpt lat="41.82050298354929" lon="16.12108867418275"><ele>368.0</ele><time>2026-04-19T08:40:11.975Z</time></trkpt><trkpt lat="41.82048088402444" lon="16.12100763835477"><ele>368.0</ele><time>2026-04-19T08:40:30.975Z</time></trkpt><trkpt lat="41.820495720832696" lon="16.120917344602532"><ele>368.0</ele><time>2026-04-19T08:40:33.975Z</time></trkpt><trkpt lat="41.82051543891693" lon="16.12080780391381"><ele>368.0</ele><time>2026-04-19T08:40:36.975Z</time></trkpt><trkpt lat="41.82051332994773" lon="16.120678572341756"><ele>368.0</ele><time>2026-04-19T08:40:39.975Z</time></trkpt><trkpt lat="41.8205119019157" lon="16.120587061408308"><ele>369.79999999999995</ele><time>2026-04-19T08:40:41.976Z</time></trkpt><trkpt lat="41.82051876985046" lon="16.120472154448088"><ele>371.6</ele><time>2026-04-19T08:40:43.976Z</time></trkpt><trkpt lat="41.82051145366176" lon="16.120350948972398"><ele>373.4</ele><time>2026-04-19T08:40:45.976Z</time></trkpt><trkpt lat="41.820523664976065" lon="16.120216047111576"><ele>375.20000000000005</ele><time>2026-04-19T08:40:47.976Z</time></trkpt><trkpt lat="41.82053416871226" lon="16.120048361943887"><ele>377.0</ele><time>2026-04-19T08:40:49.976Z</time></trkpt><trkpt lat="41.820573603020385" lon="16.11991000963742"><ele>377.33333333333337</ele><time>2026-04-19T08:40:51.976Z</time></trkpt><trkpt lat="41.82066755998484" lon="16.11981963895441"><ele>377.6666666666667</ele><time>2026-04-19T08:40:53.976Z</time></trkpt><trkpt lat="41.82073372694669" lon="16.11978939767354"><ele>378.0</ele><time>2026-04-19T08:40:54.976Z</time></trkpt><trkpt lat="41.82079887489293" lon="16.119815843689093"><ele>378.3333333333333</ele><time>2026-04-19T08:40:55.976Z</time></trkpt><trkpt lat="41.82087382336367" lon="16.119859068530744"><ele>378.66666666666663</ele><time>2026-04-19T08:40:56.976Z</time></trkpt><trkpt lat="41.820950794221865" lon="16.11989179042187"><ele>379.0</ele><time>2026-04-19T08:40:57.976Z</time></trkpt><trkpt lat="41.821020015426775" lon="16.11992837913411"><ele>379.0</ele><time>2026-04-19T08:40:58.976Z</time></trkpt><trkpt lat="41.82107619388359" lon="16.119982792600542"><ele>379.0</ele><time>2026-04-19T08:40:59.976Z</time></trkpt><trkpt lat="41.82113222888474" lon="16.120042044549816"><ele>379.0</ele><time>2026-04-19T08:41:00.976Z</time></trkpt><trkpt lat="41.82123949229762" lon="16.120145908397603"><ele>379.0</ele><time>2026-04-19T08:41:02.976Z</time></trkpt><trkpt lat="41.8213088445962" lon="16.12021286261413"><ele>379.0</ele><time>2026-04-19T08:41:03.976Z</time></trkpt><trkpt lat="41.82137870520236" lon="16.120291867143155"><ele>379.0</ele><time>2026-04-19T08:41:04.976Z</time></trkpt><trkpt lat="41.82145272478766" lon="16.120378802746114"><ele>379.0</ele><time>2026-04-19T08:41:05.976Z</time></trkpt><trkpt lat="41.82152260216685" lon="16.12046520652127"><ele>379.0</ele><time>2026-04-19T08:41:06.976Z</time></trkpt><trkpt lat="41.82158102747699" lon="16.120555204903795"><ele>379.0</ele><time>2026-04-19T08:41:07.976Z</time></trkpt><trkpt lat="41.82163377342057" lon="16.120618694622962"><ele>379.0</ele><time>2026-04-19T08:41:08.976Z</time></trkpt><trkpt lat="41.821685250678236" lon="16.120678763590938"><ele>379.0</ele><time>2026-04-19T08:41:09.976Z</time></trkpt><trkpt lat="41.82173398748184" lon="16.120749481405515"><ele>379.5</ele><time>2026-04-19T08:41:10.976Z</time></trkpt><trkpt lat="41.82177815228234" lon="16.12083255867155"><ele>380.0</ele><time>2026-04-19T08:41:11.976Z</time></trkpt><trkpt lat="41.821831802229006" lon="16.120924426750996"><ele>380.5</ele><time>2026-04-19T08:41:12.976Z</time></trkpt><trkpt lat="41.82187707020893" lon="16.121006824533573"><ele>381.0</ele><time>2026-04-19T08:41:13.976Z</time></trkpt><trkpt lat="41.82192318171184" lon="16.121094382885488"><ele>381.5</ele><time>2026-04-19T08:41:14.976Z</time></trkpt><trkpt lat="41.821970225982476" lon="16.121196637759073"><ele>382.0</ele><time>2026-04-19T08:41:15.976Z</time></trkpt><trkpt lat="41.82202013256358" lon="16.121279408331286"><ele>382.0</ele><time>2026-04-19T08:41:16.976Z</time></trkpt><trkpt lat="41.822079363706536" lon="16.12137301531968"><ele>382.0</ele><time>2026-04-19T08:41:17.976Z</time></trkpt><trkpt lat="41.82213513282326" lon="16.12146147980138"><ele>382.0</ele><time>2026-04-19T08:41:18.976Z</time></trkpt><trkpt lat="41.82218810526517" lon="16.12154668682496"><ele>382.0</ele><time>2026-04-19T08:41:19.976Z</time></trkpt><trkpt lat="41.82224227281449" lon="16.1216329576908"><ele>382.0</ele><time>2026-04-19T08:41:20.976Z</time></trkpt><trkpt lat="41.822315099577644" lon="16.1217083953599"><ele>382.0</ele><time>2026-04-19T08:41:21.976Z</time></trkpt><trkpt lat="41.822378261633595" lon="16.12176596583308"><ele>378.3333333333333</ele><time>2026-04-19T08:41:22.976Z</time></trkpt><trkpt lat="41.82244124096077" lon="16.121850656434347"><ele>374.66666666666663</ele><time>2026-04-19T08:41:23.976Z</time></trkpt><trkpt lat="41.82249144377802" lon="16.121948021448926"><ele>371.0</ele><time>2026-04-19T08:41:24.976Z</time></trkpt><trkpt lat="41.82252823656864" lon="16.122019995510495"><ele>367.3333333333333</ele><time>2026-04-19T08:41:25.976Z</time></trkpt><trkpt lat="41.82254001668968" lon="16.12211252038733"><ele>363.6666666666667</ele><time>2026-04-19T08:41:26.976Z</time></trkpt><trkpt lat="41.822557890510005" lon="16.122228237274065"><ele>360.0</ele><time>2026-04-19T08:41:27.976Z</time></trkpt><trkpt lat="41.822576034677205" lon="16.122349072991533"><ele>360.5</ele><time>2026-04-19T08:41:28.976Z</time></trkpt><trkpt lat="41.82259065016981" lon="16.122445304883055"><ele>361.0</ele><time>2026-04-19T08:41:29.976Z</time></trkpt><trkpt lat="41.82260414805373" lon="16.122551622498328"><ele>361.5</ele><time>2026-04-19T08:41:31.976Z</time></trkpt><trkpt lat="41.82261257579281" lon="16.122652837580123"><ele>362.0</ele><time>2026-04-19T08:41:35.976Z</time></trkpt><trkpt lat="41.822624958168184" lon="16.12276149427856"><ele>362.5</ele><time>2026-04-19T08:41:51.977Z</time></trkpt><trkpt lat="41.82266209504284" lon="16.122857433199396"><ele>363.0</ele><time>2026-04-19T08:41:54.977Z</time></trkpt><trkpt lat="41.8226981737616" lon="16.122947977464047"><ele>363.0</ele><time>2026-04-19T08:41:56.977Z</time></trkpt><trkpt lat="41.82275143277151" lon="16.123049805665975"><ele>363.0</ele><time>2026-04-19T08:41:58.977Z</time></trkpt><trkpt lat="41.82284832904491" lon="16.123196989499718"><ele>363.0</ele><time>2026-04-19T08:42:00.977Z</time></trkpt><trkpt lat="41.8228939894549" lon="16.123281771013986"><ele>363.0</ele><time>2026-04-19T08:42:01.977Z</time></trkpt><trkpt lat="41.822954518400934" lon="16.123381174286806"><ele>363.0</ele><time>2026-04-19T08:42:02.977Z</time></trkpt><trkpt lat="41.82301588884385" lon="16.123477512036118"><ele>360.6666666666667</ele><time>2026-04-19T08:42:03.977Z</time></trkpt><trkpt lat="41.823078638357636" lon="16.12356248887194"><ele>358.3333333333333</ele><time>2026-04-19T08:42:04.977Z</time></trkpt><trkpt lat="41.82314847254838" lon="16.12363216220976"><ele>356.0</ele><time>2026-04-19T08:42:05.977Z</time></trkpt><trkpt lat="41.82321716728101" lon="16.12370794650658"><ele>353.66666666666663</ele><time>2026-04-19T08:42:06.977Z</time></trkpt><trkpt lat="41.82328185461979" lon="16.123777725110976"><ele>351.3333333333333</ele><time>2026-04-19T08:42:07.977Z</time></trkpt><trkpt lat="41.823350457892104" lon="16.123850973462478"><ele>349.0</ele><time>2026-04-19T08:42:08.977Z</time></trkpt><trkpt lat="41.82341894817921" lon="16.123919870052543"><ele>348.71428571428567</ele><time>2026-04-19T08:42:09.977Z</time></trkpt><trkpt lat="41.82348948276568" lon="16.123974522455057"><ele>348.42857142857144</ele><time>2026-04-19T08:42:10.977Z</time></trkpt><trkpt lat="41.82355657496757" lon="16.124024237956995"><ele>348.1428571428571</ele><time>2026-04-19T08:42:11.976Z</time></trkpt><trkpt lat="41.8236196654915" lon="16.12406678887759"><ele>347.85714285714283</ele><time>2026-04-19T08:42:12.976Z</time></trkpt><trkpt lat="41.82367324966881" lon="16.124116370584616"><ele>347.57142857142856</ele><time>2026-04-19T08:42:13.976Z</time></trkpt><trkpt lat="41.82373716275917" lon="16.12417818018856"><ele>347.2857142857143</ele><time>2026-04-19T08:42:14.976Z</time></trkpt><trkpt lat="41.82379658407664" lon="16.12423167233146"><ele>347.0</ele><time>2026-04-19T08:42:15.976Z</time></trkpt><trkpt lat="41.82385776884135" lon="16.124270652793307"><ele>344.33333333333337</ele><time>2026-04-19T08:42:16.976Z</time></trkpt><trkpt lat="41.82392489726707" lon="16.12430889302044"><ele>341.6666666666667</ele><time>2026-04-19T08:42:17.976Z</time></trkpt><trkpt lat="41.824009462216246" lon="16.124353937496878"><ele>339.0</ele><time>2026-04-19T08:42:18.976Z</time></trkpt><trkpt lat="41.82408542831199" lon="16.124382669870524"><ele>336.3333333333333</ele><time>2026-04-19T08:42:19.976Z</time></trkpt><trkpt lat="41.82415230040186" lon="16.124407483054828"><ele>333.66666666666663</ele><time>2026-04-19T08:42:20.976Z</time></trkpt><trkpt lat="41.824227307820465" lon="16.124430795462064"><ele>331.0</ele><time>2026-04-19T08:42:21.976Z</time></trkpt><trkpt lat="41.824301436786826" lon="16.124440220866482"><ele>329.57142857142856</ele><time>2026-04-19T08:42:22.976Z</time></trkpt><trkpt lat="41.82437741789021" lon="16.12443339613495"><ele>328.1428571428571</ele><time>2026-04-19T08:42:23.976Z</time></trkpt><trkpt lat="41.82444748280088" lon="16.12444532177816"><ele>326.71428571428567</ele><time>2026-04-19T08:42:24.976Z</time></trkpt><trkpt lat="41.82451674643754" lon="16.124444512595755"><ele>325.2857142857143</ele><time>2026-04-19T08:42:25.976Z</time></trkpt><trkpt lat="41.82458535370079" lon="16.124446745838423"><ele>323.85714285714283</ele><time>2026-04-19T08:42:26.976Z</time></trkpt><trkpt lat="41.82466340253901" lon="16.124460636958766"><ele>322.4285714285714</ele><time>2026-04-19T08:42:27.976Z</time></trkpt><trkpt lat="41.82474665410526" lon="16.124476719911883"><ele>321.0</ele><time>2026-04-19T08:42:28.976Z</time></trkpt><trkpt lat="41.82481690817849" lon="16.12447844516834"><ele>320.99999999999994</ele><time>2026-04-19T08:42:29.976Z</time></trkpt><trkpt lat="41.82488080196937" lon="16.12448201117485"><ele>321.0</ele><time>2026-04-19T08:42:30.976Z</time></trkpt><trkpt lat="41.824947875416385" lon="16.124494500287142"><ele>321.0</ele><time>2026-04-19T08:42:31.976Z</time></trkpt><trkpt lat="41.82502068832111" lon="16.124503342489046"><ele>321.0</ele><time>2026-04-19T08:42:32.976Z</time></trkpt><trkpt lat="41.82509146994864" lon="16.124518769846215"><ele>321.0</ele><time>2026-04-19T08:42:33.976Z</time></trkpt><trkpt lat="41.82515788658795" lon="16.124515365881397"><ele>320.99999999999994</ele><time>2026-04-19T08:42:34.976Z</time></trkpt><trkpt lat="41.82522297082188" lon="16.12451688035849"><ele>321.0</ele><time>2026-04-19T08:42:35.976Z</time></trkpt><trkpt lat="41.82534540896637" lon="16.124512695696122"><ele>319.1428571428571</ele><time>2026-04-19T08:42:37.976Z</time></trkpt><trkpt lat="41.825444164622475" lon="16.124509886204418"><ele>317.2857142857143</ele><time>2026-04-19T08:42:39.976Z</time></trkpt><trkpt lat="41.82550928578764" lon="16.124518717475944"><ele>315.42857142857144</ele><time>2026-04-19T08:42:40.976Z</time></trkpt><trkpt lat="41.82557417041553" lon="16.124516076201097"><ele>313.57142857142856</ele><time>2026-04-19T08:42:41.976Z</time></trkpt><trkpt lat="41.82564085297392" lon="16.12447371921112"><ele>311.7142857142857</ele><time>2026-04-19T08:42:42.976Z</time></trkpt><trkpt lat="41.82570706054782" lon="16.12442266182428"><ele>309.85714285714283</ele><time>2026-04-19T08:42:43.976Z</time></trkpt><trkpt lat="41.82576571437431" lon="16.124379382791716"><ele>308.0</ele><time>2026-04-19T08:42:44.976Z</time></trkpt><trkpt lat="41.825817628078084" lon="16.124317198724796"><ele>308.0</ele><time>2026-04-19T08:42:45.976Z</time></trkpt><trkpt lat="41.82586252961216" lon="16.12424608092932"><ele>308.0</ele><time>2026-04-19T08:42:46.976Z</time></trkpt><trkpt lat="41.825897460243276" lon="16.12417253291728"><ele>308.0</ele><time>2026-04-19T08:42:47.976Z</time></trkpt><trkpt lat="41.82593211347824" lon="16.124090068472853"><ele>308.0</ele><time>2026-04-19T08:42:48.976Z</time></trkpt><trkpt lat="41.825956415154444" lon="16.12400675917213"><ele>308.0</ele><time>2026-04-19T08:42:49.976Z</time></trkpt><trkpt lat="41.825982803020814" lon="16.12384722964665"><ele>308.0</ele><time>2026-04-19T08:42:51.976Z</time></trkpt><trkpt lat="41.82598355687145" lon="16.123676260964583"><ele>308.0</ele><time>2026-04-19T08:42:53.976Z</time></trkpt><trkpt lat="41.82598207853282" lon="16.123548285025063"><ele>308.0</ele><time>2026-04-19T08:42:55.976Z</time></trkpt><trkpt lat="41.82596156654737" lon="16.12337089228798"><ele>308.0</ele><time>2026-04-19T08:42:57.976Z</time></trkpt><trkpt lat="41.82593456153768" lon="16.123285106129458"><ele>308.0</ele><time>2026-04-19T08:42:58.976Z</time></trkpt><trkpt lat="41.825899797478364" lon="16.123205461267872"><ele>308.0</ele><time>2026-04-19T08:42:59.976Z</time></trkpt><trkpt lat="41.82586021914616" lon="16.123117250162213"><ele>308.0</ele><time>2026-04-19T08:43:00.976Z</time></trkpt><trkpt lat="41.82581683157066" lon="16.123024575407726"><ele>307.42857142857144</ele><time>2026-04-19T08:43:01.976Z</time></trkpt><trkpt lat="41.825783797652875" lon="16.122950017957315"><ele>306.8571428571429</ele><time>2026-04-19T08:43:02.976Z</time></trkpt><trkpt lat="41.8257606309331" lon="16.1228439617389"><ele>306.2857142857143</ele><time>2026-04-19T08:43:03.976Z</time></trkpt><trkpt lat="41.82574455668608" lon="16.122751207643716"><ele>305.7142857142857</ele><time>2026-04-19T08:43:04.976Z</time></trkpt><trkpt lat="41.82574743427152" lon="16.122655306958766"><ele>305.14285714285717</ele><time>2026-04-19T08:43:05.976Z</time></trkpt><trkpt lat="41.82575664683557" lon="16.12256078133516"><ele>304.57142857142856</ele><time>2026-04-19T08:43:06.976Z</time></trkpt><trkpt lat="41.825783106668986" lon="16.122479525945337"><ele>304.0</ele><time>2026-04-19T08:43:07.976Z</time></trkpt><trkpt lat="41.82583770102895" lon="16.122413930953915"><ele>305.4</ele><time>2026-04-19T08:43:08.976Z</time></trkpt><trkpt lat="41.82593801339926" lon="16.122318534200936"><ele>306.79999999999995</ele><time>2026-04-19T08:43:10.976Z</time></trkpt><trkpt lat="41.82603488216072" lon="16.12228358946436"><ele>308.20000000000005</ele><time>2026-04-19T08:43:11.976Z</time></trkpt><trkpt lat="41.82613248793518" lon="16.1222527918632"><ele>309.6</ele><time>2026-04-19T08:43:12.976Z</time></trkpt><trkpt lat="41.82620667728636" lon="16.122253705948367"><ele>311.0</ele><time>2026-04-19T08:43:13.976Z</time></trkpt><trkpt lat="41.82628215991999" lon="16.122249409583766"><ele>311.0</ele><time>2026-04-19T08:43:14.976Z</time></trkpt><trkpt lat="41.82635912202783" lon="16.12225935083101"><ele>311.0</ele><time>2026-04-19T08:43:15.976Z</time></trkpt><trkpt lat="41.82643811687687" lon="16.122288462318327"><ele>311.0</ele><time>2026-04-19T08:43:16.977Z</time></trkpt><trkpt lat="41.826517034843505" lon="16.122326364780253"><ele>311.0</ele><time>2026-04-19T08:43:17.977Z</time></trkpt><trkpt lat="41.82658606988498" lon="16.12236728623713"><ele>311.0</ele><time>2026-04-19T08:43:18.977Z</time></trkpt><trkpt lat="41.82664847163978" lon="16.122426123613376"><ele>311.0</ele><time>2026-04-19T08:43:19.977Z</time></trkpt><trkpt lat="41.82671362148123" lon="16.122502540008576"><ele>309.6666666666667</ele><time>2026-04-19T08:43:20.977Z</time></trkpt><trkpt lat="41.826762249053665" lon="16.122572377402538"><ele>308.33333333333337</ele><time>2026-04-19T08:43:21.977Z</time></trkpt><trkpt lat="41.82680915870478" lon="16.122653871965095"><ele>307.0</ele><time>2026-04-19T08:43:22.977Z</time></trkpt><trkpt lat="41.82686703483158" lon="16.122737714639015"><ele>305.6666666666667</ele><time>2026-04-19T08:43:23.977Z</time></trkpt><trkpt lat="41.82689866357368" lon="16.12282358161343"><ele>304.3333333333333</ele><time>2026-04-19T08:43:24.977Z</time></trkpt><trkpt lat="41.82694123025883" lon="16.122895222777988"><ele>303.0</ele><time>2026-04-19T08:43:25.977Z</time></trkpt><trkpt lat="41.82699311071188" lon="16.122972687656926"><ele>303.0</ele><time>2026-04-19T08:43:26.977Z</time></trkpt><trkpt lat="41.827028263138786" lon="16.12307768723973"><ele>303.0</ele><time>2026-04-19T08:43:27.977Z</time></trkpt><trkpt lat="41.82706615642191" lon="16.12319478903544"><ele>303.0</ele><time>2026-04-19T08:43:28.977Z</time></trkpt><trkpt lat="41.82710575079028" lon="16.123316631120197"><ele>303.0</ele><time>2026-04-19T08:43:29.977Z</time></trkpt><trkpt lat="41.82713719063097" lon="16.123430036576273"><ele>303.0</ele><time>2026-04-19T08:43:30.977Z</time></trkpt><trkpt lat="41.82716211107815" lon="16.123550153157087"><ele>301.8333333333333</ele><time>2026-04-19T08:43:31.977Z</time></trkpt><trkpt lat="41.82717619218726" lon="16.123681713045283"><ele>300.6666666666667</ele><time>2026-04-19T08:43:32.977Z</time></trkpt><trkpt lat="41.82718815285723" lon="16.123792938642804"><ele>299.5</ele><time>2026-04-19T08:43:33.977Z</time></trkpt><trkpt lat="41.82720010042799" lon="16.123895475054507"><ele>298.33333333333337</ele><time>2026-04-19T08:43:34.977Z</time></trkpt><trkpt lat="41.82720189034478" lon="16.12399559987269"><ele>297.1666666666667</ele><time>2026-04-19T08:43:35.977Z</time></trkpt><trkpt lat="41.82720434224336" lon="16.124081168501917"><ele>296.0</ele><time>2026-04-19T08:43:36.977Z</time></trkpt><trkpt lat="41.82717930331428" lon="16.124231908365125"><ele>296.0</ele><time>2026-04-19T08:43:38.977Z</time></trkpt><trkpt lat="41.827174781108155" lon="16.124325942317938"><ele>296.0</ele><time>2026-04-19T08:43:40.977Z</time></trkpt><trkpt lat="41.82722063007033" lon="16.12441037482868"><ele>296.0</ele><time>2026-04-19T08:43:43.977Z</time></trkpt><trkpt lat="41.82727624683408" lon="16.124346981178967"><ele>296.0</ele><time>2026-04-19T08:43:46.977Z</time></trkpt><trkpt lat="41.8273358098765" lon="16.12422784549545"><ele>296.0</ele><time>2026-04-19T08:43:48.977Z</time></trkpt><trkpt lat="41.82736678736052" lon="16.124132768975326"><ele>296.0</ele><time>2026-04-19T08:43:49.977Z</time></trkpt><trkpt lat="41.82738476579397" lon="16.12403024858797"><ele>296.0</ele><time>2026-04-19T08:43:50.977Z</time></trkpt><trkpt lat="41.8273887661541" lon="16.123922476446506"><ele>296.0</ele><time>2026-04-19T08:43:51.977Z</time></trkpt><trkpt lat="41.827379146629895" lon="16.12380263481291"><ele>296.0</ele><time>2026-04-19T08:43:52.977Z</time></trkpt><trkpt lat="41.82736513620582" lon="16.123690539081885"><ele>296.0</ele><time>2026-04-19T08:43:53.977Z</time></trkpt><trkpt lat="41.827355424306454" lon="16.123606058094722"><ele>296.0</ele><time>2026-04-19T08:43:54.977Z</time></trkpt><trkpt lat="41.827349578154845" lon="16.123515058055542"><ele>296.0</ele><time>2026-04-19T08:43:55.977Z</time></trkpt><trkpt lat="41.82734135771259" lon="16.123422903186256"><ele>296.0</ele><time>2026-04-19T08:43:56.977Z</time></trkpt><trkpt lat="41.82734588835049" lon="16.123336902101407"><ele>296.0</ele><time>2026-04-19T08:43:57.977Z</time></trkpt><trkpt lat="41.82736687424089" lon="16.12320222022776"><ele>296.0</ele><time>2026-04-19T08:43:59.977Z</time></trkpt><trkpt lat="41.82745232011555" lon="16.123194968835787"><ele>296.0</ele><time>2026-04-19T08:44:01.977Z</time></trkpt><trkpt lat="41.82750747422513" lon="16.12326578388531"><ele>296.0</ele><time>2026-04-19T08:44:03.977Z</time></trkpt><trkpt lat="41.82753127795101" lon="16.12334995900784"><ele>296.0</ele><time>2026-04-19T08:44:26.976Z</time></trkpt><trkpt lat="41.82754380676569" lon="16.123461325758974"><ele>296.0</ele><time>2026-04-19T08:44:29.976Z</time></trkpt><trkpt lat="41.82756900079692" lon="16.123599519533084"><ele>296.0</ele><time>2026-04-19T08:44:31.976Z</time></trkpt><trkpt lat="41.8275970861521" lon="16.123728887002756"><ele>296.0</ele><time>2026-04-19T08:44:33.976Z</time></trkpt><trkpt lat="41.82762441278975" lon="16.123858512685654"><ele>296.0</ele><time>2026-04-19T08:44:35.976Z</time></trkpt><trkpt lat="41.82765893998509" lon="16.123965961798106"><ele>296.0</ele><time>2026-04-19T08:44:37.976Z</time></trkpt><trkpt lat="41.82771798589777" lon="16.124059813208188"><ele>294.8571428571429</ele><time>2026-04-19T08:44:39.976Z</time></trkpt><trkpt lat="41.82777411654997" lon="16.124146290387923"><ele>293.7142857142857</ele><time>2026-04-19T08:44:41.976Z</time></trkpt><trkpt lat="41.82782202387556" lon="16.124212441892023"><ele>292.57142857142856</ele><time>2026-04-19T08:44:43.976Z</time></trkpt><trkpt lat="41.82787537072075" lon="16.124273123820632"><ele>291.42857142857144</ele><time>2026-04-19T08:44:46.976Z</time></trkpt><trkpt lat="41.82791586638852" lon="16.124343216340463"><ele>290.2857142857143</ele><time>2026-04-19T08:44:49.976Z</time></trkpt><trkpt lat="41.82795439079018" lon="16.124428966508198"><ele>289.14285714285717</ele><time>2026-04-19T08:44:52.976Z</time></trkpt><trkpt lat="41.82798194440902" lon="16.124517948143172"><ele>288.0</ele><time>2026-04-19T08:44:54.976Z</time></trkpt><trkpt lat="41.82801472498374" lon="16.12460542919806"><ele>288.0</ele><time>2026-04-19T08:44:56.976Z</time></trkpt><trkpt lat="41.828058422346295" lon="16.124730410539335"><ele>288.0</ele><time>2026-04-19T08:44:58.976Z</time></trkpt><trkpt lat="41.82809999927554" lon="16.12483285853538"><ele>288.0</ele><time>2026-04-19T08:45:00.976Z</time></trkpt><trkpt lat="41.82813309982766" lon="16.124952371549046"><ele>288.0</ele><time>2026-04-19T08:45:02.976Z</time></trkpt><trkpt lat="41.828174209664915" lon="16.125063088085355"><ele>288.0</ele><time>2026-04-19T08:45:04.976Z</time></trkpt><trkpt lat="41.82820463678039" lon="16.12518331201255"><ele>290.5</ele><time>2026-04-19T08:45:06.976Z</time></trkpt><trkpt lat="41.82825880526802" lon="16.12532889610082"><ele>293.0</ele><time>2026-04-19T08:45:08.976Z</time></trkpt><trkpt lat="41.82829023697022" lon="16.125471010340245"><ele>295.5</ele><time>2026-04-19T08:45:10.977Z</time></trkpt><trkpt lat="41.828332735422606" lon="16.12562778364759"><ele>298.0</ele><time>2026-04-19T08:45:12.977Z</time></trkpt><trkpt lat="41.828371544674454" lon="16.125751295261306"><ele>295.6</ele><time>2026-04-19T08:45:14.977Z</time></trkpt><trkpt lat="41.82840701857437" lon="16.12587002589864"><ele>293.20000000000005</ele><time>2026-04-19T08:45:16.977Z</time></trkpt><trkpt lat="41.82845817544906" lon="16.12600498041513"><ele>290.8</ele><time>2026-04-19T08:45:18.977Z</time></trkpt><trkpt lat="41.828518543275294" lon="16.126138756486476"><ele>288.40000000000003</ele><time>2026-04-19T08:45:20.977Z</time></trkpt><trkpt lat="41.82854467434339" lon="16.126249560899222"><ele>286.0</ele><time>2026-04-19T08:45:22.977Z</time></trkpt><trkpt lat="41.82856176718971" lon="16.126347746644658"><ele>286.0</ele><time>2026-04-19T08:45:23.977Z</time></trkpt><trkpt lat="41.82858322710464" lon="16.126437251503148"><ele>286.0</ele><time>2026-04-19T08:45:24.977Z</time></trkpt><trkpt lat="41.82859934128461" lon="16.12651939476091"><ele>286.0</ele><time>2026-04-19T08:45:25.977Z</time></trkpt><trkpt lat="41.82862935131167" lon="16.12664966133399"><ele>286.0</ele><time>2026-04-19T08:45:26.977Z</time></trkpt><trkpt lat="41.82864913084484" lon="16.126781082538006"><ele>286.0</ele><time>2026-04-19T08:45:27.977Z</time></trkpt><trkpt lat="41.82866495410501" lon="16.126894079777422"><ele>286.0</ele><time>2026-04-19T08:45:28.977Z</time></trkpt><trkpt lat="41.82866758146259" lon="16.12700661463898"><ele>287.16666666666663</ele><time>2026-04-19T08:45:29.977Z</time></trkpt><trkpt lat="41.82867110512757" lon="16.12709361579761"><ele>288.3333333333333</ele><time>2026-04-19T08:45:30.977Z</time></trkpt><trkpt lat="41.828694479509906" lon="16.127195812008765"><ele>289.5</ele><time>2026-04-19T08:45:31.977Z</time></trkpt><trkpt lat="41.82870651884997" lon="16.127279801330726"><ele>290.6666666666667</ele><time>2026-04-19T08:45:32.977Z</time></trkpt><trkpt lat="41.82873737911552" lon="16.12741309727994"><ele>291.83333333333337</ele><time>2026-04-19T08:45:34.977Z</time></trkpt><trkpt lat="41.82877125768569" lon="16.127503714035445"><ele>293.0</ele><time>2026-04-19T08:45:36.977Z</time></trkpt><trkpt lat="41.82881487611075" lon="16.1276172086953"><ele>295.0</ele><time>2026-04-19T08:45:40.977Z</time></trkpt><trkpt lat="41.82885561315061" lon="16.127760353742087"><ele>297.0</ele><time>2026-04-19T08:45:42.977Z</time></trkpt><trkpt lat="41.82893689235045" lon="16.127915088037096"><ele>299.0</ele><time>2026-04-19T08:45:44.977Z</time></trkpt><trkpt lat="41.82899290556441" lon="16.128001452747156"><ele>301.0</ele><time>2026-04-19T08:45:45.977Z</time></trkpt><trkpt lat="41.829058894896825" lon="16.128096688066"><ele>303.0</ele><time>2026-04-19T08:45:46.977Z</time></trkpt><trkpt lat="41.82910655996804" lon="16.128158954945704"><ele>302.3333333333333</ele><time>2026-04-19T08:45:47.977Z</time></trkpt><trkpt lat="41.82916734159929" lon="16.128243512810148"><ele>301.6666666666667</ele><time>2026-04-19T08:45:48.977Z</time></trkpt><trkpt lat="41.829229976525944" lon="16.128319035878402"><ele>301.0</ele><time>2026-04-19T08:45:49.977Z</time></trkpt><trkpt lat="41.82929463727898" lon="16.128404724932658"><ele>300.33333333333337</ele><time>2026-04-19T08:45:50.977Z</time></trkpt><trkpt lat="41.82935435669069" lon="16.128493446592703"><ele>299.6666666666667</ele><time>2026-04-19T08:45:51.977Z</time></trkpt><trkpt lat="41.82940565661278" lon="16.12858575502991"><ele>299.0</ele><time>2026-04-19T08:45:52.977Z</time></trkpt><trkpt lat="41.829460570547404" lon="16.12866970774523"><ele>299.0</ele><time>2026-04-19T08:45:53.977Z</time></trkpt><trkpt lat="41.82950156819785" lon="16.12876986386711"><ele>299.0</ele><time>2026-04-19T08:45:54.977Z</time></trkpt><trkpt lat="41.82952213462349" lon="16.12890466891943"><ele>299.0</ele><time>2026-04-19T08:45:55.977Z</time></trkpt><trkpt lat="41.82954138958433" lon="16.129022186503825"><ele>299.0</ele><time>2026-04-19T08:45:56.977Z</time></trkpt><trkpt lat="41.8295726617155" lon="16.12913045526122"><ele>299.0</ele><time>2026-04-19T08:45:57.977Z</time></trkpt><trkpt lat="41.829605340929234" lon="16.12924101986517"><ele>301.0</ele><time>2026-04-19T08:45:58.977Z</time></trkpt><trkpt lat="41.82965004733395" lon="16.129334097582774"><ele>303.0</ele><time>2026-04-19T08:45:59.977Z</time></trkpt><trkpt lat="41.82969993675616" lon="16.12944407392024"><ele>305.0</ele><time>2026-04-19T08:46:00.977Z</time></trkpt><trkpt lat="41.82975013309802" lon="16.129557616744446"><ele>307.0</ele><time>2026-04-19T08:46:01.977Z</time></trkpt><trkpt lat="41.82979060115753" lon="16.129669567244868"><ele>309.0</ele><time>2026-04-19T08:46:02.977Z</time></trkpt><trkpt lat="41.829844263759384" lon="16.12977283869129"><ele>309.0</ele><time>2026-04-19T08:46:03.977Z</time></trkpt><trkpt lat="41.82991000538966" lon="16.12985638269114"><ele>309.0</ele><time>2026-04-19T08:46:04.977Z</time></trkpt><trkpt lat="41.82998735762875" lon="16.129941403449326"><ele>309.0</ele><time>2026-04-19T08:46:05.977Z</time></trkpt><trkpt lat="41.83006395734306" lon="16.13001991619655"><ele>309.0</ele><time>2026-04-19T08:46:06.977Z</time></trkpt><trkpt lat="41.83012995882823" lon="16.130097196037326"><ele>309.0</ele><time>2026-04-19T08:46:07.977Z</time></trkpt><trkpt lat="41.830203900519486" lon="16.130170149445618"><ele>309.4</ele><time>2026-04-19T08:46:08.977Z</time></trkpt><trkpt lat="41.830284225483474" lon="16.130239696784788"><ele>309.79999999999995</ele><time>2026-04-19T08:46:09.977Z</time></trkpt><trkpt lat="41.83035203840008" lon="16.130290642906914"><ele>310.20000000000005</ele><time>2026-04-19T08:46:10.977Z</time></trkpt><trkpt lat="41.83041556821583" lon="16.13034096340784"><ele>310.6</ele><time>2026-04-19T08:46:11.977Z</time></trkpt><trkpt lat="41.830525345767974" lon="16.13043140815844"><ele>311.0</ele><time>2026-04-19T08:46:13.977Z</time></trkpt><trkpt lat="41.830590779553134" lon="16.130493972364242"><ele>311.0</ele><time>2026-04-19T08:46:14.977Z</time></trkpt><trkpt lat="41.83066596682709" lon="16.130560652095216"><ele>311.0</ele><time>2026-04-19T08:46:15.977Z</time></trkpt><trkpt lat="41.830749871076016" lon="16.1306208754996"><ele>311.0</ele><time>2026-04-19T08:46:16.977Z</time></trkpt><trkpt lat="41.83084107660414" lon="16.13067148989313"><ele>311.0</ele><time>2026-04-19T08:46:17.978Z</time></trkpt><trkpt lat="41.83093076965791" lon="16.13073181375506"><ele>311.0</ele><time>2026-04-19T08:46:18.978Z</time></trkpt><trkpt lat="41.831023972556814" lon="16.13079420910553"><ele>310.40000000000003</ele><time>2026-04-19T08:46:19.978Z</time></trkpt><trkpt lat="41.83112375955491" lon="16.13085735627911"><ele>309.8</ele><time>2026-04-19T08:46:20.978Z</time></trkpt><trkpt lat="41.83122144591811" lon="16.13091475435273"><ele>309.20000000000005</ele><time>2026-04-19T08:46:21.978Z</time></trkpt><trkpt lat="41.83131056757126" lon="16.130970702613972"><ele>308.6</ele><time>2026-04-19T08:46:22.978Z</time></trkpt><trkpt lat="41.83139516888647" lon="16.131019713818436"><ele>308.0</ele><time>2026-04-19T08:46:23.977Z</time></trkpt><trkpt lat="41.83149435115099" lon="16.131075130776395"><ele>308.0</ele><time>2026-04-19T08:46:24.977Z</time></trkpt><trkpt lat="41.83158818761114" lon="16.131110949006775"><ele>308.0</ele><time>2026-04-19T08:46:25.977Z</time></trkpt><trkpt lat="41.83166566875396" lon="16.131144705365145"><ele>308.0</ele><time>2026-04-19T08:46:26.977Z</time></trkpt><trkpt lat="41.83174374781356" lon="16.13119641581803"><ele>308.0</ele><time>2026-04-19T08:46:27.977Z</time></trkpt><trkpt lat="41.831825592208034" lon="16.131248246966077"><ele>308.0</ele><time>2026-04-19T08:46:28.977Z</time></trkpt><trkpt lat="41.83190321080501" lon="16.131304822306813"><ele>308.0</ele><time>2026-04-19T08:46:29.977Z</time></trkpt><trkpt lat="41.831982942122494" lon="16.131353893191754"><ele>307.83333333333337</ele><time>2026-04-19T08:46:30.977Z</time></trkpt><trkpt lat="41.83204957898606" lon="16.131407709004282"><ele>307.6666666666667</ele><time>2026-04-19T08:46:31.977Z</time></trkpt><trkpt lat="41.832123817969006" lon="16.131462099224784"><ele>307.5</ele><time>2026-04-19T08:46:32.978Z</time></trkpt><trkpt lat="41.832180099553916" lon="16.13153494503947"><ele>307.3333333333333</ele><time>2026-04-19T08:46:33.977Z</time></trkpt><trkpt lat="41.83221488926682" lon="16.131611330683953"><ele>307.16666666666663</ele><time>2026-04-19T08:46:34.977Z</time></trkpt><trkpt lat="41.832259468001915" lon="16.13170047731029"><ele>307.0</ele><time>2026-04-19T08:46:35.978Z</time></trkpt><trkpt lat="41.8322884554385" lon="16.13179711765353"><ele>307.0</ele><time>2026-04-19T08:46:36.977Z</time></trkpt><trkpt lat="41.83232274584021" lon="16.131890937237518"><ele>307.0</ele><time>2026-04-19T08:46:37.977Z</time></trkpt><trkpt lat="41.832365602801914" lon="16.13199555607459"><ele>307.0</ele><time>2026-04-19T08:46:38.977Z</time></trkpt><trkpt lat="41.83240422296057" lon="16.132085141180358"><ele>307.0</ele><time>2026-04-19T08:46:39.977Z</time></trkpt><trkpt lat="41.8324505439104" lon="16.132176863888347"><ele>307.0</ele><time>2026-04-19T08:46:40.977Z</time></trkpt><trkpt lat="41.832498335422" lon="16.132264320276494"><ele>307.0</ele><time>2026-04-19T08:46:41.977Z</time></trkpt><trkpt lat="41.8325331168214" lon="16.132358130373905"><ele>306.8333333333333</ele><time>2026-04-19T08:46:42.977Z</time></trkpt><trkpt lat="41.83257740440735" lon="16.13245842581243"><ele>306.66666666666663</ele><time>2026-04-19T08:46:43.977Z</time></trkpt><trkpt lat="41.83262512296948" lon="16.132554487405795"><ele>306.5</ele><time>2026-04-19T08:46:44.977Z</time></trkpt><trkpt lat="41.83266406261318" lon="16.132632838517065"><ele>306.3333333333333</ele><time>2026-04-19T08:46:45.977Z</time></trkpt><trkpt lat="41.83269767386583" lon="16.132716627751112"><ele>306.1666666666667</ele><time>2026-04-19T08:46:46.977Z</time></trkpt><trkpt lat="41.83273509919879" lon="16.132815893031133"><ele>306.0</ele><time>2026-04-19T08:46:47.977Z</time></trkpt><trkpt lat="41.83277465626009" lon="16.13290533085604"><ele>306.6</ele><time>2026-04-19T08:46:48.977Z</time></trkpt><trkpt lat="41.83279848141711" lon="16.132992617328735"><ele>307.20000000000005</ele><time>2026-04-19T08:46:49.977Z</time></trkpt><trkpt lat="41.8328311630895" lon="16.133068001778643"><ele>307.79999999999995</ele><time>2026-04-19T08:46:50.977Z</time></trkpt><trkpt lat="41.832897688133045" lon="16.13316296831553"><ele>308.4</ele><time>2026-04-19T08:46:52.977Z</time></trkpt><trkpt lat="41.833000245955404" lon="16.133206585683897"><ele>309.0</ele><time>2026-04-19T08:46:54.977Z</time></trkpt><trkpt lat="41.83310733623981" lon="16.13325004271607"><ele>310.8</ele><time>2026-04-19T08:46:56.977Z</time></trkpt><trkpt lat="41.833158703107436" lon="16.13330065479363"><ele>312.59999999999997</ele><time>2026-04-19T08:46:57.977Z</time></trkpt><trkpt lat="41.833272928123876" lon="16.133361118372516"><ele>314.4</ele><time>2026-04-19T08:46:59.977Z</time></trkpt><trkpt lat="41.83338969386967" lon="16.13345556945404"><ele>316.2</ele><time>2026-04-19T08:47:01.977Z</time></trkpt><trkpt lat="41.83346165948316" lon="16.133502240080198"><ele>318.0</ele><time>2026-04-19T08:47:02.977Z</time></trkpt><trkpt lat="41.83355218131445" lon="16.133565917077952"><ele>318.0</ele><time>2026-04-19T08:47:03.977Z</time></trkpt><trkpt lat="41.833643670567625" lon="16.13362648846521"><ele>318.0</ele><time>2026-04-19T08:47:04.977Z</time></trkpt><trkpt lat="41.83371921543008" lon="16.13368223851649"><ele>318.0</ele><time>2026-04-19T08:47:05.977Z</time></trkpt><trkpt lat="41.833771147301555" lon="16.13374558528055"><ele>318.0</ele><time>2026-04-19T08:47:06.977Z</time></trkpt><trkpt lat="41.83381762857036" lon="16.1338238069214"><ele>318.0</ele><time>2026-04-19T08:47:07.977Z</time></trkpt><trkpt lat="41.83386714584277" lon="16.13390110124524"><ele>318.0</ele><time>2026-04-19T08:47:08.977Z</time></trkpt><trkpt lat="41.83391234996117" lon="16.133968118651683"><ele>318.1666666666667</ele><time>2026-04-19T08:47:09.977Z</time></trkpt><trkpt lat="41.8339506520834" lon="16.134076751198346"><ele>318.3333333333333</ele><time>2026-04-19T08:47:10.977Z</time></trkpt><trkpt lat="41.8339788982004" lon="16.134174524414536"><ele>318.5</ele><time>2026-04-19T08:47:11.977Z</time></trkpt><trkpt lat="41.83400990591947" lon="16.13427699385739"><ele>318.66666666666663</ele><time>2026-04-19T08:47:12.977Z</time></trkpt><trkpt lat="41.83405181353818" lon="16.134370410134455"><ele>318.8333333333333</ele><time>2026-04-19T08:47:13.977Z</time></trkpt><trkpt lat="41.834107814242564" lon="16.134478628246992"><ele>319.0</ele><time>2026-04-19T08:47:14.978Z</time></trkpt><trkpt lat="41.83416387781206" lon="16.134582924129493"><ele>319.0</ele><time>2026-04-19T08:47:15.978Z</time></trkpt><trkpt lat="41.83419517326036" lon="16.13467196884697"><ele>319.0</ele><time>2026-04-19T08:47:16.978Z</time></trkpt><trkpt lat="41.83423677564025" lon="16.134782266010866"><ele>319.0</ele><time>2026-04-19T08:47:18.978Z</time></trkpt><trkpt lat="41.834291691064244" lon="16.134882740810745"><ele>319.0</ele><time>2026-04-19T08:47:20.978Z</time></trkpt><trkpt lat="41.83433023135177" lon="16.134986524707465"><ele>319.0</ele><time>2026-04-19T08:50:30.98Z</time></trkpt><trkpt lat="41.83436007245226" lon="16.135067472662854"><ele>319.0</ele><time>2026-04-19T08:50:34.98Z</time></trkpt><trkpt lat="41.83443309898552" lon="16.13516709700027"><ele>318.59999999999997</ele><time>2026-04-19T08:50:36.978Z</time></trkpt><trkpt lat="41.834495432898876" lon="16.13524843636076"><ele>318.2</ele><time>2026-04-19T08:50:38.978Z</time></trkpt><trkpt lat="41.83456326655922" lon="16.135298166775968"><ele>317.79999999999995</ele><time>2026-04-19T08:50:39.979Z</time></trkpt><trkpt lat="41.83467126273423" lon="16.135342836971123"><ele>317.4</ele><time>2026-04-19T08:50:41.979Z</time></trkpt><trkpt lat="41.834764446167924" lon="16.13535081301066"><ele>317.0</ele><time>2026-04-19T08:50:43.978Z</time></trkpt><trkpt lat="41.83486453829403" lon="16.135333956972687"><ele>317.0</ele><time>2026-04-19T08:50:45.979Z</time></trkpt><trkpt lat="41.834929881768616" lon="16.13530236296117"><ele>317.0</ele><time>2026-04-19T08:50:46.979Z</time></trkpt><trkpt lat="41.835059584408896" lon="16.13525408766947"><ele>317.0</ele><time>2026-04-19T08:50:48.979Z</time></trkpt><trkpt lat="41.8351213164709" lon="16.13523714790189"><ele>317.0</ele><time>2026-04-19T08:50:49.979Z</time></trkpt><trkpt lat="41.83518371519575" lon="16.135223719148236"><ele>317.0</ele><time>2026-04-19T08:50:50.979Z</time></trkpt><trkpt lat="41.83524926009263" lon="16.135197255543485"><ele>317.0</ele><time>2026-04-19T08:50:51.979Z</time></trkpt><trkpt lat="41.83532872858542" lon="16.135162142137016"><ele>317.0</ele><time>2026-04-19T08:50:52.979Z</time></trkpt><trkpt lat="41.83540381966219" lon="16.135128678360186"><ele>317.0</ele><time>2026-04-19T08:50:53.979Z</time></trkpt><trkpt lat="41.8354714427512" lon="16.13510357583082"><ele>317.0</ele><time>2026-04-19T08:50:54.979Z</time></trkpt><trkpt lat="41.83553792403428" lon="16.13509215393108"><ele>317.0</ele><time>2026-04-19T08:50:55.979Z</time></trkpt><trkpt lat="41.83560523589816" lon="16.1350842484881"><ele>317.0</ele><time>2026-04-19T08:50:56.979Z</time></trkpt><trkpt lat="41.83567910777673" lon="16.135070022798036"><ele>317.0</ele><time>2026-04-19T08:50:57.979Z</time></trkpt><trkpt lat="41.83575555614726" lon="16.13505512023799"><ele>317.0</ele><time>2026-04-19T08:50:58.979Z</time></trkpt><trkpt lat="41.8358267445717" lon="16.135033282654135"><ele>317.0</ele><time>2026-04-19T08:50:59.979Z</time></trkpt><trkpt lat="41.835903207647945" lon="16.135026832219914"><ele>317.0</ele><time>2026-04-19T08:51:00.979Z</time></trkpt><trkpt lat="41.835977755933925" lon="16.135007005316"><ele>317.0</ele><time>2026-04-19T08:51:01.979Z</time></trkpt><trkpt lat="41.836056164475416" lon="16.134990361765976"><ele>317.0</ele><time>2026-04-19T08:51:02.979Z</time></trkpt><trkpt lat="41.836141149809805" lon="16.134990921588173"><ele>317.0</ele><time>2026-04-19T08:51:03.979Z</time></trkpt><trkpt lat="41.8362181344583" lon="16.134982291563613"><ele>317.0</ele><time>2026-04-19T08:51:04.979Z</time></trkpt><trkpt lat="41.83629122256103" lon="16.13496111804915"><ele>316.8571428571429</ele><time>2026-04-19T08:51:05.979Z</time></trkpt><trkpt lat="41.83635834811054" lon="16.13493583469416"><ele>316.7142857142857</ele><time>2026-04-19T08:51:06.979Z</time></trkpt><trkpt lat="41.83642223811111" lon="16.13488346901074"><ele>316.57142857142856</ele><time>2026-04-19T08:51:07.979Z</time></trkpt><trkpt lat="41.83648237111027" lon="16.134828600104534"><ele>316.42857142857144</ele><time>2026-04-19T08:51:08.979Z</time></trkpt><trkpt lat="41.836537814594436" lon="16.134768995171363"><ele>316.2857142857143</ele><time>2026-04-19T08:51:09.979Z</time></trkpt><trkpt lat="41.83659972660297" lon="16.134702150016267"><ele>316.14285714285717</ele><time>2026-04-19T08:51:10.979Z</time></trkpt><trkpt lat="41.83665028935392" lon="16.134643808581767"><ele>316.0</ele><time>2026-04-19T08:51:11.979Z</time></trkpt><trkpt lat="41.83674839803147" lon="16.13450416218371"><ele>317.0</ele><time>2026-04-19T08:51:13.979Z</time></trkpt><trkpt lat="41.83680499448211" lon="16.134411853056204"><ele>318.0</ele><time>2026-04-19T08:51:14.979Z</time></trkpt><trkpt lat="41.83685071164973" lon="16.134285429423635"><ele>319.0</ele><time>2026-04-19T08:51:15.979Z</time></trkpt><trkpt lat="41.83688410376986" lon="16.134161219253375"><ele>320.0</ele><time>2026-04-19T08:51:16.979Z</time></trkpt><trkpt lat="41.83693289528569" lon="16.134025160090868"><ele>321.0</ele><time>2026-04-19T08:51:17.979Z</time></trkpt><trkpt lat="41.83697315615522" lon="16.133901602959206"><ele>321.0</ele><time>2026-04-19T08:51:18.979Z</time></trkpt><trkpt lat="41.83700913531956" lon="16.13377584626578"><ele>321.0</ele><time>2026-04-19T08:51:19.979Z</time></trkpt><trkpt lat="41.83704638188052" lon="16.133651168261824"><ele>321.0</ele><time>2026-04-19T08:51:20.979Z</time></trkpt><trkpt lat="41.83706940593323" lon="16.133528301843825"><ele>321.0</ele><time>2026-04-19T08:51:21.979Z</time></trkpt><trkpt lat="41.83712355486485" lon="16.13341389344682"><ele>321.0</ele><time>2026-04-19T08:51:22.979Z</time></trkpt><trkpt lat="41.83716118019965" lon="16.133310450725165"><ele>321.8333333333333</ele><time>2026-04-19T08:51:23.979Z</time></trkpt><trkpt lat="41.83719151421307" lon="16.133209999539833"><ele>322.6666666666667</ele><time>2026-04-19T08:51:24.979Z</time></trkpt><trkpt lat="41.83721294370875" lon="16.13311501873598"><ele>323.5</ele><time>2026-04-19T08:51:25.979Z</time></trkpt><trkpt lat="41.83725197020906" lon="16.13303139197901"><ele>324.33333333333337</ele><time>2026-04-19T08:51:26.979Z</time></trkpt><trkpt lat="41.837306192764245" lon="16.132944426428207"><ele>325.1666666666667</ele><time>2026-04-19T08:51:28.979Z</time></trkpt><trkpt lat="41.83741094604175" lon="16.13294088931136"><ele>326.0</ele><time>2026-04-19T08:51:30.979Z</time></trkpt><trkpt lat="41.837507556358446" lon="16.132977669729044"><ele>326.0</ele><time>2026-04-19T08:51:32.979Z</time></trkpt><trkpt lat="41.83757868712821" lon="16.132975907068904"><ele>326.0</ele><time>2026-04-19T08:51:33.979Z</time></trkpt><trkpt lat="41.8376449049491" lon="16.132967206026994"><ele>326.0</ele><time>2026-04-19T08:51:34.979Z</time></trkpt><trkpt lat="41.83775194503551" lon="16.132992636453398"><ele>326.0</ele><time>2026-04-19T08:51:36.979Z</time></trkpt><trkpt lat="41.83786287179426" lon="16.13302291404091"><ele>326.0</ele><time>2026-04-19T08:51:38.979Z</time></trkpt><trkpt lat="41.83795303724095" lon="16.133034934503865"><ele>322.0</ele><time>2026-04-19T08:51:39.979Z</time></trkpt><trkpt lat="41.83806519252761" lon="16.133062364489163"><ele>318.0</ele><time>2026-04-19T08:51:40.979Z</time></trkpt><trkpt lat="41.838182848597846" lon="16.133108153816547"><ele>314.0</ele><time>2026-04-19T08:51:41.979Z</time></trkpt><trkpt lat="41.838273906622284" lon="16.133125767399626"><ele>310.0</ele><time>2026-04-19T08:51:42.979Z</time></trkpt><trkpt lat="41.838353155165144" lon="16.13313448144718"><ele>306.0</ele><time>2026-04-19T08:51:43.979Z</time></trkpt><trkpt lat="41.83846999170955" lon="16.133155537528793"><ele>306.0</ele><time>2026-04-19T08:51:45.98Z</time></trkpt><trkpt lat="41.83860297066756" lon="16.13317844183895"><ele>306.0</ele><time>2026-04-19T08:51:47.98Z</time></trkpt><trkpt lat="41.83869015906035" lon="16.133177686869395"><ele>306.0</ele><time>2026-04-19T08:51:48.98Z</time></trkpt><trkpt lat="41.83876488056787" lon="16.13318555743475"><ele>306.0</ele><time>2026-04-19T08:51:49.98Z</time></trkpt><trkpt lat="41.83882858040504" lon="16.133210099393246"><ele>306.0</ele><time>2026-04-19T08:51:50.98Z</time></trkpt><trkpt lat="41.83890748331513" lon="16.13322999014617"><ele>306.0</ele><time>2026-04-19T08:51:51.98Z</time></trkpt><trkpt lat="41.83899529089271" lon="16.13324618762704"><ele>307.57142857142856</ele><time>2026-04-19T08:51:52.98Z</time></trkpt><trkpt lat="41.83907178392795" lon="16.133264279080127"><ele>309.14285714285717</ele><time>2026-04-19T08:51:53.98Z</time></trkpt><trkpt lat="41.839133081977636" lon="16.133290623713563"><ele>310.7142857142857</ele><time>2026-04-19T08:51:54.98Z</time></trkpt><trkpt lat="41.839192717551846" lon="16.133324386305773"><ele>312.2857142857143</ele><time>2026-04-19T08:51:57.98Z</time></trkpt><trkpt lat="41.83918932712725" lon="16.133410492014736"><ele>313.85714285714283</ele><time>2026-04-19T08:52:17.98Z</time></trkpt><trkpt lat="41.83922397358741" lon="16.133484601395345"><ele>315.42857142857144</ele><time>2026-04-19T08:52:20.98Z</time></trkpt><trkpt lat="41.8392611230772" lon="16.13358362832626"><ele>317.0</ele><time>2026-04-19T08:52:23.98Z</time></trkpt><trkpt lat="41.839281067827834" lon="16.133701511999803"><ele>317.0</ele><time>2026-04-19T08:52:25.98Z</time></trkpt><trkpt lat="41.83929737704299" lon="16.133823075443857"><ele>317.0</ele><time>2026-04-19T08:52:27.98Z</time></trkpt><trkpt lat="41.83930979030623" lon="16.13392228712442"><ele>317.0</ele><time>2026-04-19T08:52:29.98Z</time></trkpt><trkpt lat="41.83932387793449" lon="16.134016344647197"><ele>317.0</ele><time>2026-04-19T08:52:31.98Z</time></trkpt><trkpt lat="41.83932196738156" lon="16.13411421714034"><ele>317.0</ele><time>2026-04-19T08:52:33.98Z</time></trkpt><trkpt lat="41.83933492397024" lon="16.134231349936623"><ele>317.0</ele><time>2026-04-19T08:52:35.98Z</time></trkpt><trkpt lat="41.839348866197625" lon="16.134409382402396"><ele>312.0</ele><time>2026-04-19T08:52:37.98Z</time></trkpt><trkpt lat="41.83936652604497" lon="16.13457433548309"><ele>307.0</ele><time>2026-04-19T08:52:39.98Z</time></trkpt><trkpt lat="41.839391952716696" lon="16.134733067489837"><ele>302.0</ele><time>2026-04-19T08:52:41.979Z</time></trkpt><trkpt lat="41.83941338959289" lon="16.134899869836886"><ele>297.0</ele><time>2026-04-19T08:52:43.979Z</time></trkpt><trkpt lat="41.83943400713119" lon="16.135026134616563"><ele>295.6</ele><time>2026-04-19T08:52:45.979Z</time></trkpt><trkpt lat="41.839470611784584" lon="16.13517046700635"><ele>294.2</ele><time>2026-04-19T08:52:47.979Z</time></trkpt><trkpt lat="41.83949635431767" lon="16.135256141398205"><ele>292.8</ele><time>2026-04-19T08:52:48.979Z</time></trkpt><trkpt lat="41.839509237315276" lon="16.135399078096405"><ele>291.4</ele><time>2026-04-19T08:52:50.979Z</time></trkpt><trkpt lat="41.83952523842475" lon="16.13551855779101"><ele>290.0</ele><time>2026-04-19T08:52:52.979Z</time></trkpt><trkpt lat="41.839590218314534" lon="16.135696654454296"><ele>289.5</ele><time>2026-04-19T08:52:54.979Z</time></trkpt><trkpt lat="41.839573995380746" lon="16.13580772478909"><ele>289.0</ele><time>2026-04-19T08:52:56.979Z</time></trkpt><trkpt lat="41.83959309136239" lon="16.135952128067643"><ele>288.5</ele><time>2026-04-19T08:52:58.979Z</time></trkpt><trkpt lat="41.83961459368633" lon="16.13604663154816"><ele>288.0</ele><time>2026-04-19T08:52:59.979Z</time></trkpt><trkpt lat="41.839640148477834" lon="16.136130323305892"><ele>287.5</ele><time>2026-04-19T08:53:00.979Z</time></trkpt><trkpt lat="41.83966330670433" lon="16.136265969233538"><ele>287.0</ele><time>2026-04-19T08:53:02.979Z</time></trkpt><trkpt lat="41.83968534870345" lon="16.1364374417036"><ele>287.0</ele><time>2026-04-19T08:53:04.979Z</time></trkpt><trkpt lat="41.83969078339723" lon="16.136535784093695"><ele>287.0</ele><time>2026-04-19T08:53:05.979Z</time></trkpt><trkpt lat="41.839727062835465" lon="16.136651064981677"><ele>287.0</ele><time>2026-04-19T08:53:07.979Z</time></trkpt><trkpt lat="41.83978204932619" lon="16.13671306585653"><ele>287.0</ele><time>2026-04-19T08:53:09.979Z</time></trkpt><trkpt lat="41.839835563388455" lon="16.13677696515927"><ele>287.0</ele><time>2026-04-19T08:53:12.979Z</time></trkpt><trkpt lat="41.83991898237158" lon="16.136861097649795"><ele>287.0</ele><time>2026-04-19T08:53:14.979Z</time></trkpt><trkpt lat="41.84000054537324" lon="16.13694680248492"><ele>286.4</ele><time>2026-04-19T08:53:16.979Z</time></trkpt><trkpt lat="41.840078642528496" lon="16.137039487465085"><ele>285.79999999999995</ele><time>2026-04-19T08:53:18.979Z</time></trkpt><trkpt lat="41.84019213140948" lon="16.137136181781315"><ele>285.2</ele><time>2026-04-19T08:53:20.976Z</time></trkpt><trkpt lat="41.84025737796639" lon="16.137195375554928"><ele>284.59999999999997</ele><time>2026-04-19T08:53:21.974Z</time></trkpt><trkpt lat="41.84031360237633" lon="16.137244291713984"><ele>284.0</ele><time>2026-04-19T08:53:22.972Z</time></trkpt><trkpt lat="41.84042261236935" lon="16.137360015465166"><ele>280.59999999999997</ele><time>2026-04-19T08:53:24.969Z</time></trkpt><trkpt lat="41.840519246848245" lon="16.1374574812434"><ele>277.2</ele><time>2026-04-19T08:53:26.966Z</time></trkpt><trkpt lat="41.8406347849766" lon="16.137552933214458"><ele>273.79999999999995</ele><time>2026-04-19T08:53:28.964Z</time></trkpt><trkpt lat="41.840703300921746" lon="16.137613081959422"><ele>270.4</ele><time>2026-04-19T08:53:29.963Z</time></trkpt><trkpt lat="41.84078280230771" lon="16.137694832230714"><ele>267.0</ele><time>2026-04-19T08:53:30.962Z</time></trkpt><trkpt lat="41.84084331999093" lon="16.137755106549815"><ele>267.0</ele><time>2026-04-19T08:53:31.961Z</time></trkpt><trkpt lat="41.840906825225126" lon="16.137819133349375"><ele>267.0</ele><time>2026-04-19T08:53:32.96Z</time></trkpt><trkpt lat="41.840975842776345" lon="16.13788534429137"><ele>267.0</ele><time>2026-04-19T08:53:33.959Z</time></trkpt><trkpt lat="41.84103721921927" lon="16.137959624301065"><ele>267.0</ele><time>2026-04-19T08:53:34.959Z</time></trkpt><trkpt lat="41.841107469441674" lon="16.138030512611518"><ele>267.0</ele><time>2026-04-19T08:53:35.958Z</time></trkpt><trkpt lat="41.84118451670762" lon="16.138110662319345"><ele>267.0</ele><time>2026-04-19T08:53:36.957Z</time></trkpt><trkpt lat="41.841254901807055" lon="16.1381850039972"><ele>266.8333333333333</ele><time>2026-04-19T08:53:37.957Z</time></trkpt><trkpt lat="41.84132106524178" lon="16.138245575780115"><ele>266.6666666666667</ele><time>2026-04-19T08:53:38.956Z</time></trkpt><trkpt lat="41.84138188658269" lon="16.138302832070476"><ele>266.5</ele><time>2026-04-19T08:53:39.955Z</time></trkpt><trkpt lat="41.84144540088054" lon="16.138338436782185"><ele>266.33333333333337</ele><time>2026-04-19T08:53:40.955Z</time></trkpt><trkpt lat="41.84153591451991" lon="16.138386471445873"><ele>266.1666666666667</ele><time>2026-04-19T08:53:42.954Z</time></trkpt><trkpt lat="41.84162087227102" lon="16.138436111391034"><ele>266.0</ele><time>2026-04-19T08:53:44.953Z</time></trkpt><trkpt lat="41.84171848158192" lon="16.13847076163015"><ele>263.8</ele><time>2026-04-19T08:53:46.952Z</time></trkpt><trkpt lat="41.841813537922775" lon="16.13849898307023"><ele>261.6</ele><time>2026-04-19T08:53:48.952Z</time></trkpt><trkpt lat="41.841924117339495" lon="16.138538184882098"><ele>259.4</ele><time>2026-04-19T08:53:50.951Z</time></trkpt><trkpt lat="41.84203783701472" lon="16.138604029884085"><ele>257.2</ele><time>2026-04-19T08:53:52.951Z</time></trkpt><trkpt lat="41.842099951720265" lon="16.13863224929653"><ele>255.0</ele><time>2026-04-19T08:53:53.95Z</time></trkpt><trkpt lat="41.842167178122004" lon="16.138650824857592"><ele>255.0</ele><time>2026-04-19T08:53:54.95Z</time></trkpt><trkpt lat="41.842235109247476" lon="16.138668339346104"><ele>255.0</ele><time>2026-04-19T08:53:55.95Z</time></trkpt><trkpt lat="41.84229875420588" lon="16.138696818579593"><ele>255.0</ele><time>2026-04-19T08:53:56.95Z</time></trkpt><trkpt lat="41.84237000910714" lon="16.13873946489079"><ele>255.0</ele><time>2026-04-19T08:53:57.95Z</time></trkpt><trkpt lat="41.842454869473585" lon="16.138771247550505"><ele>255.0</ele><time>2026-04-19T08:53:58.95Z</time></trkpt><trkpt lat="41.84252906643462" lon="16.13880618918458"><ele>255.0</ele><time>2026-04-19T08:53:59.949Z</time></trkpt><trkpt lat="41.842621631427555" lon="16.138818172046264"><ele>253.66666666666666</ele><time>2026-04-19T08:54:00.949Z</time></trkpt><trkpt lat="41.84269239489901" lon="16.13884367305092"><ele>252.33333333333331</ele><time>2026-04-19T08:54:01.949Z</time></trkpt><trkpt lat="41.842764510706694" lon="16.13886636410896"><ele>251.0</ele><time>2026-04-19T08:54:02.949Z</time></trkpt><trkpt lat="41.84285927745998" lon="16.138892478614462"><ele>249.66666666666666</ele><time>2026-04-19T08:54:03.949Z</time></trkpt><trkpt lat="41.842932234326206" lon="16.13891743797957"><ele>248.33333333333331</ele><time>2026-04-19T08:54:04.949Z</time></trkpt><trkpt lat="41.84300902088313" lon="16.138951363047163"><ele>247.0</ele><time>2026-04-19T08:54:05.949Z</time></trkpt><trkpt lat="41.84310551707248" lon="16.138969589351202"><ele>247.0</ele><time>2026-04-19T08:54:06.949Z</time></trkpt><trkpt lat="41.84322630024073" lon="16.139023981149787"><ele>247.0</ele><time>2026-04-19T08:54:07.949Z</time></trkpt><trkpt lat="41.843323620392475" lon="16.13905299101918"><ele>247.0</ele><time>2026-04-19T08:54:08.948Z</time></trkpt><trkpt lat="41.84341657531977" lon="16.139083149820124"><ele>247.0</ele><time>2026-04-19T08:54:09.948Z</time></trkpt><trkpt lat="41.84349038415443" lon="16.139125331096167"><ele>247.0</ele><time>2026-04-19T08:54:10.948Z</time></trkpt><trkpt lat="41.843555981412" lon="16.139149951581526"><ele>249.0</ele><time>2026-04-19T08:54:11.948Z</time></trkpt><trkpt lat="41.843635055731646" lon="16.139175647037355"><ele>251.0</ele><time>2026-04-19T08:54:12.948Z</time></trkpt><trkpt lat="41.84372546423811" lon="16.139195404223823"><ele>253.0</ele><time>2026-04-19T08:54:13.948Z</time></trkpt><trkpt lat="41.84382272621576" lon="16.139223190056985"><ele>255.0</ele><time>2026-04-19T08:54:14.948Z</time></trkpt><trkpt lat="41.8439378978671" lon="16.1392455867648"><ele>257.0</ele><time>2026-04-19T08:54:15.948Z</time></trkpt><trkpt lat="41.84403489927106" lon="16.13929115334498"><ele>257.0</ele><time>2026-04-19T08:54:16.948Z</time></trkpt><trkpt lat="41.844154181697654" lon="16.139329209315626"><ele>257.0</ele><time>2026-04-19T08:54:17.948Z</time></trkpt><trkpt lat="41.84424077833589" lon="16.139351669067825"><ele>257.0</ele><time>2026-04-19T08:54:18.948Z</time></trkpt><trkpt lat="41.844326874135064" lon="16.13937095700535"><ele>257.0</ele><time>2026-04-19T08:54:19.948Z</time></trkpt><trkpt lat="41.84441654111448" lon="16.139398902544706"><ele>257.0</ele><time>2026-04-19T08:54:20.948Z</time></trkpt><trkpt lat="41.84448977084567" lon="16.139442728233348"><ele>255.6</ele><time>2026-04-19T08:54:21.948Z</time></trkpt><trkpt lat="41.84457571270947" lon="16.13946417032801"><ele>254.2</ele><time>2026-04-19T08:54:22.948Z</time></trkpt><trkpt lat="41.84470786939206" lon="16.139546370171338"><ele>252.8</ele><time>2026-04-19T08:54:24.948Z</time></trkpt><trkpt lat="41.844772372487306" lon="16.139616577217453"><ele>251.4</ele><time>2026-04-19T08:54:25.948Z</time></trkpt><trkpt lat="41.844840250128065" lon="16.139687479466193"><ele>250.0</ele><time>2026-04-19T08:54:26.948Z</time></trkpt><trkpt lat="41.84491857818296" lon="16.139779171354633"><ele>249.99999999999997</ele><time>2026-04-19T08:54:27.948Z</time></trkpt><trkpt lat="41.845021675466334" lon="16.13987129085744"><ele>250.0</ele><time>2026-04-19T08:54:28.948Z</time></trkpt><trkpt lat="41.845094842180664" lon="16.139934362481863"><ele>250.0</ele><time>2026-04-19T08:54:29.948Z</time></trkpt><trkpt lat="41.84515621699371" lon="16.13999607187592"><ele>250.0</ele><time>2026-04-19T08:54:30.948Z</time></trkpt><trkpt lat="41.84521805025685" lon="16.140058219618965"><ele>249.99999999999997</ele><time>2026-04-19T08:54:31.948Z</time></trkpt><trkpt lat="41.84528799240153" lon="16.140101664722742"><ele>250.0</ele><time>2026-04-19T08:54:32.948Z</time></trkpt><trkpt lat="41.84536312974378" lon="16.14014318003675"><ele>251.16666666666666</ele><time>2026-04-19T08:54:33.948Z</time></trkpt><trkpt lat="41.84542468740675" lon="16.140183633876084"><ele>252.33333333333331</ele><time>2026-04-19T08:54:34.948Z</time></trkpt><trkpt lat="41.84550416778292" lon="16.140243331417576"><ele>253.5</ele><time>2026-04-19T08:54:35.948Z</time></trkpt><trkpt lat="41.84559047110181" lon="16.14030299008118"><ele>254.66666666666669</ele><time>2026-04-19T08:54:36.948Z</time></trkpt><trkpt lat="41.84566825082288" lon="16.140352090344507"><ele>255.83333333333334</ele><time>2026-04-19T08:54:37.948Z</time></trkpt><trkpt lat="41.84574100921178" lon="16.14041180094492"><ele>257.0</ele><time>2026-04-19T08:54:38.948Z</time></trkpt><trkpt lat="41.84580683349209" lon="16.14047339771258"><ele>257.0</ele><time>2026-04-19T08:54:39.948Z</time></trkpt><trkpt lat="41.84586731387762" lon="16.14053095349506"><ele>257.0</ele><time>2026-04-19T08:54:40.948Z</time></trkpt><trkpt lat="41.84595983708691" lon="16.14065157769527"><ele>257.0</ele><time>2026-04-19T08:54:42.948Z</time></trkpt><trkpt lat="41.84600038365837" lon="16.14073531980812"><ele>257.0</ele><time>2026-04-19T08:54:43.948Z</time></trkpt><trkpt lat="41.84603696029215" lon="16.140824132221674"><ele>257.0</ele><time>2026-04-19T08:54:44.948Z</time></trkpt><trkpt lat="41.84609413914019" lon="16.14090026629487"><ele>257.0</ele><time>2026-04-19T08:54:45.948Z</time></trkpt><trkpt lat="41.84615134140224" lon="16.140988219577686"><ele>256.6666666666667</ele><time>2026-04-19T08:54:46.948Z</time></trkpt><trkpt lat="41.846202506779875" lon="16.14106790016242"><ele>256.33333333333337</ele><time>2026-04-19T08:54:47.947Z</time></trkpt><trkpt lat="41.84625421201322" lon="16.14113366371143"><ele>256.0</ele><time>2026-04-19T08:54:48.947Z</time></trkpt><trkpt lat="41.84630442335014" lon="16.141233816667107"><ele>255.66666666666669</ele><time>2026-04-19T08:54:49.947Z</time></trkpt><trkpt lat="41.84636110861863" lon="16.141297690964354"><ele>255.33333333333334</ele><time>2026-04-19T08:54:50.947Z</time></trkpt><trkpt lat="41.846419420633644" lon="16.141362148115938"><ele>255.0</ele><time>2026-04-19T08:54:51.947Z</time></trkpt><trkpt lat="41.84648102542487" lon="16.14142661966304"><ele>255.0</ele><time>2026-04-19T08:54:52.947Z</time></trkpt><trkpt lat="41.846581597666045" lon="16.141482058675113"><ele>255.0</ele><time>2026-04-19T08:54:54.947Z</time></trkpt><trkpt lat="41.846675872875586" lon="16.141520708813655"><ele>255.0</ele><time>2026-04-19T08:54:56.947Z</time></trkpt><trkpt lat="41.846748121858006" lon="16.141561171654878"><ele>255.0</ele><time>2026-04-19T08:54:58.946Z</time></trkpt><trkpt lat="41.846848096904765" lon="16.141600088724598"><ele>255.0</ele><time>2026-04-19T08:55:00.947Z</time></trkpt><trkpt lat="41.84694248578554" lon="16.141668669523042"><ele>254.16666666666666</ele><time>2026-04-19T08:55:02.947Z</time></trkpt><trkpt lat="41.84701053008531" lon="16.14170684322396"><ele>253.33333333333331</ele><time>2026-04-19T08:55:03.947Z</time></trkpt><trkpt lat="41.84707704737578" lon="16.14173379957653"><ele>252.5</ele><time>2026-04-19T08:55:04.947Z</time></trkpt><trkpt lat="41.84716306339594" lon="16.141754922201326"><ele>251.66666666666666</ele><time>2026-04-19T08:55:06.947Z</time></trkpt><trkpt lat="41.84724066316735" lon="16.141801171088527"><ele>250.83333333333331</ele><time>2026-04-19T08:55:08.947Z</time></trkpt><trkpt lat="41.84730600552667" lon="16.141852159106087"><ele>250.0</ele><time>2026-04-19T08:55:10.947Z</time></trkpt><trkpt lat="41.84737679920909" lon="16.14189708300545"><ele>250.0</ele><time>2026-04-19T08:55:12.947Z</time></trkpt><trkpt lat="41.84743874009884" lon="16.141932608460877"><ele>250.0</ele><time>2026-04-19T08:55:15.947Z</time></trkpt><trkpt lat="41.84751722454303" lon="16.141971114013664"><ele>250.0</ele><time>2026-04-19T08:55:56.947Z</time></trkpt><trkpt lat="41.847583413806774" lon="16.141981841448192"><ele>250.0</ele><time>2026-04-19T08:55:59.947Z</time></trkpt><trkpt lat="41.84765448631552" lon="16.1420155940158"><ele>250.0</ele><time>2026-04-19T08:56:08.947Z</time></trkpt><trkpt lat="41.8477290430069" lon="16.142033632094197"><ele>250.0</ele><time>2026-04-19T08:56:17.947Z</time></trkpt><trkpt lat="41.847796330742405" lon="16.14205260705711"><ele>250.0</ele><time>2026-04-19T08:56:24.948Z</time></trkpt><trkpt lat="41.84773132091061" lon="16.142032559895195"><ele>250.0</ele><time>2026-04-19T08:56:50.948Z</time></trkpt><trkpt lat="41.84764970412225" lon="16.142039184842524"><ele>250.0</ele><time>2026-04-19T08:56:53.946Z</time></trkpt><trkpt lat="41.847574874324316" lon="16.14196738698834"><ele>250.0</ele><time>2026-04-19T09:03:11.945Z</time></trkpt><trkpt lat="41.847465961858944" lon="16.141926572062616"><ele>250.0</ele><time>2026-04-19T09:03:13.946Z</time></trkpt><trkpt lat="41.84735812837714" lon="16.141862113184214"><ele>250.0</ele><time>2026-04-19T09:03:15.945Z</time></trkpt><trkpt lat="41.84729099885264" lon="16.141805169695957"><ele>250.0</ele><time>2026-04-19T09:03:16.945Z</time></trkpt><trkpt lat="41.847160833746706" lon="16.141721968876528"><ele>250.0</ele><time>2026-04-19T09:03:18.945Z</time></trkpt><trkpt lat="41.84707399415474" lon="16.14170707347049"><ele>250.0</ele><time>2026-04-19T09:03:19.945Z</time></trkpt><trkpt lat="41.84700019328632" lon="16.14170054454985"><ele>250.0</ele><time>2026-04-19T09:03:20.946Z</time></trkpt><trkpt lat="41.8469428320882" lon="16.141643855920464"><ele>250.0</ele><time>2026-04-19T09:03:21.945Z</time></trkpt><trkpt lat="41.846877684401065" lon="16.141576752107724"><ele>251.0</ele><time>2026-04-19T09:03:22.945Z</time></trkpt><trkpt lat="41.84674392881228" lon="16.1415399866829"><ele>252.0</ele><time>2026-04-19T09:03:24.945Z</time></trkpt><trkpt lat="41.84666854718999" lon="16.14150911306721"><ele>253.0</ele><time>2026-04-19T09:03:25.945Z</time></trkpt><trkpt lat="41.84658838044606" lon="16.141465217963894"><ele>254.0</ele><time>2026-04-19T09:03:26.945Z</time></trkpt><trkpt lat="41.846503779500836" lon="16.141428957806507"><ele>255.0</ele><time>2026-04-19T09:03:27.945Z</time></trkpt><trkpt lat="41.846440467093075" lon="16.14137853924763"><ele>255.0</ele><time>2026-04-19T09:03:28.945Z</time></trkpt><trkpt lat="41.84639255516274" lon="16.141298691547124"><ele>255.0</ele><time>2026-04-19T09:03:29.945Z</time></trkpt><trkpt lat="41.846324969542245" lon="16.141194900024047"><ele>255.0</ele><time>2026-04-19T09:03:30.945Z</time></trkpt><trkpt lat="41.84623635082435" lon="16.1410590095737"><ele>255.0</ele><time>2026-04-19T09:03:31.945Z</time></trkpt><trkpt lat="41.84615724256236" lon="16.140922219484583"><ele>255.0</ele><time>2026-04-19T09:03:32.945Z</time></trkpt><trkpt lat="41.84609442133631" lon="16.140809688548266"><ele>255.0</ele><time>2026-04-19T09:03:33.945Z</time></trkpt><trkpt lat="41.846040961659554" lon="16.140721187793435"><ele>255.0</ele><time>2026-04-19T09:03:34.945Z</time></trkpt><trkpt lat="41.84599823669212" lon="16.140619002676083"><ele>255.0</ele><time>2026-04-19T09:03:35.945Z</time></trkpt><trkpt lat="41.845940807259986" lon="16.140549066810554"><ele>255.0</ele><time>2026-04-19T09:03:36.945Z</time></trkpt><trkpt lat="41.84586147783851" lon="16.140461678935743"><ele>255.0</ele><time>2026-04-19T09:03:37.945Z</time></trkpt><trkpt lat="41.84575923926057" lon="16.140383226100834"><ele>255.4</ele><time>2026-04-19T09:03:38.945Z</time></trkpt><trkpt lat="41.84564876757928" lon="16.140331271253938"><ele>255.8</ele><time>2026-04-19T09:03:39.945Z</time></trkpt><trkpt lat="41.8455474775454" lon="16.140247035082172"><ele>256.2</ele><time>2026-04-19T09:03:40.945Z</time></trkpt><trkpt lat="41.84544706512739" lon="16.140165955144177"><ele>256.6</ele><time>2026-04-19T09:03:41.945Z</time></trkpt><trkpt lat="41.84536136272762" lon="16.140110849378228"><ele>257.0</ele><time>2026-04-19T09:03:42.945Z</time></trkpt><trkpt lat="41.84529063800579" lon="16.140069725373237"><ele>257.0</ele><time>2026-04-19T09:03:43.945Z</time></trkpt><trkpt lat="41.84518457650798" lon="16.139979443444865"><ele>257.0</ele><time>2026-04-19T09:03:45.945Z</time></trkpt><trkpt lat="41.84511327723328" lon="16.139903868226217"><ele>257.0</ele><time>2026-04-19T09:03:46.945Z</time></trkpt><trkpt lat="41.84502934601985" lon="16.13982834900412"><ele>257.0</ele><time>2026-04-19T09:03:47.945Z</time></trkpt><trkpt lat="41.84496520666922" lon="16.139771593283474"><ele>257.0</ele><time>2026-04-19T09:03:48.945Z</time></trkpt><trkpt lat="41.844900155325824" lon="16.13971317646265"><ele>255.83333333333334</ele><time>2026-04-19T09:03:49.945Z</time></trkpt><trkpt lat="41.844831179665846" lon="16.13963348925966"><ele>254.66666666666669</ele><time>2026-04-19T09:03:50.945Z</time></trkpt><trkpt lat="41.84475696228377" lon="16.139569592649305"><ele>253.5</ele><time>2026-04-19T09:03:51.945Z</time></trkpt><trkpt lat="41.84468837132313" lon="16.139504422052163"><ele>252.33333333333331</ele><time>2026-04-19T09:03:52.945Z</time></trkpt><trkpt lat="41.844620869902435" lon="16.139458881947245"><ele>251.16666666666666</ele><time>2026-04-19T09:03:53.945Z</time></trkpt><trkpt lat="41.844529573384904" lon="16.139436500557938"><ele>250.0</ele><time>2026-04-19T09:03:54.945Z</time></trkpt><trkpt lat="41.84444135242428" lon="16.13942337368425"><ele>250.0</ele><time>2026-04-19T09:03:55.945Z</time></trkpt><trkpt lat="41.8443399181228" lon="16.139397600673284"><ele>250.0</ele><time>2026-04-19T09:03:56.945Z</time></trkpt><trkpt lat="41.84426127165841" lon="16.13937618525275"><ele>250.0</ele><time>2026-04-19T09:03:57.945Z</time></trkpt><trkpt lat="41.844176359294906" lon="16.13935202766675"><ele>250.0</ele><time>2026-04-19T09:03:58.945Z</time></trkpt><trkpt lat="41.84410177376348" lon="16.139313591840246"><ele>250.0</ele><time>2026-04-19T09:03:59.945Z</time></trkpt><trkpt lat="41.844008495283" lon="16.139262958334438"><ele>251.16666666666666</ele><time>2026-04-19T09:04:00.945Z</time></trkpt><trkpt lat="41.843927476457125" lon="16.139243476946984"><ele>252.33333333333331</ele><time>2026-04-19T09:04:01.945Z</time></trkpt><trkpt lat="41.843852012375265" lon="16.139213328831172"><ele>253.5</ele><time>2026-04-19T09:04:02.945Z</time></trkpt><trkpt lat="41.843762746147014" lon="16.139195655413992"><ele>254.66666666666669</ele><time>2026-04-19T09:04:03.945Z</time></trkpt><trkpt lat="41.84365472607995" lon="16.139167164407386"><ele>255.83333333333334</ele><time>2026-04-19T09:04:04.945Z</time></trkpt><trkpt lat="41.84357357948301" lon="16.139164734212454"><ele>257.0</ele><time>2026-04-19T09:04:05.945Z</time></trkpt><trkpt lat="41.84350467287726" lon="16.139132284359572"><ele>257.83333333333337</ele><time>2026-04-19T09:04:06.945Z</time></trkpt><trkpt lat="41.84343288804681" lon="16.139087354650936"><ele>258.6666666666667</ele><time>2026-04-19T09:04:07.945Z</time></trkpt><trkpt lat="41.84335428251891" lon="16.139045057677002"><ele>259.5</ele><time>2026-04-19T09:04:08.945Z</time></trkpt><trkpt lat="41.8432831481564" lon="16.139016261160076"><ele>260.3333333333333</ele><time>2026-04-19T09:04:09.945Z</time></trkpt><trkpt lat="41.843200647387235" lon="16.138991588757175"><ele>261.16666666666663</ele><time>2026-04-19T09:04:10.945Z</time></trkpt><trkpt lat="41.84311699367502" lon="16.138978328220162"><ele>262.0</ele><time>2026-04-19T09:04:11.945Z</time></trkpt><trkpt lat="41.84304228777163" lon="16.13895903634862"><ele>260.6</ele><time>2026-04-19T09:04:12.945Z</time></trkpt><trkpt lat="41.842940259166404" lon="16.138916968193968"><ele>259.2</ele><time>2026-04-19T09:04:13.945Z</time></trkpt><trkpt lat="41.84284472161696" lon="16.13886593583601"><ele>257.8</ele><time>2026-04-19T09:04:14.945Z</time></trkpt><trkpt lat="41.84275562260508" lon="16.138854195597816"><ele>256.4</ele><time>2026-04-19T09:04:15.945Z</time></trkpt><trkpt lat="41.84265855686459" lon="16.1388110489388"><ele>255.0</ele><time>2026-04-19T09:04:16.945Z</time></trkpt><trkpt lat="41.842566427228974" lon="16.13877393119954"><ele>255.0</ele><time>2026-04-19T09:04:17.945Z</time></trkpt><trkpt lat="41.84248263502327" lon="16.138736480010582"><ele>255.0</ele><time>2026-04-19T09:04:18.945Z</time></trkpt><trkpt lat="41.84239010948397" lon="16.138698523537364"><ele>255.0</ele><time>2026-04-19T09:04:19.945Z</time></trkpt><trkpt lat="41.84231310449953" lon="16.13867440532134"><ele>255.0</ele><time>2026-04-19T09:04:20.945Z</time></trkpt><trkpt lat="41.84222914331254" lon="16.138624402835127"><ele>255.0</ele><time>2026-04-19T09:04:21.945Z</time></trkpt><trkpt lat="41.84214562500064" lon="16.1385936644265"><ele>255.0</ele><time>2026-04-19T09:04:22.945Z</time></trkpt><trkpt lat="41.842066165017364" lon="16.138559562339395"><ele>255.0</ele><time>2026-04-19T09:04:23.945Z</time></trkpt><trkpt lat="41.84197064225531" lon="16.138522418444293"><ele>255.0</ele><time>2026-04-19T09:04:24.945Z</time></trkpt><trkpt lat="41.84187940162603" lon="16.13848859315219"><ele>255.0</ele><time>2026-04-19T09:04:25.945Z</time></trkpt><trkpt lat="41.84179647203726" lon="16.13847155237379"><ele>255.0</ele><time>2026-04-19T09:04:26.945Z</time></trkpt><trkpt lat="41.84172585276733" lon="16.138437351631815"><ele>255.0</ele><time>2026-04-19T09:04:27.945Z</time></trkpt><trkpt lat="41.84164525408821" lon="16.13839985187193"><ele>255.0</ele><time>2026-04-19T09:04:28.945Z</time></trkpt><trkpt lat="41.841542557478064" lon="16.138350282541946"><ele>254.5</ele><time>2026-04-19T09:04:30.945Z</time></trkpt><trkpt lat="41.841482514792766" lon="16.138307517616667"><ele>254.0</ele><time>2026-04-19T09:04:31.945Z</time></trkpt><trkpt lat="41.84140960388602" lon="16.138258228284645"><ele>253.5</ele><time>2026-04-19T09:04:32.945Z</time></trkpt><trkpt lat="41.84132044051291" lon="16.138191507945134"><ele>253.0</ele><time>2026-04-19T09:04:33.945Z</time></trkpt><trkpt lat="41.8412348847003" lon="16.138127978940638"><ele>252.5</ele><time>2026-04-19T09:04:34.945Z</time></trkpt><trkpt lat="41.84116321068726" lon="16.138044051773782"><ele>252.0</ele><time>2026-04-19T09:04:35.945Z</time></trkpt><trkpt lat="41.841102043677274" lon="16.1379802388578"><ele>252.0</ele><time>2026-04-19T09:04:36.945Z</time></trkpt><trkpt lat="41.84103458020756" lon="16.137931901888006"><ele>252.0</ele><time>2026-04-19T09:04:37.945Z</time></trkpt><trkpt lat="41.84096033405133" lon="16.137868310040503"><ele>252.0</ele><time>2026-04-19T09:04:38.945Z</time></trkpt><trkpt lat="41.840893868035515" lon="16.137805303568168"><ele>252.0</ele><time>2026-04-19T09:04:39.945Z</time></trkpt><trkpt lat="41.84083136485065" lon="16.13775724473625"><ele>252.0</ele><time>2026-04-19T09:04:40.945Z</time></trkpt><trkpt lat="41.84076320103769" lon="16.1377051011797"><ele>252.0</ele><time>2026-04-19T09:04:41.945Z</time></trkpt><trkpt lat="41.840669256662494" lon="16.137621161129953"><ele>253.6</ele><time>2026-04-19T09:04:43.945Z</time></trkpt><trkpt lat="41.84059216319546" lon="16.137537185273082"><ele>255.2</ele><time>2026-04-19T09:04:45.946Z</time></trkpt><trkpt lat="41.840510672729565" lon="16.13745246556496"><ele>256.8</ele><time>2026-04-19T09:04:47.946Z</time></trkpt><trkpt lat="41.84042201881481" lon="16.13736239370663"><ele>258.4</ele><time>2026-04-19T09:04:49.946Z</time></trkpt><trkpt lat="41.84037121256798" lon="16.1372953834091"><ele>260.0</ele><time>2026-04-19T09:04:50.946Z</time></trkpt><trkpt lat="41.84032217238505" lon="16.137232124795855"><ele>260.0</ele><time>2026-04-19T09:04:51.946Z</time></trkpt><trkpt lat="41.84025408722626" lon="16.137169407056373"><ele>260.0</ele><time>2026-04-19T09:04:52.946Z</time></trkpt><trkpt lat="41.84018609433812" lon="16.13711473244366"><ele>260.0</ele><time>2026-04-19T09:04:53.946Z</time></trkpt><trkpt lat="41.84008329342934" lon="16.137029701341387"><ele>260.0</ele><time>2026-04-19T09:04:55.946Z</time></trkpt><trkpt lat="41.84001990486994" lon="16.136963871143816"><ele>260.0</ele><time>2026-04-19T09:04:56.946Z</time></trkpt><trkpt lat="41.839968220035836" lon="16.136910552227477"><ele>260.0</ele><time>2026-04-19T09:04:57.946Z</time></trkpt><trkpt lat="41.839902079439305" lon="16.136849980001216"><ele>264.0</ele><time>2026-04-19T09:04:58.946Z</time></trkpt><trkpt lat="41.839831834415016" lon="16.1367711398248"><ele>268.0</ele><time>2026-04-19T09:04:59.946Z</time></trkpt><trkpt lat="41.839766920560685" lon="16.13672277303443"><ele>272.0</ele><time>2026-04-19T09:05:00.946Z</time></trkpt><trkpt lat="41.8397380996089" lon="16.136627199150716"><ele>276.0</ele><time>2026-04-19T09:05:02.946Z</time></trkpt><trkpt lat="41.83972078112352" lon="16.136500801839446"><ele>280.0</ele><time>2026-04-19T09:05:04.946Z</time></trkpt><trkpt lat="41.839710943074714" lon="16.136398884891218"><ele>284.0</ele><time>2026-04-19T09:05:06.946Z</time></trkpt><trkpt lat="41.839688574221874" lon="16.13621956507526"><ele>284.5</ele><time>2026-04-19T09:05:08.946Z</time></trkpt><trkpt lat="41.83966949974838" lon="16.136120705235342"><ele>285.0</ele><time>2026-04-19T09:05:09.946Z</time></trkpt><trkpt lat="41.839645758231335" lon="16.13602025517895"><ele>285.5</ele><time>2026-04-19T09:05:10.946Z</time></trkpt><trkpt lat="41.83961639242747" lon="16.13591739608623"><ele>286.0</ele><time>2026-04-19T09:05:11.946Z</time></trkpt><trkpt lat="41.8396017243656" lon="16.13581622911146"><ele>286.5</ele><time>2026-04-19T09:05:12.946Z</time></trkpt><trkpt lat="41.83958524590945" lon="16.13572279792595"><ele>287.0</ele><time>2026-04-19T09:05:13.946Z</time></trkpt><trkpt lat="41.83957880952231" lon="16.135556316308328"><ele>287.6</ele><time>2026-04-19T09:05:15.946Z</time></trkpt><trkpt lat="41.83956177601397" lon="16.135449521681732"><ele>288.2</ele><time>2026-04-19T09:05:16.946Z</time></trkpt><trkpt lat="41.83952195329247" lon="16.135268692834707"><ele>288.8</ele><time>2026-04-19T09:05:18.945Z</time></trkpt><trkpt lat="41.83949802690922" lon="16.13515793502749"><ele>289.4</ele><time>2026-04-19T09:05:19.945Z</time></trkpt><trkpt lat="41.8394800771673" lon="16.135026493554214"><ele>290.0</ele><time>2026-04-19T09:05:21.945Z</time></trkpt><trkpt lat="41.839454611950664" lon="16.134931798099412"><ele>291.4</ele><time>2026-04-19T09:05:22.945Z</time></trkpt><trkpt lat="41.83942109673227" lon="16.134822611610783"><ele>292.8</ele><time>2026-04-19T09:05:23.946Z</time></trkpt><trkpt lat="41.83940869709089" lon="16.134692365257266"><ele>294.2</ele><time>2026-04-19T09:05:25.945Z</time></trkpt><trkpt lat="41.839391820879364" lon="16.13452101447245"><ele>295.6</ele><time>2026-04-19T09:05:27.945Z</time></trkpt><trkpt lat="41.839384039341205" lon="16.13441981857995"><ele>297.0</ele><time>2026-04-19T09:05:28.945Z</time></trkpt><trkpt lat="41.8393870407155" lon="16.13432756515649"><ele>297.0</ele><time>2026-04-19T09:05:29.945Z</time></trkpt><trkpt lat="41.83937869579083" lon="16.13423539010424"><ele>297.0</ele><time>2026-04-19T09:05:30.945Z</time></trkpt><trkpt lat="41.83936065123666" lon="16.134063070701803"><ele>297.0</ele><time>2026-04-19T09:05:32.945Z</time></trkpt><trkpt lat="41.83934426392491" lon="16.133953203646573"><ele>297.0</ele><time>2026-04-19T09:05:33.945Z</time></trkpt><trkpt lat="41.8393317504114" lon="16.13383882781134"><ele>297.0</ele><time>2026-04-19T09:05:34.945Z</time></trkpt><trkpt lat="41.83931064772067" lon="16.133721334379103"><ele>298.2857142857143</ele><time>2026-04-19T09:05:35.945Z</time></trkpt><trkpt lat="41.839276224929485" lon="16.1335963809073"><ele>299.5714285714286</ele><time>2026-04-19T09:05:37.945Z</time></trkpt><trkpt lat="41.83924213886058" lon="16.1334961722514"><ele>300.8571428571429</ele><time>2026-04-19T09:05:39.945Z</time></trkpt><trkpt lat="41.83922583781251" lon="16.13340899848337"><ele>302.14285714285717</ele><time>2026-04-19T09:05:42.945Z</time></trkpt><trkpt lat="41.83919551190861" lon="16.133329840710786"><ele>303.42857142857144</ele><time>2026-04-19T09:05:46.945Z</time></trkpt><trkpt lat="41.83919903759935" lon="16.13324428758298"><ele>304.7142857142857</ele><time>2026-04-19T09:06:02.945Z</time></trkpt><trkpt lat="41.83924852874551" lon="16.133183182538083"><ele>306.0</ele><time>2026-04-19T09:06:06.945Z</time></trkpt><trkpt lat="41.839303568157455" lon="16.133127695277537"><ele>306.6</ele><time>2026-04-19T09:06:10.945Z</time></trkpt><trkpt lat="41.83939386209955" lon="16.13308605086415"><ele>307.20000000000005</ele><time>2026-04-19T09:06:13.945Z</time></trkpt><trkpt lat="41.83950568633909" lon="16.133020957626353"><ele>307.79999999999995</ele><time>2026-04-19T09:06:15.945Z</time></trkpt><trkpt lat="41.83958479168535" lon="16.132954495879986"><ele>308.4</ele><time>2026-04-19T09:06:16.945Z</time></trkpt><trkpt lat="41.83967688352462" lon="16.132883888004592"><ele>309.0</ele><time>2026-04-19T09:06:17.945Z</time></trkpt><trkpt lat="41.83976857849454" lon="16.13281979451537"><ele>309.0</ele><time>2026-04-19T09:06:18.945Z</time></trkpt><trkpt lat="41.83987628744949" lon="16.13277564107397"><ele>309.0</ele><time>2026-04-19T09:06:19.945Z</time></trkpt><trkpt lat="41.83997999052337" lon="16.13275650715155"><ele>309.0</ele><time>2026-04-19T09:06:20.945Z</time></trkpt><trkpt lat="41.84007356581251" lon="16.132724815764572"><ele>309.0</ele><time>2026-04-19T09:06:21.945Z</time></trkpt><trkpt lat="41.84016277934975" lon="16.132691383694603"><ele>309.0</ele><time>2026-04-19T09:06:22.945Z</time></trkpt><trkpt lat="41.8402477789434" lon="16.132658249451097"><ele>308.2</ele><time>2026-04-19T09:06:23.945Z</time></trkpt><trkpt lat="41.840329132475084" lon="16.132664890102326"><ele>307.4</ele><time>2026-04-19T09:06:24.945Z</time></trkpt><trkpt lat="41.840420586331824" lon="16.132699476641196"><ele>306.6</ele><time>2026-04-19T09:06:25.945Z</time></trkpt><trkpt lat="41.84052173466598" lon="16.13274702844178"><ele>305.8</ele><time>2026-04-19T09:06:26.945Z</time></trkpt><trkpt lat="41.84061893472138" lon="16.132787551341757"><ele>305.0</ele><time>2026-04-19T09:06:27.945Z</time></trkpt><trkpt lat="41.84073817305534" lon="16.132824437695394"><ele>305.0</ele><time>2026-04-19T09:06:28.945Z</time></trkpt><trkpt lat="41.84086625802113" lon="16.13289063812374"><ele>305.0</ele><time>2026-04-19T09:06:29.945Z</time></trkpt><trkpt lat="41.84097743959774" lon="16.13294782150079"><ele>305.0</ele><time>2026-04-19T09:06:30.945Z</time></trkpt><trkpt lat="41.84108307715291" lon="16.13299871097533"><ele>305.0</ele><time>2026-04-19T09:06:31.945Z</time></trkpt><trkpt lat="41.84116351543022" lon="16.133035433465025"><ele>305.8</ele><time>2026-04-19T09:06:32.945Z</time></trkpt><trkpt lat="41.84123667100275" lon="16.13308018119914"><ele>306.6</ele><time>2026-04-19T09:06:33.945Z</time></trkpt><trkpt lat="41.8412966038347" lon="16.133148815338902"><ele>307.4</ele><time>2026-04-19T09:06:34.945Z</time></trkpt><trkpt lat="41.84136412198193" lon="16.13323499599759"><ele>308.2</ele><time>2026-04-19T09:06:35.945Z</time></trkpt><trkpt lat="41.84143683812051" lon="16.13333794426543"><ele>309.0</ele><time>2026-04-19T09:06:36.945Z</time></trkpt><trkpt lat="41.84150768397801" lon="16.13344698002001"><ele>309.0</ele><time>2026-04-19T09:06:37.945Z</time></trkpt><trkpt lat="41.84157513936362" lon="16.133556694112674"><ele>309.0</ele><time>2026-04-19T09:06:38.945Z</time></trkpt><trkpt lat="41.84165023701986" lon="16.133679368169563"><ele>309.0</ele><time>2026-04-19T09:06:39.945Z</time></trkpt><trkpt lat="41.841735011853" lon="16.13377139617349"><ele>309.0</ele><time>2026-04-19T09:06:40.945Z</time></trkpt><trkpt lat="41.84182464766325" lon="16.133842333173487"><ele>309.0</ele><time>2026-04-19T09:06:41.945Z</time></trkpt><trkpt lat="41.841897357205895" lon="16.133906825988085"><ele>307.1666666666667</ele><time>2026-04-19T09:06:42.945Z</time></trkpt><trkpt lat="41.841961484471625" lon="16.133960598938152"><ele>305.3333333333333</ele><time>2026-04-19T09:06:43.945Z</time></trkpt><trkpt lat="41.84202855880252" lon="16.133996158896995"><ele>303.5</ele><time>2026-04-19T09:06:45.945Z</time></trkpt><trkpt lat="41.842114464400744" lon="16.133951588951707"><ele>301.66666666666663</ele><time>2026-04-19T09:06:47.945Z</time></trkpt><trkpt lat="41.84221219892911" lon="16.133883919758002"><ele>299.8333333333333</ele><time>2026-04-19T09:06:49.945Z</time></trkpt><trkpt lat="41.842267370424615" lon="16.133835999084038"><ele>298.0</ele><time>2026-04-19T09:06:50.945Z</time></trkpt><trkpt lat="41.84232245370366" lon="16.133772853523137"><ele>298.0</ele><time>2026-04-19T09:06:51.945Z</time></trkpt><trkpt lat="41.84238116113889" lon="16.133715055034873"><ele>298.0</ele><time>2026-04-19T09:06:52.945Z</time></trkpt><trkpt lat="41.842443907015074" lon="16.133670758308604"><ele>298.0</ele><time>2026-04-19T09:06:53.945Z</time></trkpt><trkpt lat="41.84250816007116" lon="16.133625040610156"><ele>298.0</ele><time>2026-04-19T09:06:54.945Z</time></trkpt><trkpt lat="41.84256942529585" lon="16.13358632615486"><ele>298.0</ele><time>2026-04-19T09:06:55.945Z</time></trkpt><trkpt lat="41.84262705317131" lon="16.13354818255911"><ele>298.0</ele><time>2026-04-19T09:06:56.945Z</time></trkpt><trkpt lat="41.8427321137112" lon="16.133431972471193"><ele>295.6</ele><time>2026-04-19T09:06:58.945Z</time></trkpt><trkpt lat="41.84278448820291" lon="16.133354249818208"><ele>293.20000000000005</ele><time>2026-04-19T09:06:59.945Z</time></trkpt><trkpt lat="41.8428715127546" lon="16.13325625662963"><ele>290.8</ele><time>2026-04-19T09:07:01.945Z</time></trkpt><trkpt lat="41.84292823858" lon="16.133156893389256"><ele>288.40000000000003</ele><time>2026-04-19T09:07:03.945Z</time></trkpt><trkpt lat="41.842965574486065" lon="16.133071780860696"><ele>286.0</ele><time>2026-04-19T09:07:04.945Z</time></trkpt><trkpt lat="41.843010039907135" lon="16.13295888935983"><ele>285.66666666666663</ele><time>2026-04-19T09:07:06.945Z</time></trkpt><trkpt lat="41.84307048533019" lon="16.132845503619418"><ele>285.3333333333333</ele><time>2026-04-19T09:07:08.945Z</time></trkpt><trkpt lat="41.84310968448641" lon="16.13277289381734"><ele>285.0</ele><time>2026-04-19T09:07:09.945Z</time></trkpt><trkpt lat="41.84315850731974" lon="16.13261506824315"><ele>284.6666666666667</ele><time>2026-04-19T09:07:11.946Z</time></trkpt><trkpt lat="41.84319129296954" lon="16.13252964402395"><ele>284.33333333333337</ele><time>2026-04-19T09:07:12.946Z</time></trkpt><trkpt lat="41.843231640584335" lon="16.132457325387602"><ele>284.0</ele><time>2026-04-19T09:07:13.946Z</time></trkpt><trkpt lat="41.84327716650329" lon="16.13236853993371"><ele>282.75</ele><time>2026-04-19T09:07:14.946Z</time></trkpt><trkpt lat="41.84331970418365" lon="16.13226760397855"><ele>281.5</ele><time>2026-04-19T09:07:15.946Z</time></trkpt><trkpt lat="41.84342722564538" lon="16.13213758091899"><ele>280.25</ele><time>2026-04-19T09:07:17.946Z</time></trkpt><trkpt lat="41.843525431861615" lon="16.132063002727836"><ele>279.0</ele><time>2026-04-19T09:07:18.946Z</time></trkpt><trkpt lat="41.843637638875144" lon="16.131966848419825"><ele>279.0</ele><time>2026-04-19T09:07:19.946Z</time></trkpt><trkpt lat="41.843767980181234" lon="16.131882282531"><ele>279.0</ele><time>2026-04-19T09:07:20.946Z</time></trkpt><trkpt lat="41.84388495632375" lon="16.131804301269657"><ele>279.0</ele><time>2026-04-19T09:07:21.946Z</time></trkpt><trkpt lat="41.843985971452376" lon="16.131700688873217"><ele>279.0</ele><time>2026-04-19T09:07:22.946Z</time></trkpt><trkpt lat="41.84407601848856" lon="16.131611416986395"><ele>279.0</ele><time>2026-04-19T09:07:23.945Z</time></trkpt><trkpt lat="41.84415169214351" lon="16.131540224379446"><ele>279.0</ele><time>2026-04-19T09:07:24.945Z</time></trkpt><trkpt lat="41.84423043215073" lon="16.131506808913542"><ele>279.0</ele><time>2026-04-19T09:07:25.945Z</time></trkpt><trkpt lat="41.844294902391184" lon="16.131467077285812"><ele>279.0</ele><time>2026-04-19T09:07:26.945Z</time></trkpt><trkpt lat="41.8443679468392" lon="16.131400869024365"><ele>279.0</ele><time>2026-04-19T09:07:27.945Z</time></trkpt><trkpt lat="41.84445336713507" lon="16.13132459451229"><ele>279.0</ele><time>2026-04-19T09:07:28.945Z</time></trkpt><trkpt lat="41.84453489691143" lon="16.1312612704755"><ele>281.0</ele><time>2026-04-19T09:07:29.945Z</time></trkpt><trkpt lat="41.84460099361241" lon="16.131209999235885"><ele>283.0</ele><time>2026-04-19T09:07:30.945Z</time></trkpt><trkpt lat="41.8446771037145" lon="16.131145727287496"><ele>285.0</ele><time>2026-04-19T09:07:31.945Z</time></trkpt><trkpt lat="41.84476759098464" lon="16.131109168374277"><ele>287.0</ele><time>2026-04-19T09:07:33.945Z</time></trkpt><trkpt lat="41.844858445463174" lon="16.131145643318266"><ele>289.0</ele><time>2026-04-19T09:07:35.945Z</time></trkpt><trkpt lat="41.844979615576996" lon="16.13121559875585"><ele>289.0</ele><time>2026-04-19T09:07:37.945Z</time></trkpt><trkpt lat="41.845042854660704" lon="16.131231892368614"><ele>289.0</ele><time>2026-04-19T09:07:38.945Z</time></trkpt><trkpt lat="41.84510798890795" lon="16.131246210024273"><ele>289.0</ele><time>2026-04-19T09:07:39.945Z</time></trkpt><trkpt lat="41.845191419313544" lon="16.13125326454222"><ele>289.0</ele><time>2026-04-19T09:07:40.945Z</time></trkpt><trkpt lat="41.845285913569654" lon="16.13127333380735"><ele>289.0</ele><time>2026-04-19T09:07:41.945Z</time></trkpt><trkpt lat="41.845360748515276" lon="16.131304774886495"><ele>289.0</ele><time>2026-04-19T09:07:42.945Z</time></trkpt><trkpt lat="41.84543398373129" lon="16.13133940540405"><ele>288.5</ele><time>2026-04-19T09:07:43.945Z</time></trkpt><trkpt lat="41.84549657398786" lon="16.13140540067375"><ele>288.0</ele><time>2026-04-19T09:07:44.945Z</time></trkpt><trkpt lat="41.845556163119284" lon="16.131471412028972"><ele>287.5</ele><time>2026-04-19T09:07:45.945Z</time></trkpt><trkpt lat="41.84560163123776" lon="16.131572297484265"><ele>287.0</ele><time>2026-04-19T09:07:46.945Z</time></trkpt><trkpt lat="41.84563879552933" lon="16.131664197515466"><ele>286.5</ele><time>2026-04-19T09:07:47.945Z</time></trkpt><trkpt lat="41.84567597881939" lon="16.13174878461343"><ele>286.0</ele><time>2026-04-19T09:07:48.945Z</time></trkpt><trkpt lat="41.84573405751762" lon="16.13186180306961"><ele>286.0</ele><time>2026-04-19T09:07:49.945Z</time></trkpt><trkpt lat="41.84577600597982" lon="16.13194395032333"><ele>286.0</ele><time>2026-04-19T09:07:50.945Z</time></trkpt><trkpt lat="41.84582094017497" lon="16.13201899647203"><ele>286.0</ele><time>2026-04-19T09:07:51.945Z</time></trkpt><trkpt lat="41.845861858578516" lon="16.132127358767516"><ele>286.0</ele><time>2026-04-19T09:07:52.945Z</time></trkpt><trkpt lat="41.84591271211224" lon="16.132240286732106"><ele>286.0</ele><time>2026-04-19T09:07:53.945Z</time></trkpt><trkpt lat="41.84595956061579" lon="16.132339334058287"><ele>286.0</ele><time>2026-04-19T09:07:54.945Z</time></trkpt><trkpt lat="41.846026443419916" lon="16.132418263508885"><ele>284.2</ele><time>2026-04-19T09:07:55.945Z</time></trkpt><trkpt lat="41.84608951558343" lon="16.132526936513397"><ele>282.40000000000003</ele><time>2026-04-19T09:07:56.945Z</time></trkpt><trkpt lat="41.846147952548726" lon="16.132669717250266"><ele>280.6</ele><time>2026-04-19T09:07:57.946Z</time></trkpt><trkpt lat="41.846214969126834" lon="16.132824121988676"><ele>278.8</ele><time>2026-04-19T09:07:58.946Z</time></trkpt><trkpt lat="41.84626154196434" lon="16.13292403445227"><ele>277.0</ele><time>2026-04-19T09:07:59.946Z</time></trkpt><trkpt lat="41.8462885884814" lon="16.133014327061566"><ele>277.0</ele><time>2026-04-19T09:08:00.946Z</time></trkpt><trkpt lat="41.84632829147286" lon="16.133177527256628"><ele>277.0</ele><time>2026-04-19T09:08:02.946Z</time></trkpt><trkpt lat="41.84635359965396" lon="16.133352673937676"><ele>277.0</ele><time>2026-04-19T09:08:04.946Z</time></trkpt><trkpt lat="41.84634661093077" lon="16.133538047827095"><ele>277.0</ele><time>2026-04-19T09:08:06.946Z</time></trkpt><trkpt lat="41.84634967817535" lon="16.133660138031143"><ele>277.16666666666663</ele><time>2026-04-19T09:08:07.946Z</time></trkpt><trkpt lat="41.84635234962912" lon="16.133769341170336"><ele>277.3333333333333</ele><time>2026-04-19T09:08:08.946Z</time></trkpt><trkpt lat="41.846366939474336" lon="16.133864167852348"><ele>277.5</ele><time>2026-04-19T09:08:09.946Z</time></trkpt><trkpt lat="41.846391793745596" lon="16.134024296886"><ele>277.6666666666667</ele><time>2026-04-19T09:08:11.946Z</time></trkpt><trkpt lat="41.84643983213456" lon="16.134123788295444"><ele>277.83333333333337</ele><time>2026-04-19T09:08:12.946Z</time></trkpt><trkpt lat="41.84648113480562" lon="16.134209944155185"><ele>278.0</ele><time>2026-04-19T09:08:13.946Z</time></trkpt><trkpt lat="41.846527406465086" lon="16.134324439873076"><ele>278.0</ele><time>2026-04-19T09:08:15.946Z</time></trkpt><trkpt lat="41.84657715385518" lon="16.13441107702756"><ele>278.0</ele><time>2026-04-19T09:08:17.946Z</time></trkpt><trkpt lat="41.846659462513514" lon="16.134392075355297"><ele>278.0</ele><time>2026-04-19T09:08:20.946Z</time></trkpt><trkpt lat="41.8466960772471" lon="16.134259519029495"><ele>278.0</ele><time>2026-04-19T09:08:22.946Z</time></trkpt><trkpt lat="41.84675516258869" lon="16.134101947491494"><ele>278.0</ele><time>2026-04-19T09:08:24.946Z</time></trkpt><trkpt lat="41.846780805096415" lon="16.134022273537514"><ele>274.2</ele><time>2026-04-19T09:08:25.946Z</time></trkpt><trkpt lat="41.84683784075565" lon="16.133892931358705"><ele>270.4</ele><time>2026-04-19T09:08:27.946Z</time></trkpt><trkpt lat="41.84686058554937" lon="16.133799415362322"><ele>266.59999999999997</ele><time>2026-04-19T09:08:28.946Z</time></trkpt><trkpt lat="41.84690043663299" lon="16.1336928776268"><ele>262.8</ele><time>2026-04-19T09:08:29.946Z</time></trkpt><trkpt lat="41.8469499492386" lon="16.133560696484775"><ele>259.0</ele><time>2026-04-19T09:08:30.946Z</time></trkpt><trkpt lat="41.84700966513987" lon="16.13342695543569"><ele>259.0</ele><time>2026-04-19T09:08:31.946Z</time></trkpt><trkpt lat="41.84708084204973" lon="16.133296328218414"><ele>259.0</ele><time>2026-04-19T09:08:32.946Z</time></trkpt><trkpt lat="41.84713118859618" lon="16.13315483619327"><ele>259.0</ele><time>2026-04-19T09:08:33.946Z</time></trkpt><trkpt lat="41.84717398335851" lon="16.13304023791147"><ele>259.0</ele><time>2026-04-19T09:08:34.946Z</time></trkpt><trkpt lat="41.84721505365218" lon="16.13293070498985"><ele>259.0</ele><time>2026-04-19T09:08:35.946Z</time></trkpt><trkpt lat="41.84723453344299" lon="16.13284178833345"><ele>259.2</ele><time>2026-04-19T09:08:36.946Z</time></trkpt><trkpt lat="41.847225255721916" lon="16.132755090025327"><ele>259.4</ele><time>2026-04-19T09:08:37.946Z</time></trkpt><trkpt lat="41.847173754016815" lon="16.132613238153596"><ele>259.6</ele><time>2026-04-19T09:08:39.946Z</time></trkpt><trkpt lat="41.84710253474098" lon="16.13251004476948"><ele>259.8</ele><time>2026-04-19T09:08:41.946Z</time></trkpt><trkpt lat="41.847058536415375" lon="16.13241696688293"><ele>260.0</ele><time>2026-04-19T09:08:43.946Z</time></trkpt><trkpt lat="41.84700633092856" lon="16.13231256073529"><ele>258.33333333333337</ele><time>2026-04-19T09:08:45.946Z</time></trkpt><trkpt lat="41.84695467482699" lon="16.13220230120984"><ele>256.6666666666667</ele><time>2026-04-19T09:08:47.946Z</time></trkpt><trkpt lat="41.84691109348156" lon="16.132085231864306"><ele>255.0</ele><time>2026-04-19T09:08:49.946Z</time></trkpt><trkpt lat="41.846904821322376" lon="16.131988810980385"><ele>253.33333333333331</ele><time>2026-04-19T09:08:51.946Z</time></trkpt><trkpt lat="41.84691297224208" lon="16.131870029445075"><ele>251.66666666666666</ele><time>2026-04-19T09:08:53.946Z</time></trkpt><trkpt lat="41.84693364665517" lon="16.131786912620218"><ele>250.0</ele><time>2026-04-19T09:08:54.946Z</time></trkpt><trkpt lat="41.84698177616958" lon="16.131665094644482"><ele>250.25</ele><time>2026-04-19T09:08:56.946Z</time></trkpt><trkpt lat="41.847022217736466" lon="16.13151059824098"><ele>250.5</ele><time>2026-04-19T09:08:58.946Z</time></trkpt><trkpt lat="41.84704236826759" lon="16.131353726799528"><ele>250.75</ele><time>2026-04-19T09:09:00.946Z</time></trkpt><trkpt lat="41.847056983431564" lon="16.131189593664516"><ele>251.0</ele><time>2026-04-19T09:09:02.946Z</time></trkpt><trkpt lat="41.847098351365666" lon="16.13103285855858"><ele>251.00000000000003</ele><time>2026-04-19T09:09:04.946Z</time></trkpt><trkpt lat="41.84712180737041" lon="16.1309353134137"><ele>251.0</ele><time>2026-04-19T09:09:05.946Z</time></trkpt><trkpt lat="41.84714744503156" lon="16.13085016831156"><ele>251.0</ele><time>2026-04-19T09:09:06.946Z</time></trkpt><trkpt lat="41.84716970858764" lon="16.130698752177043"><ele>251.0</ele><time>2026-04-19T09:09:08.946Z</time></trkpt><trkpt lat="41.847208924689326" lon="16.13059222035394"><ele>251.00000000000003</ele><time>2026-04-19T09:09:10.946Z</time></trkpt><trkpt lat="41.84727832578028" lon="16.130548156026766"><ele>251.0</ele><time>2026-04-19T09:09:13.946Z</time></trkpt><trkpt lat="41.847339235676934" lon="16.13048792829769"><ele>250.33333333333334</ele><time>2026-04-19T09:13:08.955Z</time></trkpt><trkpt lat="41.84742161462408" lon="16.130468740761753"><ele>249.66666666666669</ele><time>2026-04-19T09:13:11.955Z</time></trkpt><trkpt lat="41.84742556329147" lon="16.130370621839337"><ele>249.0</ele><time>2026-04-19T09:13:15.955Z</time></trkpt><trkpt lat="41.847360664103896" lon="16.130420088026106"><ele>248.33333333333331</ele><time>2026-04-19T09:13:29.955Z</time></trkpt><trkpt lat="41.847298383566354" lon="16.13047786667962"><ele>247.66666666666666</ele><time>2026-04-19T09:13:31.955Z</time></trkpt><trkpt lat="41.847237196154786" lon="16.130535509698177"><ele>247.0</ele><time>2026-04-19T09:13:33.955Z</time></trkpt><trkpt lat="41.847170958679904" lon="16.130598844147766"><ele>247.8</ele><time>2026-04-19T09:13:35.955Z</time></trkpt><trkpt lat="41.84716591772066" lon="16.130738204668432"><ele>248.6</ele><time>2026-04-19T09:13:37.955Z</time></trkpt><trkpt lat="41.84713194343063" lon="16.130865365232772"><ele>249.40000000000003</ele><time>2026-04-19T09:13:39.955Z</time></trkpt><trkpt lat="41.84709010802569" lon="16.13100609688109"><ele>250.20000000000002</ele><time>2026-04-19T09:13:41.954Z</time></trkpt><trkpt lat="41.84706188197556" lon="16.131115934450836"><ele>251.0</ele><time>2026-04-19T09:13:42.953Z</time></trkpt><trkpt lat="41.84703115156879" lon="16.131258141125684"><ele>251.0</ele><time>2026-04-19T09:13:44.954Z</time></trkpt><trkpt lat="41.84701724632007" lon="16.13140039941763"><ele>251.00000000000003</ele><time>2026-04-19T09:13:46.954Z</time></trkpt><trkpt lat="41.847001327555205" lon="16.13152852394748"><ele>251.00000000000003</ele><time>2026-04-19T09:13:48.954Z</time></trkpt><trkpt lat="41.84696117009364" lon="16.131663966388523"><ele>251.0</ele><time>2026-04-19T09:13:50.954Z</time></trkpt><trkpt lat="41.84693328780795" lon="16.131812026983567"><ele>251.0</ele><time>2026-04-19T09:13:52.954Z</time></trkpt><trkpt lat="41.84691903832737" lon="16.13192323798242"><ele>250.8</ele><time>2026-04-19T09:13:54.954Z</time></trkpt><trkpt lat="41.84692959448461" lon="16.132014365087795"><ele>250.60000000000002</ele><time>2026-04-19T09:13:56.954Z</time></trkpt><trkpt lat="41.846966441341" lon="16.132163676317294"><ele>250.4</ele><time>2026-04-19T09:13:58.954Z</time></trkpt><trkpt lat="41.84702525747561" lon="16.132291522738065"><ele>250.2</ele><time>2026-04-19T09:14:00.954Z</time></trkpt><trkpt lat="41.84706289232306" lon="16.132363123269677"><ele>250.0</ele><time>2026-04-19T09:14:01.954Z</time></trkpt><trkpt lat="41.84714493542724" lon="16.132511306456585"><ele>251.66666666666666</ele><time>2026-04-19T09:14:03.954Z</time></trkpt><trkpt lat="41.84718492939259" lon="16.1325891539894"><ele>253.33333333333331</ele><time>2026-04-19T09:14:04.954Z</time></trkpt><trkpt lat="41.84724107781283" lon="16.13271629101865"><ele>255.0</ele><time>2026-04-19T09:14:06.954Z</time></trkpt><trkpt lat="41.84725188096744" lon="16.132864615676976"><ele>256.6666666666667</ele><time>2026-04-19T09:14:08.954Z</time></trkpt><trkpt lat="41.84723125312767" lon="16.13294940892052"><ele>258.33333333333337</ele><time>2026-04-19T09:14:09.954Z</time></trkpt><trkpt lat="41.84721146978364" lon="16.13303970230666"><ele>260.0</ele><time>2026-04-19T09:14:10.954Z</time></trkpt><trkpt lat="41.84715783737877" lon="16.133129791777886"><ele>259.83333333333337</ele><time>2026-04-19T09:14:11.954Z</time></trkpt><trkpt lat="41.84710976169876" lon="16.13323181412123"><ele>259.6666666666667</ele><time>2026-04-19T09:14:12.954Z</time></trkpt><trkpt lat="41.84707400496856" lon="16.133310244129444"><ele>259.5</ele><time>2026-04-19T09:14:13.954Z</time></trkpt><trkpt lat="41.847042194571564" lon="16.133387274678334"><ele>259.3333333333333</ele><time>2026-04-19T09:14:14.954Z</time></trkpt><trkpt lat="41.84700874460523" lon="16.133458987009885"><ele>259.16666666666663</ele><time>2026-04-19T09:14:15.954Z</time></trkpt><trkpt lat="41.84697678545811" lon="16.133537867450674"><ele>259.0</ele><time>2026-04-19T09:14:16.954Z</time></trkpt><trkpt lat="41.84691770645364" lon="16.13365070713288"><ele>259.0</ele><time>2026-04-19T09:14:18.954Z</time></trkpt><trkpt lat="41.84688631565501" lon="16.133732239959297"><ele>259.0</ele><time>2026-04-19T09:14:19.954Z</time></trkpt><trkpt lat="41.84685730334601" lon="16.13381437390636"><ele>259.0</ele><time>2026-04-19T09:14:20.954Z</time></trkpt><trkpt lat="41.84683794717305" lon="16.13391102112171"><ele>259.0</ele><time>2026-04-19T09:14:21.954Z</time></trkpt><trkpt lat="41.84678478423103" lon="16.134068518987476"><ele>259.0</ele><time>2026-04-19T09:14:23.954Z</time></trkpt><trkpt lat="41.846763315873304" lon="16.134150530228247"><ele>259.0</ele><time>2026-04-19T09:14:24.954Z</time></trkpt><trkpt lat="41.846702914512065" lon="16.134301414720948"><ele>260.3333333333333</ele><time>2026-04-19T09:14:26.954Z</time></trkpt><trkpt lat="41.84664900526312" lon="16.13437800481058"><ele>261.66666666666663</ele><time>2026-04-19T09:14:28.954Z</time></trkpt><trkpt lat="41.84657467503005" lon="16.13439445657817"><ele>263.0</ele><time>2026-04-19T09:14:31.954Z</time></trkpt><trkpt lat="41.84652609597238" lon="16.134322194328938"><ele>264.3333333333333</ele><time>2026-04-19T09:14:33.954Z</time></trkpt><trkpt lat="41.84649174564646" lon="16.134233104439364"><ele>265.6666666666667</ele><time>2026-04-19T09:14:35.954Z</time></trkpt><trkpt lat="41.846435878732976" lon="16.13409386168099"><ele>267.0</ele><time>2026-04-19T09:14:37.954Z</time></trkpt><trkpt lat="41.84639522314938" lon="16.133953544557126"><ele>268.8333333333333</ele><time>2026-04-19T09:14:39.954Z</time></trkpt><trkpt lat="41.846369934652145" lon="16.13379320309086"><ele>270.6666666666667</ele><time>2026-04-19T09:14:41.954Z</time></trkpt><trkpt lat="41.846367951094116" lon="16.13367953801752"><ele>272.5</ele><time>2026-04-19T09:14:42.954Z</time></trkpt><trkpt lat="41.846358480256384" lon="16.1335685354222"><ele>274.33333333333337</ele><time>2026-04-19T09:14:43.954Z</time></trkpt><trkpt lat="41.846357979708586" lon="16.133461015782963"><ele>276.1666666666667</ele><time>2026-04-19T09:14:44.954Z</time></trkpt><trkpt lat="41.84635703990309" lon="16.133362501491245"><ele>278.0</ele><time>2026-04-19T09:14:45.954Z</time></trkpt><trkpt lat="41.846356557003745" lon="16.133249807020526"><ele>277.85714285714283</ele><time>2026-04-19T09:14:46.954Z</time></trkpt><trkpt lat="41.84634412669646" lon="16.133149960270494"><ele>277.7142857142857</ele><time>2026-04-19T09:14:47.954Z</time></trkpt><trkpt lat="41.846324581695086" lon="16.13306657717421"><ele>277.57142857142856</ele><time>2026-04-19T09:14:48.954Z</time></trkpt><trkpt lat="41.846298909601494" lon="16.13298543456768"><ele>277.42857142857144</ele><time>2026-04-19T09:14:49.954Z</time></trkpt><trkpt lat="41.8462612707235" lon="16.13290184444383"><ele>277.2857142857143</ele><time>2026-04-19T09:14:50.954Z</time></trkpt><trkpt lat="41.846219720113005" lon="16.13282808638488"><ele>277.1428571428571</ele><time>2026-04-19T09:14:51.954Z</time></trkpt><trkpt lat="41.84615743418799" lon="16.13273515748608"><ele>277.0</ele><time>2026-04-19T09:14:52.954Z</time></trkpt><trkpt lat="41.8461122223495" lon="16.132632896798345"><ele>277.0</ele><time>2026-04-19T09:14:53.954Z</time></trkpt><trkpt lat="41.846067327533554" lon="16.132527071820807"><ele>277.0</ele><time>2026-04-19T09:14:54.954Z</time></trkpt><trkpt lat="41.84602948400297" lon="16.13243137622707"><ele>277.0</ele><time>2026-04-19T09:14:55.954Z</time></trkpt><trkpt lat="41.845979796115735" lon="16.13233336378147"><ele>277.0</ele><time>2026-04-19T09:14:56.954Z</time></trkpt><trkpt lat="41.8459238856529" lon="16.132238068079744"><ele>277.0</ele><time>2026-04-19T09:14:57.954Z</time></trkpt><trkpt lat="41.84585835623918" lon="16.13210203851172"><ele>276.6</ele><time>2026-04-19T09:14:58.954Z</time></trkpt><trkpt lat="41.84579504074767" lon="16.13196160392743"><ele>276.2</ele><time>2026-04-19T09:14:59.954Z</time></trkpt><trkpt lat="41.84573299364564" lon="16.131819410097492"><ele>275.8</ele><time>2026-04-19T09:15:00.954Z</time></trkpt><trkpt lat="41.8456780979793" lon="16.13169409852662"><ele>275.4</ele><time>2026-04-19T09:15:01.954Z</time></trkpt><trkpt lat="41.84563691878728" lon="16.131579688371477"><ele>275.0</ele><time>2026-04-19T09:15:02.954Z</time></trkpt><trkpt lat="41.84560216571173" lon="16.131501511794315"><ele>275.0</ele><time>2026-04-19T09:15:03.954Z</time></trkpt><trkpt lat="41.84556295657979" lon="16.13143410228998"><ele>275.0</ele><time>2026-04-19T09:15:04.954Z</time></trkpt><trkpt lat="41.84550815020904" lon="16.13138382418233"><ele>275.0</ele><time>2026-04-19T09:15:05.954Z</time></trkpt><trkpt lat="41.845443366318676" lon="16.131323867014494"><ele>275.0</ele><time>2026-04-19T09:15:06.954Z</time></trkpt><trkpt lat="41.84537567668537" lon="16.131287480942557"><ele>275.0</ele><time>2026-04-19T09:15:07.954Z</time></trkpt><trkpt lat="41.84530144845683" lon="16.13127466799426"><ele>275.0</ele><time>2026-04-19T09:15:08.954Z</time></trkpt><trkpt lat="41.845221538586856" lon="16.13126361793697"><ele>275.0</ele><time>2026-04-19T09:15:09.954Z</time></trkpt><trkpt lat="41.845109362506555" lon="16.131224906305814"><ele>277.33333333333337</ele><time>2026-04-19T09:15:10.954Z</time></trkpt><trkpt lat="41.845023483765054" lon="16.13120064711141"><ele>279.6666666666667</ele><time>2026-04-19T09:15:11.954Z</time></trkpt><trkpt lat="41.84495144090412" lon="16.131164147293223"><ele>282.0</ele><time>2026-04-19T09:15:12.954Z</time></trkpt><trkpt lat="41.844884663004635" lon="16.131116021593215"><ele>284.3333333333333</ele><time>2026-04-19T09:15:13.954Z</time></trkpt><trkpt lat="41.84478656986319" lon="16.131096194879913"><ele>286.66666666666663</ele><time>2026-04-19T09:15:15.955Z</time></trkpt><trkpt lat="41.84469422111787" lon="16.131146538058598"><ele>289.0</ele><time>2026-04-19T09:15:17.955Z</time></trkpt><trkpt lat="41.844581237661394" lon="16.131228479411075"><ele>289.0</ele><time>2026-04-19T09:15:19.955Z</time></trkpt><trkpt lat="41.84449543963021" lon="16.131286099351883"><ele>289.0</ele><time>2026-04-19T09:15:20.955Z</time></trkpt><trkpt lat="41.84441635863284" lon="16.131353054988686"><ele>289.0</ele><time>2026-04-19T09:15:21.955Z</time></trkpt><trkpt lat="41.84433671230525" lon="16.13142015040625"><ele>289.0</ele><time>2026-04-19T09:15:22.955Z</time></trkpt><trkpt lat="41.84425260708492" lon="16.131480726403986"><ele>289.0</ele><time>2026-04-19T09:15:23.955Z</time></trkpt><trkpt lat="41.84418300443369" lon="16.131526933626674"><ele>287.3333333333333</ele><time>2026-04-19T09:15:24.955Z</time></trkpt><trkpt lat="41.84411780815008" lon="16.13157713138807"><ele>285.66666666666663</ele><time>2026-04-19T09:15:25.955Z</time></trkpt><trkpt lat="41.84404615863146" lon="16.131631418879184"><ele>284.0</ele><time>2026-04-19T09:15:26.955Z</time></trkpt><trkpt lat="41.84397347032183" lon="16.13171196620354"><ele>282.3333333333333</ele><time>2026-04-19T09:15:27.955Z</time></trkpt><trkpt lat="41.843905226616506" lon="16.131775058640308"><ele>280.6666666666667</ele><time>2026-04-19T09:15:28.955Z</time></trkpt><trkpt lat="41.84383475829119" lon="16.13183536131783"><ele>279.0</ele><time>2026-04-19T09:15:29.955Z</time></trkpt><trkpt lat="41.843743144781136" lon="16.131887910100097"><ele>279.0</ele><time>2026-04-19T09:15:30.955Z</time></trkpt><trkpt lat="41.843639953146045" lon="16.1319637318132"><ele>279.0</ele><time>2026-04-19T09:15:31.955Z</time></trkpt><trkpt lat="41.84352855653267" lon="16.132062131937293"><ele>279.0</ele><time>2026-04-19T09:15:32.955Z</time></trkpt><trkpt lat="41.84344744833574" lon="16.132134928285325"><ele>279.0</ele><time>2026-04-19T09:15:33.955Z</time></trkpt><trkpt lat="41.843398545323836" lon="16.132188232875887"><ele>279.0</ele><time>2026-04-19T09:15:34.955Z</time></trkpt><trkpt lat="41.843329575039334" lon="16.132306677989728"><ele>279.8333333333333</ele><time>2026-04-19T09:15:36.955Z</time></trkpt><trkpt lat="41.84329805149805" lon="16.132400375955154"><ele>280.6666666666667</ele><time>2026-04-19T09:15:37.955Z</time></trkpt><trkpt lat="41.843256068413595" lon="16.132511927156248"><ele>281.5</ele><time>2026-04-19T09:15:38.955Z</time></trkpt><trkpt lat="41.843219577192635" lon="16.132621543993178"><ele>282.33333333333337</ele><time>2026-04-19T09:15:39.955Z</time></trkpt><trkpt lat="41.84318754376888" lon="16.13271635974868"><ele>283.1666666666667</ele><time>2026-04-19T09:15:40.955Z</time></trkpt><trkpt lat="41.84314709374584" lon="16.13282878341534"><ele>284.0</ele><time>2026-04-19T09:15:41.955Z</time></trkpt><trkpt lat="41.84309659567604" lon="16.132948671291054"><ele>284.0</ele><time>2026-04-19T09:15:42.955Z</time></trkpt><trkpt lat="41.843044648461515" lon="16.133049463082198"><ele>284.0</ele><time>2026-04-19T09:15:43.955Z</time></trkpt><trkpt lat="41.84299636360102" lon="16.133141097092427"><ele>284.0</ele><time>2026-04-19T09:15:44.955Z</time></trkpt><trkpt lat="41.842957697926096" lon="16.133216347234512"><ele>284.0</ele><time>2026-04-19T09:15:45.955Z</time></trkpt><trkpt lat="41.84286013304667" lon="16.133343075244632"><ele>284.0</ele><time>2026-04-19T09:15:47.954Z</time></trkpt><trkpt lat="41.84279929426685" lon="16.1334107235193"><ele>284.33333333333337</ele><time>2026-04-19T09:15:48.954Z</time></trkpt><trkpt lat="41.84274173332359" lon="16.13346033505994"><ele>284.6666666666667</ele><time>2026-04-19T09:15:49.954Z</time></trkpt><trkpt lat="41.842676370876745" lon="16.133506200718813"><ele>285.0</ele><time>2026-04-19T09:15:50.954Z</time></trkpt><trkpt lat="41.8426010703799" lon="16.13357926581122"><ele>285.3333333333333</ele><time>2026-04-19T09:15:51.954Z</time></trkpt><trkpt lat="41.84254091806955" lon="16.133633311043365"><ele>285.66666666666663</ele><time>2026-04-19T09:15:52.954Z</time></trkpt><trkpt lat="41.842489878569" lon="16.133683303495797"><ele>286.0</ele><time>2026-04-19T09:15:53.954Z</time></trkpt><trkpt lat="41.8424144534359" lon="16.133747498307393"><ele>288.40000000000003</ele><time>2026-04-19T09:15:55.954Z</time></trkpt><trkpt lat="41.84235891905003" lon="16.133800230410678"><ele>290.8</ele><time>2026-04-19T09:15:56.954Z</time></trkpt><trkpt lat="41.84225661387938" lon="16.13386656575697"><ele>293.20000000000005</ele><time>2026-04-19T09:15:58.954Z</time></trkpt><trkpt lat="41.84213646394708" lon="16.1339329635469"><ele>295.6</ele><time>2026-04-19T09:16:00.954Z</time></trkpt><trkpt lat="41.842024257972454" lon="16.133932493962725"><ele>298.0</ele><time>2026-04-19T09:16:02.954Z</time></trkpt><trkpt lat="41.841963490479976" lon="16.133880859444666"><ele>298.0</ele><time>2026-04-19T09:16:03.954Z</time></trkpt><trkpt lat="41.841888481101925" lon="16.133816804021297"><ele>298.0</ele><time>2026-04-19T09:16:04.954Z</time></trkpt><trkpt lat="41.84178192736741" lon="16.1337445327175"><ele>298.0</ele><time>2026-04-19T09:16:05.954Z</time></trkpt><trkpt lat="41.841692851221175" lon="16.133660155195045"><ele>298.0</ele><time>2026-04-19T09:16:06.954Z</time></trkpt><trkpt lat="41.841614344868965" lon="16.133561653758427"><ele>298.0</ele><time>2026-04-19T09:16:07.954Z</time></trkpt><trkpt lat="41.84154693559904" lon="16.13344746198749"><ele>297.4</ele><time>2026-04-19T09:16:08.954Z</time></trkpt><trkpt lat="41.84147349596772" lon="16.133336373135105"><ele>296.8</ele><time>2026-04-19T09:16:09.954Z</time></trkpt><trkpt lat="41.84140707653395" lon="16.133232991019664"><ele>296.2</ele><time>2026-04-19T09:16:10.954Z</time></trkpt><trkpt lat="41.84133697931034" lon="16.133143667185955"><ele>295.6</ele><time>2026-04-19T09:16:11.954Z</time></trkpt><trkpt lat="41.84126496419335" lon="16.13306834182291"><ele>295.0</ele><time>2026-04-19T09:16:12.954Z</time></trkpt><trkpt lat="41.84120658223951" lon="16.133016044093907"><ele>295.0</ele><time>2026-04-19T09:16:13.954Z</time></trkpt><trkpt lat="41.84111682757886" lon="16.13296247009793"><ele>295.0</ele><time>2026-04-19T09:16:15.954Z</time></trkpt><trkpt lat="41.841020329504914" lon="16.132939165569045"><ele>295.0</ele><time>2026-04-19T09:16:16.954Z</time></trkpt><trkpt lat="41.84091115095441" lon="16.132896826127958"><ele>295.0</ele><time>2026-04-19T09:16:17.954Z</time></trkpt><trkpt lat="41.840806677047695" lon="16.132850782452646"><ele>295.0</ele><time>2026-04-19T09:16:18.954Z</time></trkpt><trkpt lat="41.84071606262006" lon="16.132817786159933"><ele>297.0</ele><time>2026-04-19T09:16:19.954Z</time></trkpt><trkpt lat="41.84062742773245" lon="16.13276909976849"><ele>299.0</ele><time>2026-04-19T09:16:20.954Z</time></trkpt><trkpt lat="41.84053040828965" lon="16.132734158289725"><ele>301.0</ele><time>2026-04-19T09:16:21.954Z</time></trkpt><trkpt lat="41.840418274506746" lon="16.13270058342631"><ele>303.0</ele><time>2026-04-19T09:16:22.954Z</time></trkpt><trkpt lat="41.840339270520616" lon="16.132676308054588"><ele>305.0</ele><time>2026-04-19T09:16:23.954Z</time></trkpt><trkpt lat="41.84022114748518" lon="16.132664553892248"><ele>305.0</ele><time>2026-04-19T09:16:25.954Z</time></trkpt><trkpt lat="41.8401413820704" lon="16.132704468533163"><ele>305.0</ele><time>2026-04-19T09:16:26.954Z</time></trkpt><trkpt lat="41.84007007914298" lon="16.132729681336404"><ele>305.0</ele><time>2026-04-19T09:16:27.954Z</time></trkpt><trkpt lat="41.839969554299195" lon="16.132802443284678"><ele>305.0</ele><time>2026-04-19T09:16:28.954Z</time></trkpt><trkpt lat="41.83987654444997" lon="16.132837727903535"><ele>305.0</ele><time>2026-04-19T09:16:29.954Z</time></trkpt><trkpt lat="41.839809863966785" lon="16.1328591606659"><ele>305.0</ele><time>2026-04-19T09:16:30.954Z</time></trkpt><trkpt lat="41.8397477987963" lon="16.132887886877484"><ele>305.1666666666667</ele><time>2026-04-19T09:16:31.954Z</time></trkpt><trkpt lat="41.839654272135405" lon="16.132939006493334"><ele>305.33333333333337</ele><time>2026-04-19T09:16:33.954Z</time></trkpt><trkpt lat="41.839589667550285" lon="16.132986996470443"><ele>305.5</ele><time>2026-04-19T09:16:34.954Z</time></trkpt><trkpt lat="41.839524764577924" lon="16.13303436931097"><ele>305.6666666666667</ele><time>2026-04-19T09:16:35.954Z</time></trkpt><trkpt lat="41.83944149863354" lon="16.13309352240373"><ele>305.8333333333333</ele><time>2026-04-19T09:16:36.954Z</time></trkpt><trkpt lat="41.83936862042212" lon="16.13313763650104"><ele>306.0</ele><time>2026-04-19T09:16:37.954Z</time></trkpt><trkpt lat="41.83929379985314" lon="16.133182299445373"><ele>307.8333333333333</ele><time>2026-04-19T09:16:38.954Z</time></trkpt><trkpt lat="41.83923089850794" lon="16.133235088191146"><ele>309.6666666666667</ele><time>2026-04-19T09:16:39.954Z</time></trkpt><trkpt lat="41.839181371133414" lon="16.13329410224779"><ele>311.5</ele><time>2026-04-19T09:16:43.954Z</time></trkpt><trkpt lat="41.839098735157236" lon="16.133268060026293"><ele>313.33333333333337</ele><time>2026-04-19T09:17:19.955Z</time></trkpt><trkpt lat="41.839007056890075" lon="16.13323937450892"><ele>315.1666666666667</ele><time>2026-04-19T09:17:22.955Z</time></trkpt><trkpt lat="41.838904131931166" lon="16.133239409426643"><ele>317.0</ele><time>2026-04-19T09:17:25.955Z</time></trkpt><trkpt lat="41.83881590190159" lon="16.1332369734312"><ele>315.1666666666667</ele><time>2026-04-19T09:17:27.955Z</time></trkpt><trkpt lat="41.83870217915487" lon="16.133209946900912"><ele>313.33333333333337</ele><time>2026-04-19T09:17:29.955Z</time></trkpt><trkpt lat="41.83863800157431" lon="16.13319964544587"><ele>311.5</ele><time>2026-04-19T09:17:30.955Z</time></trkpt><trkpt lat="41.83856641402694" lon="16.133175650612383"><ele>309.6666666666667</ele><time>2026-04-19T09:17:31.955Z</time></trkpt><trkpt lat="41.838487760883055" lon="16.133147463703136"><ele>307.8333333333333</ele><time>2026-04-19T09:17:32.955Z</time></trkpt><trkpt lat="41.83840677272292" lon="16.133132143468874"><ele>306.0</ele><time>2026-04-19T09:17:33.955Z</time></trkpt><trkpt lat="41.83833984768567" lon="16.133118075491996"><ele>306.0</ele><time>2026-04-19T09:17:34.955Z</time></trkpt><trkpt lat="41.838270934198555" lon="16.13312131411623"><ele>306.0</ele><time>2026-04-19T09:17:36.955Z</time></trkpt><trkpt lat="41.83820477928776" lon="16.133097663277177"><ele>306.0</ele><time>2026-04-19T09:17:38.955Z</time></trkpt><trkpt lat="41.83808261330507" lon="16.133063546460065"><ele>306.0</ele><time>2026-04-19T09:17:40.955Z</time></trkpt><trkpt lat="41.83801342780886" lon="16.13303733861369"><ele>306.0</ele><time>2026-04-19T09:17:41.955Z</time></trkpt><trkpt lat="41.83793001061784" lon="16.133014695779746"><ele>306.0</ele><time>2026-04-19T09:17:42.955Z</time></trkpt><trkpt lat="41.83786632611403" lon="16.133004921856653"><ele>306.0</ele><time>2026-04-19T09:17:43.955Z</time></trkpt><trkpt lat="41.83779507463948" lon="16.13298481476821"><ele>306.0</ele><time>2026-04-19T09:17:44.955Z</time></trkpt><trkpt lat="41.837653248743244" lon="16.132950700509074"><ele>306.0</ele><time>2026-04-19T09:17:46.955Z</time></trkpt><trkpt lat="41.83758125858949" lon="16.13295121900872"><ele>306.0</ele><time>2026-04-19T09:17:47.955Z</time></trkpt><trkpt lat="41.83749230393869" lon="16.132968149431864"><ele>306.0</ele><time>2026-04-19T09:17:48.955Z</time></trkpt><trkpt lat="41.83740787499072" lon="16.132939071200013"><ele>309.0</ele><time>2026-04-19T09:17:49.955Z</time></trkpt><trkpt lat="41.83732816436603" lon="16.132941671790384"><ele>312.0</ele><time>2026-04-19T09:17:50.955Z</time></trkpt><trkpt lat="41.8372776510477" lon="16.13302387312468"><ele>315.0</ele><time>2026-04-19T09:17:52.955Z</time></trkpt><trkpt lat="41.83725463660721" lon="16.133126833433128"><ele>318.0</ele><time>2026-04-19T09:17:53.954Z</time></trkpt><trkpt lat="41.83721980771929" lon="16.13326850519524"><ele>321.0</ele><time>2026-04-19T09:17:54.954Z</time></trkpt><trkpt lat="41.83717057007461" lon="16.133420261683973"><ele>321.0</ele><time>2026-04-19T09:17:55.954Z</time></trkpt><trkpt lat="41.83712977634906" lon="16.133536577847806"><ele>321.0</ele><time>2026-04-19T09:17:56.954Z</time></trkpt><trkpt lat="41.83709532848502" lon="16.133643238060397"><ele>321.0</ele><time>2026-04-19T09:17:57.954Z</time></trkpt><trkpt lat="41.837053690744135" lon="16.133767662251735"><ele>321.0</ele><time>2026-04-19T09:17:58.954Z</time></trkpt><trkpt lat="41.83701220703967" lon="16.133895295567072"><ele>321.0</ele><time>2026-04-19T09:17:59.955Z</time></trkpt><trkpt lat="41.83696984734209" lon="16.13402082404272"><ele>320.0</ele><time>2026-04-19T09:18:00.954Z</time></trkpt><trkpt lat="41.83693464970948" lon="16.134134090462943"><ele>319.0</ele><time>2026-04-19T09:18:01.954Z</time></trkpt><trkpt lat="41.836893787510924" lon="16.134251201657744"><ele>318.0</ele><time>2026-04-19T09:18:02.954Z</time></trkpt><trkpt lat="41.83684158355243" lon="16.134357645700412"><ele>317.0</ele><time>2026-04-19T09:18:03.954Z</time></trkpt><trkpt lat="41.83680438547607" lon="16.134470414807474"><ele>316.0</ele><time>2026-04-19T09:18:04.954Z</time></trkpt><trkpt lat="41.83674921882659" lon="16.13457643530385"><ele>316.0</ele><time>2026-04-19T09:18:05.955Z</time></trkpt><trkpt lat="41.83668100079768" lon="16.134653678672276"><ele>316.0</ele><time>2026-04-19T09:18:06.955Z</time></trkpt><trkpt lat="41.83658621434683" lon="16.134735694455244"><ele>316.0</ele><time>2026-04-19T09:18:07.955Z</time></trkpt><trkpt lat="41.83648830667852" lon="16.13480033183329"><ele>316.0</ele><time>2026-04-19T09:18:08.955Z</time></trkpt><trkpt lat="41.83641408863514" lon="16.13483750061839"><ele>316.0</ele><time>2026-04-19T09:18:09.955Z</time></trkpt><trkpt lat="41.83635555769434" lon="16.134880542705833"><ele>315.8333333333333</ele><time>2026-04-19T09:18:10.955Z</time></trkpt><trkpt lat="41.83628072600135" lon="16.13492138187924"><ele>315.66666666666663</ele><time>2026-04-19T09:18:11.955Z</time></trkpt><trkpt lat="41.836188868769185" lon="16.134936959601305"><ele>315.5</ele><time>2026-04-19T09:18:12.955Z</time></trkpt><trkpt lat="41.83611253095858" lon="16.134938514442684"><ele>315.3333333333333</ele><time>2026-04-19T09:18:13.955Z</time></trkpt><trkpt lat="41.836033880545166" lon="16.134952926579444"><ele>315.1666666666667</ele><time>2026-04-19T09:18:14.955Z</time></trkpt><trkpt lat="41.83592549194051" lon="16.134965733047046"><ele>315.0</ele><time>2026-04-19T09:18:15.955Z</time></trkpt><trkpt lat="41.835792767843955" lon="16.134985796869138"><ele>315.4</ele><time>2026-04-19T09:18:16.955Z</time></trkpt><trkpt lat="41.835684457164795" lon="16.135004800207316"><ele>315.8</ele><time>2026-04-19T09:18:17.955Z</time></trkpt><trkpt lat="41.83558351578162" lon="16.13502773411766"><ele>316.2</ele><time>2026-04-19T09:18:18.955Z</time></trkpt><trkpt lat="41.835472530985875" lon="16.13506514590136"><ele>316.6</ele><time>2026-04-19T09:18:19.955Z</time></trkpt><trkpt lat="41.83537340272419" lon="16.135111049485058"><ele>317.0</ele><time>2026-04-19T09:18:20.955Z</time></trkpt><trkpt lat="41.83526219555839" lon="16.135158655136898"><ele>317.0</ele><time>2026-04-19T09:18:21.955Z</time></trkpt><trkpt lat="41.835162421201964" lon="16.13519410817615"><ele>317.0</ele><time>2026-04-19T09:18:22.955Z</time></trkpt><trkpt lat="41.83505962196224" lon="16.135229622887472"><ele>317.0</ele><time>2026-04-19T09:18:23.955Z</time></trkpt><trkpt lat="41.83495433087679" lon="16.13526631503339"><ele>317.0</ele><time>2026-04-19T09:18:24.955Z</time></trkpt><trkpt lat="41.83485682332768" lon="16.135307258942387"><ele>317.0</ele><time>2026-04-19T09:18:25.955Z</time></trkpt><trkpt lat="41.834782753110645" lon="16.13532363979991"><ele>317.0</ele><time>2026-04-19T09:18:26.955Z</time></trkpt><trkpt lat="41.834688219887944" lon="16.13532826650535"><ele>317.0</ele><time>2026-04-19T09:18:28.955Z</time></trkpt><trkpt lat="41.83457678272017" lon="16.1352726128833"><ele>317.0</ele><time>2026-04-19T09:18:30.955Z</time></trkpt><trkpt lat="41.83449720782371" lon="16.13524079316363"><ele>317.0</ele><time>2026-04-19T09:18:32.955Z</time></trkpt><trkpt lat="41.83443363606014" lon="16.135197983725217"><ele>317.0</ele><time>2026-04-19T09:18:34.955Z</time></trkpt><trkpt lat="41.8343915942402" lon="16.135126071005146"><ele>317.0</ele><time>2026-04-19T09:18:39.955Z</time></trkpt><trkpt lat="41.83436066712311" lon="16.135030607447298"><ele>317.0</ele><time>2026-04-19T09:18:47.955Z</time></trkpt><trkpt lat="41.83436559634316" lon="16.134939681825475"><ele>317.0</ele><time>2026-04-19T09:18:51.955Z</time></trkpt><trkpt lat="41.83438982444744" lon="16.13485649445531"><ele>317.0</ele><time>2026-04-19T09:18:53.955Z</time></trkpt><trkpt lat="41.834412164566764" lon="16.13473737546354"><ele>317.0</ele><time>2026-04-19T09:18:56.955Z</time></trkpt><trkpt lat="41.834461408731734" lon="16.13466207989971"><ele>317.0</ele><time>2026-04-19T09:18:58.955Z</time></trkpt><trkpt lat="41.83454447491694" lon="16.134627751985377"><ele>317.0</ele><time>2026-04-19T09:19:00.955Z</time></trkpt><trkpt lat="41.83465610562663" lon="16.134649077556105"><ele>314.5</ele><time>2026-04-19T09:19:02.955Z</time></trkpt><trkpt lat="41.83477220708967" lon="16.13461434846565"><ele>312.0</ele><time>2026-04-19T09:19:04.955Z</time></trkpt><trkpt lat="41.83486528488005" lon="16.1345137450975"><ele>309.5</ele><time>2026-04-19T09:19:06.955Z</time></trkpt><trkpt lat="41.83491767217535" lon="16.134392767666"><ele>307.0</ele><time>2026-04-19T09:19:08.955Z</time></trkpt><trkpt lat="41.83499839468873" lon="16.134265534416148"><ele>307.0</ele><time>2026-04-19T09:19:10.955Z</time></trkpt><trkpt lat="41.83504925588951" lon="16.134213495090577"><ele>307.0</ele><time>2026-04-19T09:19:11.955Z</time></trkpt><trkpt lat="41.835104031282825" lon="16.134152835126095"><ele>307.0</ele><time>2026-04-19T09:19:12.955Z</time></trkpt><trkpt lat="41.83515590672823" lon="16.134089655507484"><ele>307.0</ele><time>2026-04-19T09:19:13.955Z</time></trkpt><trkpt lat="41.83520982221862" lon="16.13403473209879"><ele>307.0</ele><time>2026-04-19T09:19:14.955Z</time></trkpt><trkpt lat="41.83528075361218" lon="16.133937705846147"><ele>307.0</ele><time>2026-04-19T09:19:15.955Z</time></trkpt><trkpt lat="41.835350315725634" lon="16.133853608886497"><ele>304.85714285714283</ele><time>2026-04-19T09:19:16.955Z</time></trkpt><trkpt lat="41.83540270151615" lon="16.1337894920853"><ele>302.7142857142857</ele><time>2026-04-19T09:19:17.955Z</time></trkpt><trkpt lat="41.8354559457952" lon="16.13371716406865"><ele>300.57142857142856</ele><time>2026-04-19T09:19:18.955Z</time></trkpt><trkpt lat="41.83551822867493" lon="16.13366646938798"><ele>298.42857142857144</ele><time>2026-04-19T09:19:19.955Z</time></trkpt><trkpt lat="41.83556651237485" lon="16.133607120928886"><ele>296.2857142857143</ele><time>2026-04-19T09:19:20.955Z</time></trkpt><trkpt lat="41.83561078729642" lon="16.13353372129544"><ele>294.1428571428571</ele><time>2026-04-19T09:19:21.955Z</time></trkpt><trkpt lat="41.83565169581219" lon="16.133452744533162"><ele>292.0</ele><time>2026-04-19T09:19:22.955Z</time></trkpt><trkpt lat="41.83568938985212" lon="16.13335270833448"><ele>292.0</ele><time>2026-04-19T09:19:23.955Z</time></trkpt><trkpt lat="41.83569878538226" lon="16.133269039514392"><ele>292.0</ele><time>2026-04-19T09:19:24.955Z</time></trkpt><trkpt lat="41.83567720170777" lon="16.133144422196025"><ele>292.0</ele><time>2026-04-19T09:19:26.955Z</time></trkpt><trkpt lat="41.83563875972756" lon="16.133061735493186"><ele>292.0</ele><time>2026-04-19T09:19:27.955Z</time></trkpt><trkpt lat="41.835590360779044" lon="16.132992031854712"><ele>292.0</ele><time>2026-04-19T09:19:28.955Z</time></trkpt><trkpt lat="41.83551495873093" lon="16.132876113154914"><ele>292.0</ele><time>2026-04-19T09:19:30.955Z</time></trkpt><trkpt lat="41.835480752264885" lon="16.132802102723932"><ele>291.5</ele><time>2026-04-19T09:19:31.955Z</time></trkpt><trkpt lat="41.83543751434369" lon="16.132723536697497"><ele>291.0</ele><time>2026-04-19T09:19:32.956Z</time></trkpt><trkpt lat="41.83543719321014" lon="16.13262770390171"><ele>290.5</ele><time>2026-04-19T09:19:33.956Z</time></trkpt><trkpt lat="41.835398101769684" lon="16.132464397412765"><ele>290.0</ele><time>2026-04-19T09:19:35.956Z</time></trkpt><trkpt lat="41.83536751724838" lon="16.13235591527938"><ele>289.5</ele><time>2026-04-19T09:19:36.956Z</time></trkpt><trkpt lat="41.83533385781324" lon="16.132249977264678"><ele>289.0</ele><time>2026-04-19T09:19:37.956Z</time></trkpt><trkpt lat="41.83531100948706" lon="16.132133142574638"><ele>289.2</ele><time>2026-04-19T09:19:38.956Z</time></trkpt><trkpt lat="41.83528211827429" lon="16.13195650643314"><ele>289.4</ele><time>2026-04-19T09:19:40.956Z</time></trkpt><trkpt lat="41.835264801886744" lon="16.131848703919278"><ele>289.6</ele><time>2026-04-19T09:19:41.956Z</time></trkpt><trkpt lat="41.83524135006411" lon="16.131738178196837"><ele>289.8</ele><time>2026-04-19T09:19:42.956Z</time></trkpt><trkpt lat="41.8352109304188" lon="16.13164140740897"><ele>290.0</ele><time>2026-04-19T09:19:43.956Z</time></trkpt><trkpt lat="41.835206516557406" lon="16.131545821353658"><ele>290.0</ele><time>2026-04-19T09:19:44.956Z</time></trkpt><trkpt lat="41.83518399595084" lon="16.131442933018914"><ele>290.0</ele><time>2026-04-19T09:19:45.956Z</time></trkpt><trkpt lat="41.83512996965889" lon="16.131296828803507"><ele>290.0</ele><time>2026-04-19T09:19:47.956Z</time></trkpt><trkpt lat="41.835061186708685" lon="16.131166743354665"><ele>290.0</ele><time>2026-04-19T09:19:49.956Z</time></trkpt><trkpt lat="41.83500020998445" lon="16.13103860007459"><ele>290.0</ele><time>2026-04-19T09:19:51.956Z</time></trkpt><trkpt lat="41.834961048747694" lon="16.130967273485304"><ele>285.6</ele><time>2026-04-19T09:19:52.956Z</time></trkpt><trkpt lat="41.834926774494626" lon="16.13088374835721"><ele>281.2</ele><time>2026-04-19T09:19:53.956Z</time></trkpt><trkpt lat="41.834862929976815" lon="16.130663271784517"><ele>276.8</ele><time>2026-04-19T09:19:55.956Z</time></trkpt><trkpt lat="41.83484337859937" lon="16.130562044923913"><ele>272.4</ele><time>2026-04-19T09:19:56.956Z</time></trkpt><trkpt lat="41.83481491508846" lon="16.13045446871391"><ele>268.0</ele><time>2026-04-19T09:19:57.956Z</time></trkpt><trkpt lat="41.83480153823868" lon="16.13035990431954"><ele>268.0</ele><time>2026-04-19T09:19:58.956Z</time></trkpt><trkpt lat="41.83477316825309" lon="16.130175568277682"><ele>268.0</ele><time>2026-04-19T09:20:00.954Z</time></trkpt><trkpt lat="41.8347143153193" lon="16.130066429106048"><ele>268.0</ele><time>2026-04-19T09:20:01.954Z</time></trkpt><trkpt lat="41.834687744386805" lon="16.1299670987465"><ele>268.0</ele><time>2026-04-19T09:20:02.954Z</time></trkpt><trkpt lat="41.83465733734762" lon="16.129880492725846"><ele>268.0</ele><time>2026-04-19T09:20:03.954Z</time></trkpt><trkpt lat="41.834637408910396" lon="16.129760222568986"><ele>266.8333333333333</ele><time>2026-04-19T09:20:04.954Z</time></trkpt><trkpt lat="41.83462006199481" lon="16.12966117347149"><ele>265.66666666666663</ele><time>2026-04-19T09:20:05.955Z</time></trkpt><trkpt lat="41.83461658449004" lon="16.129545582980228"><ele>264.5</ele><time>2026-04-19T09:20:06.954Z</time></trkpt><trkpt lat="41.834621265987806" lon="16.129450801941505"><ele>263.3333333333333</ele><time>2026-04-19T09:20:07.954Z</time></trkpt><trkpt lat="41.834619710275334" lon="16.129352211873"><ele>262.1666666666667</ele><time>2026-04-19T09:20:08.954Z</time></trkpt><trkpt lat="41.83461310935922" lon="16.12924141378354"><ele>261.0</ele><time>2026-04-19T09:20:09.954Z</time></trkpt><trkpt lat="41.83459409589199" lon="16.129135461948422"><ele>259.14285714285717</ele><time>2026-04-19T09:20:10.954Z</time></trkpt><trkpt lat="41.83458681472846" lon="16.12902064111742"><ele>257.2857142857143</ele><time>2026-04-19T09:20:11.955Z</time></trkpt><trkpt lat="41.83456899596809" lon="16.128932157524503"><ele>255.42857142857144</ele><time>2026-04-19T09:20:12.954Z</time></trkpt><trkpt lat="41.834555897915024" lon="16.128823285093706"><ele>253.57142857142858</ele><time>2026-04-19T09:20:13.954Z</time></trkpt><trkpt lat="41.83455186256936" lon="16.128711753145094"><ele>251.71428571428572</ele><time>2026-04-19T09:20:14.954Z</time></trkpt><trkpt lat="41.8345629228305" lon="16.12862576341424"><ele>249.85714285714286</ele><time>2026-04-19T09:20:15.954Z</time></trkpt><trkpt lat="41.83456060453919" lon="16.128538981409523"><ele>248.0</ele><time>2026-04-19T09:20:16.954Z</time></trkpt><trkpt lat="41.83454544897" lon="16.128452418369264"><ele>248.00000000000003</ele><time>2026-04-19T09:20:17.954Z</time></trkpt><trkpt lat="41.834532808308005" lon="16.128366141613693"><ele>248.0</ele><time>2026-04-19T09:20:18.954Z</time></trkpt><trkpt lat="41.834545336967146" lon="16.128277920853883"><ele>248.0</ele><time>2026-04-19T09:20:19.954Z</time></trkpt><trkpt lat="41.83461049260665" lon="16.128143305244368"><ele>248.0</ele><time>2026-04-19T09:20:21.955Z</time></trkpt><trkpt lat="41.83466524596156" lon="16.12807163799693"><ele>248.00000000000003</ele><time>2026-04-19T09:20:22.955Z</time></trkpt><trkpt lat="41.83473082708988" lon="16.12802154286301"><ele>248.0</ele><time>2026-04-19T09:20:23.955Z</time></trkpt><trkpt lat="41.83480847982632" lon="16.127951634090486"><ele>245.4</ele><time>2026-04-19T09:20:24.955Z</time></trkpt><trkpt lat="41.83487540455189" lon="16.127790447808668"><ele>242.8</ele><time>2026-04-19T09:20:26.955Z</time></trkpt><trkpt lat="41.83491191372472" lon="16.12770192499358"><ele>240.2</ele><time>2026-04-19T09:20:27.955Z</time></trkpt><trkpt lat="41.834957062729195" lon="16.12760054323646"><ele>237.6</ele><time>2026-04-19T09:20:28.955Z</time></trkpt><trkpt lat="41.835008637246375" lon="16.127526205216697"><ele>235.0</ele><time>2026-04-19T09:20:29.955Z</time></trkpt><trkpt lat="41.83513003110086" lon="16.12747450459014"><ele>235.33333333333331</ele><time>2026-04-19T09:20:31.955Z</time></trkpt><trkpt lat="41.83518244948498" lon="16.127419208070602"><ele>235.66666666666666</ele><time>2026-04-19T09:20:36.955Z</time></trkpt><trkpt lat="41.83522019580149" lon="16.127343551557086"><ele>236.0</ele><time>2026-04-19T09:20:48.955Z</time></trkpt><trkpt lat="41.83527619178803" lon="16.12729708705737"><ele>236.33333333333331</ele><time>2026-04-19T09:20:50.955Z</time></trkpt><trkpt lat="41.83534049418858" lon="16.127245802976592"><ele>236.66666666666666</ele><time>2026-04-19T09:20:52.955Z</time></trkpt><trkpt lat="41.83541798098049" lon="16.12718598884166"><ele>237.0</ele><time>2026-04-19T09:20:54.955Z</time></trkpt><trkpt lat="41.83550897104254" lon="16.127105993411188"><ele>235.66666666666666</ele><time>2026-04-19T09:20:56.955Z</time></trkpt><trkpt lat="41.83561662166589" lon="16.127033892668972"><ele>234.33333333333331</ele><time>2026-04-19T09:20:58.955Z</time></trkpt><trkpt lat="41.83568166962188" lon="16.126996335332787"><ele>233.0</ele><time>2026-04-19T09:20:59.955Z</time></trkpt><trkpt lat="41.83575128691627" lon="16.12698642273508"><ele>231.66666666666666</ele><time>2026-04-19T09:21:00.955Z</time></trkpt><trkpt lat="41.83582164044377" lon="16.12697730900611"><ele>230.33333333333331</ele><time>2026-04-19T09:21:01.955Z</time></trkpt><trkpt lat="41.835890573764445" lon="16.126984293462797"><ele>229.0</ele><time>2026-04-19T09:21:02.955Z</time></trkpt><trkpt lat="41.83596239779374" lon="16.126990120808486"><ele>228.39999999999998</ele><time>2026-04-19T09:21:03.955Z</time></trkpt><trkpt lat="41.836027814313354" lon="16.126974661478627"><ele>227.79999999999998</ele><time>2026-04-19T09:21:04.955Z</time></trkpt><trkpt lat="41.83616015508732" lon="16.127000540066113"><ele>227.20000000000002</ele><time>2026-04-19T09:21:06.955Z</time></trkpt><trkpt lat="41.83629012847768" lon="16.127010487753633"><ele>226.60000000000002</ele><time>2026-04-19T09:21:08.955Z</time></trkpt><trkpt lat="41.83635890667894" lon="16.127024010630446"><ele>226.0</ele><time>2026-04-19T09:21:09.955Z</time></trkpt><trkpt lat="41.83643457268941" lon="16.127032257270095"><ele>225.99999999999997</ele><time>2026-04-19T09:21:10.955Z</time></trkpt><trkpt lat="41.83652271709399" lon="16.127050868328254"><ele>226.0</ele><time>2026-04-19T09:21:11.955Z</time></trkpt><trkpt lat="41.8366071081202" lon="16.12707739948713"><ele>226.0</ele><time>2026-04-19T09:21:12.955Z</time></trkpt><trkpt lat="41.83668983840335" lon="16.127083119350075"><ele>226.0</ele><time>2026-04-19T09:21:13.955Z</time></trkpt><trkpt lat="41.8367788507997" lon="16.12709682119937"><ele>225.99999999999997</ele><time>2026-04-19T09:21:14.955Z</time></trkpt><trkpt lat="41.83685637060425" lon="16.1270836702834"><ele>226.0</ele><time>2026-04-19T09:21:15.955Z</time></trkpt><trkpt lat="41.83694373028565" lon="16.12705458542541"><ele>224.49999999999997</ele><time>2026-04-19T09:21:16.955Z</time></trkpt><trkpt lat="41.83703087518763" lon="16.127022025885555"><ele>223.0</ele><time>2026-04-19T09:21:17.955Z</time></trkpt><trkpt lat="41.837113213711575" lon="16.12698412419738"><ele>221.5</ele><time>2026-04-19T09:21:18.955Z</time></trkpt><trkpt lat="41.837188823450546" lon="16.12693657473824"><ele>220.0</ele><time>2026-04-19T09:21:19.955Z</time></trkpt><trkpt lat="41.83725978106675" lon="16.126880470680984"><ele>218.49999999999997</ele><time>2026-04-19T09:21:20.955Z</time></trkpt><trkpt lat="41.83733596526116" lon="16.126798859769785"><ele>217.0</ele><time>2026-04-19T09:21:21.955Z</time></trkpt><trkpt lat="41.83740691500082" lon="16.126731113181833"><ele>216.99999999999997</ele><time>2026-04-19T09:21:22.955Z</time></trkpt><trkpt lat="41.83746138932433" lon="16.126664050167328"><ele>217.0</ele><time>2026-04-19T09:21:23.955Z</time></trkpt><trkpt lat="41.83751187372778" lon="16.126600501089555"><ele>217.0</ele><time>2026-04-19T09:21:24.955Z</time></trkpt><trkpt lat="41.83760468252473" lon="16.126507875146228"><ele>217.0</ele><time>2026-04-19T09:21:26.955Z</time></trkpt><trkpt lat="41.83770000849452" lon="16.126421574330074"><ele>216.99999999999997</ele><time>2026-04-19T09:21:28.955Z</time></trkpt><trkpt lat="41.83776223686455" lon="16.126372653010968"><ele>217.0</ele><time>2026-04-19T09:21:29.955Z</time></trkpt><trkpt lat="41.837853996146045" lon="16.126308108036977"><ele>214.83333333333331</ele><time>2026-04-19T09:21:31.955Z</time></trkpt><trkpt lat="41.83791528382791" lon="16.126236826138708"><ele>212.66666666666666</ele><time>2026-04-19T09:21:34.955Z</time></trkpt><trkpt lat="41.83798486079978" lon="16.126166521343862"><ele>210.5</ele><time>2026-04-19T09:21:37.955Z</time></trkpt><trkpt lat="41.838038134202776" lon="16.126095340910414"><ele>208.33333333333331</ele><time>2026-04-19T09:21:41.955Z</time></trkpt><trkpt lat="41.838085379562" lon="16.12600981790398"><ele>206.16666666666666</ele><time>2026-04-19T09:21:43.955Z</time></trkpt><trkpt lat="41.8381608715034" lon="16.125922046907885"><ele>204.0</ele><time>2026-04-19T09:21:46.955Z</time></trkpt><trkpt lat="41.83822415116938" lon="16.125874380564237"><ele>204.0</ele><time>2026-04-19T09:21:48.955Z</time></trkpt><trkpt lat="41.83830741497854" lon="16.12586853493455"><ele>204.0</ele><time>2026-04-19T09:21:49.955Z</time></trkpt><trkpt lat="41.83840434914013" lon="16.12586765962969"><ele>204.0</ele><time>2026-04-19T09:21:50.955Z</time></trkpt><trkpt lat="41.83848604294101" lon="16.125920001473325"><ele>204.0</ele><time>2026-04-19T09:21:51.955Z</time></trkpt><trkpt lat="41.83856584259617" lon="16.12598234276358"><ele>204.0</ele><time>2026-04-19T09:21:52.955Z</time></trkpt><trkpt lat="41.8386421980828" lon="16.126039317299192"><ele>206.39999999999998</ele><time>2026-04-19T09:21:53.955Z</time></trkpt><trkpt lat="41.83871318986076" lon="16.126117073538488"><ele>208.8</ele><time>2026-04-19T09:21:54.955Z</time></trkpt><trkpt lat="41.8387872241072" lon="16.126194545781047"><ele>211.20000000000002</ele><time>2026-04-19T09:21:55.955Z</time></trkpt><trkpt lat="41.838867958673944" lon="16.126281074461154"><ele>213.60000000000002</ele><time>2026-04-19T09:21:56.955Z</time></trkpt><trkpt lat="41.83895564671767" lon="16.126365040875395"><ele>216.0</ele><time>2026-04-19T09:21:57.955Z</time></trkpt><trkpt lat="41.83903212933409" lon="16.126448703088496"><ele>216.0</ele><time>2026-04-19T09:21:58.955Z</time></trkpt><trkpt lat="41.83910224063952" lon="16.126537715960914"><ele>216.0</ele><time>2026-04-19T09:21:59.955Z</time></trkpt><trkpt lat="41.839167735378304" lon="16.126613787091763"><ele>216.0</ele><time>2026-04-19T09:22:00.955Z</time></trkpt><trkpt lat="41.83923392859734" lon="16.126694348392597"><ele>216.0</ele><time>2026-04-19T09:22:01.955Z</time></trkpt><trkpt lat="41.839299593448935" lon="16.12676660952158"><ele>216.0</ele><time>2026-04-19T09:22:02.955Z</time></trkpt><trkpt lat="41.83936866796671" lon="16.126825857668877"><ele>216.0</ele><time>2026-04-19T09:22:03.955Z</time></trkpt><trkpt lat="41.83944005776539" lon="16.126883085508272"><ele>213.8</ele><time>2026-04-19T09:22:04.955Z</time></trkpt><trkpt lat="41.83950152869277" lon="16.12695428318892"><ele>211.60000000000002</ele><time>2026-04-19T09:22:05.955Z</time></trkpt><trkpt lat="41.83958559312212" lon="16.127030998056824"><ele>209.4</ele><time>2026-04-19T09:22:06.954Z</time></trkpt><trkpt lat="41.839660186492104" lon="16.127110647718585"><ele>207.2</ele><time>2026-04-19T09:22:07.954Z</time></trkpt><trkpt lat="41.8397768101501" lon="16.127154856137405"><ele>205.0</ele><time>2026-04-19T09:22:08.955Z</time></trkpt><trkpt lat="41.83989872404562" lon="16.127218102757528"><ele>205.0</ele><time>2026-04-19T09:22:09.954Z</time></trkpt><trkpt lat="41.84001511345885" lon="16.12724357269876"><ele>205.0</ele><time>2026-04-19T09:22:10.954Z</time></trkpt><trkpt lat="41.84013240749994" lon="16.127262380370983"><ele>205.0</ele><time>2026-04-19T09:22:11.955Z</time></trkpt><trkpt lat="41.84025299479471" lon="16.127247077213223"><ele>205.0</ele><time>2026-04-19T09:22:12.954Z</time></trkpt><trkpt lat="41.84036303933771" lon="16.127182929533628"><ele>202.6</ele><time>2026-04-19T09:22:13.954Z</time></trkpt><trkpt lat="41.84046803401039" lon="16.12708947936623"><ele>200.2</ele><time>2026-04-19T09:22:14.955Z</time></trkpt><trkpt lat="41.84053485367988" lon="16.12697588174477"><ele>197.8</ele><time>2026-04-19T09:22:15.954Z</time></trkpt><trkpt lat="41.84057696178182" lon="16.12683391051951"><ele>195.4</ele><time>2026-04-19T09:22:16.954Z</time></trkpt><trkpt lat="41.84061583125354" lon="16.126722447125896"><ele>193.0</ele><time>2026-04-19T09:22:17.955Z</time></trkpt><trkpt lat="41.840640569337324" lon="16.126617474492953"><ele>194.99999999999997</ele><time>2026-04-19T09:22:18.955Z</time></trkpt><trkpt lat="41.840690600431564" lon="16.12653062341325"><ele>197.0</ele><time>2026-04-19T09:22:19.955Z</time></trkpt><trkpt lat="41.840733285455016" lon="16.126437142256744"><ele>199.0</ele><time>2026-04-19T09:22:20.955Z</time></trkpt><trkpt lat="41.84079982767525" lon="16.126340656122046"><ele>201.0</ele><time>2026-04-19T09:22:21.955Z</time></trkpt><trkpt lat="41.840867080575755" lon="16.126272891630673"><ele>202.99999999999997</ele><time>2026-04-19T09:22:22.955Z</time></trkpt><trkpt lat="41.84094029996147" lon="16.12619773836591"><ele>205.0</ele><time>2026-04-19T09:22:23.955Z</time></trkpt><trkpt lat="41.84103608671783" lon="16.12612454156167"><ele>205.0</ele><time>2026-04-19T09:22:24.955Z</time></trkpt><trkpt lat="41.84113924594179" lon="16.126080875010157"><ele>205.0</ele><time>2026-04-19T09:22:25.955Z</time></trkpt><trkpt lat="41.841235723013924" lon="16.126074561636177"><ele>205.0</ele><time>2026-04-19T09:22:26.955Z</time></trkpt><trkpt lat="41.84132107660002" lon="16.12610568932823"><ele>205.0</ele><time>2026-04-19T09:22:27.955Z</time></trkpt><trkpt lat="41.84140963129477" lon="16.126192948099465"><ele>205.0</ele><time>2026-04-19T09:22:28.955Z</time></trkpt><trkpt lat="41.84149752041996" lon="16.126279511864873"><ele>205.0</ele><time>2026-04-19T09:22:29.955Z</time></trkpt><trkpt lat="41.841588231700676" lon="16.126372265157816"><ele>205.0</ele><time>2026-04-19T09:22:30.955Z</time></trkpt><trkpt lat="41.84166217093245" lon="16.12646946743242"><ele>205.0</ele><time>2026-04-19T09:22:31.955Z</time></trkpt><trkpt lat="41.84173099838446" lon="16.126553072745608"><ele>205.0</ele><time>2026-04-19T09:22:32.955Z</time></trkpt><trkpt lat="41.841803701223" lon="16.12659546331893"><ele>205.0</ele><time>2026-04-19T09:22:33.955Z</time></trkpt><trkpt lat="41.84190189103517" lon="16.126602236049912"><ele>205.4</ele><time>2026-04-19T09:22:34.955Z</time></trkpt><trkpt lat="41.84200306575755" lon="16.126557991486727"><ele>205.8</ele><time>2026-04-19T09:22:35.955Z</time></trkpt><trkpt lat="41.84209503335132" lon="16.126494135682147"><ele>206.2</ele><time>2026-04-19T09:22:36.955Z</time></trkpt><trkpt lat="41.84218928813405" lon="16.1264256316678"><ele>206.6</ele><time>2026-04-19T09:22:37.955Z</time></trkpt><trkpt lat="41.84227307837506" lon="16.126373053249306"><ele>207.0</ele><time>2026-04-19T09:22:38.955Z</time></trkpt><trkpt lat="41.84237224306283" lon="16.126352032657326"><ele>207.0</ele><time>2026-04-19T09:22:39.955Z</time></trkpt><trkpt lat="41.84247044573973" lon="16.126379291893848"><ele>207.0</ele><time>2026-04-19T09:22:40.955Z</time></trkpt><trkpt lat="41.842557021973064" lon="16.12643283580887"><ele>207.0</ele><time>2026-04-19T09:22:41.955Z</time></trkpt><trkpt lat="41.84264019350388" lon="16.126537706770172"><ele>207.0</ele><time>2026-04-19T09:22:42.955Z</time></trkpt><trkpt lat="41.84272568860403" lon="16.126651920934925"><ele>207.0</ele><time>2026-04-19T09:22:43.955Z</time></trkpt><trkpt lat="41.84278370536775" lon="16.126768405060897"><ele>202.6</ele><time>2026-04-19T09:22:44.955Z</time></trkpt><trkpt lat="41.84284632940325" lon="16.12688270135298"><ele>198.2</ele><time>2026-04-19T09:22:45.955Z</time></trkpt><trkpt lat="41.842925113811205" lon="16.126966483208754"><ele>193.8</ele><time>2026-04-19T09:22:46.955Z</time></trkpt><trkpt lat="41.84301356265233" lon="16.126990255665092"><ele>189.4</ele><time>2026-04-19T09:22:47.955Z</time></trkpt><trkpt lat="41.84309423816718" lon="16.12695186426903"><ele>185.0</ele><time>2026-04-19T09:22:48.955Z</time></trkpt><trkpt lat="41.84318375113623" lon="16.12692341120835"><ele>185.0</ele><time>2026-04-19T09:22:49.955Z</time></trkpt><trkpt lat="41.843285207455835" lon="16.126908829121152"><ele>185.0</ele><time>2026-04-19T09:22:50.955Z</time></trkpt><trkpt lat="41.84338261278603" lon="16.126875504363642"><ele>185.0</ele><time>2026-04-19T09:22:51.955Z</time></trkpt><trkpt lat="41.84347158588091" lon="16.126814194136813"><ele>185.0</ele><time>2026-04-19T09:22:52.955Z</time></trkpt><trkpt lat="41.84354182028902" lon="16.126709122012556"><ele>185.0</ele><time>2026-04-19T09:22:53.955Z</time></trkpt><trkpt lat="41.84358899664058" lon="16.126565627269954"><ele>183.6</ele><time>2026-04-19T09:22:54.955Z</time></trkpt><trkpt lat="41.84361949697211" lon="16.126425292582287"><ele>182.2</ele><time>2026-04-19T09:22:55.955Z</time></trkpt><trkpt lat="41.84364235970893" lon="16.12627696289493"><ele>180.8</ele><time>2026-04-19T09:22:56.955Z</time></trkpt><trkpt lat="41.843676777230144" lon="16.12613493485319"><ele>179.4</ele><time>2026-04-19T09:22:57.955Z</time></trkpt><trkpt lat="41.84373340876727" lon="16.126017256439404"><ele>178.0</ele><time>2026-04-19T09:22:58.955Z</time></trkpt><trkpt lat="41.84381681089048" lon="16.12592076137059"><ele>178.0</ele><time>2026-04-19T09:22:59.955Z</time></trkpt><trkpt lat="41.843917918763296" lon="16.12586077050429"><ele>178.0</ele><time>2026-04-19T09:23:00.955Z</time></trkpt><trkpt lat="41.844026168127456" lon="16.125824913303603"><ele>178.0</ele><time>2026-04-19T09:23:01.955Z</time></trkpt><trkpt lat="41.84412104651292" lon="16.125772698310108"><ele>178.0</ele><time>2026-04-19T09:23:02.955Z</time></trkpt><trkpt lat="41.8442023790045" lon="16.125714127118055"><ele>178.0</ele><time>2026-04-19T09:23:03.955Z</time></trkpt><trkpt lat="41.84428698534872" lon="16.12564379470023"><ele>177.4</ele><time>2026-04-19T09:23:04.955Z</time></trkpt><trkpt lat="41.84437909376603" lon="16.125564252981015"><ele>176.8</ele><time>2026-04-19T09:23:05.955Z</time></trkpt><trkpt lat="41.84446716793136" lon="16.125487896689506"><ele>176.2</ele><time>2026-04-19T09:23:06.955Z</time></trkpt><trkpt lat="41.84455049252939" lon="16.125398915285306"><ele>175.6</ele><time>2026-04-19T09:23:07.955Z</time></trkpt><trkpt lat="41.84464646849458" lon="16.12529837569081"><ele>175.0</ele><time>2026-04-19T09:23:08.955Z</time></trkpt><trkpt lat="41.84474301719332" lon="16.125215508280917"><ele>175.0</ele><time>2026-04-19T09:23:09.955Z</time></trkpt><trkpt lat="41.844838131833896" lon="16.12514388757496"><ele>175.0</ele><time>2026-04-19T09:23:10.955Z</time></trkpt><trkpt lat="41.844928295397615" lon="16.12506585190581"><ele>175.0</ele><time>2026-04-19T09:23:11.955Z</time></trkpt><trkpt lat="41.845017698798166" lon="16.12499740326123"><ele>175.0</ele><time>2026-04-19T09:23:12.955Z</time></trkpt><trkpt lat="41.845105616828505" lon="16.12493172855151"><ele>175.0</ele><time>2026-04-19T09:23:13.955Z</time></trkpt><trkpt lat="41.845198777854264" lon="16.124864031096596"><ele>176.4</ele><time>2026-04-19T09:23:14.955Z</time></trkpt><trkpt lat="41.84529267677518" lon="16.12479679570231"><ele>177.8</ele><time>2026-04-19T09:23:15.955Z</time></trkpt><trkpt lat="41.84539571124017" lon="16.12475486469491"><ele>179.2</ele><time>2026-04-19T09:23:16.955Z</time></trkpt><trkpt lat="41.84550869302636" lon="16.124718436374067"><ele>180.6</ele><time>2026-04-19T09:23:17.955Z</time></trkpt><trkpt lat="41.84561727791512" lon="16.12469048395065"><ele>182.0</ele><time>2026-04-19T09:23:18.955Z</time></trkpt><trkpt lat="41.84573544270374" lon="16.124666415242228"><ele>182.0</ele><time>2026-04-19T09:23:19.955Z</time></trkpt><trkpt lat="41.845854922556995" lon="16.124654200856533"><ele>182.0</ele><time>2026-04-19T09:23:20.955Z</time></trkpt><trkpt lat="41.8459722556154" lon="16.124623503718208"><ele>182.0</ele><time>2026-04-19T09:23:21.955Z</time></trkpt><trkpt lat="41.84608644873175" lon="16.124571880886887"><ele>182.0</ele><time>2026-04-19T09:23:22.955Z</time></trkpt><trkpt lat="41.84621097533838" lon="16.12450440719598"><ele>179.75</ele><time>2026-04-19T09:23:23.955Z</time></trkpt><trkpt lat="41.84633828297719" lon="16.124433765484103"><ele>177.5</ele><time>2026-04-19T09:23:24.955Z</time></trkpt><trkpt lat="41.84647299008068" lon="16.124350444161095"><ele>175.25</ele><time>2026-04-19T09:23:25.955Z</time></trkpt><trkpt lat="41.84661506276646" lon="16.124265350918723"><ele>173.0</ele><time>2026-04-19T09:23:26.955Z</time></trkpt><trkpt lat="41.84676020855486" lon="16.124176325330385"><ele>174.0</ele><time>2026-04-19T09:23:27.955Z</time></trkpt><trkpt lat="41.8468931791178" lon="16.124104792434522"><ele>175.0</ele><time>2026-04-19T09:23:28.955Z</time></trkpt><trkpt lat="41.8470198693737" lon="16.124037739189664"><ele>176.0</ele><time>2026-04-19T09:23:29.955Z</time></trkpt><trkpt lat="41.84713724420132" lon="16.123973492803504"><ele>177.0</ele><time>2026-04-19T09:23:30.955Z</time></trkpt><trkpt lat="41.84725961279431" lon="16.12391583896136"><ele>177.0</ele><time>2026-04-19T09:23:31.955Z</time></trkpt><trkpt lat="41.847387129090144" lon="16.123895311108654"><ele>177.0</ele><time>2026-04-19T09:23:32.955Z</time></trkpt><trkpt lat="41.84751394799771" lon="16.12394451646909"><ele>177.0</ele><time>2026-04-19T09:23:33.955Z</time></trkpt><trkpt lat="41.84762459607247" lon="16.124046167180097"><ele>177.0</ele><time>2026-04-19T09:23:34.955Z</time></trkpt><trkpt lat="41.847713027051334" lon="16.124179101348755"><ele>176.25</ele><time>2026-04-19T09:23:35.955Z</time></trkpt><trkpt lat="41.84779453506591" lon="16.124307752385103"><ele>175.5</ele><time>2026-04-19T09:23:36.955Z</time></trkpt><trkpt lat="41.84789591262137" lon="16.124421653185053"><ele>174.75</ele><time>2026-04-19T09:23:37.955Z</time></trkpt><trkpt lat="41.84801374397884" lon="16.124533468070762"><ele>174.0</ele><time>2026-04-19T09:23:38.955Z</time></trkpt><trkpt lat="41.84813273582768" lon="16.124635033497185"><ele>174.0</ele><time>2026-04-19T09:23:39.956Z</time></trkpt><trkpt lat="41.848238408098" lon="16.124730512769432"><ele>174.0</ele><time>2026-04-19T09:23:40.956Z</time></trkpt><trkpt lat="41.84833368851413" lon="16.12482198580398"><ele>174.0</ele><time>2026-04-19T09:23:41.956Z</time></trkpt><trkpt lat="41.84842950682504" lon="16.12490793276634"><ele>174.0</ele><time>2026-04-19T09:23:42.956Z</time></trkpt><trkpt lat="41.84852310811242" lon="16.124997997831894"><ele>172.5</ele><time>2026-04-19T09:23:43.956Z</time></trkpt><trkpt lat="41.84862572859026" lon="16.12507890758118"><ele>171.0</ele><time>2026-04-19T09:23:44.956Z</time></trkpt><trkpt lat="41.8487540786303" lon="16.12513599804471"><ele>169.5</ele><time>2026-04-19T09:23:45.956Z</time></trkpt><trkpt lat="41.848889244731474" lon="16.125184458653163"><ele>168.0</ele><time>2026-04-19T09:23:46.956Z</time></trkpt><trkpt lat="41.84901889965593" lon="16.125237035084528"><ele>168.0</ele><time>2026-04-19T09:23:47.956Z</time></trkpt><trkpt lat="41.84914939743129" lon="16.125288886062112"><ele>168.0</ele><time>2026-04-19T09:23:48.956Z</time></trkpt><trkpt lat="41.84928909039778" lon="16.125342762846838"><ele>168.0</ele><time>2026-04-19T09:23:49.956Z</time></trkpt><trkpt lat="41.849431014819785" lon="16.125397420703376"><ele>168.0</ele><time>2026-04-19T09:23:50.956Z</time></trkpt><trkpt lat="41.84957693855567" lon="16.125450367345135"><ele>169.25</ele><time>2026-04-19T09:23:51.956Z</time></trkpt><trkpt lat="41.84972783593035" lon="16.12550468989882"><ele>170.5</ele><time>2026-04-19T09:23:52.956Z</time></trkpt><trkpt lat="41.849872683535935" lon="16.125556168251517"><ele>171.75</ele><time>2026-04-19T09:23:53.956Z</time></trkpt><trkpt lat="41.85000875607784" lon="16.125609426049447"><ele>173.0</ele><time>2026-04-19T09:23:54.956Z</time></trkpt><trkpt lat="41.85013570420357" lon="16.12568289461085"><ele>170.5</ele><time>2026-04-19T09:23:55.956Z</time></trkpt><trkpt lat="41.85026273859522" lon="16.125766053173237"><ele>168.0</ele><time>2026-04-19T09:23:56.956Z</time></trkpt><trkpt lat="41.850391747094406" lon="16.12585614400936"><ele>165.5</ele><time>2026-04-19T09:23:57.956Z</time></trkpt><trkpt lat="41.85052870810932" lon="16.125953964804147"><ele>163.0</ele><time>2026-04-19T09:23:58.956Z</time></trkpt><trkpt lat="41.85066192204312" lon="16.126051220951354"><ele>163.0</ele><time>2026-04-19T09:23:59.956Z</time></trkpt><trkpt lat="41.85079454175766" lon="16.126151736381797"><ele>163.0</ele><time>2026-04-19T09:24:00.956Z</time></trkpt><trkpt lat="41.85092218969259" lon="16.12625381126359"><ele>163.0</ele><time>2026-04-19T09:24:01.956Z</time></trkpt><trkpt lat="41.851050617204585" lon="16.126345025886987"><ele>163.0</ele><time>2026-04-19T09:24:02.956Z</time></trkpt><trkpt lat="41.85118165796592" lon="16.12643653542"><ele>163.75</ele><time>2026-04-19T09:24:03.956Z</time></trkpt><trkpt lat="41.85131684777895" lon="16.126523960751083"><ele>164.5</ele><time>2026-04-19T09:24:04.956Z</time></trkpt><trkpt lat="41.85144972643759" lon="16.1266138796878"><ele>165.25</ele><time>2026-04-19T09:24:05.956Z</time></trkpt><trkpt lat="41.85158193015343" lon="16.126701313423734"><ele>166.0</ele><time>2026-04-19T09:24:06.956Z</time></trkpt><trkpt lat="41.851716568359585" lon="16.126783457601267"><ele>162.25</ele><time>2026-04-19T09:24:07.956Z</time></trkpt><trkpt lat="41.851855328573976" lon="16.12685827604421"><ele>158.5</ele><time>2026-04-19T09:24:08.956Z</time></trkpt><trkpt lat="41.851992087318635" lon="16.126924242836182"><ele>154.75</ele><time>2026-04-19T09:24:09.956Z</time></trkpt><trkpt lat="41.85212341576798" lon="16.126986221714777"><ele>151.0</ele><time>2026-04-19T09:24:10.956Z</time></trkpt><trkpt lat="41.85225459566202" lon="16.127045186484885"><ele>151.0</ele><time>2026-04-19T09:24:11.954Z</time></trkpt><trkpt lat="41.85238758688179" lon="16.127108852011887"><ele>151.0</ele><time>2026-04-19T09:24:12.954Z</time></trkpt><trkpt lat="41.8525140268738" lon="16.12718206814909"><ele>151.0</ele><time>2026-04-19T09:24:13.954Z</time></trkpt><trkpt lat="41.85264624742528" lon="16.1272565063561"><ele>151.0</ele><time>2026-04-19T09:24:14.954Z</time></trkpt><trkpt lat="41.85278184594057" lon="16.127335995075953"><ele>150.25</ele><time>2026-04-19T09:24:15.954Z</time></trkpt><trkpt lat="41.852907728916016" lon="16.12742176808075"><ele>149.5</ele><time>2026-04-19T09:24:16.955Z</time></trkpt><trkpt lat="41.853021506909535" lon="16.12751742745746"><ele>148.75</ele><time>2026-04-19T09:24:17.955Z</time></trkpt><trkpt lat="41.85312401705473" lon="16.127610660810284"><ele>148.0</ele><time>2026-04-19T09:24:18.954Z</time></trkpt><trkpt lat="41.853215762109805" lon="16.127703090475155"><ele>148.0</ele><time>2026-04-19T09:24:19.954Z</time></trkpt><trkpt lat="41.85331083995854" lon="16.127800976836685"><ele>148.0</ele><time>2026-04-19T09:24:20.955Z</time></trkpt><trkpt lat="41.85340692726337" lon="16.127897131466728"><ele>148.0</ele><time>2026-04-19T09:24:21.955Z</time></trkpt><trkpt lat="41.85351025981612" lon="16.12798740466922"><ele>148.0</ele><time>2026-04-19T09:24:22.955Z</time></trkpt><trkpt lat="41.85361606029133" lon="16.12808643893753"><ele>146.75</ele><time>2026-04-19T09:24:23.954Z</time></trkpt><trkpt lat="41.853722131691754" lon="16.12818526750974"><ele>145.5</ele><time>2026-04-19T09:24:24.954Z</time></trkpt><trkpt lat="41.85383591552367" lon="16.128290599368572"><ele>144.25</ele><time>2026-04-19T09:24:25.954Z</time></trkpt><trkpt lat="41.853959897988375" lon="16.128395588312873"><ele>143.0</ele><time>2026-04-19T09:24:26.954Z</time></trkpt><trkpt lat="41.854076559610064" lon="16.12849894308421"><ele>143.0</ele><time>2026-04-19T09:24:27.954Z</time></trkpt><trkpt lat="41.85420374847519" lon="16.128596568359256"><ele>143.0</ele><time>2026-04-19T09:24:28.954Z</time></trkpt><trkpt lat="41.854328796240246" lon="16.1286904272653"><ele>143.0</ele><time>2026-04-19T09:24:29.954Z</time></trkpt><trkpt lat="41.85445647250514" lon="16.128783157300088"><ele>143.0</ele><time>2026-04-19T09:24:30.954Z</time></trkpt><trkpt lat="41.85458936623614" lon="16.128882236800163"><ele>143.0</ele><time>2026-04-19T09:24:31.954Z</time></trkpt><trkpt lat="41.85472498306642" lon="16.128983099486813"><ele>143.0</ele><time>2026-04-19T09:24:32.954Z</time></trkpt><trkpt lat="41.8548664268534" lon="16.129099940972225"><ele>143.0</ele><time>2026-04-19T09:24:33.954Z</time></trkpt><trkpt lat="41.85500428749365" lon="16.129224916328084"><ele>146.66666666666666</ele><time>2026-04-19T09:24:34.954Z</time></trkpt><trkpt lat="41.855142113988855" lon="16.129347426953263"><ele>150.33333333333334</ele><time>2026-04-19T09:24:35.954Z</time></trkpt><trkpt lat="41.855265057379846" lon="16.12947050888349"><ele>154.0</ele><time>2026-04-19T09:24:36.954Z</time></trkpt><trkpt lat="41.855379169536874" lon="16.1295900968882"><ele>154.0</ele><time>2026-04-19T09:24:37.954Z</time></trkpt><trkpt lat="41.8554971615395" lon="16.129706519916876"><ele>154.0</ele><time>2026-04-19T09:24:38.954Z</time></trkpt><trkpt lat="41.855618520891554" lon="16.129817270315485"><ele>154.0</ele><time>2026-04-19T09:24:39.954Z</time></trkpt><trkpt lat="41.855745747258744" lon="16.129933304380828"><ele>154.0</ele><time>2026-04-19T09:24:40.954Z</time></trkpt><trkpt lat="41.85587634861696" lon="16.130046372098022"><ele>151.33333333333334</ele><time>2026-04-19T09:24:41.954Z</time></trkpt><trkpt lat="41.856009217480526" lon="16.130161269091086"><ele>148.66666666666666</ele><time>2026-04-19T09:24:42.954Z</time></trkpt><trkpt lat="41.85614527155914" lon="16.130268755624797"><ele>146.0</ele><time>2026-04-19T09:24:43.954Z</time></trkpt><trkpt lat="41.85627269977311" lon="16.13036896123025"><ele>146.0</ele><time>2026-04-19T09:24:44.954Z</time></trkpt><trkpt lat="41.856396029547476" lon="16.130462608866914"><ele>146.0</ele><time>2026-04-19T09:24:45.954Z</time></trkpt><trkpt lat="41.856515035415896" lon="16.130565339826273"><ele>146.0</ele><time>2026-04-19T09:24:46.954Z</time></trkpt><trkpt lat="41.85662201108521" lon="16.130687221601818"><ele>146.0</ele><time>2026-04-19T09:24:47.954Z</time></trkpt><trkpt lat="41.85673115689002" lon="16.13080906736969"><ele>147.66666666666666</ele><time>2026-04-19T09:24:48.954Z</time></trkpt><trkpt lat="41.85682852473326" lon="16.13094902575789"><ele>149.33333333333334</ele><time>2026-04-19T09:24:49.954Z</time></trkpt><trkpt lat="41.856943883505835" lon="16.13108384699468"><ele>151.0</ele><time>2026-04-19T09:24:50.954Z</time></trkpt><trkpt lat="41.85706138804674" lon="16.131224919815693"><ele>151.0</ele><time>2026-04-19T09:24:51.954Z</time></trkpt><trkpt lat="41.857165128412106" lon="16.131371008657748"><ele>151.0</ele><time>2026-04-19T09:24:52.954Z</time></trkpt><trkpt lat="41.85727888126472" lon="16.131535846094692"><ele>151.0</ele><time>2026-04-19T09:24:53.954Z</time></trkpt><trkpt lat="41.857379108275516" lon="16.13169044559941"><ele>148.25</ele><time>2026-04-19T09:24:54.954Z</time></trkpt><trkpt lat="41.8574743701509" lon="16.131830468502628"><ele>145.5</ele><time>2026-04-19T09:24:55.954Z</time></trkpt><trkpt lat="41.857559958367034" lon="16.1319753309435"><ele>142.75</ele><time>2026-04-19T09:24:56.954Z</time></trkpt><trkpt lat="41.857646233638235" lon="16.132103716633356"><ele>140.0</ele><time>2026-04-19T09:24:57.954Z</time></trkpt><trkpt lat="41.857729386895535" lon="16.13222854753231"><ele>140.0</ele><time>2026-04-19T09:24:58.954Z</time></trkpt><trkpt lat="41.85782223783491" lon="16.132323127009304"><ele>140.0</ele><time>2026-04-19T09:24:59.954Z</time></trkpt><trkpt lat="41.85792866377038" lon="16.132372998045067"><ele>140.0</ele><time>2026-04-19T09:25:00.954Z</time></trkpt><trkpt lat="41.85808638077899" lon="16.132390270609577"><ele>140.0</ele><time>2026-04-19T09:25:01.954Z</time></trkpt><trkpt lat="41.85824019690925" lon="16.132405659768455"><ele>133.0</ele><time>2026-04-19T09:25:02.954Z</time></trkpt><trkpt lat="41.85839335997678" lon="16.132425666197932"><ele>126.0</ele><time>2026-04-19T09:25:03.954Z</time></trkpt><trkpt lat="41.85855639235651" lon="16.13244740580512"><ele>119.0</ele><time>2026-04-19T09:25:04.954Z</time></trkpt><trkpt lat="41.85870157040554" lon="16.132467257688084"><ele>118.5</ele><time>2026-04-19T09:25:05.954Z</time></trkpt><trkpt lat="41.85884798785072" lon="16.132487306702235"><ele>118.0</ele><time>2026-04-19T09:25:06.954Z</time></trkpt><trkpt lat="41.858994635700164" lon="16.132506422596155"><ele>117.5</ele><time>2026-04-19T09:25:07.954Z</time></trkpt><trkpt lat="41.85913745638024" lon="16.132520878699463"><ele>117.0</ele><time>2026-04-19T09:25:08.954Z</time></trkpt><trkpt lat="41.8592732088415" lon="16.132546650692817"><ele>116.0</ele><time>2026-04-19T09:25:09.954Z</time></trkpt><trkpt lat="41.85940576533342" lon="16.132563088421808"><ele>115.0</ele><time>2026-04-19T09:25:10.954Z</time></trkpt><trkpt lat="41.85953069763695" lon="16.132584912679146"><ele>114.0</ele><time>2026-04-19T09:25:11.954Z</time></trkpt><trkpt lat="41.85964942233951" lon="16.132601016466964"><ele>113.0</ele><time>2026-04-19T09:25:12.954Z</time></trkpt><trkpt lat="41.859775287431525" lon="16.132620983804465"><ele>113.0</ele><time>2026-04-19T09:25:13.954Z</time></trkpt><trkpt lat="41.859899309384225" lon="16.132642636722913"><ele>113.0</ele><time>2026-04-19T09:25:14.954Z</time></trkpt><trkpt lat="41.86003134284712" lon="16.13267543396987"><ele>113.0</ele><time>2026-04-19T09:25:15.954Z</time></trkpt><trkpt lat="41.86016566316717" lon="16.13273003369082"><ele>113.0</ele><time>2026-04-19T09:25:16.954Z</time></trkpt><trkpt lat="41.86030032475844" lon="16.132803577598313"><ele>112.25</ele><time>2026-04-19T09:25:17.954Z</time></trkpt><trkpt lat="41.860426009425694" lon="16.13288630281484"><ele>111.5</ele><time>2026-04-19T09:25:18.954Z</time></trkpt><trkpt lat="41.86055270769357" lon="16.13297697839508"><ele>110.75</ele><time>2026-04-19T09:25:19.955Z</time></trkpt><trkpt lat="41.860682190062015" lon="16.13307224132118"><ele>110.0</ele><time>2026-04-19T09:25:20.955Z</time></trkpt><trkpt lat="41.860814376286875" lon="16.133176437675985"><ele>109.0</ele><time>2026-04-19T09:25:21.955Z</time></trkpt><trkpt lat="41.86094831411193" lon="16.133284018960804"><ele>108.0</ele><time>2026-04-19T09:25:22.956Z</time></trkpt><trkpt lat="41.86107360667887" lon="16.133381963685977"><ele>107.0</ele><time>2026-04-19T09:25:23.956Z</time></trkpt><trkpt lat="41.861200426293586" lon="16.133484207544562"><ele>106.0</ele><time>2026-04-19T09:25:24.956Z</time></trkpt><trkpt lat="41.861322671376165" lon="16.13357958348123"><ele>105.5</ele><time>2026-04-19T09:25:25.956Z</time></trkpt><trkpt lat="41.861445876934795" lon="16.13367201718202"><ele>105.0</ele><time>2026-04-19T09:25:26.957Z</time></trkpt><trkpt lat="41.86158290932816" lon="16.133752463885273"><ele>104.5</ele><time>2026-04-19T09:25:27.957Z</time></trkpt><trkpt lat="41.86172940059038" lon="16.133818932890122"><ele>104.0</ele><time>2026-04-19T09:25:28.957Z</time></trkpt><trkpt lat="41.86187643354736" lon="16.133885101739434"><ele>103.75</ele><time>2026-04-19T09:25:29.957Z</time></trkpt><trkpt lat="41.862012512987185" lon="16.133971450325376"><ele>103.5</ele><time>2026-04-19T09:25:30.958Z</time></trkpt><trkpt lat="41.862139150375256" lon="16.134070641412283"><ele>103.25</ele><time>2026-04-19T09:25:31.958Z</time></trkpt><trkpt lat="41.86226762085219" lon="16.13417320342056"><ele>103.0</ele><time>2026-04-19T09:25:32.958Z</time></trkpt><trkpt lat="41.862398223733166" lon="16.13427617277001"><ele>101.66666666666667</ele><time>2026-04-19T09:25:33.958Z</time></trkpt><trkpt lat="41.86253027628537" lon="16.134382869071242"><ele>100.33333333333334</ele><time>2026-04-19T09:25:34.958Z</time></trkpt><trkpt lat="41.86266251215772" lon="16.13449311114498"><ele>99.0</ele><time>2026-04-19T09:25:35.958Z</time></trkpt><trkpt lat="41.86278674743318" lon="16.134613611571"><ele>98.0</ele><time>2026-04-19T09:25:36.959Z</time></trkpt><trkpt lat="41.86291033595007" lon="16.1347431869957"><ele>97.0</ele><time>2026-04-19T09:25:37.959Z</time></trkpt><trkpt lat="41.86303614082795" lon="16.134874806182268"><ele>96.0</ele><time>2026-04-19T09:25:38.959Z</time></trkpt><trkpt lat="41.86315503658714" lon="16.135003728252507"><ele>95.0</ele><time>2026-04-19T09:25:39.959Z</time></trkpt><trkpt lat="41.86327626995366" lon="16.135135774601007"><ele>94.0</ele><time>2026-04-19T09:25:40.959Z</time></trkpt><trkpt lat="41.86339641781077" lon="16.135264899427415"><ele>93.0</ele><time>2026-04-19T09:25:41.959Z</time></trkpt><trkpt lat="41.86351151421881" lon="16.135393649096017"><ele>92.75</ele><time>2026-04-19T09:25:42.959Z</time></trkpt><trkpt lat="41.86361906412031" lon="16.13553504027661"><ele>92.5</ele><time>2026-04-19T09:25:43.959Z</time></trkpt><trkpt lat="41.86371052181889" lon="16.135694273285733"><ele>92.25</ele><time>2026-04-19T09:25:44.959Z</time></trkpt><trkpt lat="41.86379136298919" lon="16.135861157684335"><ele>92.0</ele><time>2026-04-19T09:25:45.96Z</time></trkpt><trkpt lat="41.86386888355114" lon="16.136036060806333"><ele>92.0</ele><time>2026-04-19T09:25:46.96Z</time></trkpt><trkpt lat="41.8639442938529" lon="16.136211772107036"><ele>92.0</ele><time>2026-04-19T09:25:47.96Z</time></trkpt><trkpt lat="41.86402002888932" lon="16.13639755984641"><ele>92.0</ele><time>2026-04-19T09:25:48.96Z</time></trkpt><trkpt lat="41.864098593845206" lon="16.136591977751202"><ele>92.0</ele><time>2026-04-19T09:25:49.96Z</time></trkpt><trkpt lat="41.86416803946861" lon="16.136784463239646"><ele>92.0</ele><time>2026-04-19T09:25:50.96Z</time></trkpt><trkpt lat="41.864238679406476" lon="16.136977234506457"><ele>92.0</ele><time>2026-04-19T09:25:51.96Z</time></trkpt><trkpt lat="41.864297690340194" lon="16.13716940444361"><ele>90.0</ele><time>2026-04-19T09:25:52.96Z</time></trkpt><trkpt lat="41.86435193656868" lon="16.137362643949935"><ele>88.0</ele><time>2026-04-19T09:25:53.96Z</time></trkpt><trkpt lat="41.86438562185959" lon="16.137566025842062"><ele>86.0</ele><time>2026-04-19T09:25:54.96Z</time></trkpt><trkpt lat="41.864398441435625" lon="16.13776458804024"><ele>86.0</ele><time>2026-04-19T09:25:55.96Z</time></trkpt><trkpt lat="41.864394265964066" lon="16.13795131110693"><ele>86.0</ele><time>2026-04-19T09:25:56.96Z</time></trkpt><trkpt lat="41.86439323276472" lon="16.138108239526964"><ele>86.0</ele><time>2026-04-19T09:25:57.96Z</time></trkpt><trkpt lat="41.8644282658184" lon="16.138251366418814"><ele>86.0</ele><time>2026-04-19T09:25:58.96Z</time></trkpt><trkpt lat="41.864506137009315" lon="16.138385725793817"><ele>85.66666666666667</ele><time>2026-04-19T09:25:59.96Z</time></trkpt><trkpt lat="41.864605121872714" lon="16.138529053721236"><ele>85.33333333333333</ele><time>2026-04-19T09:26:00.96Z</time></trkpt><trkpt lat="41.86471791213949" lon="16.13868317654573"><ele>85.0</ele><time>2026-04-19T09:26:01.96Z</time></trkpt><trkpt lat="41.864836817282345" lon="16.138832366212046"><ele>85.0</ele><time>2026-04-19T09:26:02.96Z</time></trkpt><trkpt lat="41.864941885746774" lon="16.13896660608299"><ele>85.0</ele><time>2026-04-19T09:26:03.96Z</time></trkpt><trkpt lat="41.86504025554718" lon="16.13910277845206"><ele>85.0</ele><time>2026-04-19T09:26:04.96Z</time></trkpt><trkpt lat="41.8651353764234" lon="16.139234148503313"><ele>85.0</ele><time>2026-04-19T09:26:05.96Z</time></trkpt><trkpt lat="41.86522976587292" lon="16.139359545043792"><ele>84.5</ele><time>2026-04-19T09:26:06.961Z</time></trkpt><trkpt lat="41.86532239773244" lon="16.139483565721232"><ele>84.0</ele><time>2026-04-19T09:26:07.961Z</time></trkpt><trkpt lat="41.865417924153654" lon="16.139597958745448"><ele>83.5</ele><time>2026-04-19T09:26:08.961Z</time></trkpt><trkpt lat="41.86549055974413" lon="16.139723338272958"><ele>83.0</ele><time>2026-04-19T09:26:09.961Z</time></trkpt><trkpt lat="41.8655403945802" lon="16.13986050607117"><ele>83.25</ele><time>2026-04-19T09:26:10.961Z</time></trkpt><trkpt lat="41.865578378493446" lon="16.140013668725953"><ele>83.5</ele><time>2026-04-19T09:26:11.961Z</time></trkpt><trkpt lat="41.86559750139546" lon="16.140181471155433"><ele>83.75</ele><time>2026-04-19T09:26:12.961Z</time></trkpt><trkpt lat="41.865618855197134" lon="16.140352826586582"><ele>84.0</ele><time>2026-04-19T09:26:13.961Z</time></trkpt><trkpt lat="41.865652165554465" lon="16.140527114563824"><ele>84.0</ele><time>2026-04-19T09:26:14.961Z</time></trkpt><trkpt lat="41.865691605710246" lon="16.140704472879772"><ele>84.0</ele><time>2026-04-19T09:26:15.961Z</time></trkpt><trkpt lat="41.86573229180611" lon="16.140871449271184"><ele>84.0</ele><time>2026-04-19T09:26:16.961Z</time></trkpt><trkpt lat="41.86577596772406" lon="16.141033515780798"><ele>84.0</ele><time>2026-04-19T09:26:17.96Z</time></trkpt><trkpt lat="41.865827937025145" lon="16.141174117367733"><ele>83.80000000000001</ele><time>2026-04-19T09:26:18.96Z</time></trkpt><trkpt lat="41.86588129099726" lon="16.141304890708273"><ele>83.60000000000001</ele><time>2026-04-19T09:26:19.96Z</time></trkpt><trkpt lat="41.86594588392338" lon="16.141422378096316"><ele>83.4</ele><time>2026-04-19T09:26:20.96Z</time></trkpt><trkpt lat="41.86601797487213" lon="16.141530833482758"><ele>83.2</ele><time>2026-04-19T09:26:21.96Z</time></trkpt><trkpt lat="41.86610971505812" lon="16.14161987964595"><ele>83.0</ele><time>2026-04-19T09:26:22.96Z</time></trkpt><trkpt lat="41.866213217980054" lon="16.141667256872054"><ele>81.5</ele><time>2026-04-19T09:26:23.961Z</time></trkpt><trkpt lat="41.866339524890094" lon="16.141693124736666"><ele>80.0</ele><time>2026-04-19T09:26:24.96Z</time></trkpt><trkpt lat="41.86647158096568" lon="16.14171870324735"><ele>78.5</ele><time>2026-04-19T09:26:25.96Z</time></trkpt><trkpt lat="41.866608087499124" lon="16.141760609528607"><ele>77.0</ele><time>2026-04-19T09:26:26.96Z</time></trkpt><trkpt lat="41.866741477271496" lon="16.141821361904512"><ele>75.75</ele><time>2026-04-19T09:26:27.961Z</time></trkpt><trkpt lat="41.86687639112896" lon="16.14189293239906"><ele>74.5</ele><time>2026-04-19T09:26:28.961Z</time></trkpt><trkpt lat="41.86701054810244" lon="16.141961833209788"><ele>73.25</ele><time>2026-04-19T09:26:29.96Z</time></trkpt><trkpt lat="41.8671443330509" lon="16.14202970766928"><ele>72.0</ele><time>2026-04-19T09:26:30.96Z</time></trkpt><trkpt lat="41.86728253999521" lon="16.142097267877833"><ele>72.0</ele><time>2026-04-19T09:26:31.96Z</time></trkpt><trkpt lat="41.86742201438112" lon="16.142161818999305"><ele>72.0</ele><time>2026-04-19T09:26:32.96Z</time></trkpt><trkpt lat="41.867564773642535" lon="16.14223044988129"><ele>72.0</ele><time>2026-04-19T09:26:33.96Z</time></trkpt><trkpt lat="41.86771255928878" lon="16.142295134714352"><ele>71.0</ele><time>2026-04-19T09:26:34.96Z</time></trkpt><trkpt lat="41.86785309327593" lon="16.142364932321623"><ele>70.0</ele><time>2026-04-19T09:26:35.96Z</time></trkpt><trkpt lat="41.86798486813267" lon="16.142434324648665"><ele>69.0</ele><time>2026-04-19T09:26:36.96Z</time></trkpt><trkpt lat="41.86810800039981" lon="16.14251801299632"><ele>68.0</ele><time>2026-04-19T09:26:37.96Z</time></trkpt><trkpt lat="41.86821762051614" lon="16.142614172910132"><ele>67.5</ele><time>2026-04-19T09:26:38.96Z</time></trkpt><trkpt lat="41.8683217285378" lon="16.14271775423226"><ele>67.0</ele><time>2026-04-19T09:26:39.96Z</time></trkpt><trkpt lat="41.86842223698571" lon="16.14282006189662"><ele>66.5</ele><time>2026-04-19T09:26:40.96Z</time></trkpt><trkpt lat="41.8685160895419" lon="16.142934788655946"><ele>66.0</ele><time>2026-04-19T09:26:41.96Z</time></trkpt><trkpt lat="41.86861452877968" lon="16.143048177652062"><ele>66.0</ele><time>2026-04-19T09:26:42.96Z</time></trkpt><trkpt lat="41.868718629268834" lon="16.143172456840233"><ele>66.0</ele><time>2026-04-19T09:26:43.96Z</time></trkpt><trkpt lat="41.86881632112874" lon="16.143307839863155"><ele>66.0</ele><time>2026-04-19T09:26:44.96Z</time></trkpt><trkpt lat="41.8689045227863" lon="16.143453306229468"><ele>66.0</ele><time>2026-04-19T09:26:45.96Z</time></trkpt><trkpt lat="41.86898483946243" lon="16.143609507838633"><ele>65.0</ele><time>2026-04-19T09:26:46.96Z</time></trkpt><trkpt lat="41.86906224876001" lon="16.143781679831882"><ele>64.0</ele><time>2026-04-19T09:26:47.96Z</time></trkpt><trkpt lat="41.86913102594171" lon="16.143953284357323"><ele>63.0</ele><time>2026-04-19T09:26:48.96Z</time></trkpt><trkpt lat="41.86920844516322" lon="16.144112324331036"><ele>62.0</ele><time>2026-04-19T09:26:49.96Z</time></trkpt><trkpt lat="41.8692813952175" lon="16.144274135774538"><ele>61.25</ele><time>2026-04-19T09:26:50.96Z</time></trkpt><trkpt lat="41.86935319082364" lon="16.144416990911683"><ele>60.5</ele><time>2026-04-19T09:26:51.96Z</time></trkpt><trkpt lat="41.86943094869739" lon="16.144578394540133"><ele>59.75</ele><time>2026-04-19T09:26:52.96Z</time></trkpt><trkpt lat="41.86950899873466" lon="16.144715189548812"><ele>59.0</ele><time>2026-04-19T09:26:53.96Z</time></trkpt><trkpt lat="41.86960037605496" lon="16.144869648228447"><ele>58.5</ele><time>2026-04-19T09:26:54.96Z</time></trkpt><trkpt lat="41.869693360427824" lon="16.1450164727873"><ele>58.0</ele><time>2026-04-19T09:26:55.96Z</time></trkpt><trkpt lat="41.86979593617852" lon="16.14516642706284"><ele>57.5</ele><time>2026-04-19T09:26:56.96Z</time></trkpt><trkpt lat="41.86989949408268" lon="16.14530637718596"><ele>57.0</ele><time>2026-04-19T09:26:57.96Z</time></trkpt><trkpt lat="41.87001685873125" lon="16.14544007084041"><ele>57.0</ele><time>2026-04-19T09:26:58.96Z</time></trkpt><trkpt lat="41.870136722419964" lon="16.145570586885647"><ele>57.0</ele><time>2026-04-19T09:26:59.96Z</time></trkpt><trkpt lat="41.87025500748313" lon="16.14569420733233"><ele>57.0</ele><time>2026-04-19T09:27:00.96Z</time></trkpt><trkpt lat="41.87038228218627" lon="16.14580465668827"><ele>56.5</ele><time>2026-04-19T09:27:01.96Z</time></trkpt><trkpt lat="41.8705062846054" lon="16.145916356219573"><ele>56.0</ele><time>2026-04-19T09:27:02.96Z</time></trkpt><trkpt lat="41.87062368180367" lon="16.146024886232357"><ele>55.5</ele><time>2026-04-19T09:27:03.96Z</time></trkpt><trkpt lat="41.87073789880705" lon="16.146127834951223"><ele>55.0</ele><time>2026-04-19T09:27:04.96Z</time></trkpt><trkpt lat="41.87084437278016" lon="16.146224042254293"><ele>54.75</ele><time>2026-04-19T09:27:05.96Z</time></trkpt><trkpt lat="41.87094945414283" lon="16.146325782603924"><ele>54.5</ele><time>2026-04-19T09:27:06.96Z</time></trkpt><trkpt lat="41.871043312649135" lon="16.146445486501822"><ele>54.25</ele><time>2026-04-19T09:27:07.96Z</time></trkpt><trkpt lat="41.87113020392041" lon="16.146572137103462"><ele>54.0</ele><time>2026-04-19T09:27:08.96Z</time></trkpt><trkpt lat="41.87120492553433" lon="16.146717329548647"><ele>53.5</ele><time>2026-04-19T09:27:09.96Z</time></trkpt><trkpt lat="41.87127507562364" lon="16.146877054734922"><ele>53.0</ele><time>2026-04-19T09:27:10.96Z</time></trkpt><trkpt lat="41.87134304806896" lon="16.14704673744264"><ele>52.5</ele><time>2026-04-19T09:27:11.96Z</time></trkpt><trkpt lat="41.87141154798948" lon="16.14720748225228"><ele>52.0</ele><time>2026-04-19T09:27:12.96Z</time></trkpt><trkpt lat="41.87147874902771" lon="16.14735708005025"><ele>51.25</ele><time>2026-04-19T09:27:13.96Z</time></trkpt><trkpt lat="41.87153962637869" lon="16.14752821237045"><ele>50.5</ele><time>2026-04-19T09:27:14.961Z</time></trkpt><trkpt lat="41.87159000439406" lon="16.147712604328074"><ele>49.75</ele><time>2026-04-19T09:27:15.961Z</time></trkpt><trkpt lat="41.87161595370962" lon="16.14790089741519"><ele>49.0</ele><time>2026-04-19T09:27:16.961Z</time></trkpt><trkpt lat="41.87164662494241" lon="16.14810584686506"><ele>48.75</ele><time>2026-04-19T09:27:17.961Z</time></trkpt><trkpt lat="41.871667814256966" lon="16.14830747547593"><ele>48.5</ele><time>2026-04-19T09:27:18.961Z</time></trkpt><trkpt lat="41.87170484612544" lon="16.14849362245692"><ele>48.25</ele><time>2026-04-19T09:27:19.961Z</time></trkpt><trkpt lat="41.871751395247095" lon="16.148661226013193"><ele>48.0</ele><time>2026-04-19T09:27:20.961Z</time></trkpt><trkpt lat="41.87181503612863" lon="16.148833892105923"><ele>48.0</ele><time>2026-04-19T09:27:21.961Z</time></trkpt><trkpt lat="41.87187666286415" lon="16.148993348087977"><ele>48.0</ele><time>2026-04-19T09:27:22.961Z</time></trkpt><trkpt lat="41.8719528389311" lon="16.149152465145292"><ele>48.0</ele><time>2026-04-19T09:27:23.961Z</time></trkpt><trkpt lat="41.8720099424424" lon="16.14929939595199"><ele>48.0</ele><time>2026-04-19T09:27:24.961Z</time></trkpt><trkpt lat="41.872056586296466" lon="16.149449778262515"><ele>48.25</ele><time>2026-04-19T09:27:25.961Z</time></trkpt><trkpt lat="41.8720897581057" lon="16.149608276015332"><ele>48.5</ele><time>2026-04-19T09:27:26.961Z</time></trkpt><trkpt lat="41.87210830254038" lon="16.1497697984677"><ele>48.75</ele><time>2026-04-19T09:27:27.961Z</time></trkpt><trkpt lat="41.87209469751259" lon="16.14995040114883"><ele>49.0</ele><time>2026-04-19T09:27:28.961Z</time></trkpt><trkpt lat="41.872056992016006" lon="16.150117004741503"><ele>49.800000000000004</ele><time>2026-04-19T09:27:29.961Z</time></trkpt><trkpt lat="41.87201642506759" lon="16.150275694224963"><ele>50.6</ele><time>2026-04-19T09:27:30.961Z</time></trkpt><trkpt lat="41.87198523561502" lon="16.15041539231926"><ele>51.4</ele><time>2026-04-19T09:27:31.961Z</time></trkpt><trkpt lat="41.87194983154394" lon="16.150549053286962"><ele>52.2</ele><time>2026-04-19T09:27:32.961Z</time></trkpt><trkpt lat="41.87192624711975" lon="16.15067517377522"><ele>53.0</ele><time>2026-04-19T09:27:33.961Z</time></trkpt><trkpt lat="41.8719026950177" lon="16.150786954389677"><ele>53.50000000000001</ele><time>2026-04-19T09:27:34.961Z</time></trkpt><trkpt lat="41.87188102967648" lon="16.150891847424873"><ele>54.0</ele><time>2026-04-19T09:27:35.961Z</time></trkpt><trkpt lat="41.87186025702807" lon="16.150988092368724"><ele>54.5</ele><time>2026-04-19T09:27:36.961Z</time></trkpt><trkpt lat="41.871827877935104" lon="16.151111427221032"><ele>55.0</ele><time>2026-04-19T09:27:38.961Z</time></trkpt><trkpt lat="41.871804125416666" lon="16.151198565191784"><ele>55.50000000000001</ele><time>2026-04-19T09:27:43.961Z</time></trkpt><trkpt lat="41.87183748252589" lon="16.151292262462686"><ele>56.0</ele><time>2026-04-19T09:27:46.961Z</time></trkpt><trkpt lat="41.87186206192732" lon="16.151370273767473"><ele>56.00000000000001</ele><time>2026-04-19T09:27:51.961Z</time></trkpt><trkpt lat="41.87184520821303" lon="16.151474126979018"><ele>56.0</ele><time>2026-04-19T09:27:54.961Z</time></trkpt><trkpt lat="41.87181638040802" lon="16.151569271178676"><ele>56.0</ele><time>2026-04-19T09:28:04.961Z</time></trkpt><trkpt lat="41.87181114169661" lon="16.151678204605474"><ele>56.0</ele><time>2026-04-19T09:28:06.961Z</time></trkpt><trkpt lat="41.871822111722494" lon="16.15180671073995"><ele>56.00000000000001</ele><time>2026-04-19T09:28:08.961Z</time></trkpt><trkpt lat="41.87183146076338" lon="16.15194320911583"><ele>56.0</ele><time>2026-04-19T09:28:10.961Z</time></trkpt><trkpt lat="41.871838712295165" lon="16.152078024913305"><ele>56.333333333333336</ele><time>2026-04-19T09:28:12.961Z</time></trkpt><trkpt lat="41.871864856581126" lon="16.152244668223776"><ele>56.66666666666667</ele><time>2026-04-19T09:28:14.961Z</time></trkpt><trkpt lat="41.87187561042559" lon="16.15232977104225"><ele>57.0</ele><time>2026-04-19T09:28:15.961Z</time></trkpt><trkpt lat="41.87188587190433" lon="16.152439275007808"><ele>57.33333333333333</ele><time>2026-04-19T09:28:16.961Z</time></trkpt><trkpt lat="41.87188984906594" lon="16.152549450412675"><ele>57.666666666666664</ele><time>2026-04-19T09:28:17.961Z</time></trkpt><trkpt lat="41.87191528899265" lon="16.152645448112057"><ele>58.0</ele><time>2026-04-19T09:28:18.961Z</time></trkpt><trkpt lat="41.87195684434945" lon="16.152761308490692"><ele>58.0</ele><time>2026-04-19T09:28:19.961Z</time></trkpt><trkpt lat="41.87198139590756" lon="16.152863362184366"><ele>58.0</ele><time>2026-04-19T09:28:20.961Z</time></trkpt><trkpt lat="41.87200339422202" lon="16.152952884010666"><ele>58.0</ele><time>2026-04-19T09:28:21.961Z</time></trkpt><trkpt lat="41.872044461284695" lon="16.153119911625375"><ele>58.0</ele><time>2026-04-19T09:28:23.96Z</time></trkpt><trkpt lat="41.87207569390064" lon="16.153261839854864"><ele>58.0</ele><time>2026-04-19T09:28:25.96Z</time></trkpt><trkpt lat="41.87205502821506" lon="16.153378523638462"><ele>57.99999999999999</ele><time>2026-04-19T09:28:27.96Z</time></trkpt><trkpt lat="41.871993215945075" lon="16.153477754225044"><ele>58.0</ele><time>2026-04-19T09:28:29.96Z</time></trkpt><trkpt lat="41.87194415099156" lon="16.15355606626265"><ele>58.0</ele><time>2026-04-19T09:28:30.961Z</time></trkpt><trkpt lat="41.87190460036554" lon="16.15363489977769"><ele>58.0</ele><time>2026-04-19T09:28:31.961Z</time></trkpt><trkpt lat="41.87185124656219" lon="16.153734323382558"><ele>57.99999999999999</ele><time>2026-04-19T09:28:32.96Z</time></trkpt><trkpt lat="41.87179747794417" lon="16.153819385023834"><ele>58.0</ele><time>2026-04-19T09:28:33.961Z</time></trkpt><trkpt lat="41.87175326047027" lon="16.153902891835"><ele>58.49999999999999</ele><time>2026-04-19T09:28:34.961Z</time></trkpt><trkpt lat="41.87172149015006" lon="16.15400340682907"><ele>59.0</ele><time>2026-04-19T09:28:35.96Z</time></trkpt><trkpt lat="41.87169155642777" lon="16.15411063853859"><ele>59.5</ele><time>2026-04-19T09:28:36.961Z</time></trkpt><trkpt lat="41.87166965077833" lon="16.154230743096274"><ele>60.0</ele><time>2026-04-19T09:28:37.961Z</time></trkpt><trkpt lat="41.87164933803071" lon="16.15433238828038"><ele>60.49999999999999</ele><time>2026-04-19T09:28:38.961Z</time></trkpt><trkpt lat="41.87161722351979" lon="16.154462459234185"><ele>61.0</ele><time>2026-04-19T09:28:39.961Z</time></trkpt><trkpt lat="41.87158951520478" lon="16.154567865423786"><ele>61.99999999999999</ele><time>2026-04-19T09:28:40.961Z</time></trkpt><trkpt lat="41.871558304472465" lon="16.154671850044977"><ele>63.0</ele><time>2026-04-19T09:28:41.961Z</time></trkpt><trkpt lat="41.87153021894057" lon="16.154780169233696"><ele>64.0</ele><time>2026-04-19T09:28:42.961Z</time></trkpt><trkpt lat="41.87149476677633" lon="16.1548871768821"><ele>65.0</ele><time>2026-04-19T09:28:43.961Z</time></trkpt><trkpt lat="41.871459116619484" lon="16.15498742811732"><ele>66.0</ele><time>2026-04-19T09:28:44.961Z</time></trkpt><trkpt lat="41.87142106898651" lon="16.155096519239628"><ele>67.0</ele><time>2026-04-19T09:28:45.961Z</time></trkpt><trkpt lat="41.87139283720115" lon="16.155179838386168"><ele>67.16666666666666</ele><time>2026-04-19T09:28:46.961Z</time></trkpt><trkpt lat="41.871359484485296" lon="16.15526291170117"><ele>67.33333333333333</ele><time>2026-04-19T09:28:47.961Z</time></trkpt><trkpt lat="41.87132316008167" lon="16.155335540791974"><ele>67.5</ele><time>2026-04-19T09:28:48.961Z</time></trkpt><trkpt lat="41.871269623227754" lon="16.155449311423478"><ele>67.66666666666667</ele><time>2026-04-19T09:28:50.961Z</time></trkpt><trkpt lat="41.87123324048651" lon="16.15555724768088"><ele>67.83333333333334</ele><time>2026-04-19T09:28:52.961Z</time></trkpt><trkpt lat="41.87121994705623" lon="16.15568032449465"><ele>68.0</ele><time>2026-04-19T09:28:55.961Z</time></trkpt><trkpt lat="41.87117022424148" lon="16.155775374685838"><ele>68.0</ele><time>2026-04-19T09:28:58.961Z</time></trkpt><trkpt lat="41.871169044322926" lon="16.155868617944694"><ele>68.0</ele><time>2026-04-19T09:29:02.961Z</time></trkpt><trkpt lat="41.871258036266006" lon="16.15589527039944"><ele>68.0</ele><time>2026-04-19T09:29:05.961Z</time></trkpt><trkpt lat="41.87134732954863" lon="16.155850122468145"><ele>68.0</ele><time>2026-04-19T09:29:07.961Z</time></trkpt><trkpt lat="41.87141719065426" lon="16.155813819864697"><ele>68.0</ele><time>2026-04-19T09:29:08.961Z</time></trkpt><trkpt lat="41.87150308862273" lon="16.155782878551896"><ele>68.0</ele><time>2026-04-19T09:29:09.961Z</time></trkpt><trkpt lat="41.87160906950022" lon="16.155763608369767"><ele>68.0</ele><time>2026-04-19T09:29:10.961Z</time></trkpt><trkpt lat="41.87171237504" lon="16.15574890312702"><ele>68.0</ele><time>2026-04-19T09:29:11.961Z</time></trkpt><trkpt lat="41.87181480639323" lon="16.15573641249945"><ele>68.0</ele><time>2026-04-19T09:29:12.961Z</time></trkpt><trkpt lat="41.8719119981709" lon="16.155741799092535"><ele>68.0</ele><time>2026-04-19T09:29:13.961Z</time></trkpt><trkpt lat="41.87198859320766" lon="16.1557826530109"><ele>68.0</ele><time>2026-04-19T09:29:14.961Z</time></trkpt><trkpt lat="41.87206754938995" lon="16.155826017653087"><ele>66.33333333333334</ele><time>2026-04-19T09:29:15.961Z</time></trkpt><trkpt lat="41.87212171041538" lon="16.155888453093045"><ele>64.66666666666667</ele><time>2026-04-19T09:29:16.961Z</time></trkpt><trkpt lat="41.87215368417519" lon="16.156004297802582"><ele>63.0</ele><time>2026-04-19T09:29:17.961Z</time></trkpt><trkpt lat="41.87219798388761" lon="16.156111685246668"><ele>61.33333333333333</ele><time>2026-04-19T09:29:18.961Z</time></trkpt><trkpt lat="41.87226055363282" lon="16.156198789572798"><ele>59.666666666666664</ele><time>2026-04-19T09:29:19.961Z</time></trkpt><trkpt lat="41.872316375234995" lon="16.156286595962747"><ele>58.0</ele><time>2026-04-19T09:29:20.961Z</time></trkpt><trkpt lat="41.87238844585358" lon="16.156382912765057"><ele>58.0</ele><time>2026-04-19T09:29:21.961Z</time></trkpt><trkpt lat="41.87246481573386" lon="16.156480837037797"><ele>58.0</ele><time>2026-04-19T09:29:22.961Z</time></trkpt><trkpt lat="41.872557147579535" lon="16.156579122969017"><ele>58.0</ele><time>2026-04-19T09:29:23.961Z</time></trkpt><trkpt lat="41.872624307409815" lon="16.156672585716436"><ele>58.0</ele><time>2026-04-19T09:29:24.961Z</time></trkpt><trkpt lat="41.87268562535547" lon="16.15673689918576"><ele>58.0</ele><time>2026-04-19T09:29:25.961Z</time></trkpt><trkpt lat="41.87274344272123" lon="16.156788759371505"><ele>59.166666666666664</ele><time>2026-04-19T09:29:26.961Z</time></trkpt><trkpt lat="41.87281974510717" lon="16.15686788003996"><ele>60.33333333333333</ele><time>2026-04-19T09:29:28.961Z</time></trkpt><trkpt lat="41.87289387071231" lon="16.156951704162676"><ele>61.5</ele><time>2026-04-19T09:29:31.961Z</time></trkpt><trkpt lat="41.87288116247406" lon="16.15706627881773"><ele>62.66666666666667</ele><time>2026-04-19T09:29:33.961Z</time></trkpt><trkpt lat="41.87284138167904" lon="16.157166055689782"><ele>63.833333333333336</ele><time>2026-04-19T09:29:34.961Z</time></trkpt><trkpt lat="41.87281564511228" lon="16.157272853325015"><ele>65.0</ele><time>2026-04-19T09:29:35.961Z</time></trkpt><trkpt lat="41.87280552525766" lon="16.157396090906392"><ele>65.66666666666667</ele><time>2026-04-19T09:29:36.961Z</time></trkpt><trkpt lat="41.87280115414073" lon="16.157515792171722"><ele>66.33333333333334</ele><time>2026-04-19T09:29:37.961Z</time></trkpt><trkpt lat="41.87281089862119" lon="16.157611118952502"><ele>67.0</ele><time>2026-04-19T09:29:38.961Z</time></trkpt><trkpt lat="41.872871425154" lon="16.15773498508885"><ele>67.66666666666667</ele><time>2026-04-19T09:29:40.961Z</time></trkpt><trkpt lat="41.8729270068998" lon="16.157804496445287"><ele>68.33333333333333</ele><time>2026-04-19T09:29:41.961Z</time></trkpt><trkpt lat="41.87299090188151" lon="16.157843745560825"><ele>69.0</ele><time>2026-04-19T09:29:42.961Z</time></trkpt><trkpt lat="41.87308983855829" lon="16.157842636973708"><ele>69.0</ele><time>2026-04-19T09:29:43.961Z</time></trkpt><trkpt lat="41.87320017228122" lon="16.157812379342072"><ele>69.0</ele><time>2026-04-19T09:29:44.961Z</time></trkpt><trkpt lat="41.87331408303147" lon="16.15777780911818"><ele>69.0</ele><time>2026-04-19T09:29:45.961Z</time></trkpt><trkpt lat="41.873401937613956" lon="16.157756363692613"><ele>69.0</ele><time>2026-04-19T09:29:46.961Z</time></trkpt><trkpt lat="41.87349638297039" lon="16.15769719242461"><ele>69.0</ele><time>2026-04-19T09:29:48.962Z</time></trkpt><trkpt lat="41.873551314429335" lon="16.157640919268072"><ele>69.14285714285714</ele><time>2026-04-19T09:29:50.962Z</time></trkpt><trkpt lat="41.873608197690615" lon="16.157596278935387"><ele>69.28571428571429</ele><time>2026-04-19T09:29:53.962Z</time></trkpt><trkpt lat="41.873661688949504" lon="16.15754454555808"><ele>69.42857142857143</ele><time>2026-04-19T09:29:56.962Z</time></trkpt><trkpt lat="41.8737200684838" lon="16.15747706219044"><ele>69.57142857142857</ele><time>2026-04-19T09:29:59.962Z</time></trkpt><trkpt lat="41.873788693052774" lon="16.157419248331564"><ele>69.71428571428572</ele><time>2026-04-19T09:30:01.962Z</time></trkpt><trkpt lat="41.87384297766455" lon="16.157371488236183"><ele>69.85714285714286</ele><time>2026-04-19T09:30:02.962Z</time></trkpt><trkpt lat="41.873899137828616" lon="16.15731912291131"><ele>70.0</ele><time>2026-04-19T09:30:03.962Z</time></trkpt><trkpt lat="41.87396310552061" lon="16.15725587061571"><ele>70.4</ele><time>2026-04-19T09:30:04.962Z</time></trkpt><trkpt lat="41.87404021912087" lon="16.157173545112382"><ele>70.8</ele><time>2026-04-19T09:30:05.962Z</time></trkpt><trkpt lat="41.87412984848763" lon="16.157101546354152"><ele>71.2</ele><time>2026-04-19T09:30:06.962Z</time></trkpt><trkpt lat="41.874215405738966" lon="16.15702432387171"><ele>71.6</ele><time>2026-04-19T09:30:07.962Z</time></trkpt><trkpt lat="41.874298554363854" lon="16.15694749011185"><ele>72.0</ele><time>2026-04-19T09:30:08.962Z</time></trkpt><trkpt lat="41.87438037559883" lon="16.156867141750826"><ele>73.16666666666667</ele><time>2026-04-19T09:30:09.962Z</time></trkpt><trkpt lat="41.87445212085267" lon="16.15680686619544"><ele>74.33333333333333</ele><time>2026-04-19T09:30:10.962Z</time></trkpt><trkpt lat="41.874530579579165" lon="16.156734444600268"><ele>75.5</ele><time>2026-04-19T09:30:11.962Z</time></trkpt><trkpt lat="41.87460379008809" lon="16.156667531449433"><ele>76.66666666666666</ele><time>2026-04-19T09:30:12.962Z</time></trkpt><trkpt lat="41.87468071812788" lon="16.156596757821234"><ele>77.83333333333333</ele><time>2026-04-19T09:30:13.962Z</time></trkpt><trkpt lat="41.87474330872036" lon="16.15652704054635"><ele>79.0</ele><time>2026-04-19T09:30:14.962Z</time></trkpt><trkpt lat="41.8747982398501" lon="16.156467972852038"><ele>79.0</ele><time>2026-04-19T09:30:15.962Z</time></trkpt><trkpt lat="41.874856695201245" lon="16.156420903733004"><ele>79.0</ele><time>2026-04-19T09:30:16.962Z</time></trkpt><trkpt lat="41.874925184473554" lon="16.15639129626077"><ele>79.0</ele><time>2026-04-19T09:30:17.962Z</time></trkpt><trkpt lat="41.87499329825593" lon="16.156379808838732"><ele>79.0</ele><time>2026-04-19T09:30:18.962Z</time></trkpt><trkpt lat="41.87505881172558" lon="16.15643122060325"><ele>79.0</ele><time>2026-04-19T09:30:19.962Z</time></trkpt><trkpt lat="41.87512237216986" lon="16.156533739027036"><ele>79.0</ele><time>2026-04-19T09:30:20.962Z</time></trkpt><trkpt lat="41.87517146021152" lon="16.15664556143601"><ele>81.80000000000001</ele><time>2026-04-19T09:30:21.962Z</time></trkpt><trkpt lat="41.87520565885712" lon="16.156761321914697"><ele>84.60000000000001</ele><time>2026-04-19T09:30:22.962Z</time></trkpt><trkpt lat="41.875270141057484" lon="16.156864043656118"><ele>87.4</ele><time>2026-04-19T09:30:23.962Z</time></trkpt><trkpt lat="41.87535334037095" lon="16.156973173177352"><ele>90.2</ele><time>2026-04-19T09:30:24.962Z</time></trkpt><trkpt lat="41.875411435149985" lon="16.157049558679446"><ele>93.0</ele><time>2026-04-19T09:30:25.962Z</time></trkpt><trkpt lat="41.875459588113735" lon="16.15713501428552"><ele>93.0</ele><time>2026-04-19T09:30:26.962Z</time></trkpt><trkpt lat="41.87551383982543" lon="16.1572082405905"><ele>93.0</ele><time>2026-04-19T09:30:27.962Z</time></trkpt><trkpt lat="41.87557012824097" lon="16.157275421526453"><ele>93.0</ele><time>2026-04-19T09:30:28.962Z</time></trkpt><trkpt lat="41.87562444611908" lon="16.15734368737525"><ele>93.0</ele><time>2026-04-19T09:30:29.961Z</time></trkpt><trkpt lat="41.875681497492295" lon="16.15741142144352"><ele>93.0</ele><time>2026-04-19T09:30:30.96Z</time></trkpt><trkpt lat="41.8757443036251" lon="16.157492816840872"><ele>93.0</ele><time>2026-04-19T09:30:31.96Z</time></trkpt><trkpt lat="41.87581652471427" lon="16.15757818833282"><ele>92.60000000000001</ele><time>2026-04-19T09:30:32.961Z</time></trkpt><trkpt lat="41.875883271431434" lon="16.157675940154395"><ele>92.2</ele><time>2026-04-19T09:30:33.96Z</time></trkpt><trkpt lat="41.87596298230942" lon="16.15777810929386"><ele>91.8</ele><time>2026-04-19T09:30:34.96Z</time></trkpt><trkpt lat="41.87604652962626" lon="16.157888138361976"><ele>91.4</ele><time>2026-04-19T09:30:35.961Z</time></trkpt><trkpt lat="41.876134837411314" lon="16.15799696486525"><ele>91.0</ele><time>2026-04-19T09:30:36.961Z</time></trkpt><trkpt lat="41.87621838398866" lon="16.158105546697517"><ele>90.19999999999999</ele><time>2026-04-19T09:30:37.961Z</time></trkpt><trkpt lat="41.876287881268766" lon="16.158210172917663"><ele>89.39999999999999</ele><time>2026-04-19T09:30:38.96Z</time></trkpt><trkpt lat="41.87635293384143" lon="16.15831908598624"><ele>88.6</ele><time>2026-04-19T09:30:39.96Z</time></trkpt><trkpt lat="41.876417282651914" lon="16.158413305494655"><ele>87.8</ele><time>2026-04-19T09:30:40.96Z</time></trkpt><trkpt lat="41.876488111478636" lon="16.15849168007181"><ele>87.0</ele><time>2026-04-19T09:30:41.961Z</time></trkpt><trkpt lat="41.87657111413697" lon="16.158564193310628"><ele>87.0</ele><time>2026-04-19T09:30:42.961Z</time></trkpt><trkpt lat="41.87666545304928" lon="16.158626823699496"><ele>87.0</ele><time>2026-04-19T09:30:43.961Z</time></trkpt><trkpt lat="41.876760995227436" lon="16.158666374964177"><ele>87.0</ele><time>2026-04-19T09:30:44.961Z</time></trkpt><trkpt lat="41.87685636438838" lon="16.15869514422285"><ele>87.0</ele><time>2026-04-19T09:30:45.961Z</time></trkpt><trkpt lat="41.87695798618525" lon="16.158725073918593"><ele>87.0</ele><time>2026-04-19T09:30:46.961Z</time></trkpt><trkpt lat="41.87706340055369" lon="16.158759541741965"><ele>84.25</ele><time>2026-04-19T09:30:47.961Z</time></trkpt><trkpt lat="41.8771795777857" lon="16.158793195761163"><ele>81.5</ele><time>2026-04-19T09:30:48.961Z</time></trkpt><trkpt lat="41.8773003906251" lon="16.1588256173095"><ele>78.75</ele><time>2026-04-19T09:30:49.961Z</time></trkpt><trkpt lat="41.87742501648455" lon="16.1588585621945"><ele>76.0</ele><time>2026-04-19T09:30:50.961Z</time></trkpt><trkpt lat="41.87755176865689" lon="16.158894672456498"><ele>77.0</ele><time>2026-04-19T09:30:51.961Z</time></trkpt><trkpt lat="41.877670849720445" lon="16.158924914234383"><ele>78.0</ele><time>2026-04-19T09:30:52.961Z</time></trkpt><trkpt lat="41.87778537070577" lon="16.158952758512235"><ele>79.0</ele><time>2026-04-19T09:30:53.961Z</time></trkpt><trkpt lat="41.87789472197563" lon="16.158980684085282"><ele>80.0</ele><time>2026-04-19T09:30:54.961Z</time></trkpt><trkpt lat="41.87800708376965" lon="16.159017369612037"><ele>80.25</ele><time>2026-04-19T09:30:55.961Z</time></trkpt><trkpt lat="41.87812526614807" lon="16.15905572220844"><ele>80.5</ele><time>2026-04-19T09:30:56.961Z</time></trkpt><trkpt lat="41.87824439598132" lon="16.159088504051546"><ele>80.75</ele><time>2026-04-19T09:30:57.961Z</time></trkpt><trkpt lat="41.878364542323226" lon="16.159064602595734"><ele>81.0</ele><time>2026-04-19T09:30:58.961Z</time></trkpt><trkpt lat="41.87848173411412" lon="16.15900768048658"><ele>82.25</ele><time>2026-04-19T09:30:59.961Z</time></trkpt><trkpt lat="41.87859360188044" lon="16.15892862181858"><ele>83.5</ele><time>2026-04-19T09:31:00.961Z</time></trkpt><trkpt lat="41.87868965122058" lon="16.158845603956017"><ele>84.75</ele><time>2026-04-19T09:31:01.961Z</time></trkpt><trkpt lat="41.878786569390144" lon="16.158758432716894"><ele>86.0</ele><time>2026-04-19T09:31:02.961Z</time></trkpt><trkpt lat="41.87887510031887" lon="16.15865109878348"><ele>86.0</ele><time>2026-04-19T09:31:03.961Z</time></trkpt><trkpt lat="41.878963345463546" lon="16.158545563961887"><ele>86.0</ele><time>2026-04-19T09:31:04.961Z</time></trkpt><trkpt lat="41.879054153970955" lon="16.158427528810183"><ele>86.0</ele><time>2026-04-19T09:31:05.961Z</time></trkpt><trkpt lat="41.87914969097073" lon="16.158316599423774"><ele>86.0</ele><time>2026-04-19T09:31:06.961Z</time></trkpt><trkpt lat="41.879251454187695" lon="16.158206359611526"><ele>87.25</ele><time>2026-04-19T09:31:07.961Z</time></trkpt><trkpt lat="41.87935412517177" lon="16.158096110678656"><ele>88.5</ele><time>2026-04-19T09:31:08.961Z</time></trkpt><trkpt lat="41.879461953377096" lon="16.158002739245468"><ele>89.75</ele><time>2026-04-19T09:31:09.961Z</time></trkpt><trkpt lat="41.879583019259535" lon="16.157921081225794"><ele>91.0</ele><time>2026-04-19T09:31:10.961Z</time></trkpt><trkpt lat="41.879696618547555" lon="16.15786994871309"><ele>91.0</ele><time>2026-04-19T09:31:11.961Z</time></trkpt><trkpt lat="41.87981247880484" lon="16.157820442757284"><ele>91.0</ele><time>2026-04-19T09:31:12.961Z</time></trkpt><trkpt lat="41.879914738553055" lon="16.157770581504515"><ele>91.0</ele><time>2026-04-19T09:31:13.961Z</time></trkpt><trkpt lat="41.880014506109916" lon="16.157733562157105"><ele>91.0</ele><time>2026-04-19T09:31:14.961Z</time></trkpt><trkpt lat="41.8801254046506" lon="16.157713036290442"><ele>91.0</ele><time>2026-04-19T09:31:15.961Z</time></trkpt><trkpt lat="41.880236685495234" lon="16.157727465480214"><ele>91.4</ele><time>2026-04-19T09:31:16.961Z</time></trkpt><trkpt lat="41.88034860123075" lon="16.157755524417887"><ele>91.8</ele><time>2026-04-19T09:31:17.961Z</time></trkpt><trkpt lat="41.88045367000671" lon="16.157780152622617"><ele>92.2</ele><time>2026-04-19T09:31:18.961Z</time></trkpt><trkpt lat="41.88055610853504" lon="16.15780362123291"><ele>92.60000000000001</ele><time>2026-04-19T09:31:19.961Z</time></trkpt><trkpt lat="41.8806634135317" lon="16.15781725403645"><ele>93.0</ele><time>2026-04-19T09:31:20.961Z</time></trkpt><trkpt lat="41.88076404817671" lon="16.157819439445564"><ele>93.0</ele><time>2026-04-19T09:31:21.961Z</time></trkpt><trkpt lat="41.88085767324708" lon="16.157796677662823"><ele>93.0</ele><time>2026-04-19T09:31:22.961Z</time></trkpt><trkpt lat="41.88094500574707" lon="16.157748108322973"><ele>93.0</ele><time>2026-04-19T09:31:24.961Z</time></trkpt><trkpt lat="41.88101054445719" lon="16.157696717699505"><ele>93.0</ele><time>2026-04-19T09:31:29.961Z</time></trkpt><trkpt lat="41.881059720804366" lon="16.15762490493585"><ele>93.0</ele><time>2026-04-19T09:31:39.962Z</time></trkpt><trkpt lat="41.88112673359099" lon="16.15764214883918"><ele>93.0</ele><time>2026-04-19T09:31:43.962Z</time></trkpt><trkpt lat="41.8811829415831" lon="16.157759076857737"><ele>93.16666666666667</ele><time>2026-04-19T09:31:45.962Z</time></trkpt><trkpt lat="41.88120935006027" lon="16.157837279508684"><ele>93.33333333333333</ele><time>2026-04-19T09:31:46.962Z</time></trkpt><trkpt lat="41.881252020824434" lon="16.157920795580182"><ele>93.5</ele><time>2026-04-19T09:31:47.962Z</time></trkpt><trkpt lat="41.88128217323142" lon="16.15801387942063"><ele>93.66666666666666</ele><time>2026-04-19T09:31:48.962Z</time></trkpt><trkpt lat="41.88132553627825" lon="16.158128178187443"><ele>93.83333333333333</ele><time>2026-04-19T09:31:49.962Z</time></trkpt><trkpt lat="41.88136630248657" lon="16.15825074961679"><ele>94.0</ele><time>2026-04-19T09:31:50.962Z</time></trkpt><trkpt lat="41.881402017923484" lon="16.15838375525852"><ele>94.0</ele><time>2026-04-19T09:31:51.962Z</time></trkpt><trkpt lat="41.881448720556065" lon="16.15851794590234"><ele>94.0</ele><time>2026-04-19T09:31:52.962Z</time></trkpt><trkpt lat="41.88149604948236" lon="16.158662615106824"><ele>94.0</ele><time>2026-04-19T09:31:53.962Z</time></trkpt><trkpt lat="41.88154368471824" lon="16.158806344412177"><ele>94.0</ele><time>2026-04-19T09:31:54.962Z</time></trkpt><trkpt lat="41.88160115661061" lon="16.15892891362704"><ele>92.6</ele><time>2026-04-19T09:31:55.962Z</time></trkpt><trkpt lat="41.881654048314815" lon="16.159051108109278"><ele>91.2</ele><time>2026-04-19T09:31:56.962Z</time></trkpt><trkpt lat="41.88170945391935" lon="16.15917151883897"><ele>89.8</ele><time>2026-04-19T09:31:57.962Z</time></trkpt><trkpt lat="41.881761389438196" lon="16.159291151377836"><ele>88.39999999999999</ele><time>2026-04-19T09:31:58.962Z</time></trkpt><trkpt lat="41.881817048308825" lon="16.159411394129197"><ele>87.0</ele><time>2026-04-19T09:31:59.962Z</time></trkpt><trkpt lat="41.88187984125993" lon="16.159528680226078"><ele>83.5</ele><time>2026-04-19T09:32:00.962Z</time></trkpt><trkpt lat="41.881956302977855" lon="16.159644735779395"><ele>80.0</ele><time>2026-04-19T09:32:01.962Z</time></trkpt><trkpt lat="41.88202848990477" lon="16.159766497944247"><ele>76.5</ele><time>2026-04-19T09:32:02.962Z</time></trkpt><trkpt lat="41.88210682584587" lon="16.159889745674544"><ele>73.0</ele><time>2026-04-19T09:32:03.962Z</time></trkpt><trkpt lat="41.882183717580475" lon="16.160010656831535"><ele>73.0</ele><time>2026-04-19T09:32:04.962Z</time></trkpt><trkpt lat="41.88225118549719" lon="16.160108762585338"><ele>73.0</ele><time>2026-04-19T09:32:05.962Z</time></trkpt><trkpt lat="41.88231345493639" lon="16.160195914757935"><ele>73.0</ele><time>2026-04-19T09:32:06.962Z</time></trkpt><trkpt lat="41.88237577416514" lon="16.160282383849367"><ele>73.0</ele><time>2026-04-19T09:32:07.962Z</time></trkpt><trkpt lat="41.88243403316324" lon="16.16037155079557"><ele>73.0</ele><time>2026-04-19T09:32:08.962Z</time></trkpt><trkpt lat="41.88248726081718" lon="16.16046130970443"><ele>73.0</ele><time>2026-04-19T09:32:09.962Z</time></trkpt><trkpt lat="41.88254039278659" lon="16.160549618697654"><ele>73.0</ele><time>2026-04-19T09:32:10.962Z</time></trkpt><trkpt lat="41.882594106187" lon="16.160645474707113"><ele>73.0</ele><time>2026-04-19T09:32:11.962Z</time></trkpt><trkpt lat="41.882648901921314" lon="16.16073457721443"><ele>73.0</ele><time>2026-04-19T09:32:12.962Z</time></trkpt><trkpt lat="41.88270276372698" lon="16.160820519879632"><ele>73.0</ele><time>2026-04-19T09:32:13.962Z</time></trkpt><trkpt lat="41.88275029554491" lon="16.160909407588708"><ele>73.0</ele><time>2026-04-19T09:32:14.962Z</time></trkpt><trkpt lat="41.882797888485385" lon="16.161000542729877"><ele>72.0</ele><time>2026-04-19T09:32:15.962Z</time></trkpt><trkpt lat="41.882843770251505" lon="16.161082766865334"><ele>71.0</ele><time>2026-04-19T09:32:16.962Z</time></trkpt><trkpt lat="41.88289254355649" lon="16.16117852200777"><ele>70.0</ele><time>2026-04-19T09:32:17.962Z</time></trkpt><trkpt lat="41.882938131132526" lon="16.16127794199955"><ele>69.0</ele><time>2026-04-19T09:32:18.962Z</time></trkpt><trkpt lat="41.882984219282335" lon="16.161384357162927"><ele>68.0</ele><time>2026-04-19T09:32:19.962Z</time></trkpt><trkpt lat="41.88302370893253" lon="16.161493601946603"><ele>67.0</ele><time>2026-04-19T09:32:20.962Z</time></trkpt><trkpt lat="41.88305514982417" lon="16.161617920139147"><ele>66.0</ele><time>2026-04-19T09:32:21.962Z</time></trkpt><trkpt lat="41.883071117970026" lon="16.16175175469241"><ele>65.0</ele><time>2026-04-19T09:32:22.962Z</time></trkpt><trkpt lat="41.88308228470116" lon="16.161883832501267"><ele>64.0</ele><time>2026-04-19T09:32:23.962Z</time></trkpt><trkpt lat="41.88310145487329" lon="16.16201526518889"><ele>63.0</ele><time>2026-04-19T09:32:24.962Z</time></trkpt><trkpt lat="41.88312680449871" lon="16.162143024160006"><ele>62.0</ele><time>2026-04-19T09:32:25.962Z</time></trkpt><trkpt lat="41.883153466053436" lon="16.162282791269725"><ele>59.0</ele><time>2026-04-19T09:32:26.962Z</time></trkpt><trkpt lat="41.8831815949746" lon="16.16241861157989"><ele>56.0</ele><time>2026-04-19T09:32:27.962Z</time></trkpt><trkpt lat="41.88321604485937" lon="16.162563650847016"><ele>53.0</ele><time>2026-04-19T09:32:28.962Z</time></trkpt><trkpt lat="41.88325185158369" lon="16.162706342631072"><ele>50.0</ele><time>2026-04-19T09:32:29.962Z</time></trkpt><trkpt lat="41.883280335728436" lon="16.162870181740853"><ele>50.0</ele><time>2026-04-19T09:32:30.962Z</time></trkpt><trkpt lat="41.883315493143904" lon="16.16303814939095"><ele>50.0</ele><time>2026-04-19T09:32:31.962Z</time></trkpt><trkpt lat="41.88334605540937" lon="16.16321577154153"><ele>50.0</ele><time>2026-04-19T09:32:32.962Z</time></trkpt><trkpt lat="41.883387723424505" lon="16.16338772334293"><ele>50.0</ele><time>2026-04-19T09:32:33.962Z</time></trkpt><trkpt lat="41.88344042993607" lon="16.163544757863725"><ele>47.0</ele><time>2026-04-19T09:32:34.962Z</time></trkpt><trkpt lat="41.88350140119464" lon="16.163700437940555"><ele>44.0</ele><time>2026-04-19T09:32:35.961Z</time></trkpt><trkpt lat="41.88356237802534" lon="16.163851525592783"><ele>41.0</ele><time>2026-04-19T09:32:36.961Z</time></trkpt><trkpt lat="41.88361431869281" lon="16.164013114364902"><ele>38.0</ele><time>2026-04-19T09:32:37.961Z</time></trkpt><trkpt lat="41.88365890134001" lon="16.16418425303816"><ele>36.0</ele><time>2026-04-19T09:32:38.961Z</time></trkpt><trkpt lat="41.88368983019247" lon="16.164334347609206"><ele>34.0</ele><time>2026-04-19T09:32:39.961Z</time></trkpt><trkpt lat="41.8837029618414" lon="16.164474850637163"><ele>31.999999999999996</ele><time>2026-04-19T09:32:40.961Z</time></trkpt><trkpt lat="41.88370427028229" lon="16.164584676237936"><ele>30.0</ele><time>2026-04-19T09:32:41.961Z</time></trkpt><trkpt lat="41.8836915017788" lon="16.164692232342198"><ele>28.0</ele><time>2026-04-19T09:32:42.961Z</time></trkpt><trkpt lat="41.88367318392535" lon="16.164805895421956"><ele>25.799999999999997</ele><time>2026-04-19T09:32:43.961Z</time></trkpt><trkpt lat="41.883664563022755" lon="16.164924339604866"><ele>23.599999999999998</ele><time>2026-04-19T09:32:44.961Z</time></trkpt><trkpt lat="41.88366323902165" lon="16.165054131351038"><ele>21.4</ele><time>2026-04-19T09:32:45.96Z</time></trkpt><trkpt lat="41.88365958327935" lon="16.165183821652974"><ele>19.2</ele><time>2026-04-19T09:32:46.96Z</time></trkpt><trkpt lat="41.88364556942995" lon="16.16531814621567"><ele>17.0</ele><time>2026-04-19T09:32:47.961Z</time></trkpt><trkpt lat="41.88363820437494" lon="16.165446585385276"><ele>17.0</ele><time>2026-04-19T09:32:48.96Z</time></trkpt><trkpt lat="41.88363074403988" lon="16.165574772440966"><ele>17.0</ele><time>2026-04-19T09:32:49.96Z</time></trkpt><trkpt lat="41.88363376252778" lon="16.16570876234501"><ele>17.0</ele><time>2026-04-19T09:32:50.96Z</time></trkpt><trkpt lat="41.883629316190884" lon="16.165865450818906"><ele>17.0</ele><time>2026-04-19T09:32:51.96Z</time></trkpt><trkpt lat="41.88363729860467" lon="16.16601634958672"><ele>17.0</ele><time>2026-04-19T09:32:52.96Z</time></trkpt><trkpt lat="41.8836550304766" lon="16.166165672106597"><ele>15.5</ele><time>2026-04-19T09:32:53.96Z</time></trkpt><trkpt lat="41.883679960837064" lon="16.166311246840973"><ele>14.0</ele><time>2026-04-19T09:32:54.96Z</time></trkpt><trkpt lat="41.883718094861834" lon="16.166461173404134"><ele>12.5</ele><time>2026-04-19T09:32:55.96Z</time></trkpt><trkpt lat="41.88376217099073" lon="16.166608105502235"><ele>11.0</ele><time>2026-04-19T09:32:56.96Z</time></trkpt><trkpt lat="41.883813605208395" lon="16.166747683396295"><ele>11.0</ele><time>2026-04-19T09:32:57.96Z</time></trkpt><trkpt lat="41.883865441322286" lon="16.16688002160997"><ele>11.0</ele><time>2026-04-19T09:32:58.96Z</time></trkpt><trkpt lat="41.88391132744999" lon="16.167011945257038"><ele>11.0</ele><time>2026-04-19T09:32:59.96Z</time></trkpt><trkpt lat="41.88396596809874" lon="16.167136345913597"><ele>11.0</ele><time>2026-04-19T09:33:00.96Z</time></trkpt><trkpt lat="41.88401586489558" lon="16.167263711744862"><ele>11.0</ele><time>2026-04-19T09:33:01.96Z</time></trkpt><trkpt lat="41.88406312572593" lon="16.16738806136272"><ele>10.666666666666666</ele><time>2026-04-19T09:33:02.96Z</time></trkpt><trkpt lat="41.88410772505049" lon="16.167511821560158"><ele>10.333333333333332</ele><time>2026-04-19T09:33:03.96Z</time></trkpt><trkpt lat="41.884149453663944" lon="16.167631462418036"><ele>10.0</ele><time>2026-04-19T09:33:04.96Z</time></trkpt><trkpt lat="41.88417601974886" lon="16.167743987540874"><ele>9.666666666666666</ele><time>2026-04-19T09:33:05.96Z</time></trkpt><trkpt lat="41.88418267356977" lon="16.167840744344588"><ele>9.333333333333334</ele><time>2026-04-19T09:33:06.961Z</time></trkpt><trkpt lat="41.884146926095035" lon="16.167945586309024"><ele>9.0</ele><time>2026-04-19T09:33:07.961Z</time></trkpt><trkpt lat="41.884085926424646" lon="16.168034660606313"><ele>9.0</ele><time>2026-04-19T09:33:08.961Z</time></trkpt><trkpt lat="41.88402028568421" lon="16.168107678912634"><ele>9.0</ele><time>2026-04-19T09:33:09.961Z</time></trkpt><trkpt lat="41.88395054306213" lon="16.168164226043174"><ele>9.0</ele><time>2026-04-19T09:33:10.961Z</time></trkpt><trkpt lat="41.88388195214427" lon="16.168218061416194"><ele>9.0</ele><time>2026-04-19T09:33:11.961Z</time></trkpt><trkpt lat="41.88382081153703" lon="16.16825944048272"><ele>9.0</ele><time>2026-04-19T09:33:12.961Z</time></trkpt><trkpt lat="41.883764682360756" lon="16.168306038282484"><ele>9.0</ele><time>2026-04-19T09:33:13.961Z</time></trkpt><trkpt lat="41.883721352568024" lon="16.168380478352738"><ele>8.571428571428573</ele><time>2026-04-19T09:33:14.961Z</time></trkpt><trkpt lat="41.8836996961777" lon="16.16846936103575"><ele>8.142857142857142</ele><time>2026-04-19T09:33:15.961Z</time></trkpt><trkpt lat="41.883692128064034" lon="16.168568654336763"><ele>7.714285714285714</ele><time>2026-04-19T09:33:16.961Z</time></trkpt><trkpt lat="41.883716497056824" lon="16.16866897496319"><ele>7.2857142857142865</ele><time>2026-04-19T09:33:17.961Z</time></trkpt><trkpt lat="41.88376324612198" lon="16.168745933845475"><ele>6.857142857142858</ele><time>2026-04-19T09:33:18.961Z</time></trkpt><trkpt lat="41.88382141435082" lon="16.16879600872826"><ele>6.428571428571428</ele><time>2026-04-19T09:33:19.961Z</time></trkpt><trkpt lat="41.88389210901392" lon="16.168829728790897"><ele>6.0</ele><time>2026-04-19T09:33:20.961Z</time></trkpt><trkpt lat="41.883975477290136" lon="16.168832049016075"><ele>6.0</ele><time>2026-04-19T09:33:21.961Z</time></trkpt><trkpt lat="41.88406837176707" lon="16.168808785166146"><ele>6.0</ele><time>2026-04-19T09:33:22.961Z</time></trkpt><trkpt lat="41.8841612290609" lon="16.168784427464892"><ele>6.0</ele><time>2026-04-19T09:33:23.961Z</time></trkpt><trkpt lat="41.884250163788714" lon="16.168794270347735"><ele>6.0</ele><time>2026-04-19T09:33:24.961Z</time></trkpt><trkpt lat="41.88432391855594" lon="16.16884797662537"><ele>6.0</ele><time>2026-04-19T09:33:25.961Z</time></trkpt><trkpt lat="41.88440725534138" lon="16.168933310560547"><ele>5.5</ele><time>2026-04-19T09:33:26.961Z</time></trkpt><trkpt lat="41.88449908872774" lon="16.16903381314391"><ele>5.0</ele><time>2026-04-19T09:33:27.961Z</time></trkpt><trkpt lat="41.88459572314243" lon="16.169135738930013"><ele>4.5</ele><time>2026-04-19T09:33:28.961Z</time></trkpt><trkpt lat="41.88469664602129" lon="16.169240302825237"><ele>4.0</ele><time>2026-04-19T09:33:29.961Z</time></trkpt><trkpt lat="41.884786157298464" lon="16.169332671143028"><ele>4.0</ele><time>2026-04-19T09:33:30.961Z</time></trkpt><trkpt lat="41.88486260180107" lon="16.16942274641169"><ele>4.0</ele><time>2026-04-19T09:33:31.961Z</time></trkpt><trkpt lat="41.88492637699864" lon="16.16948896487925"><ele>4.0</ele><time>2026-04-19T09:33:32.961Z</time></trkpt><trkpt lat="41.884977818828645" lon="16.169541826319257"><ele>4.0</ele><time>2026-04-19T09:33:33.961Z</time></trkpt><trkpt lat="41.88506086917337" lon="16.16962377411554"><ele>4.0</ele><time>2026-04-19T09:33:35.961Z</time></trkpt><trkpt lat="41.88515288851311" lon="16.169721124645907"><ele>4.0</ele><time>2026-04-19T09:33:37.961Z</time></trkpt><trkpt lat="41.88523758046885" lon="16.16981310379293"><ele>4.0</ele><time>2026-04-19T09:33:39.961Z</time></trkpt><trkpt lat="41.88530320867892" lon="16.169899432663282"><ele>4.0</ele><time>2026-04-19T09:33:41.961Z</time></trkpt><trkpt lat="41.88534968975643" lon="16.16998926611105"><ele>4.0</ele><time>2026-04-19T09:33:43.961Z</time></trkpt><trkpt lat="41.885407907244044" lon="16.17011920290197"><ele>4.0</ele><time>2026-04-19T09:33:45.961Z</time></trkpt><trkpt lat="41.88548486386406" lon="16.17022177902411"><ele>4.0</ele><time>2026-04-19T09:33:47.961Z</time></trkpt><trkpt lat="41.88556505425514" lon="16.17025716833581"><ele>4.0</ele><time>2026-04-19T09:33:49.961Z</time></trkpt><trkpt lat="41.885641690952625" lon="16.170232777815123"><ele>4.0</ele><time>2026-04-19T09:33:51.961Z</time></trkpt><trkpt lat="41.885739557672295" lon="16.170108354039566"><ele>4.0</ele><time>2026-04-19T09:33:53.961Z</time></trkpt><trkpt lat="41.88580145145219" lon="16.169989335612517"><ele>4.0</ele><time>2026-04-19T09:33:54.961Z</time></trkpt><trkpt lat="41.885856083727276" lon="16.169839961874704"><ele>4.0</ele><time>2026-04-19T09:33:55.961Z</time></trkpt><trkpt lat="41.885903601254256" lon="16.169693683455396"><ele>4.0</ele><time>2026-04-19T09:33:56.961Z</time></trkpt><trkpt lat="41.88594329604282" lon="16.169560944812204"><ele>4.0</ele><time>2026-04-19T09:33:57.961Z</time></trkpt><trkpt lat="41.88598303960066" lon="16.169437896250038"><ele>4.0</ele><time>2026-04-19T09:33:58.961Z</time></trkpt><trkpt lat="41.886011390864724" lon="16.169321340010594"><ele>4.0</ele><time>2026-04-19T09:33:59.961Z</time></trkpt><trkpt lat="41.886037162698464" lon="16.16921797451974"><ele>3.4000000000000004</ele><time>2026-04-19T09:34:00.961Z</time></trkpt><trkpt lat="41.88606425559474" lon="16.169116231548546"><ele>2.8000000000000003</ele><time>2026-04-19T09:34:01.961Z</time></trkpt><trkpt lat="41.88609293302912" lon="16.16901041808723"><ele>2.2</ele><time>2026-04-19T09:34:02.961Z</time></trkpt><trkpt lat="41.886123595921724" lon="16.168909410835713"><ele>1.6</ele><time>2026-04-19T09:34:03.961Z</time></trkpt><trkpt lat="41.88617368980147" lon="16.168790711681492"><ele>1.0</ele><time>2026-04-19T09:34:04.961Z</time></trkpt><trkpt lat="41.88624168436365" lon="16.168649402012143"><ele>1.0</ele><time>2026-04-19T09:34:05.961Z</time></trkpt><trkpt lat="41.88631744008913" lon="16.16848600118117"><ele>1.0</ele><time>2026-04-19T09:34:06.961Z</time></trkpt><trkpt lat="41.88638771605473" lon="16.168332600157886"><ele>1.0</ele><time>2026-04-19T09:34:07.961Z</time></trkpt><trkpt lat="41.88645335021104" lon="16.168188445093907"><ele>1.0</ele><time>2026-04-19T09:34:08.961Z</time></trkpt><trkpt lat="41.88651246452367" lon="16.168054417066998"><ele>1.2000000000000002</ele><time>2026-04-19T09:34:09.961Z</time></trkpt><trkpt lat="41.88656999403991" lon="16.16792824289669"><ele>1.4000000000000001</ele><time>2026-04-19T09:34:10.961Z</time></trkpt><trkpt lat="41.88662053334262" lon="16.16780298141983"><ele>1.6</ele><time>2026-04-19T09:34:11.961Z</time></trkpt><trkpt lat="41.8866743395725" lon="16.16767110356784"><ele>1.8</ele><time>2026-04-19T09:34:12.961Z</time></trkpt><trkpt lat="41.88673006748982" lon="16.167530397016044"><ele>2.0</ele><time>2026-04-19T09:34:13.961Z</time></trkpt><trkpt lat="41.88678498500289" lon="16.16739511198725"><ele>1.5</ele><time>2026-04-19T09:34:14.961Z</time></trkpt><trkpt lat="41.88684265624115" lon="16.16725113666003"><ele>1.0</ele><time>2026-04-19T09:34:15.961Z</time></trkpt><trkpt lat="41.88689927961721" lon="16.16711409865796"><ele>0.5</ele><time>2026-04-19T09:34:16.961Z</time></trkpt><trkpt lat="41.88695813050069" lon="16.166976911819457"><ele>0.0</ele><time>2026-04-19T09:34:17.961Z</time></trkpt><trkpt lat="41.887016311968324" lon="16.16683980993673"><ele>0.0</ele><time>2026-04-19T09:34:18.961Z</time></trkpt><trkpt lat="41.887078107137405" lon="16.16670195407177"><ele>0.0</ele><time>2026-04-19T09:34:19.961Z</time></trkpt><trkpt lat="41.88714154841725" lon="16.166565157810275"><ele>0.0</ele><time>2026-04-19T09:34:20.961Z</time></trkpt><trkpt lat="41.887207308861925" lon="16.166424887101147"><ele>0.0</ele><time>2026-04-19T09:34:21.961Z</time></trkpt><trkpt lat="41.88727429818675" lon="16.166290985812683"><ele>0.0</ele><time>2026-04-19T09:34:22.961Z</time></trkpt><trkpt lat="41.88733650444071" lon="16.166158514651958"><ele>0.0</ele><time>2026-04-19T09:34:23.961Z</time></trkpt><trkpt lat="41.887398003705755" lon="16.16602990577979"><ele>0.0</ele><time>2026-04-19T09:34:24.961Z</time></trkpt><trkpt lat="41.88746010592775" lon="16.165911986189773"><ele>0.0</ele><time>2026-04-19T09:34:25.961Z</time></trkpt><trkpt lat="41.88751788519767" lon="16.165799827596565"><ele>0.0</ele><time>2026-04-19T09:34:26.961Z</time></trkpt><trkpt lat="41.88757309491622" lon="16.165696222086314"><ele>0.16666666666666666</ele><time>2026-04-19T09:34:27.961Z</time></trkpt><trkpt lat="41.887617393274645" lon="16.16559513203277"><ele>0.3333333333333333</ele><time>2026-04-19T09:34:28.961Z</time></trkpt><trkpt lat="41.887630638742" lon="16.165509880426587"><ele>0.5</ele><time>2026-04-19T09:34:29.961Z</time></trkpt><trkpt lat="41.8876362005617" lon="16.165415658799777"><ele>0.6666666666666666</ele><time>2026-04-19T09:34:30.961Z</time></trkpt><trkpt lat="41.88770385563367" lon="16.165297928020923"><ele>0.8333333333333333</ele><time>2026-04-19T09:34:32.961Z</time></trkpt><trkpt lat="41.8877211376136" lon="16.16520054700412"><ele>1.0</ele><time>2026-04-19T09:34:35.961Z</time></trkpt><trkpt lat="41.88766957507919" lon="16.165121780456392"><ele>1.0</ele><time>2026-04-19T09:34:38.961Z</time></trkpt><trkpt lat="41.88760724120184" lon="16.165106756696975"><ele>0.9999999999999999</ele><time>2026-04-19T09:34:46.961Z</time></trkpt><trkpt lat="41.88755220961258" lon="16.165155542865534"><ele>1.0</ele><time>2026-04-19T09:47:57.906Z</time></trkpt><trkpt lat="41.88750858783319" lon="16.165218534505996"><ele>1.0</ele><time>2026-04-19T09:48:01.906Z</time></trkpt><trkpt lat="41.88749834645653" lon="16.165331338700422"><ele>0.9999999999999999</ele><time>2026-04-19T09:48:07.906Z</time></trkpt><trkpt lat="41.887542429666404" lon="16.165400509665066"><ele>1.0</ele><time>2026-04-19T09:48:10.906Z</time></trkpt><trkpt lat="41.887607860829256" lon="16.165469073612254"><ele>1.0</ele><time>2026-04-19T09:48:13.906Z</time></trkpt><trkpt lat="41.887672147871015" lon="16.165419085492662"><ele>0.9999999999999999</ele><time>2026-04-19T09:48:31.906Z</time></trkpt><trkpt lat="41.88770861745368" lon="16.16534891530925"><ele>1.0</ele><time>2026-04-19T09:48:35.906Z</time></trkpt><trkpt lat="41.88774974453642" lon="16.165264669990044"><ele>1.0</ele><time>2026-04-19T09:49:25.905Z</time></trkpt><trkpt lat="41.88783471223337" lon="16.16520456239626"><ele>1.0</ele><time>2026-04-19T09:49:29.904Z</time></trkpt><trkpt lat="41.88792488105424" lon="16.165117234720398"><ele>0.9999999999999999</ele><time>2026-04-19T09:49:31.905Z</time></trkpt><trkpt lat="41.88796571372732" lon="16.165046793559842"><ele>1.0</ele><time>2026-04-19T09:49:32.905Z</time></trkpt><trkpt lat="41.88801251232567" lon="16.164974777048208"><ele>0.9999999999999999</ele><time>2026-04-19T09:49:33.905Z</time></trkpt><trkpt lat="41.88806314648196" lon="16.16489408208759"><ele>1.0</ele><time>2026-04-19T09:49:34.905Z</time></trkpt><trkpt lat="41.888114994476915" lon="16.164816132324336"><ele>1.0</ele><time>2026-04-19T09:49:35.904Z</time></trkpt><trkpt lat="41.88816365572391" lon="16.164731552671928"><ele>1.0</ele><time>2026-04-19T09:49:36.904Z</time></trkpt><trkpt lat="41.8882124622654" lon="16.164641785926023"><ele>0.9999999999999999</ele><time>2026-04-19T09:49:37.904Z</time></trkpt><trkpt lat="41.888277512266114" lon="16.16453125956378"><ele>1.0</ele><time>2026-04-19T09:49:38.904Z</time></trkpt><trkpt lat="41.88833915035026" lon="16.164419900003402"><ele>1.2000000000000002</ele><time>2026-04-19T09:49:39.904Z</time></trkpt><trkpt lat="41.888402753425254" lon="16.164317932151068"><ele>1.4000000000000001</ele><time>2026-04-19T09:49:40.904Z</time></trkpt><trkpt lat="41.88847093864981" lon="16.164211246621164"><ele>1.6</ele><time>2026-04-19T09:49:41.904Z</time></trkpt><trkpt lat="41.88853605545301" lon="16.164107583165215"><ele>1.8</ele><time>2026-04-19T09:49:42.904Z</time></trkpt><trkpt lat="41.88859330848379" lon="16.16400979923755"><ele>2.0</ele><time>2026-04-19T09:49:43.904Z</time></trkpt><trkpt lat="41.88865721315853" lon="16.16390843218425"><ele>2.2</ele><time>2026-04-19T09:49:44.904Z</time></trkpt><trkpt lat="41.888725463937824" lon="16.163794156163508"><ele>2.4000000000000004</ele><time>2026-04-19T09:49:45.904Z</time></trkpt><trkpt lat="41.888782928627506" lon="16.163697684956187"><ele>2.5999999999999996</ele><time>2026-04-19T09:49:46.904Z</time></trkpt><trkpt lat="41.888844112037546" lon="16.16360161128292"><ele>2.8</ele><time>2026-04-19T09:49:47.904Z</time></trkpt><trkpt lat="41.88891017799235" lon="16.163497267528893"><ele>3.0</ele><time>2026-04-19T09:49:48.904Z</time></trkpt><trkpt lat="41.88897988888071" lon="16.163385739140093"><ele>3.0</ele><time>2026-04-19T09:49:49.904Z</time></trkpt><trkpt lat="41.88904853716635" lon="16.163285829143472"><ele>3.0</ele><time>2026-04-19T09:49:50.904Z</time></trkpt><trkpt lat="41.88911386243096" lon="16.16316493235058"><ele>3.0</ele><time>2026-04-19T09:49:51.904Z</time></trkpt><trkpt lat="41.88918521103216" lon="16.16305366724317"><ele>3.0</ele><time>2026-04-19T09:49:52.904Z</time></trkpt><trkpt lat="41.88925405680991" lon="16.16294926876216"><ele>3.0</ele><time>2026-04-19T09:49:53.904Z</time></trkpt><trkpt lat="41.88932330247629" lon="16.16284047275481"><ele>2.8</ele><time>2026-04-19T09:49:54.904Z</time></trkpt><trkpt lat="41.88940351913796" lon="16.16273872832386"><ele>2.5999999999999996</ele><time>2026-04-19T09:49:55.904Z</time></trkpt><trkpt lat="41.88948606975928" lon="16.162646475570018"><ele>2.4000000000000004</ele><time>2026-04-19T09:49:56.904Z</time></trkpt><trkpt lat="41.88957806350355" lon="16.162565056625404"><ele>2.2</ele><time>2026-04-19T09:49:57.904Z</time></trkpt><trkpt lat="41.88967417145855" lon="16.16248117047589"><ele>2.0</ele><time>2026-04-19T09:49:58.904Z</time></trkpt><trkpt lat="41.8897646205023" lon="16.162401594846305"><ele>2.0</ele><time>2026-04-19T09:49:59.904Z</time></trkpt><trkpt lat="41.889861608072856" lon="16.162322754752037"><ele>2.0</ele><time>2026-04-19T09:50:00.904Z</time></trkpt><trkpt lat="41.88995801311601" lon="16.162240681521318"><ele>2.0</ele><time>2026-04-19T09:50:01.904Z</time></trkpt><trkpt lat="41.89005099592612" lon="16.162159505059854"><ele>2.0</ele><time>2026-04-19T09:50:02.904Z</time></trkpt><trkpt lat="41.89013871299651" lon="16.162076682203633"><ele>2.0</ele><time>2026-04-19T09:50:03.904Z</time></trkpt><trkpt lat="41.890229480176046" lon="16.16199879540294"><ele>2.0</ele><time>2026-04-19T09:50:04.904Z</time></trkpt><trkpt lat="41.89032092947102" lon="16.161922575307862"><ele>2.0</ele><time>2026-04-19T09:50:05.904Z</time></trkpt><trkpt lat="41.89040884895729" lon="16.161844865162323"><ele>2.0</ele><time>2026-04-19T09:50:06.904Z</time></trkpt><trkpt lat="41.89049726447942" lon="16.161765310619412"><ele>2.0</ele><time>2026-04-19T09:50:07.904Z</time></trkpt><trkpt lat="41.89059141018429" lon="16.16169140514192"><ele>2.0</ele><time>2026-04-19T09:50:08.904Z</time></trkpt><trkpt lat="41.89068408203327" lon="16.161616664120775"><ele>2.0</ele><time>2026-04-19T09:50:09.904Z</time></trkpt><trkpt lat="41.89077529503532" lon="16.161537634011633"><ele>2.0</ele><time>2026-04-19T09:50:10.904Z</time></trkpt><trkpt lat="41.89086262990844" lon="16.1614617590028"><ele>2.0</ele><time>2026-04-19T09:50:11.904Z</time></trkpt><trkpt lat="41.89095566459731" lon="16.161381633759362"><ele>2.0</ele><time>2026-04-19T09:50:12.904Z</time></trkpt><trkpt lat="41.891052000098966" lon="16.161300587307863"><ele>2.0</ele><time>2026-04-19T09:50:13.904Z</time></trkpt><trkpt lat="41.89115448077159" lon="16.161216342949675"><ele>1.75</ele><time>2026-04-19T09:50:14.904Z</time></trkpt><trkpt lat="41.8912616598138" lon="16.161132497261466"><ele>1.5</ele><time>2026-04-19T09:50:15.904Z</time></trkpt><trkpt lat="41.89137198338708" lon="16.161044505351782"><ele>1.25</ele><time>2026-04-19T09:50:16.904Z</time></trkpt><trkpt lat="41.89149293927984" lon="16.16095402777738"><ele>1.0</ele><time>2026-04-19T09:50:17.904Z</time></trkpt><trkpt lat="41.89161606154653" lon="16.160873247188324"><ele>1.0</ele><time>2026-04-19T09:50:18.904Z</time></trkpt><trkpt lat="41.891729946352164" lon="16.160807758716906"><ele>1.0</ele><time>2026-04-19T09:50:19.904Z</time></trkpt><trkpt lat="41.89184690106746" lon="16.16074139690425"><ele>1.0</ele><time>2026-04-19T09:50:20.904Z</time></trkpt><trkpt lat="41.89196645377616" lon="16.16067474955057"><ele>1.0</ele><time>2026-04-19T09:50:21.904Z</time></trkpt><trkpt lat="41.89208395620219" lon="16.160614003471615"><ele>1.25</ele><time>2026-04-19T09:50:22.904Z</time></trkpt><trkpt lat="41.892200573054225" lon="16.16054730861175"><ele>1.5</ele><time>2026-04-19T09:50:23.904Z</time></trkpt><trkpt lat="41.89231424584481" lon="16.16048658811051"><ele>1.75</ele><time>2026-04-19T09:50:24.904Z</time></trkpt><trkpt lat="41.89241954924554" lon="16.16043105401769"><ele>2.0</ele><time>2026-04-19T09:50:25.904Z</time></trkpt><trkpt lat="41.892527788626985" lon="16.160372893485448"><ele>2.25</ele><time>2026-04-19T09:50:26.904Z</time></trkpt><trkpt lat="41.892630945786856" lon="16.160317426547763"><ele>2.5</ele><time>2026-04-19T09:50:27.904Z</time></trkpt><trkpt lat="41.89273405179862" lon="16.16025757979391"><ele>2.75</ele><time>2026-04-19T09:50:28.904Z</time></trkpt><trkpt lat="41.8928432336096" lon="16.160203589195632"><ele>3.0</ele><time>2026-04-19T09:50:29.904Z</time></trkpt><trkpt lat="41.892949251971295" lon="16.160156666471277"><ele>3.0</ele><time>2026-04-19T09:50:30.904Z</time></trkpt><trkpt lat="41.89305484633495" lon="16.160104667955665"><ele>3.0</ele><time>2026-04-19T09:50:31.904Z</time></trkpt><trkpt lat="41.893170713452946" lon="16.16007163893378"><ele>3.0</ele><time>2026-04-19T09:50:32.904Z</time></trkpt><trkpt lat="41.89328972097187" lon="16.16008487514034"><ele>3.0</ele><time>2026-04-19T09:50:33.904Z</time></trkpt><trkpt lat="41.89340918474265" lon="16.160121706466256"><ele>5.0</ele><time>2026-04-19T09:50:34.904Z</time></trkpt><trkpt lat="41.89352269006865" lon="16.160178785104186"><ele>7.0</ele><time>2026-04-19T09:50:35.904Z</time></trkpt><trkpt lat="41.893620140185355" lon="16.16025992805665"><ele>9.0</ele><time>2026-04-19T09:50:36.904Z</time></trkpt><trkpt lat="41.89370325618883" lon="16.16036393126356"><ele>11.0</ele><time>2026-04-19T09:50:37.904Z</time></trkpt><trkpt lat="41.893762834856524" lon="16.16049047121731"><ele>11.0</ele><time>2026-04-19T09:50:38.904Z</time></trkpt><trkpt lat="41.89380671675467" lon="16.160637850680278"><ele>11.0</ele><time>2026-04-19T09:50:39.904Z</time></trkpt><trkpt lat="41.89382376162933" lon="16.160787191099942"><ele>11.0</ele><time>2026-04-19T09:50:40.904Z</time></trkpt><trkpt lat="41.89383015100655" lon="16.160932021679383"><ele>11.0</ele><time>2026-04-19T09:50:41.904Z</time></trkpt><trkpt lat="41.893849739516696" lon="16.16107059760356"><ele>11.0</ele><time>2026-04-19T09:50:42.904Z</time></trkpt><trkpt lat="41.89389004417785" lon="16.161189797770543"><ele>11.0</ele><time>2026-04-19T09:50:43.904Z</time></trkpt><trkpt lat="41.893954559522705" lon="16.161293726277048"><ele>11.0</ele><time>2026-04-19T09:50:44.904Z</time></trkpt><trkpt lat="41.894048594481525" lon="16.161375031927744"><ele>11.0</ele><time>2026-04-19T09:50:45.904Z</time></trkpt><trkpt lat="41.8941447451284" lon="16.161408897377413"><ele>11.0</ele><time>2026-04-19T09:50:46.904Z</time></trkpt><trkpt lat="41.894248960834226" lon="16.161411627905697"><ele>11.0</ele><time>2026-04-19T09:50:47.904Z</time></trkpt><trkpt lat="41.89436219843519" lon="16.161384182977244"><ele>9.25</ele><time>2026-04-19T09:50:48.904Z</time></trkpt><trkpt lat="41.89448305977455" lon="16.161338406446575"><ele>7.5</ele><time>2026-04-19T09:50:49.904Z</time></trkpt><trkpt lat="41.89460336511374" lon="16.161295280720395"><ele>5.75</ele><time>2026-04-19T09:50:50.904Z</time></trkpt><trkpt lat="41.8947282076814" lon="16.161254989873143"><ele>4.0</ele><time>2026-04-19T09:50:51.904Z</time></trkpt><trkpt lat="41.894834390295486" lon="16.161206999221196"><ele>4.0</ele><time>2026-04-19T09:50:52.904Z</time></trkpt><trkpt lat="41.89492139602319" lon="16.161131368847926"><ele>4.0</ele><time>2026-04-19T09:50:53.904Z</time></trkpt><trkpt lat="41.89499296556686" lon="16.161028960871253"><ele>4.0</ele><time>2026-04-19T09:50:54.904Z</time></trkpt><trkpt lat="41.89503462014176" lon="16.16090618659299"><ele>4.0</ele><time>2026-04-19T09:50:55.904Z</time></trkpt><trkpt lat="41.89504405246609" lon="16.160764758789334"><ele>4.0</ele><time>2026-04-19T09:50:56.904Z</time></trkpt><trkpt lat="41.89503409005316" lon="16.160626107676862"><ele>3.8000000000000003</ele><time>2026-04-19T09:50:57.904Z</time></trkpt><trkpt lat="41.89501570684674" lon="16.16048768657637"><ele>3.6000000000000005</ele><time>2026-04-19T09:50:58.904Z</time></trkpt><trkpt lat="41.89499272792484" lon="16.1603559985017"><ele>3.4</ele><time>2026-04-19T09:50:59.904Z</time></trkpt><trkpt lat="41.894967962452405" lon="16.160214525268348"><ele>3.2</ele><time>2026-04-19T09:51:00.904Z</time></trkpt><trkpt lat="41.89494226430538" lon="16.160072346400064"><ele>3.0</ele><time>2026-04-19T09:51:01.904Z</time></trkpt><trkpt lat="41.894915336395734" lon="16.15992338264153"><ele>2.75</ele><time>2026-04-19T09:51:02.904Z</time></trkpt><trkpt lat="41.89487883932078" lon="16.159770270890444"><ele>2.5</ele><time>2026-04-19T09:51:03.904Z</time></trkpt><trkpt lat="41.894815906645675" lon="16.15961221714438"><ele>2.25</ele><time>2026-04-19T09:51:04.904Z</time></trkpt><trkpt lat="41.894734363518985" lon="16.15945707005303"><ele>2.0</ele><time>2026-04-19T09:51:05.904Z</time></trkpt><trkpt lat="41.894641718867334" lon="16.159312793987418"><ele>2.0</ele><time>2026-04-19T09:51:06.904Z</time></trkpt><trkpt lat="41.894554034956535" lon="16.159180735393335"><ele>2.0</ele><time>2026-04-19T09:51:07.904Z</time></trkpt><trkpt lat="41.8944808106651" lon="16.159046066338767"><ele>2.0</ele><time>2026-04-19T09:51:08.904Z</time></trkpt><trkpt lat="41.89443556045032" lon="16.158910902671266"><ele>2.0</ele><time>2026-04-19T09:51:09.904Z</time></trkpt><trkpt lat="41.894427397372176" lon="16.158747966395705"><ele>2.5</ele><time>2026-04-19T09:51:10.904Z</time></trkpt><trkpt lat="41.89444769069344" lon="16.158579624872214"><ele>3.0</ele><time>2026-04-19T09:51:11.904Z</time></trkpt><trkpt lat="41.894478892545465" lon="16.158429827656754"><ele>3.5</ele><time>2026-04-19T09:51:12.904Z</time></trkpt><trkpt lat="41.89454517091915" lon="16.158284659719264"><ele>4.0</ele><time>2026-04-19T09:51:13.904Z</time></trkpt><trkpt lat="41.894646922422844" lon="16.158125821303386"><ele>7.0</ele><time>2026-04-19T09:51:14.904Z</time></trkpt><trkpt lat="41.894776670062306" lon="16.157959259082215"><ele>10.0</ele><time>2026-04-19T09:51:15.904Z</time></trkpt><trkpt lat="41.894909993188314" lon="16.15776938012267"><ele>13.0</ele><time>2026-04-19T09:51:16.904Z</time></trkpt><trkpt lat="41.89505145415996" lon="16.15756491067189"><ele>12.333333333333332</ele><time>2026-04-19T09:51:17.904Z</time></trkpt><trkpt lat="41.89517840461224" lon="16.15737225250032"><ele>11.666666666666666</ele><time>2026-04-19T09:51:18.904Z</time></trkpt><trkpt lat="41.895296229907544" lon="16.157188449095297"><ele>11.0</ele><time>2026-04-19T09:51:19.904Z</time></trkpt><trkpt lat="41.89540386990317" lon="16.156984749651347"><ele>11.0</ele><time>2026-04-19T09:51:20.904Z</time></trkpt><trkpt lat="41.89548623775058" lon="16.156756553681035"><ele>11.0</ele><time>2026-04-19T09:51:21.904Z</time></trkpt><trkpt lat="41.895542073182995" lon="16.15653894345925"><ele>11.0</ele><time>2026-04-19T09:51:22.904Z</time></trkpt><trkpt lat="41.89561284913747" lon="16.156360660929238"><ele>13.666666666666666</ele><time>2026-04-19T09:51:23.904Z</time></trkpt><trkpt lat="41.89571315631042" lon="16.156220373551296"><ele>16.333333333333332</ele><time>2026-04-19T09:51:24.904Z</time></trkpt><trkpt lat="41.89584504836623" lon="16.156125932604645"><ele>19.0</ele><time>2026-04-19T09:51:25.904Z</time></trkpt><trkpt lat="41.89600134776664" lon="16.15606967630099"><ele>19.0</ele><time>2026-04-19T09:51:26.904Z</time></trkpt><trkpt lat="41.89613085873463" lon="16.15602777385384"><ele>19.0</ele><time>2026-04-19T09:51:27.904Z</time></trkpt><trkpt lat="41.89626945935744" lon="16.155989195022485"><ele>19.0</ele><time>2026-04-19T09:51:28.904Z</time></trkpt><trkpt lat="41.896381015759765" lon="16.155953965758695"><ele>19.0</ele><time>2026-04-19T09:51:29.903Z</time></trkpt><trkpt lat="41.89651269650766" lon="16.155910676178273"><ele>19.0</ele><time>2026-04-19T09:51:30.903Z</time></trkpt><trkpt lat="41.89665040859269" lon="16.155852010186738"><ele>19.0</ele><time>2026-04-19T09:51:31.903Z</time></trkpt><trkpt lat="41.8967726204595" lon="16.155770696663094"><ele>19.0</ele><time>2026-04-19T09:51:32.904Z</time></trkpt><trkpt lat="41.89689256688182" lon="16.15565054428376"><ele>19.0</ele><time>2026-04-19T09:51:33.903Z</time></trkpt><trkpt lat="41.8969827888182" lon="16.15548545231521"><ele>20.0</ele><time>2026-04-19T09:51:34.903Z</time></trkpt><trkpt lat="41.897042925643895" lon="16.15531898328136"><ele>21.0</ele><time>2026-04-19T09:51:35.904Z</time></trkpt><trkpt lat="41.89710185032573" lon="16.155139217929513"><ele>22.0</ele><time>2026-04-19T09:51:36.903Z</time></trkpt><trkpt lat="41.89715341392534" lon="16.154946915316643"><ele>23.0</ele><time>2026-04-19T09:51:37.903Z</time></trkpt><trkpt lat="41.89719787119559" lon="16.154756964309854"><ele>24.75</ele><time>2026-04-19T09:51:38.904Z</time></trkpt><trkpt lat="41.89724195290667" lon="16.154584540126475"><ele>26.5</ele><time>2026-04-19T09:51:39.904Z</time></trkpt><trkpt lat="41.89728222941467" lon="16.154410053470347"><ele>28.25</ele><time>2026-04-19T09:51:40.904Z</time></trkpt><trkpt lat="41.897296902147325" lon="16.15422160777976"><ele>30.0</ele><time>2026-04-19T09:51:41.903Z</time></trkpt><trkpt lat="41.897282628426844" lon="16.154025731391673"><ele>31.0</ele><time>2026-04-19T09:51:42.904Z</time></trkpt><trkpt lat="41.897261308363206" lon="16.153822268437317"><ele>32.0</ele><time>2026-04-19T09:51:43.904Z</time></trkpt><trkpt lat="41.89724093456528" lon="16.153628512222053"><ele>33.0</ele><time>2026-04-19T09:51:44.904Z</time></trkpt><trkpt lat="41.89721644836499" lon="16.153451759068638"><ele>34.0</ele><time>2026-04-19T09:51:45.904Z</time></trkpt><trkpt lat="41.89719509032367" lon="16.15328802596956"><ele>34.0</ele><time>2026-04-19T09:51:46.904Z</time></trkpt><trkpt lat="41.8971721299918" lon="16.153107120373857"><ele>34.0</ele><time>2026-04-19T09:51:47.904Z</time></trkpt><trkpt lat="41.897167397705" lon="16.152930672747573"><ele>34.0</ele><time>2026-04-19T09:51:48.904Z</time></trkpt><trkpt lat="41.8971736654852" lon="16.15274321472903"><ele>34.0</ele><time>2026-04-19T09:51:49.904Z</time></trkpt><trkpt lat="41.89719047875543" lon="16.152549815116835"><ele>33.75</ele><time>2026-04-19T09:51:50.904Z</time></trkpt><trkpt lat="41.897206531710694" lon="16.152357990731105"><ele>33.5</ele><time>2026-04-19T09:51:51.904Z</time></trkpt><trkpt lat="41.89722640688952" lon="16.15216351878078"><ele>33.25</ele><time>2026-04-19T09:51:52.904Z</time></trkpt><trkpt lat="41.89724832625745" lon="16.151971152305194"><ele>33.0</ele><time>2026-04-19T09:51:53.904Z</time></trkpt><trkpt lat="41.897268406084805" lon="16.15178689176543"><ele>33.0</ele><time>2026-04-19T09:51:54.904Z</time></trkpt><trkpt lat="41.897288300387046" lon="16.151602406593256"><ele>33.0</ele><time>2026-04-19T09:51:55.904Z</time></trkpt><trkpt lat="41.8973101010128" lon="16.15141671735403"><ele>33.0</ele><time>2026-04-19T09:51:56.904Z</time></trkpt><trkpt lat="41.89732956388184" lon="16.15124126629257"><ele>33.0</ele><time>2026-04-19T09:51:57.904Z</time></trkpt><trkpt lat="41.8973467133975" lon="16.151065552419094"><ele>32.5</ele><time>2026-04-19T09:51:58.904Z</time></trkpt><trkpt lat="41.897361969154545" lon="16.15089792656929"><ele>32.0</ele><time>2026-04-19T09:51:59.904Z</time></trkpt><trkpt lat="41.89737816619727" lon="16.15074916437935"><ele>31.5</ele><time>2026-04-19T09:52:00.904Z</time></trkpt><trkpt lat="41.89739531682216" lon="16.15059946286349"><ele>31.0</ele><time>2026-04-19T09:52:01.904Z</time></trkpt><trkpt lat="41.89741127399542" lon="16.150454604721265"><ele>31.0</ele><time>2026-04-19T09:52:02.904Z</time></trkpt><trkpt lat="41.89742915643657" lon="16.150309353670956"><ele>31.0</ele><time>2026-04-19T09:52:03.904Z</time></trkpt><trkpt lat="41.89745160718035" lon="16.150156009546944"><ele>31.0</ele><time>2026-04-19T09:52:04.904Z</time></trkpt><trkpt lat="41.8974864882126" lon="16.149997050299515"><ele>31.0</ele><time>2026-04-19T09:52:05.904Z</time></trkpt><trkpt lat="41.89752644971295" lon="16.14984526477911"><ele>31.0</ele><time>2026-04-19T09:52:06.904Z</time></trkpt><trkpt lat="41.89756783510781" lon="16.149704829562367"><ele>31.0</ele><time>2026-04-19T09:52:07.904Z</time></trkpt><trkpt lat="41.897609385237295" lon="16.149567451608647"><ele>31.0</ele><time>2026-04-19T09:52:08.904Z</time></trkpt><trkpt lat="41.8976509736853" lon="16.149444572142503"><ele>31.0</ele><time>2026-04-19T09:52:09.904Z</time></trkpt><trkpt lat="41.89769634836105" lon="16.14933663407801"><ele>31.0</ele><time>2026-04-19T09:52:10.904Z</time></trkpt><trkpt lat="41.89773489078709" lon="16.14922165390679"><ele>31.0</ele><time>2026-04-19T09:52:11.904Z</time></trkpt><trkpt lat="41.897768044749064" lon="16.149132915499077"><ele>31.0</ele><time>2026-04-19T09:52:12.904Z</time></trkpt><trkpt lat="41.897828243884476" lon="16.149001618162465"><ele>31.0</ele><time>2026-04-19T09:52:14.904Z</time></trkpt><trkpt lat="41.89791494469307" lon="16.148959082566314"><ele>31.0</ele><time>2026-04-19T09:52:16.904Z</time></trkpt><trkpt lat="41.897979945123396" lon="16.148997975541842"><ele>31.0</ele><time>2026-04-19T09:52:17.904Z</time></trkpt><trkpt lat="41.89806767714897" lon="16.14906199853972"><ele>31.0</ele><time>2026-04-19T09:52:18.904Z</time></trkpt><trkpt lat="41.89816123412871" lon="16.149127534864938"><ele>31.0</ele><time>2026-04-19T09:52:19.904Z</time></trkpt><trkpt lat="41.898267590404004" lon="16.149191287631623"><ele>31.0</ele><time>2026-04-19T09:52:20.904Z</time></trkpt><trkpt lat="41.8983713622902" lon="16.14925655144965"><ele>31.0</ele><time>2026-04-19T09:52:21.904Z</time></trkpt><trkpt lat="41.89847418349518" lon="16.149326485401666"><ele>31.8</ele><time>2026-04-19T09:52:22.904Z</time></trkpt><trkpt lat="41.89857442707648" lon="16.149384319355367"><ele>32.6</ele><time>2026-04-19T09:52:23.904Z</time></trkpt><trkpt lat="41.898674059690805" lon="16.149444519977653"><ele>33.4</ele><time>2026-04-19T09:52:24.904Z</time></trkpt><trkpt lat="41.89877290681193" lon="16.149504298632284"><ele>34.2</ele><time>2026-04-19T09:52:25.904Z</time></trkpt><trkpt lat="41.8988723627948" lon="16.149564710528207"><ele>35.0</ele><time>2026-04-19T09:52:26.904Z</time></trkpt><trkpt lat="41.89896783166075" lon="16.149629777460405"><ele>35.0</ele><time>2026-04-19T09:52:27.904Z</time></trkpt><trkpt lat="41.899062593287844" lon="16.149682678676392"><ele>35.0</ele><time>2026-04-19T09:52:28.904Z</time></trkpt><trkpt lat="41.899147039305014" lon="16.149743925225582"><ele>35.0</ele><time>2026-04-19T09:52:29.904Z</time></trkpt><trkpt lat="41.8992364339993" lon="16.149798204807045"><ele>35.0</ele><time>2026-04-19T09:52:30.904Z</time></trkpt><trkpt lat="41.89932906450317" lon="16.14986489620612"><ele>35.0</ele><time>2026-04-19T09:52:31.904Z</time></trkpt><trkpt lat="41.8994137502719" lon="16.149920951590747"><ele>34.8</ele><time>2026-04-19T09:52:32.904Z</time></trkpt><trkpt lat="41.899499810137605" lon="16.14998866075314"><ele>34.6</ele><time>2026-04-19T09:52:33.904Z</time></trkpt><trkpt lat="41.8995782308297" lon="16.15003896626776"><ele>34.4</ele><time>2026-04-19T09:52:34.904Z</time></trkpt><trkpt lat="41.899661148692346" lon="16.150088521715507"><ele>34.2</ele><time>2026-04-19T09:52:35.904Z</time></trkpt><trkpt lat="41.89975684458047" lon="16.15015189265448"><ele>34.0</ele><time>2026-04-19T09:52:36.904Z</time></trkpt><trkpt lat="41.89986054220737" lon="16.150214410372087"><ele>34.0</ele><time>2026-04-19T09:52:37.904Z</time></trkpt><trkpt lat="41.89996174927566" lon="16.150277814806056"><ele>34.0</ele><time>2026-04-19T09:52:38.904Z</time></trkpt><trkpt lat="41.90006440418126" lon="16.150339373333807"><ele>34.0</ele><time>2026-04-19T09:52:39.904Z</time></trkpt><trkpt lat="41.90016744722644" lon="16.15040084397108"><ele>34.0</ele><time>2026-04-19T09:52:40.904Z</time></trkpt><trkpt lat="41.90026837598257" lon="16.150462410444838"><ele>34.0</ele><time>2026-04-19T09:52:41.904Z</time></trkpt><trkpt lat="41.90036475888395" lon="16.150513137306294"><ele>33.4</ele><time>2026-04-19T09:52:42.904Z</time></trkpt><trkpt lat="41.90046508750729" lon="16.150568827819395"><ele>32.8</ele><time>2026-04-19T09:52:43.904Z</time></trkpt><trkpt lat="41.90055686940712" lon="16.150627811784943"><ele>32.2</ele><time>2026-04-19T09:52:44.904Z</time></trkpt><trkpt lat="41.90064283225109" lon="16.150697825693907"><ele>31.6</ele><time>2026-04-19T09:52:45.904Z</time></trkpt><trkpt lat="41.900722502888634" lon="16.150771155905403"><ele>31.0</ele><time>2026-04-19T09:52:46.904Z</time></trkpt><trkpt lat="41.90079751407823" lon="16.150854912122654"><ele>31.0</ele><time>2026-04-19T09:52:47.904Z</time></trkpt><trkpt lat="41.900881341606286" lon="16.150945807976278"><ele>31.0</ele><time>2026-04-19T09:52:48.904Z</time></trkpt><trkpt lat="41.90097381174891" lon="16.151035614856422"><ele>31.0</ele><time>2026-04-19T09:52:49.904Z</time></trkpt><trkpt lat="41.90108296808334" lon="16.151117082142225"><ele>31.0</ele><time>2026-04-19T09:52:50.904Z</time></trkpt><trkpt lat="41.90120758279817" lon="16.15118100103256"><ele>32.0</ele><time>2026-04-19T09:52:51.904Z</time></trkpt><trkpt lat="41.90133673674362" lon="16.151215539695205"><ele>33.0</ele><time>2026-04-19T09:52:52.904Z</time></trkpt><trkpt lat="41.901458137642216" lon="16.151232349759205"><ele>34.0</ele><time>2026-04-19T09:52:53.904Z</time></trkpt><trkpt lat="41.90157008752542" lon="16.151274303172634"><ele>35.0</ele><time>2026-04-19T09:52:54.904Z</time></trkpt><trkpt lat="41.90166500097466" lon="16.151333239409308"><ele>32.75</ele><time>2026-04-19T09:52:55.904Z</time></trkpt><trkpt lat="41.901759778483886" lon="16.151416630115058"><ele>30.5</ele><time>2026-04-19T09:52:56.904Z</time></trkpt><trkpt lat="41.90184556641899" lon="16.151546348894545"><ele>28.25</ele><time>2026-04-19T09:52:57.904Z</time></trkpt><trkpt lat="41.90193694833091" lon="16.1516537285156"><ele>26.0</ele><time>2026-04-19T09:52:58.904Z</time></trkpt><trkpt lat="41.90202239301388" lon="16.151760169040053"><ele>26.0</ele><time>2026-04-19T09:52:59.904Z</time></trkpt><trkpt lat="41.90210684558658" lon="16.15186978191633"><ele>26.0</ele><time>2026-04-19T09:53:00.904Z</time></trkpt><trkpt lat="41.90219403812377" lon="16.15197995275362"><ele>26.0</ele><time>2026-04-19T09:53:01.904Z</time></trkpt><trkpt lat="41.9022980177495" lon="16.15207634667462"><ele>26.0</ele><time>2026-04-19T09:53:02.904Z</time></trkpt><trkpt lat="41.90240532049343" lon="16.152174620044992"><ele>26.0</ele><time>2026-04-19T09:53:03.904Z</time></trkpt><trkpt lat="41.90251132907894" lon="16.152272395452737"><ele>26.0</ele><time>2026-04-19T09:53:04.904Z</time></trkpt><trkpt lat="41.9026149200283" lon="16.15236959559398"><ele>26.0</ele><time>2026-04-19T09:53:05.904Z</time></trkpt><trkpt lat="41.90272231300972" lon="16.152462405182202"><ele>26.0</ele><time>2026-04-19T09:53:06.904Z</time></trkpt><trkpt lat="41.90282203561551" lon="16.15255989770802"><ele>23.75</ele><time>2026-04-19T09:53:07.904Z</time></trkpt><trkpt lat="41.90292171051019" lon="16.15265952069809"><ele>21.5</ele><time>2026-04-19T09:53:08.904Z</time></trkpt><trkpt lat="41.90301833911064" lon="16.152758659854342"><ele>19.25</ele><time>2026-04-19T09:53:09.904Z</time></trkpt><trkpt lat="41.903120956168515" lon="16.15284642978188"><ele>17.0</ele><time>2026-04-19T09:53:10.904Z</time></trkpt><trkpt lat="41.90322781739844" lon="16.15291671327064"><ele>17.0</ele><time>2026-04-19T09:53:11.904Z</time></trkpt><trkpt lat="41.90333826441793" lon="16.152967414157715"><ele>17.0</ele><time>2026-04-19T09:53:12.904Z</time></trkpt><trkpt lat="41.90345616233237" lon="16.152983454563902"><ele>17.0</ele><time>2026-04-19T09:53:13.904Z</time></trkpt><trkpt lat="41.903568261068294" lon="16.15294833402235"><ele>17.0</ele><time>2026-04-19T09:53:14.904Z</time></trkpt><trkpt lat="41.903668600715996" lon="16.152862720358538"><ele>14.2</ele><time>2026-04-19T09:53:15.904Z</time></trkpt><trkpt lat="41.90376384284276" lon="16.15279150327628"><ele>11.399999999999999</ele><time>2026-04-19T09:53:16.904Z</time></trkpt><trkpt lat="41.90384719113368" lon="16.152698666154926"><ele>8.6</ele><time>2026-04-19T09:53:17.904Z</time></trkpt><trkpt lat="41.90391792581324" lon="16.15260519983004"><ele>5.8</ele><time>2026-04-19T09:53:18.904Z</time></trkpt><trkpt lat="41.90397700120998" lon="16.1524789447532"><ele>3.0</ele><time>2026-04-19T09:53:19.904Z</time></trkpt><trkpt lat="41.90402191519902" lon="16.15234713261703"><ele>3.0</ele><time>2026-04-19T09:53:20.904Z</time></trkpt><trkpt lat="41.904059304001116" lon="16.15222278134386"><ele>3.0</ele><time>2026-04-19T09:53:21.904Z</time></trkpt><trkpt lat="41.904103071352" lon="16.152089860821118"><ele>3.0</ele><time>2026-04-19T09:53:22.904Z</time></trkpt><trkpt lat="41.90413375584877" lon="16.151945784222207"><ele>3.0</ele><time>2026-04-19T09:53:23.904Z</time></trkpt><trkpt lat="41.90413157382725" lon="16.151804836531294"><ele>3.0</ele><time>2026-04-19T09:53:24.904Z</time></trkpt><trkpt lat="41.90408537503434" lon="16.15168551570223"><ele>3.0</ele><time>2026-04-19T09:53:25.904Z</time></trkpt><trkpt lat="41.90400835634538" lon="16.151571889709555"><ele>3.0</ele><time>2026-04-19T09:53:26.904Z</time></trkpt><trkpt lat="41.9039297154834" lon="16.15146910206889"><ele>3.0</ele><time>2026-04-19T09:53:27.904Z</time></trkpt><trkpt lat="41.903865821402974" lon="16.151360372471927"><ele>3.0</ele><time>2026-04-19T09:53:28.904Z</time></trkpt><trkpt lat="41.903833253176785" lon="16.151238256642802"><ele>3.0</ele><time>2026-04-19T09:53:29.904Z</time></trkpt><trkpt lat="41.90383556165102" lon="16.15113040168399"><ele>2.8</ele><time>2026-04-19T09:53:30.904Z</time></trkpt><trkpt lat="41.90388003639156" lon="16.15102682675243"><ele>2.5999999999999996</ele><time>2026-04-19T09:53:31.904Z</time></trkpt><trkpt lat="41.903958889260394" lon="16.150955112356815"><ele>2.4000000000000004</ele><time>2026-04-19T09:53:32.904Z</time></trkpt><trkpt lat="41.90404887884975" lon="16.150861143739146"><ele>2.2</ele><time>2026-04-19T09:53:33.904Z</time></trkpt><trkpt lat="41.90412450000297" lon="16.150761779612537"><ele>2.0</ele><time>2026-04-19T09:53:34.902Z</time></trkpt><trkpt lat="41.90420358356099" lon="16.15067129359538"><ele>2.0</ele><time>2026-04-19T09:53:35.903Z</time></trkpt><trkpt lat="41.904280763597264" lon="16.150581480456975"><ele>2.0</ele><time>2026-04-19T09:53:36.903Z</time></trkpt><trkpt lat="41.90435910842357" lon="16.15049068461362"><ele>2.0</ele><time>2026-04-19T09:53:37.902Z</time></trkpt><trkpt lat="41.904441756778006" lon="16.15038941435429"><ele>2.0</ele><time>2026-04-19T09:53:38.902Z</time></trkpt><trkpt lat="41.90451841785142" lon="16.150287031870658"><ele>2.0</ele><time>2026-04-19T09:53:39.902Z</time></trkpt><trkpt lat="41.904586624759006" lon="16.15017976680226"><ele>1.9999999999999998</ele><time>2026-04-19T09:53:40.902Z</time></trkpt><trkpt lat="41.90465035533661" lon="16.150075541562057"><ele>2.0</ele><time>2026-04-19T09:53:41.902Z</time></trkpt><trkpt lat="41.90470563392958" lon="16.149977577190274"><ele>2.0</ele><time>2026-04-19T09:53:42.902Z</time></trkpt><trkpt lat="41.90475662440534" lon="16.1498799649846"><ele>2.0</ele><time>2026-04-19T09:53:43.902Z</time></trkpt><trkpt lat="41.90480503041511" lon="16.149785076744102"><ele>1.9999999999999998</ele><time>2026-04-19T09:53:44.902Z</time></trkpt><trkpt lat="41.90484653415153" lon="16.149694439667847"><ele>2.0</ele><time>2026-04-19T09:53:45.902Z</time></trkpt><trkpt lat="41.904882446739585" lon="16.149604298077694"><ele>2.4000000000000004</ele><time>2026-04-19T09:53:46.902Z</time></trkpt><trkpt lat="41.90490474556137" lon="16.149516742788734"><ele>2.8000000000000003</ele><time>2026-04-19T09:53:47.902Z</time></trkpt><trkpt lat="41.904911517859624" lon="16.14942875506625"><ele>3.2</ele><time>2026-04-19T09:53:48.902Z</time></trkpt><trkpt lat="41.90494372833255" lon="16.149273795894032"><ele>3.6</ele><time>2026-04-19T09:53:50.902Z</time></trkpt><trkpt lat="41.90503617505434" lon="16.149212177288295"><ele>4.0</ele><time>2026-04-19T09:53:52.902Z</time></trkpt><trkpt lat="41.90512861723746" lon="16.14929511443328"><ele>3.9999999999999996</ele><time>2026-04-19T09:53:54.902Z</time></trkpt><trkpt lat="41.905212345772874" lon="16.1494024385956"><ele>4.0</ele><time>2026-04-19T09:53:56.902Z</time></trkpt><trkpt lat="41.90527065564636" lon="16.149494743309205"><ele>4.0</ele><time>2026-04-19T09:53:58.902Z</time></trkpt><trkpt lat="41.90522928141788" lon="16.149586194240136"><ele>4.0</ele><time>2026-04-19T09:54:00.902Z</time></trkpt><trkpt lat="41.90516500443633" lon="16.149636332036856"><ele>3.9999999999999996</ele><time>2026-04-19T09:54:01.902Z</time></trkpt><trkpt lat="41.90510063106949" lon="16.14971242436246"><ele>4.0</ele><time>2026-04-19T09:54:02.902Z</time></trkpt><trkpt lat="41.905037932408504" lon="16.14982872872392"><ele>3.6666666666666665</ele><time>2026-04-19T09:54:03.902Z</time></trkpt><trkpt lat="41.9049905222922" lon="16.149930961691695"><ele>3.333333333333333</ele><time>2026-04-19T09:54:04.902Z</time></trkpt><trkpt lat="41.90494309457414" lon="16.15002520486264"><ele>3.0</ele><time>2026-04-19T09:54:05.902Z</time></trkpt><trkpt lat="41.904890673242114" lon="16.150120649544505"><ele>2.6666666666666665</ele><time>2026-04-19T09:54:06.902Z</time></trkpt><trkpt lat="41.90483694378106" lon="16.15021714328429"><ele>2.333333333333333</ele><time>2026-04-19T09:54:07.902Z</time></trkpt><trkpt lat="41.904796934172516" lon="16.150302593913366"><ele>2.0</ele><time>2026-04-19T09:54:08.902Z</time></trkpt><trkpt lat="41.904761982148486" lon="16.15037848373747"><ele>2.0</ele><time>2026-04-19T09:54:09.902Z</time></trkpt><trkpt lat="41.90473676208387" lon="16.15051980276719"><ele>2.0</ele><time>2026-04-19T09:54:11.902Z</time></trkpt><trkpt lat="41.90480954364421" lon="16.150603694608222"><ele>2.0</ele><time>2026-04-19T09:54:13.902Z</time></trkpt><trkpt lat="41.904914516002435" lon="16.150594045469408"><ele>2.0</ele><time>2026-04-19T09:54:15.902Z</time></trkpt><trkpt lat="41.90503315140921" lon="16.150581937911426"><ele>2.0</ele><time>2026-04-19T09:54:17.902Z</time></trkpt><trkpt lat="41.90509952896159" lon="16.150570011385376"><ele>2.0</ele><time>2026-04-19T09:54:18.902Z</time></trkpt><trkpt lat="41.905165863673794" lon="16.150551356313446"><ele>1.9999999999999998</ele><time>2026-04-19T09:54:19.902Z</time></trkpt><trkpt lat="41.90522746172114" lon="16.15053233148466"><ele>2.0</ele><time>2026-04-19T09:54:20.902Z</time></trkpt><trkpt lat="41.90529283637426" lon="16.150517873895048"><ele>2.0</ele><time>2026-04-19T09:54:21.902Z</time></trkpt><trkpt lat="41.90535929658022" lon="16.150500941550714"><ele>1.9999999999999998</ele><time>2026-04-19T09:54:22.902Z</time></trkpt><trkpt lat="41.90542055469288" lon="16.150479414747313"><ele>2.0</ele><time>2026-04-19T09:54:23.902Z</time></trkpt><trkpt lat="41.90548250670584" lon="16.15045751573994"><ele>2.0</ele><time>2026-04-19T09:54:24.902Z</time></trkpt><trkpt lat="41.905597718978285" lon="16.150402227125298"><ele>1.9999999999999998</ele><time>2026-04-19T09:54:26.902Z</time></trkpt><trkpt lat="41.905663571513045" lon="16.15037448671172"><ele>2.0</ele><time>2026-04-19T09:54:27.902Z</time></trkpt><trkpt lat="41.90573387971255" lon="16.150360956001695"><ele>2.0</ele><time>2026-04-19T09:54:28.902Z</time></trkpt><trkpt lat="41.90580778180083" lon="16.150361278980697"><ele>2.0</ele><time>2026-04-19T09:54:29.902Z</time></trkpt><trkpt lat="41.905892615244035" lon="16.150358543318912"><ele>1.9999999999999998</ele><time>2026-04-19T09:54:30.902Z</time></trkpt><trkpt lat="41.905974045886396" lon="16.15035217115524"><ele>2.0</ele><time>2026-04-19T09:54:31.902Z</time></trkpt><trkpt lat="41.90604981903722" lon="16.1503522131222"><ele>1.8333333333333333</ele><time>2026-04-19T09:54:32.902Z</time></trkpt><trkpt lat="41.90613216170089" lon="16.150351680358966"><ele>1.6666666666666665</ele><time>2026-04-19T09:54:33.902Z</time></trkpt><trkpt lat="41.90620868274079" lon="16.150355759425"><ele>1.5</ele><time>2026-04-19T09:54:34.902Z</time></trkpt><trkpt lat="41.90628641777991" lon="16.150360952734683"><ele>1.3333333333333333</ele><time>2026-04-19T09:54:35.902Z</time></trkpt><trkpt lat="41.90636568306197" lon="16.150369595140653"><ele>1.1666666666666665</ele><time>2026-04-19T09:54:36.902Z</time></trkpt><trkpt lat="41.90643750561581" lon="16.150380199256535"><ele>1.0</ele><time>2026-04-19T09:54:37.902Z</time></trkpt><trkpt lat="41.90651561911619" lon="16.15038785367756"><ele>1.0</ele><time>2026-04-19T09:54:38.902Z</time></trkpt><trkpt lat="41.90659654756851" lon="16.150396931907117"><ele>0.9999999999999999</ele><time>2026-04-19T09:54:39.902Z</time></trkpt><trkpt lat="41.906669509227946" lon="16.15040401840617"><ele>1.0</ele><time>2026-04-19T09:54:40.902Z</time></trkpt><trkpt lat="41.90673357651924" lon="16.15041250318143"><ele>1.0</ele><time>2026-04-19T09:54:41.902Z</time></trkpt><trkpt lat="41.906804037210726" lon="16.15043037723532"><ele>0.9999999999999999</ele><time>2026-04-19T09:54:42.902Z</time></trkpt><trkpt lat="41.90687263601449" lon="16.150466961651613"><ele>1.0</ele><time>2026-04-19T09:54:43.902Z</time></trkpt><trkpt lat="41.90693677599592" lon="16.150522786868645"><ele>1.0</ele><time>2026-04-19T09:54:44.902Z</time></trkpt><trkpt lat="41.90700182517361" lon="16.15058242548402"><ele>1.0</ele><time>2026-04-19T09:54:45.902Z</time></trkpt><trkpt lat="41.90706322398451" lon="16.150646005257745"><ele>0.9999999999999999</ele><time>2026-04-19T09:54:46.902Z</time></trkpt><trkpt lat="41.90711874998843" lon="16.15070940500946"><ele>1.0</ele><time>2026-04-19T09:54:47.902Z</time></trkpt><trkpt lat="41.90717907212347" lon="16.150763043244066"><ele>1.0</ele><time>2026-04-19T09:54:48.902Z</time></trkpt><trkpt lat="41.907241122193625" lon="16.15081832744216"><ele>0.9999999999999999</ele><time>2026-04-19T09:54:49.902Z</time></trkpt><trkpt lat="41.90730502530091" lon="16.150874308420782"><ele>1.0</ele><time>2026-04-19T09:54:50.902Z</time></trkpt><trkpt lat="41.90736546247875" lon="16.150928734567294"><ele>1.0</ele><time>2026-04-19T09:54:51.902Z</time></trkpt><trkpt lat="41.90743000388027" lon="16.150989189151606"><ele>1.3333333333333333</ele><time>2026-04-19T09:54:52.902Z</time></trkpt><trkpt lat="41.90749196076683" lon="16.15103854800183"><ele>1.6666666666666665</ele><time>2026-04-19T09:54:53.902Z</time></trkpt><trkpt lat="41.90754978714555" lon="16.151093332396947"><ele>2.0</ele><time>2026-04-19T09:54:54.902Z</time></trkpt><trkpt lat="41.90764518561712" lon="16.151171143399"><ele>2.3333333333333335</ele><time>2026-04-19T09:54:56.902Z</time></trkpt><trkpt lat="41.90771542373534" lon="16.151159033599157"><ele>2.6666666666666665</ele><time>2026-04-19T09:54:58.902Z</time></trkpt><trkpt lat="41.90778467255522" lon="16.151023016257504"><ele>3.0</ele><time>2026-04-19T09:55:00.902Z</time></trkpt><trkpt lat="41.90782543629673" lon="16.150958000921516"><ele>3.0</ele><time>2026-04-19T09:55:01.902Z</time></trkpt><trkpt lat="41.90788092907486" lon="16.150892592928077"><ele>3.0</ele><time>2026-04-19T09:55:02.902Z</time></trkpt><trkpt lat="41.90793224758007" lon="16.150837238136866"><ele>3.0</ele><time>2026-04-19T09:55:03.902Z</time></trkpt><trkpt lat="41.908027528784864" lon="16.150773051093584"><ele>3.0</ele><time>2026-04-19T09:55:05.902Z</time></trkpt><trkpt lat="41.908101661702965" lon="16.15073669858049"><ele>3.0</ele><time>2026-04-19T09:55:07.902Z</time></trkpt><trkpt lat="41.908158574651075" lon="16.150659505643087"><ele>3.0</ele><time>2026-04-19T09:55:10.902Z</time></trkpt><trkpt lat="41.90821984621326" lon="16.150630574684264"><ele>3.0</ele><time>2026-04-19T09:55:13.902Z</time></trkpt><trkpt lat="41.90829496098181" lon="16.15067762541496"><ele>3.0</ele><time>2026-04-19T09:55:25.902Z</time></trkpt><trkpt lat="41.90833786706912" lon="16.15078128783234"><ele>3.0</ele><time>2026-04-19T09:55:28.902Z</time></trkpt><trkpt lat="41.90833073838665" lon="16.15090691747673"><ele>3.0</ele><time>2026-04-19T09:55:31.902Z</time></trkpt><trkpt lat="41.90835302417983" lon="16.15100446422755"><ele>3.0</ele><time>2026-04-19T09:55:33.902Z</time></trkpt><trkpt lat="41.90837131636999" lon="16.151096241797383"><ele>3.0</ele><time>2026-04-19T09:55:35.902Z</time></trkpt><trkpt lat="41.908385333591475" lon="16.151229002106135"><ele>3.0</ele><time>2026-04-19T09:55:37.902Z</time></trkpt><trkpt lat="41.90836601554422" lon="16.15136467791116"><ele>3.0</ele><time>2026-04-19T09:55:39.902Z</time></trkpt><trkpt lat="41.90837725567771" lon="16.15150082391368"><ele>3.0</ele><time>2026-04-19T09:55:41.901Z</time></trkpt><trkpt lat="41.908404056868626" lon="16.151619978548307"><ele>3.0</ele><time>2026-04-19T09:55:43.901Z</time></trkpt><trkpt lat="41.908398329650275" lon="16.15172205690736"><ele>3.0</ele><time>2026-04-19T09:55:45.901Z</time></trkpt><trkpt lat="41.908428574981386" lon="16.151838503919755"><ele>2.714285714285714</ele><time>2026-04-19T09:55:48.901Z</time></trkpt><trkpt lat="41.908471663807426" lon="16.151933653558658"><ele>2.4285714285714284</ele><time>2026-04-19T09:55:51.901Z</time></trkpt><trkpt lat="41.90848996071787" lon="16.152017113383124"><ele>2.142857142857143</ele><time>2026-04-19T09:55:54.901Z</time></trkpt><trkpt lat="41.90852011358304" lon="16.152119262229256"><ele>1.857142857142857</ele><time>2026-04-19T09:55:58.901Z</time></trkpt><trkpt lat="41.90853558956921" lon="16.152203159488934"><ele>1.5714285714285712</ele><time>2026-04-19T09:56:01.901Z</time></trkpt><trkpt lat="41.908536414332545" lon="16.15228840613392"><ele>1.2857142857142856</ele><time>2026-04-19T09:56:03.901Z</time></trkpt><trkpt lat="41.90851352144075" lon="16.152370820713948"><ele>1.0</ele><time>2026-04-19T09:56:05.901Z</time></trkpt><trkpt lat="41.90848461312481" lon="16.152458904613503"><ele>0.8571428571428571</ele><time>2026-04-19T09:56:07.901Z</time></trkpt><trkpt lat="41.90845201115807" lon="16.15253331908874"><ele>0.7142857142857142</ele><time>2026-04-19T09:56:09.901Z</time></trkpt><trkpt lat="41.90841510272304" lon="16.15263502759534"><ele>0.5714285714285714</ele><time>2026-04-19T09:56:12.901Z</time></trkpt><trkpt lat="41.90836522654459" lon="16.152692439628453"><ele>0.42857142857142855</ele><time>2026-04-19T09:56:15.901Z</time></trkpt><trkpt lat="41.908296073078056" lon="16.152754266679334"><ele>0.2857142857142857</ele><time>2026-04-19T09:56:18.901Z</time></trkpt><trkpt lat="41.90823778153322" lon="16.152786678136184"><ele>0.14285714285714285</ele><time>2026-04-19T09:56:44.901Z</time></trkpt><trkpt lat="41.908166651336764" lon="16.152786923567074"><ele>0.0</ele><time>2026-04-19T09:56:48.901Z</time></trkpt><trkpt lat="41.90810644148419" lon="16.15282335828011"><ele>3.0</ele><time>2026-04-19T09:56:52.901Z</time></trkpt><trkpt lat="41.90804443364505" lon="16.15287200332409"><ele>3.0</ele><time>2026-04-19T09:57:00.901Z</time></trkpt><trkpt lat="41.907991302571055" lon="16.15281806433963"><ele>3.0</ele><time>2026-04-19T10:01:45.902Z</time></trkpt></trkseg></trk></gpx>